<?xml version="1.0" encoding="UTF-8" standalone="no" ?>
<gpx xmlns="http://www.topografix.com/GPX/1/1" xmlns:xsi="http://www.w3.org/2001/XMLSchema-instance" xsi:schemaLocation="http://www.topografix.com/GPX/1/1 http://www.topografix.com/GPX/1/1/gpx.xsd" version="1.1" creator="VisuGPX - https://www.visugpx.com">
  <metadata>
    <name>UTAG 2012--</name>
    <desc><![CDATA[Sortida OIX I Arribada a Besalu.]]></desc>
  </metadata>
  <trk>
    <name><![CDATA[UTAG 2012]]></name>
    <trkseg>
      <trkpt lat="42.27122" lon="2.52861">
        <ele>428.444</ele>
        <time>2012-03-31T04:40:23Z</time>
      </trkpt>
      <trkpt lat="42.2712" lon="2.5286">
        <ele>428.405</ele>
        <time>2012-03-31T04:40:24Z</time>
      </trkpt>
      <trkpt lat="42.27118" lon="2.52859">
        <ele>425.015</ele>
        <time>2012-03-31T04:40:35Z</time>
      </trkpt>
      <trkpt lat="42.27118" lon="2.52859">
        <ele>421.707</ele>
        <time>2012-03-31T04:40:46Z</time>
      </trkpt>
      <trkpt lat="42.27117" lon="2.5286">
        <ele>418.886</ele>
        <time>2012-03-31T04:40:58Z</time>
      </trkpt>
      <trkpt lat="42.27117" lon="2.52859">
        <ele>415.41</ele>
        <time>2012-03-31T04:41:13Z</time>
      </trkpt>
      <trkpt lat="42.27119" lon="2.52859">
        <ele>412.55</ele>
        <time>2012-03-31T04:41:44Z</time>
      </trkpt>
      <trkpt lat="42.27119" lon="2.52859">
        <ele>414.055</ele>
        <time>2012-03-31T04:42:01Z</time>
      </trkpt>
      <trkpt lat="42.2712" lon="2.52859">
        <ele>412.55</ele>
        <time>2012-03-31T04:42:33Z</time>
      </trkpt>
      <trkpt lat="42.2712" lon="2.52859">
        <ele>412.583</ele>
        <time>2012-03-31T04:43:09Z</time>
      </trkpt>
      <trkpt lat="42.27119" lon="2.52859">
        <ele>412.512</ele>
        <time>2012-03-31T04:43:55Z</time>
      </trkpt>
      <trkpt lat="42.27119" lon="2.52859">
        <ele>412.512</ele>
        <time>2012-03-31T04:44:34Z</time>
      </trkpt>
      <trkpt lat="42.27118" lon="2.52859">
        <ele>412.532</ele>
        <time>2012-03-31T04:45:18Z</time>
      </trkpt>
      <trkpt lat="42.27118" lon="2.52859">
        <ele>414.505</ele>
        <time>2012-03-31T04:45:53Z</time>
      </trkpt>
      <trkpt lat="42.27118" lon="2.52859">
        <ele>413.007</ele>
        <time>2012-03-31T04:46:30Z</time>
      </trkpt>
      <trkpt lat="42.27118" lon="2.52859">
        <ele>413.033</ele>
        <time>2012-03-31T04:47:10Z</time>
      </trkpt>
      <trkpt lat="42.27118" lon="2.52858">
        <ele>413.047</ele>
        <time>2012-03-31T04:47:35Z</time>
      </trkpt>
      <trkpt lat="42.27116" lon="2.52854">
        <ele>412.147</ele>
        <time>2012-03-31T04:47:44Z</time>
      </trkpt>
      <trkpt lat="42.27113" lon="2.52844">
        <ele>412.182</ele>
        <time>2012-03-31T04:47:49Z</time>
      </trkpt>
      <trkpt lat="42.27112" lon="2.52837">
        <ele>411.697</ele>
        <time>2012-03-31T04:47:52Z</time>
      </trkpt>
      <trkpt lat="42.2712" lon="2.52824">
        <ele>413.05</ele>
        <time>2012-03-31T04:48:01Z</time>
      </trkpt>
      <trkpt lat="42.27122" lon="2.52829">
        <ele>413.049</ele>
        <time>2012-03-31T04:48:03Z</time>
      </trkpt>
      <trkpt lat="42.27127" lon="2.52849">
        <ele>414.066</ele>
        <time>2012-03-31T04:48:11Z</time>
      </trkpt>
      <trkpt lat="42.2713" lon="2.5286">
        <ele>415.929</ele>
        <time>2012-03-31T04:48:18Z</time>
      </trkpt>
      <trkpt lat="42.27132" lon="2.52861">
        <ele>415.921</ele>
        <time>2012-03-31T04:48:19Z</time>
      </trkpt>
      <trkpt lat="42.27156" lon="2.52865">
        <ele>417.407</ele>
        <time>2012-03-31T04:48:31Z</time>
      </trkpt>
      <trkpt lat="42.27171" lon="2.52847">
        <ele>419.878</ele>
        <time>2012-03-31T04:48:44Z</time>
      </trkpt>
      <trkpt lat="42.27192" lon="2.52839">
        <ele>421.232</ele>
        <time>2012-03-31T04:48:56Z</time>
      </trkpt>
      <trkpt lat="42.27201" lon="2.52836">
        <ele>422.662</ele>
        <time>2012-03-31T04:49:02Z</time>
      </trkpt>
      <trkpt lat="42.27212" lon="2.52826">
        <ele>423.147</ele>
        <time>2012-03-31T04:49:09Z</time>
      </trkpt>
      <trkpt lat="42.27217" lon="2.5281">
        <ele>424.642</ele>
        <time>2012-03-31T04:49:17Z</time>
      </trkpt>
      <trkpt lat="42.27227" lon="2.52791">
        <ele>427.025</ele>
        <time>2012-03-31T04:49:27Z</time>
      </trkpt>
      <trkpt lat="42.27235" lon="2.52772">
        <ele>428.464</ele>
        <time>2012-03-31T04:49:37Z</time>
      </trkpt>
      <trkpt lat="42.27231" lon="2.52766">
        <ele>428.429</ele>
        <time>2012-03-31T04:49:40Z</time>
      </trkpt>
      <trkpt lat="42.27228" lon="2.52761">
        <ele>428.4</ele>
        <time>2012-03-31T04:49:42Z</time>
      </trkpt>
      <trkpt lat="42.27226" lon="2.52756">
        <ele>429.92</ele>
        <time>2012-03-31T04:49:45Z</time>
      </trkpt>
      <trkpt lat="42.27231" lon="2.52749">
        <ele>432.307</ele>
        <time>2012-03-31T04:49:50Z</time>
      </trkpt>
      <trkpt lat="42.27238" lon="2.5274">
        <ele>433.294</ele>
        <time>2012-03-31T04:49:56Z</time>
      </trkpt>
      <trkpt lat="42.27251" lon="2.5273">
        <ele>436.188</ele>
        <time>2012-03-31T04:50:06Z</time>
      </trkpt>
      <trkpt lat="42.27261" lon="2.52718">
        <ele>438.068</ele>
        <time>2012-03-31T04:50:14Z</time>
      </trkpt>
      <trkpt lat="42.2727" lon="2.52711">
        <ele>439.913</ele>
        <time>2012-03-31T04:50:20Z</time>
      </trkpt>
      <trkpt lat="42.27282" lon="2.52706">
        <ele>442.898</ele>
        <time>2012-03-31T04:50:29Z</time>
      </trkpt>
      <trkpt lat="42.27292" lon="2.52697">
        <ele>447.641</ele>
        <time>2012-03-31T04:50:36Z</time>
      </trkpt>
      <trkpt lat="42.27293" lon="2.52696">
        <ele>444.33</ele>
        <time>2012-03-31T04:50:37Z</time>
      </trkpt>
      <trkpt lat="42.27301" lon="2.5269">
        <ele>447.212</ele>
        <time>2012-03-31T04:50:43Z</time>
      </trkpt>
      <trkpt lat="42.27308" lon="2.52684">
        <ele>449.132</ele>
        <time>2012-03-31T04:50:49Z</time>
      </trkpt>
      <trkpt lat="42.27312" lon="2.52679">
        <ele>450.005</ele>
        <time>2012-03-31T04:50:53Z</time>
      </trkpt>
      <trkpt lat="42.27326" lon="2.52673">
        <ele>452.407</ele>
        <time>2012-03-31T04:51:02Z</time>
      </trkpt>
      <trkpt lat="42.27336" lon="2.52669">
        <ele>453.993</ele>
        <time>2012-03-31T04:51:09Z</time>
      </trkpt>
      <trkpt lat="42.27344" lon="2.52668">
        <ele>454.897</ele>
        <time>2012-03-31T04:51:14Z</time>
      </trkpt>
      <trkpt lat="42.27346" lon="2.52664">
        <ele>455.867</ele>
        <time>2012-03-31T04:51:19Z</time>
      </trkpt>
      <trkpt lat="42.27342" lon="2.52659">
        <ele>457.222</ele>
        <time>2012-03-31T04:51:23Z</time>
      </trkpt>
      <trkpt lat="42.27338" lon="2.52658">
        <ele>457.797</ele>
        <time>2012-03-31T04:51:26Z</time>
      </trkpt>
      <trkpt lat="42.27333" lon="2.52653">
        <ele>459.23</ele>
        <time>2012-03-31T04:51:31Z</time>
      </trkpt>
      <trkpt lat="42.2733" lon="2.52652">
        <ele>459.739</ele>
        <time>2012-03-31T04:51:33Z</time>
      </trkpt>
      <trkpt lat="42.27318" lon="2.52645">
        <ele>462.182</ele>
        <time>2012-03-31T04:51:43Z</time>
      </trkpt>
      <trkpt lat="42.27308" lon="2.52639">
        <ele>463.543</ele>
        <time>2012-03-31T04:51:52Z</time>
      </trkpt>
      <trkpt lat="42.27306" lon="2.52636">
        <ele>464.017</ele>
        <time>2012-03-31T04:51:55Z</time>
      </trkpt>
      <trkpt lat="42.27303" lon="2.52633">
        <ele>465.407</ele>
        <time>2012-03-31T04:51:58Z</time>
      </trkpt>
      <trkpt lat="42.27299" lon="2.52627">
        <ele>466.41</ele>
        <time>2012-03-31T04:52:02Z</time>
      </trkpt>
      <trkpt lat="42.27295" lon="2.52622">
        <ele>466.964</ele>
        <time>2012-03-31T04:52:06Z</time>
      </trkpt>
      <trkpt lat="42.2729" lon="2.52613">
        <ele>468.814</ele>
        <time>2012-03-31T04:52:13Z</time>
      </trkpt>
      <trkpt lat="42.27292" lon="2.52608">
        <ele>470.239</ele>
        <time>2012-03-31T04:52:17Z</time>
      </trkpt>
      <trkpt lat="42.27296" lon="2.52607">
        <ele>470.744</ele>
        <time>2012-03-31T04:52:21Z</time>
      </trkpt>
      <trkpt lat="42.27299" lon="2.52607">
        <ele>471.257</ele>
        <time>2012-03-31T04:52:23Z</time>
      </trkpt>
      <trkpt lat="42.27306" lon="2.52607">
        <ele>472.666</ele>
        <time>2012-03-31T04:52:28Z</time>
      </trkpt>
      <trkpt lat="42.27311" lon="2.52606">
        <ele>473.153</ele>
        <time>2012-03-31T04:52:31Z</time>
      </trkpt>
      <trkpt lat="42.2732" lon="2.526">
        <ele>473.104</ele>
        <time>2012-03-31T04:52:37Z</time>
      </trkpt>
      <trkpt lat="42.27321" lon="2.52598">
        <ele>475.514</ele>
        <time>2012-03-31T04:52:39Z</time>
      </trkpt>
      <trkpt lat="42.27334" lon="2.52592">
        <ele>477.407</ele>
        <time>2012-03-31T04:52:49Z</time>
      </trkpt>
      <trkpt lat="42.27349" lon="2.52588">
        <ele>479.857</ele>
        <time>2012-03-31T04:53:00Z</time>
      </trkpt>
      <trkpt lat="42.27351" lon="2.52587">
        <ele>480.821</ele>
        <time>2012-03-31T04:53:02Z</time>
      </trkpt>
      <trkpt lat="42.2736" lon="2.52585">
        <ele>481.881</ele>
        <time>2012-03-31T04:53:08Z</time>
      </trkpt>
      <trkpt lat="42.27363" lon="2.52584">
        <ele>485.156</ele>
        <time>2012-03-31T04:53:10Z</time>
      </trkpt>
      <trkpt lat="42.27364" lon="2.52584">
        <ele>483.211</ele>
        <time>2012-03-31T04:53:11Z</time>
      </trkpt>
      <trkpt lat="42.27373" lon="2.52581">
        <ele>484.284</ele>
        <time>2012-03-31T04:53:17Z</time>
      </trkpt>
      <trkpt lat="42.27387" lon="2.52576">
        <ele>487.543</ele>
        <time>2012-03-31T04:53:28Z</time>
      </trkpt>
      <trkpt lat="42.27398" lon="2.52571">
        <ele>489.565</ele>
        <time>2012-03-31T04:53:36Z</time>
      </trkpt>
      <trkpt lat="42.27413" lon="2.52572">
        <ele>491.468</ele>
        <time>2012-03-31T04:53:46Z</time>
      </trkpt>
      <trkpt lat="42.27422" lon="2.52571">
        <ele>493.814</ele>
        <time>2012-03-31T04:53:53Z</time>
      </trkpt>
      <trkpt lat="42.27425" lon="2.52572">
        <ele>493.807</ele>
        <time>2012-03-31T04:53:55Z</time>
      </trkpt>
      <trkpt lat="42.2743" lon="2.52574">
        <ele>495.278</ele>
        <time>2012-03-31T04:53:59Z</time>
      </trkpt>
      <trkpt lat="42.2744" lon="2.52579">
        <ele>496.262</ele>
        <time>2012-03-31T04:54:05Z</time>
      </trkpt>
      <trkpt lat="42.27449" lon="2.52584">
        <ele>498.132</ele>
        <time>2012-03-31T04:54:12Z</time>
      </trkpt>
      <trkpt lat="42.27453" lon="2.52585">
        <ele>498.677</ele>
        <time>2012-03-31T04:54:15Z</time>
      </trkpt>
      <trkpt lat="42.27469" lon="2.52586">
        <ele>501.012</ele>
        <time>2012-03-31T04:54:26Z</time>
      </trkpt>
      <trkpt lat="42.27473" lon="2.52585">
        <ele>502.085</ele>
        <time>2012-03-31T04:54:29Z</time>
      </trkpt>
      <trkpt lat="42.27477" lon="2.52584">
        <ele>502.924</ele>
        <time>2012-03-31T04:54:33Z</time>
      </trkpt>
      <trkpt lat="42.27479" lon="2.52584">
        <ele>502.961</ele>
        <time>2012-03-31T04:54:34Z</time>
      </trkpt>
      <trkpt lat="42.27496" lon="2.52589">
        <ele>504.821</ele>
        <time>2012-03-31T04:54:44Z</time>
      </trkpt>
      <trkpt lat="42.27505" lon="2.52587">
        <ele>506.313</ele>
        <time>2012-03-31T04:54:49Z</time>
      </trkpt>
      <trkpt lat="42.2751" lon="2.52594">
        <ele>506.807</ele>
        <time>2012-03-31T04:54:54Z</time>
      </trkpt>
      <trkpt lat="42.27513" lon="2.5261">
        <ele>508.288</ele>
        <time>2012-03-31T04:55:01Z</time>
      </trkpt>
      <trkpt lat="42.27516" lon="2.52616">
        <ele>509.222</ele>
        <time>2012-03-31T04:55:05Z</time>
      </trkpt>
      <trkpt lat="42.27529" lon="2.52627">
        <ele>511.672</ele>
        <time>2012-03-31T04:55:15Z</time>
      </trkpt>
      <trkpt lat="42.27539" lon="2.52629">
        <ele>512.587</ele>
        <time>2012-03-31T04:55:22Z</time>
      </trkpt>
      <trkpt lat="42.27552" lon="2.52628">
        <ele>514.062</ele>
        <time>2012-03-31T04:55:31Z</time>
      </trkpt>
      <trkpt lat="42.27562" lon="2.52625">
        <ele>515.975</ele>
        <time>2012-03-31T04:55:38Z</time>
      </trkpt>
      <trkpt lat="42.2758" lon="2.52622">
        <ele>518.354</ele>
        <time>2012-03-31T04:55:52Z</time>
      </trkpt>
      <trkpt lat="42.2758" lon="2.52622">
        <ele>518.397</ele>
        <time>2012-03-31T04:56:02Z</time>
      </trkpt>
      <trkpt lat="42.2758" lon="2.52622">
        <ele>518.323</ele>
        <time>2012-03-31T04:56:14Z</time>
      </trkpt>
      <trkpt lat="42.27568" lon="2.52627">
        <ele>516.925</ele>
        <time>2012-03-31T04:56:22Z</time>
      </trkpt>
      <trkpt lat="42.27562" lon="2.52628">
        <ele>515.907</ele>
        <time>2012-03-31T04:56:28Z</time>
      </trkpt>
      <trkpt lat="42.27569" lon="2.52623">
        <ele>516.411</ele>
        <time>2012-03-31T04:56:33Z</time>
      </trkpt>
      <trkpt lat="42.27579" lon="2.52621">
        <ele>518.375</ele>
        <time>2012-03-31T04:56:43Z</time>
      </trkpt>
      <trkpt lat="42.27582" lon="2.52619">
        <ele>518.385</ele>
        <time>2012-03-31T04:56:46Z</time>
      </trkpt>
      <trkpt lat="42.27591" lon="2.52613">
        <ele>519.39</ele>
        <time>2012-03-31T04:56:53Z</time>
      </trkpt>
      <trkpt lat="42.27603" lon="2.52612">
        <ele>522.685</ele>
        <time>2012-03-31T04:57:03Z</time>
      </trkpt>
      <trkpt lat="42.27604" lon="2.52612">
        <ele>521.798</ele>
        <time>2012-03-31T04:57:04Z</time>
      </trkpt>
      <trkpt lat="42.27607" lon="2.52611">
        <ele>521.277</ele>
        <time>2012-03-31T04:57:06Z</time>
      </trkpt>
      <trkpt lat="42.27609" lon="2.5261">
        <ele>521.765</ele>
        <time>2012-03-31T04:57:08Z</time>
      </trkpt>
      <trkpt lat="42.27624" lon="2.52608">
        <ele>523.168</ele>
        <time>2012-03-31T04:57:21Z</time>
      </trkpt>
      <trkpt lat="42.2764" lon="2.52605">
        <ele>524.114</ele>
        <time>2012-03-31T04:57:35Z</time>
      </trkpt>
      <trkpt lat="42.27641" lon="2.52604">
        <ele>524.107</ele>
        <time>2012-03-31T04:57:37Z</time>
      </trkpt>
      <trkpt lat="42.2764" lon="2.52604">
        <ele>524.568</ele>
        <time>2012-03-31T04:57:39Z</time>
      </trkpt>
      <trkpt lat="42.2762" lon="2.52608">
        <ele>522.112</ele>
        <time>2012-03-31T04:57:49Z</time>
      </trkpt>
      <trkpt lat="42.27618" lon="2.52608">
        <ele>522.692</ele>
        <time>2012-03-31T04:57:50Z</time>
      </trkpt>
      <trkpt lat="42.27608" lon="2.52612">
        <ele>521.277</ele>
        <time>2012-03-31T04:57:55Z</time>
      </trkpt>
      <trkpt lat="42.2759" lon="2.52618">
        <ele>518.882</ele>
        <time>2012-03-31T04:58:04Z</time>
      </trkpt>
      <trkpt lat="42.27576" lon="2.52624">
        <ele>517.375</ele>
        <time>2012-03-31T04:58:10Z</time>
      </trkpt>
      <trkpt lat="42.27572" lon="2.52623">
        <ele>516.954</ele>
        <time>2012-03-31T04:58:12Z</time>
      </trkpt>
      <trkpt lat="42.2755" lon="2.52631">
        <ele>514.428</ele>
        <time>2012-03-31T04:58:22Z</time>
      </trkpt>
      <trkpt lat="42.27548" lon="2.5263">
        <ele>514.489</ele>
        <time>2012-03-31T04:58:23Z</time>
      </trkpt>
      <trkpt lat="42.27536" lon="2.52628">
        <ele>512.517</ele>
        <time>2012-03-31T04:58:29Z</time>
      </trkpt>
      <trkpt lat="42.27531" lon="2.52622">
        <ele>512.007</ele>
        <time>2012-03-31T04:58:32Z</time>
      </trkpt>
      <trkpt lat="42.27525" lon="2.52607">
        <ele>512.574</ele>
        <time>2012-03-31T04:58:38Z</time>
      </trkpt>
      <trkpt lat="42.27525" lon="2.52588">
        <ele>513.018</ele>
        <time>2012-03-31T04:58:46Z</time>
      </trkpt>
      <trkpt lat="42.27523" lon="2.52584">
        <ele>513.088</ele>
        <time>2012-03-31T04:58:49Z</time>
      </trkpt>
      <trkpt lat="42.27517" lon="2.52579">
        <ele>513.563</ele>
        <time>2012-03-31T04:58:54Z</time>
      </trkpt>
      <trkpt lat="42.27513" lon="2.52575">
        <ele>514.468</ele>
        <time>2012-03-31T04:58:57Z</time>
      </trkpt>
      <trkpt lat="42.27501" lon="2.52561">
        <ele>515.481</ele>
        <time>2012-03-31T04:59:06Z</time>
      </trkpt>
      <trkpt lat="42.27496" lon="2.52552">
        <ele>515.42</ele>
        <time>2012-03-31T04:59:10Z</time>
      </trkpt>
      <trkpt lat="42.27486" lon="2.52536">
        <ele>515.968</ele>
        <time>2012-03-31T04:59:18Z</time>
      </trkpt>
      <trkpt lat="42.27481" lon="2.52529">
        <ele>516.442</ele>
        <time>2012-03-31T04:59:22Z</time>
      </trkpt>
      <trkpt lat="42.2748" lon="2.52525">
        <ele>515.926</ele>
        <time>2012-03-31T04:59:24Z</time>
      </trkpt>
      <trkpt lat="42.27467" lon="2.52497">
        <ele>514.907</ele>
        <time>2012-03-31T04:59:35Z</time>
      </trkpt>
      <trkpt lat="42.27463" lon="2.52488">
        <ele>514.438</ele>
        <time>2012-03-31T04:59:39Z</time>
      </trkpt>
      <trkpt lat="42.27464" lon="2.52461">
        <ele>513.072</ele>
        <time>2012-03-31T04:59:49Z</time>
      </trkpt>
      <trkpt lat="42.27463" lon="2.52466">
        <ele>513.022</ele>
        <time>2012-03-31T04:59:57Z</time>
      </trkpt>
      <trkpt lat="42.27462" lon="2.5248">
        <ele>514.087</ele>
        <time>2012-03-31T05:00:03Z</time>
      </trkpt>
      <trkpt lat="42.27466" lon="2.52494">
        <ele>514.462</ele>
        <time>2012-03-31T05:00:09Z</time>
      </trkpt>
      <trkpt lat="42.2747" lon="2.52501">
        <ele>515.435</ele>
        <time>2012-03-31T05:00:14Z</time>
      </trkpt>
      <trkpt lat="42.27472" lon="2.52516">
        <ele>515.424</ele>
        <time>2012-03-31T05:00:21Z</time>
      </trkpt>
      <trkpt lat="42.27479" lon="2.5253">
        <ele>516.432</ele>
        <time>2012-03-31T05:00:28Z</time>
      </trkpt>
      <trkpt lat="42.2748" lon="2.52531">
        <ele>515.992</ele>
        <time>2012-03-31T05:00:29Z</time>
      </trkpt>
      <trkpt lat="42.27491" lon="2.52547">
        <ele>515.911</ele>
        <time>2012-03-31T05:00:38Z</time>
      </trkpt>
      <trkpt lat="42.27498" lon="2.52559">
        <ele>515.407</ele>
        <time>2012-03-31T05:00:44Z</time>
      </trkpt>
      <trkpt lat="42.27514" lon="2.52578">
        <ele>514.465</ele>
        <time>2012-03-31T05:00:56Z</time>
      </trkpt>
      <trkpt lat="42.27518" lon="2.52582">
        <ele>513.519</ele>
        <time>2012-03-31T05:01:02Z</time>
      </trkpt>
      <trkpt lat="42.27516" lon="2.52587">
        <ele>511.119</ele>
        <time>2012-03-31T05:01:09Z</time>
      </trkpt>
      <trkpt lat="42.27514" lon="2.52589">
        <ele>509.614</ele>
        <time>2012-03-31T05:01:12Z</time>
      </trkpt>
      <trkpt lat="42.27511" lon="2.52592">
        <ele>508.269</ele>
        <time>2012-03-31T05:01:17Z</time>
      </trkpt>
      <trkpt lat="42.27498" lon="2.52587">
        <ele>505.882</ele>
        <time>2012-03-31T05:01:25Z</time>
      </trkpt>
      <trkpt lat="42.27486" lon="2.52585">
        <ele>503.431</ele>
        <time>2012-03-31T05:01:33Z</time>
      </trkpt>
      <trkpt lat="42.27476" lon="2.52584">
        <ele>502.049</ele>
        <time>2012-03-31T05:01:39Z</time>
      </trkpt>
      <trkpt lat="42.27457" lon="2.52582">
        <ele>499.102</ele>
        <time>2012-03-31T05:01:48Z</time>
      </trkpt>
      <trkpt lat="42.27452" lon="2.52579">
        <ele>497.622</ele>
        <time>2012-03-31T05:01:51Z</time>
      </trkpt>
      <trkpt lat="42.27441" lon="2.52573">
        <ele>495.707</ele>
        <time>2012-03-31T05:01:56Z</time>
      </trkpt>
      <trkpt lat="42.27424" lon="2.52569">
        <ele>493.346</ele>
        <time>2012-03-31T05:02:05Z</time>
      </trkpt>
      <trkpt lat="42.27406" lon="2.5257">
        <ele>489.59</ele>
        <time>2012-03-31T05:02:14Z</time>
      </trkpt>
      <trkpt lat="42.27404" lon="2.52571">
        <ele>489.07</ele>
        <time>2012-03-31T05:02:15Z</time>
      </trkpt>
      <trkpt lat="42.27399" lon="2.52572">
        <ele>488.535</ele>
        <time>2012-03-31T05:02:17Z</time>
      </trkpt>
      <trkpt lat="42.27387" lon="2.52575">
        <ele>486.64</ele>
        <time>2012-03-31T05:02:22Z</time>
      </trkpt>
      <trkpt lat="42.27381" lon="2.52579">
        <ele>484.673</ele>
        <time>2012-03-31T05:02:26Z</time>
      </trkpt>
      <trkpt lat="42.27363" lon="2.52583">
        <ele>481.892</ele>
        <time>2012-03-31T05:02:35Z</time>
      </trkpt>
      <trkpt lat="42.27354" lon="2.52587">
        <ele>479.816</ele>
        <time>2012-03-31T05:02:39Z</time>
      </trkpt>
      <trkpt lat="42.27338" lon="2.52593">
        <ele>477.076</ele>
        <time>2012-03-31T05:02:46Z</time>
      </trkpt>
      <trkpt lat="42.27314" lon="2.52601">
        <ele>473.613</ele>
        <time>2012-03-31T05:02:56Z</time>
      </trkpt>
      <trkpt lat="42.27299" lon="2.52605">
        <ele>471.207</ele>
        <time>2012-03-31T05:03:02Z</time>
      </trkpt>
      <trkpt lat="42.27295" lon="2.52605">
        <ele>470.263</ele>
        <time>2012-03-31T05:03:09Z</time>
      </trkpt>
      <trkpt lat="42.27298" lon="2.52605">
        <ele>470.797</ele>
        <time>2012-03-31T05:03:12Z</time>
      </trkpt>
      <trkpt lat="42.27306" lon="2.52606">
        <ele>471.747</ele>
        <time>2012-03-31T05:03:18Z</time>
      </trkpt>
      <trkpt lat="42.27313" lon="2.52604">
        <ele>473.142</ele>
        <time>2012-03-31T05:03:23Z</time>
      </trkpt>
      <trkpt lat="42.27328" lon="2.52594">
        <ele>475.027</ele>
        <time>2012-03-31T05:03:32Z</time>
      </trkpt>
      <trkpt lat="42.27341" lon="2.5259">
        <ele>477.44</ele>
        <time>2012-03-31T05:03:41Z</time>
      </trkpt>
      <trkpt lat="42.27343" lon="2.5259">
        <ele>477.929</ele>
        <time>2012-03-31T05:03:42Z</time>
      </trkpt>
      <trkpt lat="42.27352" lon="2.52585">
        <ele>478.973</ele>
        <time>2012-03-31T05:03:48Z</time>
      </trkpt>
      <trkpt lat="42.27367" lon="2.52582">
        <ele>482.785</ele>
        <time>2012-03-31T05:03:58Z</time>
      </trkpt>
      <trkpt lat="42.27377" lon="2.52579">
        <ele>484.613</ele>
        <time>2012-03-31T05:04:04Z</time>
      </trkpt>
      <trkpt lat="42.27383" lon="2.52576">
        <ele>485.107</ele>
        <time>2012-03-31T05:04:08Z</time>
      </trkpt>
      <trkpt lat="42.274" lon="2.52571">
        <ele>488.589</ele>
        <time>2012-03-31T05:04:19Z</time>
      </trkpt>
      <trkpt lat="42.27402" lon="2.52571">
        <ele>488.593</ele>
        <time>2012-03-31T05:04:20Z</time>
      </trkpt>
      <trkpt lat="42.27419" lon="2.52571">
        <ele>491.993</ele>
        <time>2012-03-31T05:04:31Z</time>
      </trkpt>
      <trkpt lat="42.27436" lon="2.52573">
        <ele>493.888</ele>
        <time>2012-03-31T05:04:40Z</time>
      </trkpt>
      <trkpt lat="42.27451" lon="2.5258">
        <ele>496.773</ele>
        <time>2012-03-31T05:04:49Z</time>
      </trkpt>
      <trkpt lat="42.27461" lon="2.52583">
        <ele>498.636</ele>
        <time>2012-03-31T05:04:56Z</time>
      </trkpt>
      <trkpt lat="42.27471" lon="2.52584">
        <ele>500.085</ele>
        <time>2012-03-31T05:05:03Z</time>
      </trkpt>
      <trkpt lat="42.27482" lon="2.52585">
        <ele>502.025</ele>
        <time>2012-03-31T05:05:09Z</time>
      </trkpt>
      <trkpt lat="42.27485" lon="2.52586">
        <ele>502.426</ele>
        <time>2012-03-31T05:05:11Z</time>
      </trkpt>
      <trkpt lat="42.27505" lon="2.52588">
        <ele>504.808</ele>
        <time>2012-03-31T05:05:22Z</time>
      </trkpt>
      <trkpt lat="42.2751" lon="2.52602">
        <ele>505.807</ele>
        <time>2012-03-31T05:05:28Z</time>
      </trkpt>
      <trkpt lat="42.27513" lon="2.52616">
        <ele>507.214</ele>
        <time>2012-03-31T05:05:34Z</time>
      </trkpt>
      <trkpt lat="42.27527" lon="2.52627">
        <ele>509.668</ele>
        <time>2012-03-31T05:05:44Z</time>
      </trkpt>
      <trkpt lat="42.27529" lon="2.52624">
        <ele>511.168</ele>
        <time>2012-03-31T05:05:47Z</time>
      </trkpt>
      <trkpt lat="42.27524" lon="2.52613">
        <ele>511.653</ele>
        <time>2012-03-31T05:05:56Z</time>
      </trkpt>
      <trkpt lat="42.27526" lon="2.52619">
        <ele>511.648</ele>
        <time>2012-03-31T05:06:00Z</time>
      </trkpt>
      <trkpt lat="42.27529" lon="2.52624">
        <ele>512.071</ele>
        <time>2012-03-31T05:06:04Z</time>
      </trkpt>
      <trkpt lat="42.27544" lon="2.5263">
        <ele>512.06</ele>
        <time>2012-03-31T05:06:17Z</time>
      </trkpt>
      <trkpt lat="42.27551" lon="2.52629">
        <ele>513.096</ele>
        <time>2012-03-31T05:06:23Z</time>
      </trkpt>
      <trkpt lat="42.2756" lon="2.52625">
        <ele>514.931</ele>
        <time>2012-03-31T05:06:35Z</time>
      </trkpt>
      <trkpt lat="42.2756" lon="2.52622">
        <ele>515.424</ele>
        <time>2012-03-31T05:06:39Z</time>
      </trkpt>
      <trkpt lat="42.27555" lon="2.52623">
        <ele>515.407</ele>
        <time>2012-03-31T05:06:43Z</time>
      </trkpt>
      <trkpt lat="42.27552" lon="2.52622">
        <ele>515.981</ele>
        <time>2012-03-31T05:06:46Z</time>
      </trkpt>
      <trkpt lat="42.27543" lon="2.52621">
        <ele>515.455</ele>
        <time>2012-03-31T05:06:54Z</time>
      </trkpt>
      <trkpt lat="42.27541" lon="2.52615">
        <ele>515.415</ele>
        <time>2012-03-31T05:07:00Z</time>
      </trkpt>
      <trkpt lat="42.27543" lon="2.52605">
        <ele>517.84</ele>
        <time>2012-03-31T05:07:08Z</time>
      </trkpt>
      <trkpt lat="42.27552" lon="2.52594">
        <ele>521.745</ele>
        <time>2012-03-31T05:07:21Z</time>
      </trkpt>
      <trkpt lat="42.27561" lon="2.52589">
        <ele>524.588</ele>
        <time>2012-03-31T05:07:29Z</time>
      </trkpt>
      <trkpt lat="42.27566" lon="2.52588">
        <ele>525.587</ele>
        <time>2012-03-31T05:07:34Z</time>
      </trkpt>
      <trkpt lat="42.27567" lon="2.52585">
        <ele>526.031</ele>
        <time>2012-03-31T05:07:37Z</time>
      </trkpt>
      <trkpt lat="42.27572" lon="2.52581">
        <ele>529.361</ele>
        <time>2012-03-31T05:07:47Z</time>
      </trkpt>
      <trkpt lat="42.27577" lon="2.52569">
        <ele>532.207</ele>
        <time>2012-03-31T05:07:58Z</time>
      </trkpt>
      <trkpt lat="42.27583" lon="2.52568">
        <ele>534.607</ele>
        <time>2012-03-31T05:08:05Z</time>
      </trkpt>
      <trkpt lat="42.27588" lon="2.52565">
        <ele>535.625</ele>
        <time>2012-03-31T05:08:10Z</time>
      </trkpt>
      <trkpt lat="42.2759" lon="2.52556">
        <ele>538.019</ele>
        <time>2012-03-31T05:08:19Z</time>
      </trkpt>
      <trkpt lat="42.27594" lon="2.52552">
        <ele>539.479</ele>
        <time>2012-03-31T05:08:23Z</time>
      </trkpt>
      <trkpt lat="42.27595" lon="2.52549">
        <ele>540.454</ele>
        <time>2012-03-31T05:08:26Z</time>
      </trkpt>
      <trkpt lat="42.27595" lon="2.52539">
        <ele>542.819</ele>
        <time>2012-03-31T05:08:34Z</time>
      </trkpt>
      <trkpt lat="42.27595" lon="2.52533">
        <ele>544.212</ele>
        <time>2012-03-31T05:08:39Z</time>
      </trkpt>
      <trkpt lat="42.27597" lon="2.5253">
        <ele>545.231</ele>
        <time>2012-03-31T05:08:42Z</time>
      </trkpt>
      <trkpt lat="42.27598" lon="2.52527">
        <ele>546.282</ele>
        <time>2012-03-31T05:08:44Z</time>
      </trkpt>
      <trkpt lat="42.27598" lon="2.52523">
        <ele>547.143</ele>
        <time>2012-03-31T05:08:47Z</time>
      </trkpt>
      <trkpt lat="42.27599" lon="2.5252">
        <ele>548.117</ele>
        <time>2012-03-31T05:08:51Z</time>
      </trkpt>
      <trkpt lat="42.27604" lon="2.52512">
        <ele>550.507</ele>
        <time>2012-03-31T05:08:59Z</time>
      </trkpt>
      <trkpt lat="42.27606" lon="2.52508">
        <ele>551.99</ele>
        <time>2012-03-31T05:09:03Z</time>
      </trkpt>
      <trkpt lat="42.27608" lon="2.52502">
        <ele>552.944</ele>
        <time>2012-03-31T05:09:09Z</time>
      </trkpt>
      <trkpt lat="42.27624" lon="2.52507">
        <ele>554.884</ele>
        <time>2012-03-31T05:09:20Z</time>
      </trkpt>
      <trkpt lat="42.27624" lon="2.52509">
        <ele>555.839</ele>
        <time>2012-03-31T05:09:24Z</time>
      </trkpt>
      <trkpt lat="42.2763" lon="2.52507">
        <ele>557.274</ele>
        <time>2012-03-31T05:09:30Z</time>
      </trkpt>
      <trkpt lat="42.27634" lon="2.52505">
        <ele>559.187</ele>
        <time>2012-03-31T05:09:37Z</time>
      </trkpt>
      <trkpt lat="42.27638" lon="2.52503">
        <ele>560.146</ele>
        <time>2012-03-31T05:09:40Z</time>
      </trkpt>
      <trkpt lat="42.27641" lon="2.52499">
        <ele>562.098</ele>
        <time>2012-03-31T05:09:47Z</time>
      </trkpt>
      <trkpt lat="42.27647" lon="2.52498">
        <ele>564.015</ele>
        <time>2012-03-31T05:09:54Z</time>
      </trkpt>
      <trkpt lat="42.27656" lon="2.52497">
        <ele>566.826</ele>
        <time>2012-03-31T05:10:03Z</time>
      </trkpt>
      <trkpt lat="42.2766" lon="2.52496">
        <ele>568.307</ele>
        <time>2012-03-31T05:10:09Z</time>
      </trkpt>
      <trkpt lat="42.27664" lon="2.52493">
        <ele>569.781</ele>
        <time>2012-03-31T05:10:12Z</time>
      </trkpt>
      <trkpt lat="42.27671" lon="2.52491">
        <ele>571.265</ele>
        <time>2012-03-31T05:10:21Z</time>
      </trkpt>
      <trkpt lat="42.27677" lon="2.52488">
        <ele>571.655</ele>
        <time>2012-03-31T05:10:24Z</time>
      </trkpt>
      <trkpt lat="42.2768" lon="2.52488">
        <ele>572.65</ele>
        <time>2012-03-31T05:10:28Z</time>
      </trkpt>
      <trkpt lat="42.27687" lon="2.52481">
        <ele>576.085</ele>
        <time>2012-03-31T05:10:38Z</time>
      </trkpt>
      <trkpt lat="42.27687" lon="2.5248">
        <ele>576.018</ele>
        <time>2012-03-31T05:10:39Z</time>
      </trkpt>
      <trkpt lat="42.27696" lon="2.52474">
        <ele>578.487</ele>
        <time>2012-03-31T05:10:48Z</time>
      </trkpt>
      <trkpt lat="42.277" lon="2.52471">
        <ele>580.834</ele>
        <time>2012-03-31T05:10:55Z</time>
      </trkpt>
      <trkpt lat="42.27701" lon="2.52462">
        <ele>583.755</ele>
        <time>2012-03-31T05:11:04Z</time>
      </trkpt>
      <trkpt lat="42.27703" lon="2.52459">
        <ele>585.11</ele>
        <time>2012-03-31T05:11:10Z</time>
      </trkpt>
      <trkpt lat="42.27705" lon="2.52458">
        <ele>586.107</ele>
        <time>2012-03-31T05:11:12Z</time>
      </trkpt>
      <trkpt lat="42.27706" lon="2.52457">
        <ele>586.155</ele>
        <time>2012-03-31T05:11:13Z</time>
      </trkpt>
      <trkpt lat="42.27712" lon="2.52454">
        <ele>588.559</ele>
        <time>2012-03-31T05:11:22Z</time>
      </trkpt>
      <trkpt lat="42.27719" lon="2.52448">
        <ele>591.449</ele>
        <time>2012-03-31T05:11:33Z</time>
      </trkpt>
      <trkpt lat="42.27723" lon="2.52442">
        <ele>592.324</ele>
        <time>2012-03-31T05:11:38Z</time>
      </trkpt>
      <trkpt lat="42.2773" lon="2.5244">
        <ele>594.299</ele>
        <time>2012-03-31T05:11:46Z</time>
      </trkpt>
      <trkpt lat="42.2774" lon="2.52437">
        <ele>596.262</ele>
        <time>2012-03-31T05:11:55Z</time>
      </trkpt>
      <trkpt lat="42.27742" lon="2.52437">
        <ele>597.141</ele>
        <time>2012-03-31T05:11:58Z</time>
      </trkpt>
      <trkpt lat="42.27751" lon="2.52431">
        <ele>598.684</ele>
        <time>2012-03-31T05:12:04Z</time>
      </trkpt>
      <trkpt lat="42.27758" lon="2.52423">
        <ele>600.507</ele>
        <time>2012-03-31T05:12:13Z</time>
      </trkpt>
      <trkpt lat="42.27769" lon="2.52418">
        <ele>602.917</ele>
        <time>2012-03-31T05:12:23Z</time>
      </trkpt>
      <trkpt lat="42.27774" lon="2.52414">
        <ele>602.907</ele>
        <time>2012-03-31T05:12:26Z</time>
      </trkpt>
      <trkpt lat="42.27788" lon="2.52414">
        <ele>605.85</ele>
        <time>2012-03-31T05:12:40Z</time>
      </trkpt>
      <trkpt lat="42.27789" lon="2.52413">
        <ele>605.854</ele>
        <time>2012-03-31T05:12:41Z</time>
      </trkpt>
      <trkpt lat="42.27804" lon="2.5241">
        <ele>608.774</ele>
        <time>2012-03-31T05:12:55Z</time>
      </trkpt>
      <trkpt lat="42.27806" lon="2.52409">
        <ele>609.619</ele>
        <time>2012-03-31T05:12:57Z</time>
      </trkpt>
      <trkpt lat="42.27812" lon="2.52409">
        <ele>610.164</ele>
        <time>2012-03-31T05:13:01Z</time>
      </trkpt>
      <trkpt lat="42.27824" lon="2.52404">
        <ele>613.917</ele>
        <time>2012-03-31T05:13:12Z</time>
      </trkpt>
      <trkpt lat="42.27827" lon="2.52402">
        <ele>614.476</ele>
        <time>2012-03-31T05:13:19Z</time>
      </trkpt>
      <trkpt lat="42.27842" lon="2.52406">
        <ele>616.857</ele>
        <time>2012-03-31T05:13:32Z</time>
      </trkpt>
      <trkpt lat="42.27847" lon="2.52408">
        <ele>618.3</ele>
        <time>2012-03-31T05:13:38Z</time>
      </trkpt>
      <trkpt lat="42.27852" lon="2.52406">
        <ele>618.32</ele>
        <time>2012-03-31T05:13:41Z</time>
      </trkpt>
      <trkpt lat="42.27866" lon="2.52407">
        <ele>620.207</ele>
        <time>2012-03-31T05:13:53Z</time>
      </trkpt>
      <trkpt lat="42.27874" lon="2.52407">
        <ele>621.647</ele>
        <time>2012-03-31T05:13:59Z</time>
      </trkpt>
      <trkpt lat="42.27886" lon="2.52412">
        <ele>624.551</ele>
        <time>2012-03-31T05:14:12Z</time>
      </trkpt>
      <trkpt lat="42.27889" lon="2.52411">
        <ele>625.571</ele>
        <time>2012-03-31T05:14:15Z</time>
      </trkpt>
      <trkpt lat="42.27891" lon="2.52409">
        <ele>626.486</ele>
        <time>2012-03-31T05:14:18Z</time>
      </trkpt>
      <trkpt lat="42.27896" lon="2.52414">
        <ele>626.951</ele>
        <time>2012-03-31T05:14:22Z</time>
      </trkpt>
      <trkpt lat="42.27905" lon="2.52416">
        <ele>628.834</ele>
        <time>2012-03-31T05:14:30Z</time>
      </trkpt>
      <trkpt lat="42.27914" lon="2.52419">
        <ele>633.243</ele>
        <time>2012-03-31T05:14:41Z</time>
      </trkpt>
      <trkpt lat="42.27915" lon="2.52419">
        <ele>632.251</ele>
        <time>2012-03-31T05:14:42Z</time>
      </trkpt>
      <trkpt lat="42.27918" lon="2.52419">
        <ele>633.701</ele>
        <time>2012-03-31T05:14:47Z</time>
      </trkpt>
      <trkpt lat="42.27922" lon="2.52417">
        <ele>634.611</ele>
        <time>2012-03-31T05:14:51Z</time>
      </trkpt>
      <trkpt lat="42.2793" lon="2.52418">
        <ele>637.507</ele>
        <time>2012-03-31T05:15:02Z</time>
      </trkpt>
      <trkpt lat="42.27931" lon="2.52418">
        <ele>638.057</ele>
        <time>2012-03-31T05:15:04Z</time>
      </trkpt>
      <trkpt lat="42.27936" lon="2.52416">
        <ele>641.391</ele>
        <time>2012-03-31T05:15:13Z</time>
      </trkpt>
      <trkpt lat="42.27939" lon="2.52413">
        <ele>642.871</ele>
        <time>2012-03-31T05:15:18Z</time>
      </trkpt>
      <trkpt lat="42.27947" lon="2.5241">
        <ele>645.766</ele>
        <time>2012-03-31T05:15:28Z</time>
      </trkpt>
      <trkpt lat="42.2796" lon="2.52422">
        <ele>647.191</ele>
        <time>2012-03-31T05:15:40Z</time>
      </trkpt>
      <trkpt lat="42.27967" lon="2.52433">
        <ele>647.634</ele>
        <time>2012-03-31T05:15:46Z</time>
      </trkpt>
      <trkpt lat="42.27974" lon="2.52444">
        <ele>648.623</ele>
        <time>2012-03-31T05:15:54Z</time>
      </trkpt>
      <trkpt lat="42.27995" lon="2.52466">
        <ele>651.061</ele>
        <time>2012-03-31T05:16:08Z</time>
      </trkpt>
      <trkpt lat="42.2801" lon="2.52486">
        <ele>653.421</ele>
        <time>2012-03-31T05:16:21Z</time>
      </trkpt>
      <trkpt lat="42.28023" lon="2.52508">
        <ele>656.213</ele>
        <time>2012-03-31T05:16:32Z</time>
      </trkpt>
      <trkpt lat="42.28024" lon="2.52509">
        <ele>656.207</ele>
        <time>2012-03-31T05:16:33Z</time>
      </trkpt>
      <trkpt lat="42.28029" lon="2.52514">
        <ele>657.248</ele>
        <time>2012-03-31T05:16:37Z</time>
      </trkpt>
      <trkpt lat="42.28034" lon="2.52523">
        <ele>659.132</ele>
        <time>2012-03-31T05:16:43Z</time>
      </trkpt>
      <trkpt lat="42.28039" lon="2.52539">
        <ele>661.022</ele>
        <time>2012-03-31T05:16:51Z</time>
      </trkpt>
      <trkpt lat="42.28046" lon="2.52554">
        <ele>663.997</ele>
        <time>2012-03-31T05:17:01Z</time>
      </trkpt>
      <trkpt lat="42.28051" lon="2.52558">
        <ele>663.512</ele>
        <time>2012-03-31T05:17:04Z</time>
      </trkpt>
      <trkpt lat="42.28052" lon="2.52562">
        <ele>663.955</ele>
        <time>2012-03-31T05:17:06Z</time>
      </trkpt>
      <trkpt lat="42.28052" lon="2.5257">
        <ele>665.494</ele>
        <time>2012-03-31T05:17:10Z</time>
      </trkpt>
      <trkpt lat="42.28052" lon="2.52573">
        <ele>665.435</ele>
        <time>2012-03-31T05:17:12Z</time>
      </trkpt>
      <trkpt lat="42.28052" lon="2.52584">
        <ele>666.886</ele>
        <time>2012-03-31T05:17:17Z</time>
      </trkpt>
      <trkpt lat="42.28053" lon="2.52607">
        <ele>668.714</ele>
        <time>2012-03-31T05:17:28Z</time>
      </trkpt>
      <trkpt lat="42.28067" lon="2.52632">
        <ele>671.607</ele>
        <time>2012-03-31T05:17:44Z</time>
      </trkpt>
      <trkpt lat="42.28082" lon="2.52642">
        <ele>674.565</ele>
        <time>2012-03-31T05:17:57Z</time>
      </trkpt>
      <trkpt lat="42.28102" lon="2.52646">
        <ele>677.929</ele>
        <time>2012-03-31T05:18:10Z</time>
      </trkpt>
      <trkpt lat="42.28115" lon="2.52654">
        <ele>679.899</ele>
        <time>2012-03-31T05:18:20Z</time>
      </trkpt>
      <trkpt lat="42.28131" lon="2.52686">
        <ele>682.234</ele>
        <time>2012-03-31T05:18:37Z</time>
      </trkpt>
      <trkpt lat="42.28135" lon="2.52717">
        <ele>683.259</ele>
        <time>2012-03-31T05:18:49Z</time>
      </trkpt>
      <trkpt lat="42.28137" lon="2.52722">
        <ele>683.242</ele>
        <time>2012-03-31T05:18:51Z</time>
      </trkpt>
      <trkpt lat="42.28143" lon="2.52738">
        <ele>685.191</ele>
        <time>2012-03-31T05:18:59Z</time>
      </trkpt>
      <trkpt lat="42.28155" lon="2.52758">
        <ele>687.579</ele>
        <time>2012-03-31T05:19:11Z</time>
      </trkpt>
      <trkpt lat="42.28161" lon="2.52774">
        <ele>688.905</ele>
        <time>2012-03-31T05:19:20Z</time>
      </trkpt>
      <trkpt lat="42.28165" lon="2.52781">
        <ele>690.425</ele>
        <time>2012-03-31T05:19:25Z</time>
      </trkpt>
      <trkpt lat="42.28173" lon="2.52787">
        <ele>690.807</ele>
        <time>2012-03-31T05:19:30Z</time>
      </trkpt>
      <trkpt lat="42.28176" lon="2.52787">
        <ele>691.369</ele>
        <time>2012-03-31T05:19:32Z</time>
      </trkpt>
      <trkpt lat="42.28178" lon="2.52774">
        <ele>692.873</ele>
        <time>2012-03-31T05:19:38Z</time>
      </trkpt>
      <trkpt lat="42.28176" lon="2.52755">
        <ele>695.213</ele>
        <time>2012-03-31T05:19:47Z</time>
      </trkpt>
      <trkpt lat="42.28177" lon="2.52727">
        <ele>697.698</ele>
        <time>2012-03-31T05:19:59Z</time>
      </trkpt>
      <trkpt lat="42.28176" lon="2.52722">
        <ele>698.143</ele>
        <time>2012-03-31T05:20:01Z</time>
      </trkpt>
      <trkpt lat="42.28178" lon="2.52709">
        <ele>698.516</ele>
        <time>2012-03-31T05:20:07Z</time>
      </trkpt>
      <trkpt lat="42.28185" lon="2.52698">
        <ele>698.595</ele>
        <time>2012-03-31T05:20:12Z</time>
      </trkpt>
      <trkpt lat="42.28202" lon="2.52682">
        <ele>700.999</ele>
        <time>2012-03-31T05:20:23Z</time>
      </trkpt>
      <trkpt lat="42.28204" lon="2.52677">
        <ele>702.407</ele>
        <time>2012-03-31T05:20:26Z</time>
      </trkpt>
      <trkpt lat="42.28207" lon="2.52668">
        <ele>703.327</ele>
        <time>2012-03-31T05:20:31Z</time>
      </trkpt>
      <trkpt lat="42.28213" lon="2.52643">
        <ele>705.807</ele>
        <time>2012-03-31T05:20:43Z</time>
      </trkpt>
      <trkpt lat="42.28213" lon="2.52641">
        <ele>707.711</ele>
        <time>2012-03-31T05:20:44Z</time>
      </trkpt>
      <trkpt lat="42.28214" lon="2.52629">
        <ele>707.255</ele>
        <time>2012-03-31T05:20:50Z</time>
      </trkpt>
      <trkpt lat="42.28217" lon="2.52609">
        <ele>708.265</ele>
        <time>2012-03-31T05:20:59Z</time>
      </trkpt>
      <trkpt lat="42.2822" lon="2.52607">
        <ele>709.16</ele>
        <time>2012-03-31T05:21:01Z</time>
      </trkpt>
      <trkpt lat="42.28233" lon="2.52624">
        <ele>710.655</ele>
        <time>2012-03-31T05:21:11Z</time>
      </trkpt>
      <trkpt lat="42.28242" lon="2.52636">
        <ele>710.668</ele>
        <time>2012-03-31T05:21:18Z</time>
      </trkpt>
      <trkpt lat="42.28249" lon="2.52644">
        <ele>711.017</ele>
        <time>2012-03-31T05:21:23Z</time>
      </trkpt>
      <trkpt lat="42.28257" lon="2.52651">
        <ele>711.538</ele>
        <time>2012-03-31T05:21:28Z</time>
      </trkpt>
      <trkpt lat="42.28269" lon="2.52665">
        <ele>712.57</ele>
        <time>2012-03-31T05:21:37Z</time>
      </trkpt>
      <trkpt lat="42.28278" lon="2.52676">
        <ele>713.417</ele>
        <time>2012-03-31T05:21:43Z</time>
      </trkpt>
      <trkpt lat="42.28282" lon="2.52681">
        <ele>713.907</ele>
        <time>2012-03-31T05:21:46Z</time>
      </trkpt>
      <trkpt lat="42.28292" lon="2.52693">
        <ele>714.925</ele>
        <time>2012-03-31T05:21:53Z</time>
      </trkpt>
      <trkpt lat="42.28309" lon="2.52718">
        <ele>716.399</ele>
        <time>2012-03-31T05:22:05Z</time>
      </trkpt>
      <trkpt lat="42.28312" lon="2.52729">
        <ele>716.839</ele>
        <time>2012-03-31T05:22:09Z</time>
      </trkpt>
      <trkpt lat="42.28313" lon="2.52737">
        <ele>717.884</ele>
        <time>2012-03-31T05:22:13Z</time>
      </trkpt>
      <trkpt lat="42.28311" lon="2.52743">
        <ele>718.289</ele>
        <time>2012-03-31T05:22:16Z</time>
      </trkpt>
      <trkpt lat="42.28316" lon="2.52767">
        <ele>720.792</ele>
        <time>2012-03-31T05:22:27Z</time>
      </trkpt>
      <trkpt lat="42.28322" lon="2.52775">
        <ele>721.131</ele>
        <time>2012-03-31T05:22:31Z</time>
      </trkpt>
      <trkpt lat="42.28327" lon="2.52781">
        <ele>721.189</ele>
        <time>2012-03-31T05:22:35Z</time>
      </trkpt>
      <trkpt lat="42.28334" lon="2.52781">
        <ele>722.606</ele>
        <time>2012-03-31T05:22:39Z</time>
      </trkpt>
      <trkpt lat="42.2834" lon="2.52778">
        <ele>723.126</ele>
        <time>2012-03-31T05:22:43Z</time>
      </trkpt>
      <trkpt lat="42.28343" lon="2.52773">
        <ele>724.507</ele>
        <time>2012-03-31T05:22:46Z</time>
      </trkpt>
      <trkpt lat="42.28347" lon="2.52764">
        <ele>725.54</ele>
        <time>2012-03-31T05:22:51Z</time>
      </trkpt>
      <trkpt lat="42.28354" lon="2.52756">
        <ele>727.414</ele>
        <time>2012-03-31T05:22:58Z</time>
      </trkpt>
      <trkpt lat="42.28363" lon="2.52751">
        <ele>729.884</ele>
        <time>2012-03-31T05:23:05Z</time>
      </trkpt>
      <trkpt lat="42.28371" lon="2.52748">
        <ele>730.749</ele>
        <time>2012-03-31T05:23:10Z</time>
      </trkpt>
      <trkpt lat="42.28374" lon="2.52744">
        <ele>731.744</ele>
        <time>2012-03-31T05:23:13Z</time>
      </trkpt>
      <trkpt lat="42.28378" lon="2.52729">
        <ele>733.667</ele>
        <time>2012-03-31T05:23:22Z</time>
      </trkpt>
      <trkpt lat="42.28379" lon="2.52725">
        <ele>734.196</ele>
        <time>2012-03-31T05:23:24Z</time>
      </trkpt>
      <trkpt lat="42.28383" lon="2.52705">
        <ele>737.535</ele>
        <time>2012-03-31T05:23:35Z</time>
      </trkpt>
      <trkpt lat="42.28388" lon="2.52693">
        <ele>740.486</ele>
        <time>2012-03-31T05:23:43Z</time>
      </trkpt>
      <trkpt lat="42.28391" lon="2.52681">
        <ele>741.314</ele>
        <time>2012-03-31T05:23:49Z</time>
      </trkpt>
      <trkpt lat="42.28398" lon="2.52665">
        <ele>743.207</ele>
        <time>2012-03-31T05:23:58Z</time>
      </trkpt>
      <trkpt lat="42.28401" lon="2.52659">
        <ele>744.255</ele>
        <time>2012-03-31T05:24:02Z</time>
      </trkpt>
      <trkpt lat="42.28408" lon="2.52641">
        <ele>746.189</ele>
        <time>2012-03-31T05:24:12Z</time>
      </trkpt>
      <trkpt lat="42.28416" lon="2.52623">
        <ele>749.589</ele>
        <time>2012-03-31T05:24:23Z</time>
      </trkpt>
      <trkpt lat="42.28424" lon="2.52601">
        <ele>751.944</ele>
        <time>2012-03-31T05:24:35Z</time>
      </trkpt>
      <trkpt lat="42.28427" lon="2.52587">
        <ele>754.379</ele>
        <time>2012-03-31T05:24:44Z</time>
      </trkpt>
      <trkpt lat="42.2843" lon="2.52577">
        <ele>755.712</ele>
        <time>2012-03-31T05:24:48Z</time>
      </trkpt>
      <trkpt lat="42.28433" lon="2.52563">
        <ele>758.171</ele>
        <time>2012-03-31T05:24:56Z</time>
      </trkpt>
      <trkpt lat="42.28436" lon="2.52555">
        <ele>758.675</ele>
        <time>2012-03-31T05:25:00Z</time>
      </trkpt>
      <trkpt lat="42.28443" lon="2.52527">
        <ele>761.528</ele>
        <time>2012-03-31T05:25:13Z</time>
      </trkpt>
      <trkpt lat="42.28444" lon="2.52516">
        <ele>762.52</ele>
        <time>2012-03-31T05:25:18Z</time>
      </trkpt>
      <trkpt lat="42.28444" lon="2.52507">
        <ele>762.907</ele>
        <time>2012-03-31T05:25:22Z</time>
      </trkpt>
      <trkpt lat="42.28459" lon="2.52482">
        <ele>764.929</ele>
        <time>2012-03-31T05:25:34Z</time>
      </trkpt>
      <trkpt lat="42.28471" lon="2.52468">
        <ele>765.893</ele>
        <time>2012-03-31T05:25:43Z</time>
      </trkpt>
      <trkpt lat="42.28479" lon="2.52458">
        <ele>765.843</ele>
        <time>2012-03-31T05:25:48Z</time>
      </trkpt>
      <trkpt lat="42.28499" lon="2.52421">
        <ele>767.338</ele>
        <time>2012-03-31T05:26:03Z</time>
      </trkpt>
      <trkpt lat="42.28506" lon="2.52397">
        <ele>766.883</ele>
        <time>2012-03-31T05:26:12Z</time>
      </trkpt>
      <trkpt lat="42.28519" lon="2.52357">
        <ele>767.366</ele>
        <time>2012-03-31T05:26:25Z</time>
      </trkpt>
      <trkpt lat="42.28524" lon="2.52329">
        <ele>767.885</ele>
        <time>2012-03-31T05:26:34Z</time>
      </trkpt>
      <trkpt lat="42.28533" lon="2.52296">
        <ele>769.229</ele>
        <time>2012-03-31T05:26:46Z</time>
      </trkpt>
      <trkpt lat="42.2854" lon="2.52264">
        <ele>769.7</ele>
        <time>2012-03-31T05:26:58Z</time>
      </trkpt>
      <trkpt lat="42.28545" lon="2.52234">
        <ele>771.12</ele>
        <time>2012-03-31T05:27:10Z</time>
      </trkpt>
      <trkpt lat="42.28553" lon="2.52207">
        <ele>770.607</ele>
        <time>2012-03-31T05:27:20Z</time>
      </trkpt>
      <trkpt lat="42.28565" lon="2.5217">
        <ele>771.644</ele>
        <time>2012-03-31T05:27:34Z</time>
      </trkpt>
      <trkpt lat="42.28577" lon="2.52142">
        <ele>772.148</ele>
        <time>2012-03-31T05:27:45Z</time>
      </trkpt>
      <trkpt lat="42.28582" lon="2.52104">
        <ele>774.078</ele>
        <time>2012-03-31T05:27:59Z</time>
      </trkpt>
      <trkpt lat="42.28581" lon="2.52097">
        <ele>774.523</ele>
        <time>2012-03-31T05:28:02Z</time>
      </trkpt>
      <trkpt lat="42.28581" lon="2.52086">
        <ele>775.918</ele>
        <time>2012-03-31T05:28:06Z</time>
      </trkpt>
      <trkpt lat="42.28585" lon="2.52059">
        <ele>779.331</ele>
        <time>2012-03-31T05:28:18Z</time>
      </trkpt>
      <trkpt lat="42.2862" lon="2.52028">
        <ele>781.71</ele>
        <time>2012-03-31T05:28:36Z</time>
      </trkpt>
      <trkpt lat="42.2865" lon="2.51994">
        <ele>781.732</ele>
        <time>2012-03-31T05:28:54Z</time>
      </trkpt>
      <trkpt lat="42.28683" lon="2.51961">
        <ele>782.792</ele>
        <time>2012-03-31T05:29:12Z</time>
      </trkpt>
      <trkpt lat="42.28706" lon="2.51924">
        <ele>783.611</ele>
        <time>2012-03-31T05:29:28Z</time>
      </trkpt>
      <trkpt lat="42.28731" lon="2.51886">
        <ele>786.507</ele>
        <time>2012-03-31T05:29:47Z</time>
      </trkpt>
      <trkpt lat="42.28749" lon="2.51862">
        <ele>788.935</ele>
        <time>2012-03-31T05:30:01Z</time>
      </trkpt>
      <trkpt lat="42.28768" lon="2.51833">
        <ele>792.349</ele>
        <time>2012-03-31T05:30:15Z</time>
      </trkpt>
      <trkpt lat="42.28788" lon="2.51809">
        <ele>795.629</ele>
        <time>2012-03-31T05:30:29Z</time>
      </trkpt>
      <trkpt lat="42.28798" lon="2.51789">
        <ele>797.194</ele>
        <time>2012-03-31T05:30:39Z</time>
      </trkpt>
      <trkpt lat="42.28801" lon="2.51774">
        <ele>799.019</ele>
        <time>2012-03-31T05:30:51Z</time>
      </trkpt>
      <trkpt lat="42.28803" lon="2.51769">
        <ele>799.052</ele>
        <time>2012-03-31T05:30:54Z</time>
      </trkpt>
      <trkpt lat="42.28809" lon="2.51749">
        <ele>799.551</ele>
        <time>2012-03-31T05:31:03Z</time>
      </trkpt>
      <trkpt lat="42.28821" lon="2.51734">
        <ele>797.655</ele>
        <time>2012-03-31T05:31:12Z</time>
      </trkpt>
      <trkpt lat="42.28822" lon="2.51732">
        <ele>797.107</ele>
        <time>2012-03-31T05:31:13Z</time>
      </trkpt>
      <trkpt lat="42.28825" lon="2.51731">
        <ele>796.617</ele>
        <time>2012-03-31T05:31:16Z</time>
      </trkpt>
      <trkpt lat="42.28812" lon="2.51738">
        <ele>798.507</ele>
        <time>2012-03-31T05:31:27Z</time>
      </trkpt>
      <trkpt lat="42.28812" lon="2.51728">
        <ele>800.097</ele>
        <time>2012-03-31T05:31:35Z</time>
      </trkpt>
      <trkpt lat="42.28812" lon="2.51728">
        <ele>800.021</ele>
        <time>2012-03-31T05:31:38Z</time>
      </trkpt>
      <trkpt lat="42.28817" lon="2.51702">
        <ele>800.081</ele>
        <time>2012-03-31T05:31:50Z</time>
      </trkpt>
      <trkpt lat="42.2882" lon="2.51698">
        <ele>800.476</ele>
        <time>2012-03-31T05:31:54Z</time>
      </trkpt>
      <trkpt lat="42.28826" lon="2.51702">
        <ele>797.611</ele>
        <time>2012-03-31T05:31:58Z</time>
      </trkpt>
      <trkpt lat="42.28829" lon="2.51706">
        <ele>797.184</ele>
        <time>2012-03-31T05:32:00Z</time>
      </trkpt>
      <trkpt lat="42.28852" lon="2.517">
        <ele>794.753</ele>
        <time>2012-03-31T05:32:09Z</time>
      </trkpt>
      <trkpt lat="42.28862" lon="2.51689">
        <ele>794.732</ele>
        <time>2012-03-31T05:32:15Z</time>
      </trkpt>
      <trkpt lat="42.28866" lon="2.51684">
        <ele>795.292</ele>
        <time>2012-03-31T05:32:18Z</time>
      </trkpt>
      <trkpt lat="42.28881" lon="2.51669">
        <ele>796.611</ele>
        <time>2012-03-31T05:32:28Z</time>
      </trkpt>
      <trkpt lat="42.28883" lon="2.51667">
        <ele>797.607</ele>
        <time>2012-03-31T05:32:42Z</time>
      </trkpt>
      <trkpt lat="42.28883" lon="2.51667">
        <ele>797.685</ele>
        <time>2012-03-31T05:32:43Z</time>
      </trkpt>
      <trkpt lat="42.28875" lon="2.51659">
        <ele>796.679</ele>
        <time>2012-03-31T05:32:49Z</time>
      </trkpt>
      <trkpt lat="42.28868" lon="2.51648">
        <ele>796.149</ele>
        <time>2012-03-31T05:32:54Z</time>
      </trkpt>
      <trkpt lat="42.28864" lon="2.51643">
        <ele>796.114</ele>
        <time>2012-03-31T05:32:56Z</time>
      </trkpt>
      <trkpt lat="42.28857" lon="2.51628">
        <ele>795.699</ele>
        <time>2012-03-31T05:33:02Z</time>
      </trkpt>
      <trkpt lat="42.28861" lon="2.516">
        <ele>795.242</ele>
        <time>2012-03-31T05:33:18Z</time>
      </trkpt>
      <trkpt lat="42.28876" lon="2.51572">
        <ele>793.261</ele>
        <time>2012-03-31T05:33:34Z</time>
      </trkpt>
      <trkpt lat="42.28881" lon="2.51567">
        <ele>793.262</ele>
        <time>2012-03-31T05:33:38Z</time>
      </trkpt>
      <trkpt lat="42.289" lon="2.51541">
        <ele>791.883</ele>
        <time>2012-03-31T05:33:53Z</time>
      </trkpt>
      <trkpt lat="42.28902" lon="2.51536">
        <ele>791.311</ele>
        <time>2012-03-31T05:33:55Z</time>
      </trkpt>
      <trkpt lat="42.28912" lon="2.51519">
        <ele>790.807</ele>
        <time>2012-03-31T05:34:03Z</time>
      </trkpt>
      <trkpt lat="42.28928" lon="2.51513">
        <ele>793.238</ele>
        <time>2012-03-31T05:34:14Z</time>
      </trkpt>
      <trkpt lat="42.28931" lon="2.51512">
        <ele>793.752</ele>
        <time>2012-03-31T05:34:16Z</time>
      </trkpt>
      <trkpt lat="42.28936" lon="2.51497">
        <ele>793.272</ele>
        <time>2012-03-31T05:34:22Z</time>
      </trkpt>
      <trkpt lat="42.28941" lon="2.51485">
        <ele>792.377</ele>
        <time>2012-03-31T05:34:26Z</time>
      </trkpt>
      <trkpt lat="42.28956" lon="2.51462">
        <ele>792.392</ele>
        <time>2012-03-31T05:34:35Z</time>
      </trkpt>
      <trkpt lat="42.28969" lon="2.51446">
        <ele>792.345</ele>
        <time>2012-03-31T05:34:43Z</time>
      </trkpt>
      <trkpt lat="42.28985" lon="2.51426">
        <ele>791.814</ele>
        <time>2012-03-31T05:34:55Z</time>
      </trkpt>
      <trkpt lat="42.28983" lon="2.51416">
        <ele>790.348</ele>
        <time>2012-03-31T05:35:01Z</time>
      </trkpt>
      <trkpt lat="42.28984" lon="2.51411">
        <ele>790.361</ele>
        <time>2012-03-31T05:35:03Z</time>
      </trkpt>
      <trkpt lat="42.28993" lon="2.51399">
        <ele>789.917</ele>
        <time>2012-03-31T05:35:10Z</time>
      </trkpt>
      <trkpt lat="42.28997" lon="2.51396">
        <ele>790.307</ele>
        <time>2012-03-31T05:35:12Z</time>
      </trkpt>
      <trkpt lat="42.29002" lon="2.51381">
        <ele>788.446</ele>
        <time>2012-03-31T05:35:18Z</time>
      </trkpt>
      <trkpt lat="42.29006" lon="2.51376">
        <ele>788.49</ele>
        <time>2012-03-31T05:35:20Z</time>
      </trkpt>
      <trkpt lat="42.29012" lon="2.51355">
        <ele>787.54</ele>
        <time>2012-03-31T05:35:28Z</time>
      </trkpt>
      <trkpt lat="42.29018" lon="2.51342">
        <ele>786.595</ele>
        <time>2012-03-31T05:35:34Z</time>
      </trkpt>
      <trkpt lat="42.29023" lon="2.51338">
        <ele>785.52</ele>
        <time>2012-03-31T05:35:38Z</time>
      </trkpt>
      <trkpt lat="42.29031" lon="2.51333">
        <ele>782.793</ele>
        <time>2012-03-31T05:35:43Z</time>
      </trkpt>
      <trkpt lat="42.29035" lon="2.51314">
        <ele>781.762</ele>
        <time>2012-03-31T05:35:55Z</time>
      </trkpt>
      <trkpt lat="42.29035" lon="2.51297">
        <ele>780.753</ele>
        <time>2012-03-31T05:36:04Z</time>
      </trkpt>
      <trkpt lat="42.29036" lon="2.51288">
        <ele>779.804</ele>
        <time>2012-03-31T05:36:08Z</time>
      </trkpt>
      <trkpt lat="42.29042" lon="2.51266">
        <ele>778.314</ele>
        <time>2012-03-31T05:36:17Z</time>
      </trkpt>
      <trkpt lat="42.29051" lon="2.5124">
        <ele>777.807</ele>
        <time>2012-03-31T05:36:26Z</time>
      </trkpt>
      <trkpt lat="42.29061" lon="2.51219">
        <ele>776.987</ele>
        <time>2012-03-31T05:36:34Z</time>
      </trkpt>
      <trkpt lat="42.29073" lon="2.51202">
        <ele>775.971</ele>
        <time>2012-03-31T05:36:42Z</time>
      </trkpt>
      <trkpt lat="42.29085" lon="2.5118">
        <ele>775.991</ele>
        <time>2012-03-31T05:36:52Z</time>
      </trkpt>
      <trkpt lat="42.29091" lon="2.51172">
        <ele>776.456</ele>
        <time>2012-03-31T05:36:57Z</time>
      </trkpt>
      <trkpt lat="42.29096" lon="2.51147">
        <ele>775.421</ele>
        <time>2012-03-31T05:37:07Z</time>
      </trkpt>
      <trkpt lat="42.29103" lon="2.51122">
        <ele>775.444</ele>
        <time>2012-03-31T05:37:16Z</time>
      </trkpt>
      <trkpt lat="42.29106" lon="2.51111">
        <ele>775.033</ele>
        <time>2012-03-31T05:37:20Z</time>
      </trkpt>
      <trkpt lat="42.29104" lon="2.51093">
        <ele>774.563</ele>
        <time>2012-03-31T05:37:26Z</time>
      </trkpt>
      <trkpt lat="42.29105" lon="2.51085">
        <ele>774.044</ele>
        <time>2012-03-31T05:37:29Z</time>
      </trkpt>
      <trkpt lat="42.29106" lon="2.51066">
        <ele>773.018</ele>
        <time>2012-03-31T05:37:36Z</time>
      </trkpt>
      <trkpt lat="42.29107" lon="2.51054">
        <ele>772.607</ele>
        <time>2012-03-31T05:37:40Z</time>
      </trkpt>
      <trkpt lat="42.29108" lon="2.51037">
        <ele>772.168</ele>
        <time>2012-03-31T05:37:46Z</time>
      </trkpt>
      <trkpt lat="42.29105" lon="2.51014">
        <ele>770.222</ele>
        <time>2012-03-31T05:37:54Z</time>
      </trkpt>
      <trkpt lat="42.29108" lon="2.51003">
        <ele>769.242</ele>
        <time>2012-03-31T05:37:58Z</time>
      </trkpt>
      <trkpt lat="42.29108" lon="2.50989">
        <ele>768.767</ele>
        <time>2012-03-31T05:38:04Z</time>
      </trkpt>
      <trkpt lat="42.29108" lon="2.50979">
        <ele>768.242</ele>
        <time>2012-03-31T05:38:12Z</time>
      </trkpt>
      <trkpt lat="42.29105" lon="2.50966">
        <ele>766.835</ele>
        <time>2012-03-31T05:38:17Z</time>
      </trkpt>
      <trkpt lat="42.29105" lon="2.50957">
        <ele>766.344</ele>
        <time>2012-03-31T05:38:20Z</time>
      </trkpt>
      <trkpt lat="42.29103" lon="2.50929">
        <ele>764.958</ele>
        <time>2012-03-31T05:38:29Z</time>
      </trkpt>
      <trkpt lat="42.29105" lon="2.50912">
        <ele>763.452</ele>
        <time>2012-03-31T05:38:36Z</time>
      </trkpt>
      <trkpt lat="42.29107" lon="2.50902">
        <ele>762.517</ele>
        <time>2012-03-31T05:38:40Z</time>
      </trkpt>
      <trkpt lat="42.29109" lon="2.50877">
        <ele>761.507</ele>
        <time>2012-03-31T05:38:50Z</time>
      </trkpt>
      <trkpt lat="42.29109" lon="2.50875">
        <ele>761.567</ele>
        <time>2012-03-31T05:38:51Z</time>
      </trkpt>
      <trkpt lat="42.29114" lon="2.50849">
        <ele>758.671</ele>
        <time>2012-03-31T05:39:01Z</time>
      </trkpt>
      <trkpt lat="42.29115" lon="2.50833">
        <ele>757.231</ele>
        <time>2012-03-31T05:39:07Z</time>
      </trkpt>
      <trkpt lat="42.29114" lon="2.50811">
        <ele>754.846</ele>
        <time>2012-03-31T05:39:15Z</time>
      </trkpt>
      <trkpt lat="42.29116" lon="2.50807">
        <ele>752.981</ele>
        <time>2012-03-31T05:39:20Z</time>
      </trkpt>
      <trkpt lat="42.2912" lon="2.50796">
        <ele>751.984</ele>
        <time>2012-03-31T05:39:25Z</time>
      </trkpt>
      <trkpt lat="42.2912" lon="2.50792">
        <ele>751.443</ele>
        <time>2012-03-31T05:39:27Z</time>
      </trkpt>
      <trkpt lat="42.29122" lon="2.50789">
        <ele>750.045</ele>
        <time>2012-03-31T05:39:29Z</time>
      </trkpt>
      <trkpt lat="42.29125" lon="2.50775">
        <ele>748.547</ele>
        <time>2012-03-31T05:39:33Z</time>
      </trkpt>
      <trkpt lat="42.29138" lon="2.50756">
        <ele>745.611</ele>
        <time>2012-03-31T05:39:42Z</time>
      </trkpt>
      <trkpt lat="42.29152" lon="2.50755">
        <ele>745.207</ele>
        <time>2012-03-31T05:39:50Z</time>
      </trkpt>
      <trkpt lat="42.29161" lon="2.50761">
        <ele>743.766</ele>
        <time>2012-03-31T05:39:54Z</time>
      </trkpt>
      <trkpt lat="42.29178" lon="2.50756">
        <ele>740.82</ele>
        <time>2012-03-31T05:40:04Z</time>
      </trkpt>
      <trkpt lat="42.29186" lon="2.50743">
        <ele>739.46</ele>
        <time>2012-03-31T05:40:11Z</time>
      </trkpt>
      <trkpt lat="42.29187" lon="2.50736">
        <ele>738.455</ele>
        <time>2012-03-31T05:40:14Z</time>
      </trkpt>
      <trkpt lat="42.29188" lon="2.50722">
        <ele>736.56</ele>
        <time>2012-03-31T05:40:20Z</time>
      </trkpt>
      <trkpt lat="42.29198" lon="2.50708">
        <ele>734.133</ele>
        <time>2012-03-31T05:40:26Z</time>
      </trkpt>
      <trkpt lat="42.29208" lon="2.50694">
        <ele>732.712</ele>
        <time>2012-03-31T05:40:32Z</time>
      </trkpt>
      <trkpt lat="42.29215" lon="2.50688">
        <ele>732.299</ele>
        <time>2012-03-31T05:40:36Z</time>
      </trkpt>
      <trkpt lat="42.2922" lon="2.50678">
        <ele>732.207</ele>
        <time>2012-03-31T05:40:41Z</time>
      </trkpt>
      <trkpt lat="42.29236" lon="2.50663">
        <ele>729.827</ele>
        <time>2012-03-31T05:40:51Z</time>
      </trkpt>
      <trkpt lat="42.29238" lon="2.50662">
        <ele>729.807</ele>
        <time>2012-03-31T05:40:52Z</time>
      </trkpt>
      <trkpt lat="42.2925" lon="2.50643">
        <ele>727.421</ele>
        <time>2012-03-31T05:41:01Z</time>
      </trkpt>
      <trkpt lat="42.29253" lon="2.50631">
        <ele>725.085</ele>
        <time>2012-03-31T05:41:06Z</time>
      </trkpt>
      <trkpt lat="42.29258" lon="2.50622">
        <ele>722.685</ele>
        <time>2012-03-31T05:41:10Z</time>
      </trkpt>
      <trkpt lat="42.29259" lon="2.5062">
        <ele>722.15</ele>
        <time>2012-03-31T05:41:11Z</time>
      </trkpt>
      <trkpt lat="42.29262" lon="2.50603">
        <ele>718.235</ele>
        <time>2012-03-31T05:41:17Z</time>
      </trkpt>
      <trkpt lat="42.29265" lon="2.50598">
        <ele>716.378</ele>
        <time>2012-03-31T05:41:20Z</time>
      </trkpt>
      <trkpt lat="42.29263" lon="2.5059">
        <ele>714.417</ele>
        <time>2012-03-31T05:41:24Z</time>
      </trkpt>
      <trkpt lat="42.29263" lon="2.50584">
        <ele>712.063</ele>
        <time>2012-03-31T05:41:27Z</time>
      </trkpt>
      <trkpt lat="42.29265" lon="2.50575">
        <ele>709.644</ele>
        <time>2012-03-31T05:41:32Z</time>
      </trkpt>
      <trkpt lat="42.29264" lon="2.50573">
        <ele>708.218</ele>
        <time>2012-03-31T05:41:34Z</time>
      </trkpt>
      <trkpt lat="42.29263" lon="2.50569">
        <ele>707.207</ele>
        <time>2012-03-31T05:41:36Z</time>
      </trkpt>
      <trkpt lat="42.29269" lon="2.50562">
        <ele>704.328</ele>
        <time>2012-03-31T05:41:42Z</time>
      </trkpt>
      <trkpt lat="42.29273" lon="2.50553">
        <ele>702.912</ele>
        <time>2012-03-31T05:41:45Z</time>
      </trkpt>
      <trkpt lat="42.29274" lon="2.50549">
        <ele>701.932</ele>
        <time>2012-03-31T05:41:47Z</time>
      </trkpt>
      <trkpt lat="42.29277" lon="2.50534">
        <ele>698.197</ele>
        <time>2012-03-31T05:41:54Z</time>
      </trkpt>
      <trkpt lat="42.29277" lon="2.50531">
        <ele>696.612</ele>
        <time>2012-03-31T05:41:56Z</time>
      </trkpt>
      <trkpt lat="42.29273" lon="2.5052">
        <ele>694.255</ele>
        <time>2012-03-31T05:42:01Z</time>
      </trkpt>
      <trkpt lat="42.29272" lon="2.50514">
        <ele>692.314</ele>
        <time>2012-03-31T05:42:04Z</time>
      </trkpt>
      <trkpt lat="42.29276" lon="2.50508">
        <ele>689.973</ele>
        <time>2012-03-31T05:42:08Z</time>
      </trkpt>
      <trkpt lat="42.2928" lon="2.50504">
        <ele>688.985</ele>
        <time>2012-03-31T05:42:12Z</time>
      </trkpt>
      <trkpt lat="42.29285" lon="2.50495">
        <ele>685.613</ele>
        <time>2012-03-31T05:42:18Z</time>
      </trkpt>
      <trkpt lat="42.29282" lon="2.50492">
        <ele>684.107</ele>
        <time>2012-03-31T05:42:21Z</time>
      </trkpt>
      <trkpt lat="42.29272" lon="2.50487">
        <ele>682.759</ele>
        <time>2012-03-31T05:42:27Z</time>
      </trkpt>
      <trkpt lat="42.29267" lon="2.50482">
        <ele>680.853</ele>
        <time>2012-03-31T05:42:36Z</time>
      </trkpt>
      <trkpt lat="42.29272" lon="2.50478">
        <ele>678.413</ele>
        <time>2012-03-31T05:42:47Z</time>
      </trkpt>
      <trkpt lat="42.29272" lon="2.50478">
        <ele>678.418</ele>
        <time>2012-03-31T05:43:15Z</time>
      </trkpt>
      <trkpt lat="42.29272" lon="2.50477">
        <ele>678.483</ele>
        <time>2012-03-31T05:43:46Z</time>
      </trkpt>
      <trkpt lat="42.29272" lon="2.50477">
        <ele>678.496</ele>
        <time>2012-03-31T05:44:23Z</time>
      </trkpt>
      <trkpt lat="42.29272" lon="2.50477">
        <ele>679.365</ele>
        <time>2012-03-31T05:44:43Z</time>
      </trkpt>
      <trkpt lat="42.29272" lon="2.50477">
        <ele>678.896</ele>
        <time>2012-03-31T05:45:05Z</time>
      </trkpt>
      <trkpt lat="42.29274" lon="2.50475">
        <ele>678.831</ele>
        <time>2012-03-31T05:45:09Z</time>
      </trkpt>
      <trkpt lat="42.29281" lon="2.50469">
        <ele>676.924</ele>
        <time>2012-03-31T05:45:14Z</time>
      </trkpt>
      <trkpt lat="42.29291" lon="2.50461">
        <ele>675.007</ele>
        <time>2012-03-31T05:45:20Z</time>
      </trkpt>
      <trkpt lat="42.29293" lon="2.50461">
        <ele>674.511</ele>
        <time>2012-03-31T05:45:22Z</time>
      </trkpt>
      <trkpt lat="42.29304" lon="2.5046">
        <ele>673.565</ele>
        <time>2012-03-31T05:45:28Z</time>
      </trkpt>
      <trkpt lat="42.29309" lon="2.50458">
        <ele>672.665</ele>
        <time>2012-03-31T05:45:31Z</time>
      </trkpt>
      <trkpt lat="42.29316" lon="2.50456">
        <ele>673.13</ele>
        <time>2012-03-31T05:45:37Z</time>
      </trkpt>
      <trkpt lat="42.29313" lon="2.50449">
        <ele>671.175</ele>
        <time>2012-03-31T05:45:40Z</time>
      </trkpt>
      <trkpt lat="42.29309" lon="2.50445">
        <ele>669.738</ele>
        <time>2012-03-31T05:45:44Z</time>
      </trkpt>
      <trkpt lat="42.29303" lon="2.50444">
        <ele>666.847</ele>
        <time>2012-03-31T05:45:52Z</time>
      </trkpt>
      <trkpt lat="42.29315" lon="2.50433">
        <ele>664.454</ele>
        <time>2012-03-31T05:45:58Z</time>
      </trkpt>
      <trkpt lat="42.29322" lon="2.50427">
        <ele>662.056</ele>
        <time>2012-03-31T05:46:05Z</time>
      </trkpt>
      <trkpt lat="42.29322" lon="2.50426">
        <ele>661.511</ele>
        <time>2012-03-31T05:46:06Z</time>
      </trkpt>
      <trkpt lat="42.29318" lon="2.50424">
        <ele>660.607</ele>
        <time>2012-03-31T05:46:09Z</time>
      </trkpt>
      <trkpt lat="42.29306" lon="2.50417">
        <ele>658.297</ele>
        <time>2012-03-31T05:46:15Z</time>
      </trkpt>
      <trkpt lat="42.29297" lon="2.50418">
        <ele>657.251</ele>
        <time>2012-03-31T05:46:19Z</time>
      </trkpt>
      <trkpt lat="42.29286" lon="2.50405">
        <ele>654.851</ele>
        <time>2012-03-31T05:46:27Z</time>
      </trkpt>
      <trkpt lat="42.29296" lon="2.50398">
        <ele>652.486</ele>
        <time>2012-03-31T05:46:35Z</time>
      </trkpt>
      <trkpt lat="42.29291" lon="2.50391">
        <ele>651.491</ele>
        <time>2012-03-31T05:46:38Z</time>
      </trkpt>
      <trkpt lat="42.29287" lon="2.50381">
        <ele>649.094</ele>
        <time>2012-03-31T05:46:44Z</time>
      </trkpt>
      <trkpt lat="42.29291" lon="2.50381">
        <ele>648.663</ele>
        <time>2012-03-31T05:46:46Z</time>
      </trkpt>
      <trkpt lat="42.29293" lon="2.50379">
        <ele>647.667</ele>
        <time>2012-03-31T05:46:48Z</time>
      </trkpt>
      <trkpt lat="42.29295" lon="2.50374">
        <ele>646.181</ele>
        <time>2012-03-31T05:46:52Z</time>
      </trkpt>
      <trkpt lat="42.29307" lon="2.50379">
        <ele>644.719</ele>
        <time>2012-03-31T05:46:58Z</time>
      </trkpt>
      <trkpt lat="42.29317" lon="2.50379">
        <ele>643.307</ele>
        <time>2012-03-31T05:47:02Z</time>
      </trkpt>
      <trkpt lat="42.29327" lon="2.50379">
        <ele>641.338</ele>
        <time>2012-03-31T05:47:08Z</time>
      </trkpt>
      <trkpt lat="42.29332" lon="2.50368">
        <ele>641.822</ele>
        <time>2012-03-31T05:47:18Z</time>
      </trkpt>
      <trkpt lat="42.29333" lon="2.50366">
        <ele>641.882</ele>
        <time>2012-03-31T05:47:21Z</time>
      </trkpt>
      <trkpt lat="42.29338" lon="2.50362">
        <ele>643.347</ele>
        <time>2012-03-31T05:47:24Z</time>
      </trkpt>
      <trkpt lat="42.29341" lon="2.50359">
        <ele>643.712</ele>
        <time>2012-03-31T05:47:26Z</time>
      </trkpt>
      <trkpt lat="42.29346" lon="2.50355">
        <ele>643.385</ele>
        <time>2012-03-31T05:47:31Z</time>
      </trkpt>
      <trkpt lat="42.29361" lon="2.50345">
        <ele>643.344</ele>
        <time>2012-03-31T05:47:38Z</time>
      </trkpt>
      <trkpt lat="42.29385" lon="2.50338">
        <ele>639.987</ele>
        <time>2012-03-31T05:47:49Z</time>
      </trkpt>
      <trkpt lat="42.29397" lon="2.50332">
        <ele>638.942</ele>
        <time>2012-03-31T05:47:55Z</time>
      </trkpt>
      <trkpt lat="42.2942" lon="2.50316">
        <ele>637.026</ele>
        <time>2012-03-31T05:48:06Z</time>
      </trkpt>
      <trkpt lat="42.29434" lon="2.50311">
        <ele>634.607</ele>
        <time>2012-03-31T05:48:12Z</time>
      </trkpt>
      <trkpt lat="42.29439" lon="2.5031">
        <ele>635.13</ele>
        <time>2012-03-31T05:48:14Z</time>
      </trkpt>
      <trkpt lat="42.29461" lon="2.50312">
        <ele>633.734</ele>
        <time>2012-03-31T05:48:24Z</time>
      </trkpt>
      <trkpt lat="42.29468" lon="2.50311">
        <ele>632.234</ele>
        <time>2012-03-31T05:48:27Z</time>
      </trkpt>
      <trkpt lat="42.29477" lon="2.50313">
        <ele>631.219</ele>
        <time>2012-03-31T05:48:31Z</time>
      </trkpt>
      <trkpt lat="42.29498" lon="2.50323">
        <ele>629.324</ele>
        <time>2012-03-31T05:48:42Z</time>
      </trkpt>
      <trkpt lat="42.29506" lon="2.5032">
        <ele>628.427</ele>
        <time>2012-03-31T05:48:45Z</time>
      </trkpt>
      <trkpt lat="42.29512" lon="2.50318">
        <ele>628.486</ele>
        <time>2012-03-31T05:48:48Z</time>
      </trkpt>
      <trkpt lat="42.29525" lon="2.50307">
        <ele>628.447</ele>
        <time>2012-03-31T05:48:54Z</time>
      </trkpt>
      <trkpt lat="42.29538" lon="2.50319">
        <ele>626.929</ele>
        <time>2012-03-31T05:49:03Z</time>
      </trkpt>
      <trkpt lat="42.29556" lon="2.50333">
        <ele>625.521</ele>
        <time>2012-03-31T05:49:13Z</time>
      </trkpt>
      <trkpt lat="42.29566" lon="2.50331">
        <ele>623.607</ele>
        <time>2012-03-31T05:49:19Z</time>
      </trkpt>
      <trkpt lat="42.29582" lon="2.50348">
        <ele>621.256</ele>
        <time>2012-03-31T05:49:29Z</time>
      </trkpt>
      <trkpt lat="42.29592" lon="2.50352">
        <ele>621.25</ele>
        <time>2012-03-31T05:49:35Z</time>
      </trkpt>
      <trkpt lat="42.29596" lon="2.50354">
        <ele>621.25</ele>
        <time>2012-03-31T05:49:37Z</time>
      </trkpt>
      <trkpt lat="42.29623" lon="2.50361">
        <ele>621.295</ele>
        <time>2012-03-31T05:49:48Z</time>
      </trkpt>
      <trkpt lat="42.29634" lon="2.50368">
        <ele>621.24</ele>
        <time>2012-03-31T05:49:53Z</time>
      </trkpt>
      <trkpt lat="42.29655" lon="2.50385">
        <ele>621.273</ele>
        <time>2012-03-31T05:50:04Z</time>
      </trkpt>
      <trkpt lat="42.29665" lon="2.50388">
        <ele>621.232</ele>
        <time>2012-03-31T05:50:09Z</time>
      </trkpt>
      <trkpt lat="42.29689" lon="2.50381">
        <ele>619.731</ele>
        <time>2012-03-31T05:50:20Z</time>
      </trkpt>
      <trkpt lat="42.29698" lon="2.50383">
        <ele>619.261</ele>
        <time>2012-03-31T05:50:25Z</time>
      </trkpt>
      <trkpt lat="42.29702" lon="2.50382">
        <ele>618.807</ele>
        <time>2012-03-31T05:50:27Z</time>
      </trkpt>
      <trkpt lat="42.29717" lon="2.50386">
        <ele>618.307</ele>
        <time>2012-03-31T05:50:34Z</time>
      </trkpt>
      <trkpt lat="42.29732" lon="2.50387">
        <ele>618.835</ele>
        <time>2012-03-31T05:50:41Z</time>
      </trkpt>
      <trkpt lat="42.29741" lon="2.50385">
        <ele>618.879</ele>
        <time>2012-03-31T05:50:45Z</time>
      </trkpt>
      <trkpt lat="42.29747" lon="2.50386">
        <ele>618.839</ele>
        <time>2012-03-31T05:50:48Z</time>
      </trkpt>
      <trkpt lat="42.29758" lon="2.50384">
        <ele>617.884</ele>
        <time>2012-03-31T05:50:54Z</time>
      </trkpt>
      <trkpt lat="42.29779" lon="2.50383">
        <ele>617.379</ele>
        <time>2012-03-31T05:51:06Z</time>
      </trkpt>
      <trkpt lat="42.2981" lon="2.50385">
        <ele>617.392</ele>
        <time>2012-03-31T05:51:19Z</time>
      </trkpt>
      <trkpt lat="42.29823" lon="2.50383">
        <ele>617.831</ele>
        <time>2012-03-31T05:51:25Z</time>
      </trkpt>
      <trkpt lat="42.29845" lon="2.50386">
        <ele>616.369</ele>
        <time>2012-03-31T05:51:35Z</time>
      </trkpt>
      <trkpt lat="42.29856" lon="2.50383">
        <ele>616.304</ele>
        <time>2012-03-31T05:51:40Z</time>
      </trkpt>
      <trkpt lat="42.29863" lon="2.50374">
        <ele>617.324</ele>
        <time>2012-03-31T05:51:45Z</time>
      </trkpt>
      <trkpt lat="42.29875" lon="2.5036">
        <ele>613.907</ele>
        <time>2012-03-31T05:51:52Z</time>
      </trkpt>
      <trkpt lat="42.29877" lon="2.50356">
        <ele>613.968</ele>
        <time>2012-03-31T05:51:53Z</time>
      </trkpt>
      <trkpt lat="42.29882" lon="2.50347">
        <ele>612.542</ele>
        <time>2012-03-31T05:51:56Z</time>
      </trkpt>
      <trkpt lat="42.29892" lon="2.50326">
        <ele>609.112</ele>
        <time>2012-03-31T05:52:05Z</time>
      </trkpt>
      <trkpt lat="42.29898" lon="2.50352">
        <ele>606.387</ele>
        <time>2012-03-31T05:52:15Z</time>
      </trkpt>
      <trkpt lat="42.29902" lon="2.50368">
        <ele>603.942</ele>
        <time>2012-03-31T05:52:20Z</time>
      </trkpt>
      <trkpt lat="42.29908" lon="2.50365">
        <ele>601.045</ele>
        <time>2012-03-31T05:52:26Z</time>
      </trkpt>
      <trkpt lat="42.29915" lon="2.50348">
        <ele>599.084</ele>
        <time>2012-03-31T05:52:32Z</time>
      </trkpt>
      <trkpt lat="42.29924" lon="2.50329">
        <ele>595.758</ele>
        <time>2012-03-31T05:52:39Z</time>
      </trkpt>
      <trkpt lat="42.29925" lon="2.50326">
        <ele>595.752</ele>
        <time>2012-03-31T05:52:40Z</time>
      </trkpt>
      <trkpt lat="42.29932" lon="2.50309">
        <ele>592.817</ele>
        <time>2012-03-31T05:52:46Z</time>
      </trkpt>
      <trkpt lat="42.29939" lon="2.50306">
        <ele>589.907</ele>
        <time>2012-03-31T05:52:52Z</time>
      </trkpt>
      <trkpt lat="42.29946" lon="2.50329">
        <ele>586.167</ele>
        <time>2012-03-31T05:53:02Z</time>
      </trkpt>
      <trkpt lat="42.29947" lon="2.50332">
        <ele>587.031</ele>
        <time>2012-03-31T05:53:03Z</time>
      </trkpt>
      <trkpt lat="42.2995" lon="2.50351">
        <ele>582.791</ele>
        <time>2012-03-31T05:53:08Z</time>
      </trkpt>
      <trkpt lat="42.29966" lon="2.5038">
        <ele>580.386</ele>
        <time>2012-03-31T05:53:18Z</time>
      </trkpt>
      <trkpt lat="42.29973" lon="2.50378">
        <ele>578.931</ele>
        <time>2012-03-31T05:53:23Z</time>
      </trkpt>
      <trkpt lat="42.2997" lon="2.50357">
        <ele>575.024</ele>
        <time>2012-03-31T05:53:32Z</time>
      </trkpt>
      <trkpt lat="42.29969" lon="2.50355">
        <ele>574.593</ele>
        <time>2012-03-31T05:53:33Z</time>
      </trkpt>
      <trkpt lat="42.29967" lon="2.5035">
        <ele>572.683</ele>
        <time>2012-03-31T05:53:35Z</time>
      </trkpt>
      <trkpt lat="42.29957" lon="2.50343">
        <ele>568.825</ele>
        <time>2012-03-31T05:53:42Z</time>
      </trkpt>
      <trkpt lat="42.29959" lon="2.50341">
        <ele>569.217</ele>
        <time>2012-03-31T05:53:44Z</time>
      </trkpt>
      <trkpt lat="42.29963" lon="2.5035">
        <ele>566.407</ele>
        <time>2012-03-31T05:53:50Z</time>
      </trkpt>
      <trkpt lat="42.29963" lon="2.50352">
        <ele>566.48</ele>
        <time>2012-03-31T05:53:51Z</time>
      </trkpt>
      <trkpt lat="42.29979" lon="2.5036">
        <ele>563.034</ele>
        <time>2012-03-31T05:53:59Z</time>
      </trkpt>
      <trkpt lat="42.29992" lon="2.50366">
        <ele>560.614</ele>
        <time>2012-03-31T05:54:05Z</time>
      </trkpt>
      <trkpt lat="42.30003" lon="2.50366">
        <ele>557.239</ele>
        <time>2012-03-31T05:54:10Z</time>
      </trkpt>
      <trkpt lat="42.3002" lon="2.50365">
        <ele>554.844</ele>
        <time>2012-03-31T05:54:16Z</time>
      </trkpt>
      <trkpt lat="42.30038" lon="2.50349">
        <ele>552.447</ele>
        <time>2012-03-31T05:54:20Z</time>
      </trkpt>
      <trkpt lat="42.30055" lon="2.50332">
        <ele>552.456</ele>
        <time>2012-03-31T05:54:28Z</time>
      </trkpt>
      <trkpt lat="42.30068" lon="2.50332">
        <ele>550.533</ele>
        <time>2012-03-31T05:54:35Z</time>
      </trkpt>
      <trkpt lat="42.30074" lon="2.50339">
        <ele>548.623</ele>
        <time>2012-03-31T05:54:39Z</time>
      </trkpt>
      <trkpt lat="42.30077" lon="2.50361">
        <ele>546.215</ele>
        <time>2012-03-31T05:54:49Z</time>
      </trkpt>
      <trkpt lat="42.30081" lon="2.50369">
        <ele>543.807</ele>
        <time>2012-03-31T05:54:54Z</time>
      </trkpt>
      <trkpt lat="42.30084" lon="2.5037">
        <ele>543.895</ele>
        <time>2012-03-31T05:55:06Z</time>
      </trkpt>
      <trkpt lat="42.30085" lon="2.5037">
        <ele>543.389</ele>
        <time>2012-03-31T05:55:07Z</time>
      </trkpt>
      <trkpt lat="42.30085" lon="2.5037">
        <ele>543.839</ele>
        <time>2012-03-31T05:55:10Z</time>
      </trkpt>
      <trkpt lat="42.3009" lon="2.50376">
        <ele>542.364</ele>
        <time>2012-03-31T05:55:14Z</time>
      </trkpt>
      <trkpt lat="42.30097" lon="2.50381">
        <ele>540.999</ele>
        <time>2012-03-31T05:55:17Z</time>
      </trkpt>
      <trkpt lat="42.30111" lon="2.50392">
        <ele>539.092</ele>
        <time>2012-03-31T05:55:25Z</time>
      </trkpt>
      <trkpt lat="42.30118" lon="2.50399">
        <ele>537.061</ele>
        <time>2012-03-31T05:55:30Z</time>
      </trkpt>
      <trkpt lat="42.30126" lon="2.50406">
        <ele>535.682</ele>
        <time>2012-03-31T05:55:34Z</time>
      </trkpt>
      <trkpt lat="42.30132" lon="2.50413">
        <ele>533.743</ele>
        <time>2012-03-31T05:55:38Z</time>
      </trkpt>
      <trkpt lat="42.30129" lon="2.50415">
        <ele>532.717</ele>
        <time>2012-03-31T05:55:40Z</time>
      </trkpt>
      <trkpt lat="42.30125" lon="2.50423">
        <ele>530.807</ele>
        <time>2012-03-31T05:55:44Z</time>
      </trkpt>
      <trkpt lat="42.3013" lon="2.50434">
        <ele>528.95</ele>
        <time>2012-03-31T05:55:49Z</time>
      </trkpt>
      <trkpt lat="42.30131" lon="2.5044">
        <ele>527.464</ele>
        <time>2012-03-31T05:55:52Z</time>
      </trkpt>
      <trkpt lat="42.30134" lon="2.50447">
        <ele>526.074</ele>
        <time>2012-03-31T05:55:55Z</time>
      </trkpt>
      <trkpt lat="42.30137" lon="2.50454">
        <ele>524.599</ele>
        <time>2012-03-31T05:55:58Z</time>
      </trkpt>
      <trkpt lat="42.30139" lon="2.5046">
        <ele>523.164</ele>
        <time>2012-03-31T05:56:01Z</time>
      </trkpt>
      <trkpt lat="42.30147" lon="2.50469">
        <ele>520.227</ele>
        <time>2012-03-31T05:56:06Z</time>
      </trkpt>
      <trkpt lat="42.30151" lon="2.50472">
        <ele>519.726</ele>
        <time>2012-03-31T05:56:08Z</time>
      </trkpt>
      <trkpt lat="42.30156" lon="2.50477">
        <ele>518.314</ele>
        <time>2012-03-31T05:56:11Z</time>
      </trkpt>
      <trkpt lat="42.30167" lon="2.50485">
        <ele>515.954</ele>
        <time>2012-03-31T05:56:16Z</time>
      </trkpt>
      <trkpt lat="42.30171" lon="2.50487">
        <ele>515.909</ele>
        <time>2012-03-31T05:56:18Z</time>
      </trkpt>
      <trkpt lat="42.30174" lon="2.5049">
        <ele>514.907</ele>
        <time>2012-03-31T05:56:20Z</time>
      </trkpt>
      <trkpt lat="42.30179" lon="2.50491">
        <ele>514.493</ele>
        <time>2012-03-31T05:56:23Z</time>
      </trkpt>
      <trkpt lat="42.30196" lon="2.50497">
        <ele>512.047</ele>
        <time>2012-03-31T05:56:31Z</time>
      </trkpt>
      <trkpt lat="42.30225" lon="2.50486">
        <ele>509.297</ele>
        <time>2012-03-31T05:56:41Z</time>
      </trkpt>
      <trkpt lat="42.30228" lon="2.50485">
        <ele>509.232</ele>
        <time>2012-03-31T05:56:42Z</time>
      </trkpt>
      <trkpt lat="42.30241" lon="2.50491">
        <ele>506.337</ele>
        <time>2012-03-31T05:56:48Z</time>
      </trkpt>
      <trkpt lat="42.30245" lon="2.50493">
        <ele>505.83</ele>
        <time>2012-03-31T05:56:50Z</time>
      </trkpt>
      <trkpt lat="42.30252" lon="2.505">
        <ele>503.999</ele>
        <time>2012-03-31T05:56:54Z</time>
      </trkpt>
      <trkpt lat="42.30259" lon="2.50508">
        <ele>501.087</ele>
        <time>2012-03-31T05:57:00Z</time>
      </trkpt>
      <trkpt lat="42.30273" lon="2.50516">
        <ele>497.642</ele>
        <time>2012-03-31T05:57:07Z</time>
      </trkpt>
      <trkpt lat="42.30274" lon="2.50517">
        <ele>497.126</ele>
        <time>2012-03-31T05:57:08Z</time>
      </trkpt>
      <trkpt lat="42.30276" lon="2.50517">
        <ele>496.707</ele>
        <time>2012-03-31T05:57:09Z</time>
      </trkpt>
      <trkpt lat="42.30287" lon="2.50522">
        <ele>493.36</ele>
        <time>2012-03-31T05:57:15Z</time>
      </trkpt>
      <trkpt lat="42.30289" lon="2.50524">
        <ele>493.374</ele>
        <time>2012-03-31T05:57:16Z</time>
      </trkpt>
      <trkpt lat="42.30295" lon="2.50529">
        <ele>492.874</ele>
        <time>2012-03-31T05:57:19Z</time>
      </trkpt>
      <trkpt lat="42.30304" lon="2.50542">
        <ele>489.559</ele>
        <time>2012-03-31T05:57:26Z</time>
      </trkpt>
      <trkpt lat="42.30306" lon="2.50546">
        <ele>488.094</ele>
        <time>2012-03-31T05:57:29Z</time>
      </trkpt>
      <trkpt lat="42.30307" lon="2.50547">
        <ele>487.117</ele>
        <time>2012-03-31T05:57:30Z</time>
      </trkpt>
      <trkpt lat="42.30316" lon="2.50545">
        <ele>485.166</ele>
        <time>2012-03-31T05:57:33Z</time>
      </trkpt>
      <trkpt lat="42.30318" lon="2.50546">
        <ele>486.628</ele>
        <time>2012-03-31T05:57:34Z</time>
      </trkpt>
      <trkpt lat="42.30329" lon="2.50548">
        <ele>483.789</ele>
        <time>2012-03-31T05:57:38Z</time>
      </trkpt>
      <trkpt lat="42.30343" lon="2.50547">
        <ele>481.817</ele>
        <time>2012-03-31T05:57:44Z</time>
      </trkpt>
      <trkpt lat="42.30353" lon="2.50552">
        <ele>478.407</ele>
        <time>2012-03-31T05:57:50Z</time>
      </trkpt>
      <trkpt lat="42.30361" lon="2.50562">
        <ele>477.014</ele>
        <time>2012-03-31T05:57:57Z</time>
      </trkpt>
      <trkpt lat="42.30381" lon="2.50573">
        <ele>473.698</ele>
        <time>2012-03-31T05:58:08Z</time>
      </trkpt>
      <trkpt lat="42.3039" lon="2.50588">
        <ele>472.118</ele>
        <time>2012-03-31T05:58:14Z</time>
      </trkpt>
      <trkpt lat="42.30398" lon="2.50606">
        <ele>471.243</ele>
        <time>2012-03-31T05:58:19Z</time>
      </trkpt>
      <trkpt lat="42.30421" lon="2.50629">
        <ele>467.858</ele>
        <time>2012-03-31T05:58:29Z</time>
      </trkpt>
      <trkpt lat="42.30423" lon="2.50631">
        <ele>467.381</ele>
        <time>2012-03-31T05:58:30Z</time>
      </trkpt>
      <trkpt lat="42.30446" lon="2.50644">
        <ele>464.91</ele>
        <time>2012-03-31T05:58:39Z</time>
      </trkpt>
      <trkpt lat="42.30465" lon="2.50632">
        <ele>463.071</ele>
        <time>2012-03-31T05:58:46Z</time>
      </trkpt>
      <trkpt lat="42.30474" lon="2.50627">
        <ele>463.041</ele>
        <time>2012-03-31T05:58:50Z</time>
      </trkpt>
      <trkpt lat="42.30486" lon="2.50625">
        <ele>462.515</ele>
        <time>2012-03-31T05:58:55Z</time>
      </trkpt>
      <trkpt lat="42.30494" lon="2.50625">
        <ele>462.107</ele>
        <time>2012-03-31T05:58:58Z</time>
      </trkpt>
      <trkpt lat="42.30508" lon="2.50635">
        <ele>461.179</ele>
        <time>2012-03-31T05:59:04Z</time>
      </trkpt>
      <trkpt lat="42.30506" lon="2.50648">
        <ele>459.293</ele>
        <time>2012-03-31T05:59:08Z</time>
      </trkpt>
      <trkpt lat="42.30496" lon="2.50653">
        <ele>457.233</ele>
        <time>2012-03-31T05:59:13Z</time>
      </trkpt>
      <trkpt lat="42.30493" lon="2.5066">
        <ele>456.378</ele>
        <time>2012-03-31T05:59:16Z</time>
      </trkpt>
      <trkpt lat="42.30514" lon="2.50672">
        <ele>452.453</ele>
        <time>2012-03-31T05:59:25Z</time>
      </trkpt>
      <trkpt lat="42.30519" lon="2.5067">
        <ele>451.536</ele>
        <time>2012-03-31T05:59:27Z</time>
      </trkpt>
      <trkpt lat="42.30532" lon="2.5065">
        <ele>451.065</ele>
        <time>2012-03-31T05:59:35Z</time>
      </trkpt>
      <trkpt lat="42.30549" lon="2.50625">
        <ele>450.546</ele>
        <time>2012-03-31T05:59:46Z</time>
      </trkpt>
      <trkpt lat="42.3056" lon="2.50613">
        <ele>449.188</ele>
        <time>2012-03-31T05:59:51Z</time>
      </trkpt>
      <trkpt lat="42.3058" lon="2.50606">
        <ele>446.216</ele>
        <time>2012-03-31T05:59:59Z</time>
      </trkpt>
      <trkpt lat="42.30596" lon="2.5061">
        <ele>445.207</ele>
        <time>2012-03-31T06:00:05Z</time>
      </trkpt>
      <trkpt lat="42.30615" lon="2.50633">
        <ele>443.396</ele>
        <time>2012-03-31T06:00:15Z</time>
      </trkpt>
      <trkpt lat="42.3062" lon="2.50642">
        <ele>442.81</ele>
        <time>2012-03-31T06:00:18Z</time>
      </trkpt>
      <trkpt lat="42.30637" lon="2.50671">
        <ele>440.98</ele>
        <time>2012-03-31T06:00:28Z</time>
      </trkpt>
      <trkpt lat="42.30642" lon="2.50675">
        <ele>440.455</ele>
        <time>2012-03-31T06:00:30Z</time>
      </trkpt>
      <trkpt lat="42.30657" lon="2.50703">
        <ele>438.01</ele>
        <time>2012-03-31T06:00:40Z</time>
      </trkpt>
      <trkpt lat="42.30659" lon="2.50705">
        <ele>438.033</ele>
        <time>2012-03-31T06:00:41Z</time>
      </trkpt>
      <trkpt lat="42.30675" lon="2.50705">
        <ele>437.522</ele>
        <time>2012-03-31T06:00:47Z</time>
      </trkpt>
      <trkpt lat="42.30678" lon="2.50703">
        <ele>438.053</ele>
        <time>2012-03-31T06:00:49Z</time>
      </trkpt>
      <trkpt lat="42.30686" lon="2.50697">
        <ele>438.004</ele>
        <time>2012-03-31T06:00:53Z</time>
      </trkpt>
      <trkpt lat="42.30703" lon="2.50678">
        <ele>437.514</ele>
        <time>2012-03-31T06:01:02Z</time>
      </trkpt>
      <trkpt lat="42.3071" lon="2.5065">
        <ele>437.507</ele>
        <time>2012-03-31T06:01:11Z</time>
      </trkpt>
      <trkpt lat="42.30713" lon="2.50612">
        <ele>438.057</ele>
        <time>2012-03-31T06:01:23Z</time>
      </trkpt>
      <trkpt lat="42.30724" lon="2.50582">
        <ele>439.581</ele>
        <time>2012-03-31T06:01:34Z</time>
      </trkpt>
      <trkpt lat="42.30734" lon="2.50548">
        <ele>440.921</ele>
        <time>2012-03-31T06:01:46Z</time>
      </trkpt>
      <trkpt lat="42.30739" lon="2.50521">
        <ele>440.976</ele>
        <time>2012-03-31T06:01:56Z</time>
      </trkpt>
      <trkpt lat="42.30747" lon="2.50498">
        <ele>441.431</ele>
        <time>2012-03-31T06:02:05Z</time>
      </trkpt>
      <trkpt lat="42.30758" lon="2.50474">
        <ele>444.884</ele>
        <time>2012-03-31T06:02:14Z</time>
      </trkpt>
      <trkpt lat="42.30761" lon="2.5047">
        <ele>444.883</ele>
        <time>2012-03-31T06:02:16Z</time>
      </trkpt>
      <trkpt lat="42.30777" lon="2.50453">
        <ele>444.816</ele>
        <time>2012-03-31T06:02:25Z</time>
      </trkpt>
      <trkpt lat="42.30781" lon="2.50428">
        <ele>441.476</ele>
        <time>2012-03-31T06:02:32Z</time>
      </trkpt>
      <trkpt lat="42.3079" lon="2.50388">
        <ele>440.413</ele>
        <time>2012-03-31T06:02:44Z</time>
      </trkpt>
      <trkpt lat="42.30793" lon="2.50371">
        <ele>440.907</ele>
        <time>2012-03-31T06:02:49Z</time>
      </trkpt>
      <trkpt lat="42.30792" lon="2.50358">
        <ele>440.923</ele>
        <time>2012-03-31T06:02:53Z</time>
      </trkpt>
      <trkpt lat="42.30791" lon="2.50354">
        <ele>440.997</ele>
        <time>2012-03-31T06:02:55Z</time>
      </trkpt>
      <trkpt lat="42.30794" lon="2.50334">
        <ele>441.487</ele>
        <time>2012-03-31T06:03:01Z</time>
      </trkpt>
      <trkpt lat="42.308" lon="2.50321">
        <ele>441.452</ele>
        <time>2012-03-31T06:03:05Z</time>
      </trkpt>
      <trkpt lat="42.30803" lon="2.50309">
        <ele>442.837</ele>
        <time>2012-03-31T06:03:09Z</time>
      </trkpt>
      <trkpt lat="42.30805" lon="2.50286">
        <ele>441.49</ele>
        <time>2012-03-31T06:03:15Z</time>
      </trkpt>
      <trkpt lat="42.30803" lon="2.50256">
        <ele>441.949</ele>
        <time>2012-03-31T06:03:23Z</time>
      </trkpt>
      <trkpt lat="42.30808" lon="2.50218">
        <ele>441.953</ele>
        <time>2012-03-31T06:03:34Z</time>
      </trkpt>
      <trkpt lat="42.30808" lon="2.50215">
        <ele>442.304</ele>
        <time>2012-03-31T06:03:35Z</time>
      </trkpt>
      <trkpt lat="42.30813" lon="2.50187">
        <ele>442.314</ele>
        <time>2012-03-31T06:03:44Z</time>
      </trkpt>
      <trkpt lat="42.30815" lon="2.50168">
        <ele>442.307</ele>
        <time>2012-03-31T06:03:49Z</time>
      </trkpt>
      <trkpt lat="42.30814" lon="2.50144">
        <ele>442.887</ele>
        <time>2012-03-31T06:03:56Z</time>
      </trkpt>
      <trkpt lat="42.30813" lon="2.50129">
        <ele>442.811</ele>
        <time>2012-03-31T06:04:00Z</time>
      </trkpt>
      <trkpt lat="42.30816" lon="2.50114">
        <ele>443.311</ele>
        <time>2012-03-31T06:04:05Z</time>
      </trkpt>
      <trkpt lat="42.30821" lon="2.50071">
        <ele>443.886</ele>
        <time>2012-03-31T06:04:17Z</time>
      </trkpt>
      <trkpt lat="42.30829" lon="2.50042">
        <ele>446.251</ele>
        <time>2012-03-31T06:04:26Z</time>
      </trkpt>
      <trkpt lat="42.30834" lon="2.50016">
        <ele>447.654</ele>
        <time>2012-03-31T06:04:35Z</time>
      </trkpt>
      <trkpt lat="42.30841" lon="2.50001">
        <ele>449.623</ele>
        <time>2012-03-31T06:04:41Z</time>
      </trkpt>
      <trkpt lat="42.30844" lon="2.49976">
        <ele>451.547</ele>
        <time>2012-03-31T06:04:51Z</time>
      </trkpt>
      <trkpt lat="42.30843" lon="2.49945">
        <ele>452.029</ele>
        <time>2012-03-31T06:05:01Z</time>
      </trkpt>
      <trkpt lat="42.30844" lon="2.49924">
        <ele>452.421</ele>
        <time>2012-03-31T06:05:08Z</time>
      </trkpt>
      <trkpt lat="42.30852" lon="2.49897">
        <ele>454.807</ele>
        <time>2012-03-31T06:05:19Z</time>
      </trkpt>
      <trkpt lat="42.30864" lon="2.49872">
        <ele>457.226</ele>
        <time>2012-03-31T06:05:29Z</time>
      </trkpt>
      <trkpt lat="42.30875" lon="2.49849">
        <ele>458.23</ele>
        <time>2012-03-31T06:05:38Z</time>
      </trkpt>
      <trkpt lat="42.30878" lon="2.49819">
        <ele>458.71</ele>
        <time>2012-03-31T06:05:48Z</time>
      </trkpt>
      <trkpt lat="42.30878" lon="2.4981">
        <ele>458.275</ele>
        <time>2012-03-31T06:05:51Z</time>
      </trkpt>
      <trkpt lat="42.30876" lon="2.49797">
        <ele>457.71</ele>
        <time>2012-03-31T06:05:54Z</time>
      </trkpt>
      <trkpt lat="42.30873" lon="2.49782">
        <ele>456.853</ele>
        <time>2012-03-31T06:05:58Z</time>
      </trkpt>
      <trkpt lat="42.30867" lon="2.49766">
        <ele>455.872</ele>
        <time>2012-03-31T06:06:03Z</time>
      </trkpt>
      <trkpt lat="42.30862" lon="2.49753">
        <ele>453.979</ele>
        <time>2012-03-31T06:06:07Z</time>
      </trkpt>
      <trkpt lat="42.30861" lon="2.49745">
        <ele>452.905</ele>
        <time>2012-03-31T06:06:09Z</time>
      </trkpt>
      <trkpt lat="42.30862" lon="2.49732">
        <ele>451.025</ele>
        <time>2012-03-31T06:06:13Z</time>
      </trkpt>
      <trkpt lat="42.30865" lon="2.49718">
        <ele>450.507</ele>
        <time>2012-03-31T06:06:17Z</time>
      </trkpt>
      <trkpt lat="42.30869" lon="2.4968">
        <ele>451.559</ele>
        <time>2012-03-31T06:06:28Z</time>
      </trkpt>
      <trkpt lat="42.3087" lon="2.49676">
        <ele>451.593</ele>
        <time>2012-03-31T06:06:29Z</time>
      </trkpt>
      <trkpt lat="42.30884" lon="2.49667">
        <ele>451.543</ele>
        <time>2012-03-31T06:06:37Z</time>
      </trkpt>
      <trkpt lat="42.30901" lon="2.49659">
        <ele>452.048</ele>
        <time>2012-03-31T06:06:46Z</time>
      </trkpt>
      <trkpt lat="42.30899" lon="2.49647">
        <ele>452.023</ele>
        <time>2012-03-31T06:06:50Z</time>
      </trkpt>
      <trkpt lat="42.30896" lon="2.49637">
        <ele>453.966</ele>
        <time>2012-03-31T06:06:54Z</time>
      </trkpt>
      <trkpt lat="42.30889" lon="2.49615">
        <ele>456.395</ele>
        <time>2012-03-31T06:07:04Z</time>
      </trkpt>
      <trkpt lat="42.30887" lon="2.49588">
        <ele>457.762</ele>
        <time>2012-03-31T06:07:15Z</time>
      </trkpt>
      <trkpt lat="42.30886" lon="2.49582">
        <ele>458.283</ele>
        <time>2012-03-31T06:07:17Z</time>
      </trkpt>
      <trkpt lat="42.30884" lon="2.49548">
        <ele>459.211</ele>
        <time>2012-03-31T06:07:29Z</time>
      </trkpt>
      <trkpt lat="42.30885" lon="2.49539">
        <ele>459.707</ele>
        <time>2012-03-31T06:07:33Z</time>
      </trkpt>
      <trkpt lat="42.30886" lon="2.49527">
        <ele>460.128</ele>
        <time>2012-03-31T06:07:37Z</time>
      </trkpt>
      <trkpt lat="42.30886" lon="2.49517">
        <ele>460.182</ele>
        <time>2012-03-31T06:07:41Z</time>
      </trkpt>
      <trkpt lat="42.30885" lon="2.49505">
        <ele>460.622</ele>
        <time>2012-03-31T06:07:45Z</time>
      </trkpt>
      <trkpt lat="42.30886" lon="2.49474">
        <ele>462.137</ele>
        <time>2012-03-31T06:07:56Z</time>
      </trkpt>
      <trkpt lat="42.30884" lon="2.49464">
        <ele>462.592</ele>
        <time>2012-03-31T06:08:00Z</time>
      </trkpt>
      <trkpt lat="42.30874" lon="2.49433">
        <ele>463.045</ele>
        <time>2012-03-31T06:08:10Z</time>
      </trkpt>
      <trkpt lat="42.30868" lon="2.4941">
        <ele>463.594</ele>
        <time>2012-03-31T06:08:17Z</time>
      </trkpt>
      <trkpt lat="42.30863" lon="2.49384">
        <ele>464.019</ele>
        <time>2012-03-31T06:08:26Z</time>
      </trkpt>
      <trkpt lat="42.30859" lon="2.49349">
        <ele>465.909</ele>
        <time>2012-03-31T06:08:37Z</time>
      </trkpt>
      <trkpt lat="42.30855" lon="2.49326">
        <ele>466.419</ele>
        <time>2012-03-31T06:08:45Z</time>
      </trkpt>
      <trkpt lat="42.3085" lon="2.49299">
        <ele>466.407</ele>
        <time>2012-03-31T06:08:53Z</time>
      </trkpt>
      <trkpt lat="42.30849" lon="2.49286">
        <ele>466.493</ele>
        <time>2012-03-31T06:08:57Z</time>
      </trkpt>
      <trkpt lat="42.30847" lon="2.49269">
        <ele>466.437</ele>
        <time>2012-03-31T06:09:03Z</time>
      </trkpt>
      <trkpt lat="42.30852" lon="2.49239">
        <ele>466.937</ele>
        <time>2012-03-31T06:09:13Z</time>
      </trkpt>
      <trkpt lat="42.30849" lon="2.49196">
        <ele>466.972</ele>
        <time>2012-03-31T06:09:25Z</time>
      </trkpt>
      <trkpt lat="42.30848" lon="2.49193">
        <ele>466.927</ele>
        <time>2012-03-31T06:09:26Z</time>
      </trkpt>
      <trkpt lat="42.30847" lon="2.49177">
        <ele>467.36</ele>
        <time>2012-03-31T06:09:31Z</time>
      </trkpt>
      <trkpt lat="42.30852" lon="2.49149">
        <ele>467.399</ele>
        <time>2012-03-31T06:09:41Z</time>
      </trkpt>
      <trkpt lat="42.30852" lon="2.49146">
        <ele>467.374</ele>
        <time>2012-03-31T06:09:42Z</time>
      </trkpt>
      <trkpt lat="42.30854" lon="2.49125">
        <ele>467.856</ele>
        <time>2012-03-31T06:09:48Z</time>
      </trkpt>
      <trkpt lat="42.30853" lon="2.491">
        <ele>467.821</ele>
        <time>2012-03-31T06:09:55Z</time>
      </trkpt>
      <trkpt lat="42.30854" lon="2.4909">
        <ele>468.307</ele>
        <time>2012-03-31T06:09:58Z</time>
      </trkpt>
      <trkpt lat="42.30868" lon="2.4906">
        <ele>469.349</ele>
        <time>2012-03-31T06:10:09Z</time>
      </trkpt>
      <trkpt lat="42.30889" lon="2.49039">
        <ele>470.793</ele>
        <time>2012-03-31T06:10:19Z</time>
      </trkpt>
      <trkpt lat="42.309" lon="2.49027">
        <ele>470.783</ele>
        <time>2012-03-31T06:10:25Z</time>
      </trkpt>
      <trkpt lat="42.30922" lon="2.49004">
        <ele>471.748</ele>
        <time>2012-03-31T06:10:37Z</time>
      </trkpt>
      <trkpt lat="42.30943" lon="2.48986">
        <ele>472.143</ele>
        <time>2012-03-31T06:10:48Z</time>
      </trkpt>
      <trkpt lat="42.30965" lon="2.48967">
        <ele>472.196</ele>
        <time>2012-03-31T06:10:59Z</time>
      </trkpt>
      <trkpt lat="42.30968" lon="2.48956">
        <ele>472.175</ele>
        <time>2012-03-31T06:11:03Z</time>
      </trkpt>
      <trkpt lat="42.30984" lon="2.48925">
        <ele>472.145</ele>
        <time>2012-03-31T06:11:14Z</time>
      </trkpt>
      <trkpt lat="42.31" lon="2.48897">
        <ele>471.747</ele>
        <time>2012-03-31T06:11:25Z</time>
      </trkpt>
      <trkpt lat="42.31005" lon="2.48878">
        <ele>472.111</ele>
        <time>2012-03-31T06:11:31Z</time>
      </trkpt>
      <trkpt lat="42.3101" lon="2.48869">
        <ele>472.107</ele>
        <time>2012-03-31T06:11:35Z</time>
      </trkpt>
      <trkpt lat="42.31015" lon="2.48862">
        <ele>472.696</ele>
        <time>2012-03-31T06:11:38Z</time>
      </trkpt>
      <trkpt lat="42.31028" lon="2.48851">
        <ele>473.68</ele>
        <time>2012-03-31T06:11:45Z</time>
      </trkpt>
      <trkpt lat="42.31042" lon="2.48836">
        <ele>475.58</ele>
        <time>2012-03-31T06:11:52Z</time>
      </trkpt>
      <trkpt lat="42.31062" lon="2.48814">
        <ele>477.945</ele>
        <time>2012-03-31T06:12:04Z</time>
      </trkpt>
      <trkpt lat="42.31084" lon="2.488">
        <ele>480.33</ele>
        <time>2012-03-31T06:12:16Z</time>
      </trkpt>
      <trkpt lat="42.31115" lon="2.48811">
        <ele>482.233</ele>
        <time>2012-03-31T06:12:29Z</time>
      </trkpt>
      <trkpt lat="42.31142" lon="2.48821">
        <ele>482.712</ele>
        <time>2012-03-31T06:12:40Z</time>
      </trkpt>
      <trkpt lat="42.31176" lon="2.48822">
        <ele>482.211</ele>
        <time>2012-03-31T06:12:53Z</time>
      </trkpt>
      <trkpt lat="42.312" lon="2.48812">
        <ele>482.221</ele>
        <time>2012-03-31T06:13:03Z</time>
      </trkpt>
      <trkpt lat="42.31228" lon="2.48788">
        <ele>482.703</ele>
        <time>2012-03-31T06:13:15Z</time>
      </trkpt>
      <trkpt lat="42.31233" lon="2.48782">
        <ele>483.207</ele>
        <time>2012-03-31T06:13:18Z</time>
      </trkpt>
      <trkpt lat="42.31253" lon="2.48744">
        <ele>483.763</ele>
        <time>2012-03-31T06:13:31Z</time>
      </trkpt>
      <trkpt lat="42.31266" lon="2.48718">
        <ele>484.667</ele>
        <time>2012-03-31T06:13:41Z</time>
      </trkpt>
      <trkpt lat="42.31285" lon="2.48685">
        <ele>486.187</ele>
        <time>2012-03-31T06:13:54Z</time>
      </trkpt>
      <trkpt lat="42.31291" lon="2.48671">
        <ele>486.672</ele>
        <time>2012-03-31T06:13:59Z</time>
      </trkpt>
      <trkpt lat="42.31298" lon="2.48662">
        <ele>486.677</ele>
        <time>2012-03-31T06:14:03Z</time>
      </trkpt>
      <trkpt lat="42.31305" lon="2.48652">
        <ele>487.15</ele>
        <time>2012-03-31T06:14:07Z</time>
      </trkpt>
      <trkpt lat="42.31316" lon="2.4863">
        <ele>488.049</ele>
        <time>2012-03-31T06:14:15Z</time>
      </trkpt>
      <trkpt lat="42.31328" lon="2.48623">
        <ele>488.532</ele>
        <time>2012-03-31T06:14:21Z</time>
      </trkpt>
      <trkpt lat="42.31332" lon="2.48615">
        <ele>488.592</ele>
        <time>2012-03-31T06:14:24Z</time>
      </trkpt>
      <trkpt lat="42.31345" lon="2.48594">
        <ele>489.511</ele>
        <time>2012-03-31T06:14:33Z</time>
      </trkpt>
      <trkpt lat="42.31359" lon="2.48576">
        <ele>489.907</ele>
        <time>2012-03-31T06:14:40Z</time>
      </trkpt>
      <trkpt lat="42.31376" lon="2.48565">
        <ele>490.955</ele>
        <time>2012-03-31T06:14:48Z</time>
      </trkpt>
      <trkpt lat="42.3138" lon="2.48562">
        <ele>490.989</ele>
        <time>2012-03-31T06:14:50Z</time>
      </trkpt>
      <trkpt lat="42.31388" lon="2.4856">
        <ele>490.989</ele>
        <time>2012-03-31T06:14:53Z</time>
      </trkpt>
      <trkpt lat="42.31405" lon="2.48553">
        <ele>491.444</ele>
        <time>2012-03-31T06:15:01Z</time>
      </trkpt>
      <trkpt lat="42.31409" lon="2.48549">
        <ele>491.419</ele>
        <time>2012-03-31T06:15:03Z</time>
      </trkpt>
      <trkpt lat="42.31415" lon="2.48547">
        <ele>491.952</ele>
        <time>2012-03-31T06:15:05Z</time>
      </trkpt>
      <trkpt lat="42.31431" lon="2.48541">
        <ele>492.391</ele>
        <time>2012-03-31T06:15:12Z</time>
      </trkpt>
      <trkpt lat="42.3144" lon="2.48535">
        <ele>492.898</ele>
        <time>2012-03-31T06:15:17Z</time>
      </trkpt>
      <trkpt lat="42.3145" lon="2.48524">
        <ele>493.815</ele>
        <time>2012-03-31T06:15:23Z</time>
      </trkpt>
      <trkpt lat="42.31454" lon="2.4852">
        <ele>494.326</ele>
        <time>2012-03-31T06:15:25Z</time>
      </trkpt>
      <trkpt lat="42.3146" lon="2.48513">
        <ele>494.707</ele>
        <time>2012-03-31T06:15:28Z</time>
      </trkpt>
      <trkpt lat="42.31478" lon="2.48502">
        <ele>496.221</ele>
        <time>2012-03-31T06:15:36Z</time>
      </trkpt>
      <trkpt lat="42.31483" lon="2.48488">
        <ele>497.195</ele>
        <time>2012-03-31T06:15:41Z</time>
      </trkpt>
      <trkpt lat="42.31486" lon="2.48482">
        <ele>497.115</ele>
        <time>2012-03-31T06:15:43Z</time>
      </trkpt>
      <trkpt lat="42.31495" lon="2.48458">
        <ele>498.64</ele>
        <time>2012-03-31T06:15:51Z</time>
      </trkpt>
      <trkpt lat="42.31502" lon="2.48435">
        <ele>500.065</ele>
        <time>2012-03-31T06:16:00Z</time>
      </trkpt>
      <trkpt lat="42.31503" lon="2.48432">
        <ele>500.098</ele>
        <time>2012-03-31T06:16:01Z</time>
      </trkpt>
      <trkpt lat="42.31512" lon="2.48419">
        <ele>500.537</ele>
        <time>2012-03-31T06:16:07Z</time>
      </trkpt>
      <trkpt lat="42.31522" lon="2.48403">
        <ele>501.031</ele>
        <time>2012-03-31T06:16:13Z</time>
      </trkpt>
      <trkpt lat="42.31532" lon="2.48379">
        <ele>501.561</ele>
        <time>2012-03-31T06:16:22Z</time>
      </trkpt>
      <trkpt lat="42.31541" lon="2.48355">
        <ele>502.007</ele>
        <time>2012-03-31T06:16:30Z</time>
      </trkpt>
      <trkpt lat="42.3155" lon="2.48329">
        <ele>502.407</ele>
        <time>2012-03-31T06:16:38Z</time>
      </trkpt>
      <trkpt lat="42.31557" lon="2.48317">
        <ele>502.945</ele>
        <time>2012-03-31T06:16:43Z</time>
      </trkpt>
      <trkpt lat="42.31564" lon="2.483">
        <ele>502.429</ele>
        <time>2012-03-31T06:16:48Z</time>
      </trkpt>
      <trkpt lat="42.31575" lon="2.4827">
        <ele>503.419</ele>
        <time>2012-03-31T06:16:58Z</time>
      </trkpt>
      <trkpt lat="42.31577" lon="2.48267">
        <ele>503.924</ele>
        <time>2012-03-31T06:16:59Z</time>
      </trkpt>
      <trkpt lat="42.31582" lon="2.48261">
        <ele>503.459</ele>
        <time>2012-03-31T06:17:02Z</time>
      </trkpt>
      <trkpt lat="42.31587" lon="2.48252">
        <ele>502.932</ele>
        <time>2012-03-31T06:17:05Z</time>
      </trkpt>
      <trkpt lat="42.31599" lon="2.48237">
        <ele>502.421</ele>
        <time>2012-03-31T06:17:12Z</time>
      </trkpt>
      <trkpt lat="42.31615" lon="2.48218">
        <ele>502.061</ele>
        <time>2012-03-31T06:17:20Z</time>
      </trkpt>
      <trkpt lat="42.31626" lon="2.48209">
        <ele>501.521</ele>
        <time>2012-03-31T06:17:25Z</time>
      </trkpt>
      <trkpt lat="42.31636" lon="2.48204">
        <ele>501.013</ele>
        <time>2012-03-31T06:17:29Z</time>
      </trkpt>
      <trkpt lat="42.31657" lon="2.48189">
        <ele>501.507</ele>
        <time>2012-03-31T06:17:37Z</time>
      </trkpt>
      <trkpt lat="42.31661" lon="2.48185">
        <ele>501.058</ele>
        <time>2012-03-31T06:17:39Z</time>
      </trkpt>
      <trkpt lat="42.31685" lon="2.48181">
        <ele>500.062</ele>
        <time>2012-03-31T06:17:49Z</time>
      </trkpt>
      <trkpt lat="42.31709" lon="2.48175">
        <ele>499.532</ele>
        <time>2012-03-31T06:17:57Z</time>
      </trkpt>
      <trkpt lat="42.31737" lon="2.48169">
        <ele>500.027</ele>
        <time>2012-03-31T06:18:07Z</time>
      </trkpt>
      <trkpt lat="42.31745" lon="2.48167">
        <ele>500.522</ele>
        <time>2012-03-31T06:18:10Z</time>
      </trkpt>
      <trkpt lat="42.3177" lon="2.48164">
        <ele>502.065</ele>
        <time>2012-03-31T06:18:22Z</time>
      </trkpt>
      <trkpt lat="42.31785" lon="2.48165">
        <ele>502.424</ele>
        <time>2012-03-31T06:18:28Z</time>
      </trkpt>
      <trkpt lat="42.31796" lon="2.48166">
        <ele>502.485</ele>
        <time>2012-03-31T06:18:33Z</time>
      </trkpt>
      <trkpt lat="42.31811" lon="2.48176">
        <ele>503.989</ele>
        <time>2012-03-31T06:18:40Z</time>
      </trkpt>
      <trkpt lat="42.31816" lon="2.48184">
        <ele>503.917</ele>
        <time>2012-03-31T06:18:44Z</time>
      </trkpt>
      <trkpt lat="42.31834" lon="2.48191">
        <ele>505.807</ele>
        <time>2012-03-31T06:18:53Z</time>
      </trkpt>
      <trkpt lat="42.31843" lon="2.48195">
        <ele>506.85</ele>
        <time>2012-03-31T06:18:57Z</time>
      </trkpt>
      <trkpt lat="42.31879" lon="2.48213">
        <ele>507.784</ele>
        <time>2012-03-31T06:19:11Z</time>
      </trkpt>
      <trkpt lat="42.31894" lon="2.48215">
        <ele>508.784</ele>
        <time>2012-03-31T06:19:16Z</time>
      </trkpt>
      <trkpt lat="42.31921" lon="2.48218">
        <ele>508.739</ele>
        <time>2012-03-31T06:19:25Z</time>
      </trkpt>
      <trkpt lat="42.31938" lon="2.4821">
        <ele>508.714</ele>
        <time>2012-03-31T06:19:32Z</time>
      </trkpt>
      <trkpt lat="42.31944" lon="2.482">
        <ele>508.757</ele>
        <time>2012-03-31T06:19:37Z</time>
      </trkpt>
      <trkpt lat="42.31964" lon="2.4819">
        <ele>510.166</ele>
        <time>2012-03-31T06:19:44Z</time>
      </trkpt>
      <trkpt lat="42.31967" lon="2.48187">
        <ele>510.619</ele>
        <time>2012-03-31T06:19:46Z</time>
      </trkpt>
      <trkpt lat="42.31973" lon="2.48185">
        <ele>511.109</ele>
        <time>2012-03-31T06:19:49Z</time>
      </trkpt>
      <trkpt lat="42.31987" lon="2.48166">
        <ele>513.019</ele>
        <time>2012-03-31T06:19:56Z</time>
      </trkpt>
      <trkpt lat="42.31991" lon="2.48164">
        <ele>513.507</ele>
        <time>2012-03-31T06:19:59Z</time>
      </trkpt>
      <trkpt lat="42.31993" lon="2.48162">
        <ele>513.573</ele>
        <time>2012-03-31T06:20:01Z</time>
      </trkpt>
      <trkpt lat="42.32004" lon="2.48151">
        <ele>515.487</ele>
        <time>2012-03-31T06:20:09Z</time>
      </trkpt>
      <trkpt lat="42.32006" lon="2.48153">
        <ele>515.937</ele>
        <time>2012-03-31T06:20:13Z</time>
      </trkpt>
      <trkpt lat="42.32007" lon="2.48148">
        <ele>516.482</ele>
        <time>2012-03-31T06:20:19Z</time>
      </trkpt>
      <trkpt lat="42.32014" lon="2.48142">
        <ele>516.447</ele>
        <time>2012-03-31T06:20:23Z</time>
      </trkpt>
      <trkpt lat="42.32033" lon="2.48152">
        <ele>519.75</ele>
        <time>2012-03-31T06:20:38Z</time>
      </trkpt>
      <trkpt lat="42.32034" lon="2.48152">
        <ele>520.759</ele>
        <time>2012-03-31T06:20:41Z</time>
      </trkpt>
      <trkpt lat="42.32039" lon="2.4815">
        <ele>521.741</ele>
        <time>2012-03-31T06:20:44Z</time>
      </trkpt>
      <trkpt lat="42.32047" lon="2.48135">
        <ele>523.681</ele>
        <time>2012-03-31T06:20:50Z</time>
      </trkpt>
      <trkpt lat="42.32046" lon="2.48119">
        <ele>525.009</ele>
        <time>2012-03-31T06:20:56Z</time>
      </trkpt>
      <trkpt lat="42.32064" lon="2.48108">
        <ele>526.907</ele>
        <time>2012-03-31T06:21:06Z</time>
      </trkpt>
      <trkpt lat="42.32064" lon="2.4811">
        <ele>527.426</ele>
        <time>2012-03-31T06:21:07Z</time>
      </trkpt>
      <trkpt lat="42.32059" lon="2.48118">
        <ele>530.39</ele>
        <time>2012-03-31T06:21:18Z</time>
      </trkpt>
      <trkpt lat="42.32059" lon="2.4812">
        <ele>529.37</ele>
        <time>2012-03-31T06:21:19Z</time>
      </trkpt>
      <trkpt lat="42.3206" lon="2.48121">
        <ele>529.865</ele>
        <time>2012-03-31T06:21:21Z</time>
      </trkpt>
      <trkpt lat="42.32066" lon="2.4812">
        <ele>532.75</ele>
        <time>2012-03-31T06:21:31Z</time>
      </trkpt>
      <trkpt lat="42.3208" lon="2.48142">
        <ele>534.673</ele>
        <time>2012-03-31T06:21:43Z</time>
      </trkpt>
      <trkpt lat="42.32086" lon="2.48149">
        <ele>536.632</ele>
        <time>2012-03-31T06:21:49Z</time>
      </trkpt>
      <trkpt lat="42.32089" lon="2.48153">
        <ele>537.016</ele>
        <time>2012-03-31T06:21:53Z</time>
      </trkpt>
      <trkpt lat="42.321" lon="2.48162">
        <ele>539.476</ele>
        <time>2012-03-31T06:22:03Z</time>
      </trkpt>
      <trkpt lat="42.32106" lon="2.48176">
        <ele>543.313</ele>
        <time>2012-03-31T06:22:16Z</time>
      </trkpt>
      <trkpt lat="42.32106" lon="2.4816">
        <ele>545.707</ele>
        <time>2012-03-31T06:22:33Z</time>
      </trkpt>
      <trkpt lat="42.32107" lon="2.48155">
        <ele>544.243</ele>
        <time>2012-03-31T06:22:36Z</time>
      </trkpt>
      <trkpt lat="42.32126" lon="2.48137">
        <ele>547.667</ele>
        <time>2012-03-31T06:22:49Z</time>
      </trkpt>
      <trkpt lat="42.32128" lon="2.48133">
        <ele>548.617</ele>
        <time>2012-03-31T06:22:53Z</time>
      </trkpt>
      <trkpt lat="42.32142" lon="2.48128">
        <ele>552.432</ele>
        <time>2012-03-31T06:23:07Z</time>
      </trkpt>
      <trkpt lat="42.32151" lon="2.48126">
        <ele>556.347</ele>
        <time>2012-03-31T06:23:19Z</time>
      </trkpt>
      <trkpt lat="42.32156" lon="2.4813">
        <ele>558.72</ele>
        <time>2012-03-31T06:23:32Z</time>
      </trkpt>
      <trkpt lat="42.32153" lon="2.48133">
        <ele>561.659</ele>
        <time>2012-03-31T06:23:45Z</time>
      </trkpt>
      <trkpt lat="42.32147" lon="2.48137">
        <ele>564.436</ele>
        <time>2012-03-31T06:23:55Z</time>
      </trkpt>
      <trkpt lat="42.32148" lon="2.48149">
        <ele>567.817</ele>
        <time>2012-03-31T06:24:04Z</time>
      </trkpt>
      <trkpt lat="42.32154" lon="2.48161">
        <ele>571.218</ele>
        <time>2012-03-31T06:24:14Z</time>
      </trkpt>
      <trkpt lat="42.32156" lon="2.48165">
        <ele>572.107</ele>
        <time>2012-03-31T06:24:17Z</time>
      </trkpt>
      <trkpt lat="42.32158" lon="2.48167">
        <ele>572.615</ele>
        <time>2012-03-31T06:24:19Z</time>
      </trkpt>
      <trkpt lat="42.32162" lon="2.48172">
        <ele>574.029</ele>
        <time>2012-03-31T06:24:23Z</time>
      </trkpt>
      <trkpt lat="42.32168" lon="2.4818">
        <ele>577.439</ele>
        <time>2012-03-31T06:24:33Z</time>
      </trkpt>
      <trkpt lat="42.32169" lon="2.48184">
        <ele>578.914</ele>
        <time>2012-03-31T06:24:37Z</time>
      </trkpt>
      <trkpt lat="42.32173" lon="2.48193">
        <ele>582.719</ele>
        <time>2012-03-31T06:24:47Z</time>
      </trkpt>
      <trkpt lat="42.3218" lon="2.48198">
        <ele>585.612</ele>
        <time>2012-03-31T06:24:58Z</time>
      </trkpt>
      <trkpt lat="42.32187" lon="2.48189">
        <ele>589.021</ele>
        <time>2012-03-31T06:25:13Z</time>
      </trkpt>
      <trkpt lat="42.32206" lon="2.48186">
        <ele>591.499</ele>
        <time>2012-03-31T06:25:31Z</time>
      </trkpt>
      <trkpt lat="42.32228" lon="2.48194">
        <ele>594.707</ele>
        <time>2012-03-31T06:25:43Z</time>
      </trkpt>
      <trkpt lat="42.32237" lon="2.4819">
        <ele>598.127</ele>
        <time>2012-03-31T06:25:54Z</time>
      </trkpt>
      <trkpt lat="42.32239" lon="2.48168">
        <ele>601.007</ele>
        <time>2012-03-31T06:26:12Z</time>
      </trkpt>
      <trkpt lat="42.32248" lon="2.48142">
        <ele>604.331</ele>
        <time>2012-03-31T06:26:32Z</time>
      </trkpt>
      <trkpt lat="42.32251" lon="2.48125">
        <ele>607.775</ele>
        <time>2012-03-31T06:26:45Z</time>
      </trkpt>
      <trkpt lat="42.32258" lon="2.48109">
        <ele>610.615</ele>
        <time>2012-03-31T06:26:54Z</time>
      </trkpt>
      <trkpt lat="42.32262" lon="2.48094">
        <ele>613.91</ele>
        <time>2012-03-31T06:27:06Z</time>
      </trkpt>
      <trkpt lat="42.32277" lon="2.48068">
        <ele>617.335</ele>
        <time>2012-03-31T06:27:20Z</time>
      </trkpt>
      <trkpt lat="42.3228" lon="2.48067">
        <ele>618.388</ele>
        <time>2012-03-31T06:27:22Z</time>
      </trkpt>
      <trkpt lat="42.32292" lon="2.48078">
        <ele>621.217</ele>
        <time>2012-03-31T06:27:33Z</time>
      </trkpt>
      <trkpt lat="42.32293" lon="2.48099">
        <ele>624.592</ele>
        <time>2012-03-31T06:27:45Z</time>
      </trkpt>
      <trkpt lat="42.32301" lon="2.48117">
        <ele>627.473</ele>
        <time>2012-03-31T06:28:02Z</time>
      </trkpt>
      <trkpt lat="42.32318" lon="2.48134">
        <ele>630.82</ele>
        <time>2012-03-31T06:28:17Z</time>
      </trkpt>
      <trkpt lat="42.32322" lon="2.48139">
        <ele>634.107</ele>
        <time>2012-03-31T06:28:31Z</time>
      </trkpt>
      <trkpt lat="42.32317" lon="2.48129">
        <ele>637.091</ele>
        <time>2012-03-31T06:28:41Z</time>
      </trkpt>
      <trkpt lat="42.32316" lon="2.48103">
        <ele>640.445</ele>
        <time>2012-03-31T06:28:57Z</time>
      </trkpt>
      <trkpt lat="42.3232" lon="2.48093">
        <ele>643.315</ele>
        <time>2012-03-31T06:29:06Z</time>
      </trkpt>
      <trkpt lat="42.32326" lon="2.48074">
        <ele>646.68</ele>
        <time>2012-03-31T06:29:17Z</time>
      </trkpt>
      <trkpt lat="42.32332" lon="2.48065">
        <ele>649.595</ele>
        <time>2012-03-31T06:29:31Z</time>
      </trkpt>
      <trkpt lat="42.32333" lon="2.48065">
        <ele>652.498</ele>
        <time>2012-03-31T06:29:44Z</time>
      </trkpt>
      <trkpt lat="42.32335" lon="2.48077">
        <ele>655.837</ele>
        <time>2012-03-31T06:29:53Z</time>
      </trkpt>
      <trkpt lat="42.32336" lon="2.48093">
        <ele>658.614</ele>
        <time>2012-03-31T06:30:05Z</time>
      </trkpt>
      <trkpt lat="42.32339" lon="2.48093">
        <ele>662.054</ele>
        <time>2012-03-31T06:30:15Z</time>
      </trkpt>
      <trkpt lat="42.3234" lon="2.48092">
        <ele>662.509</ele>
        <time>2012-03-31T06:30:16Z</time>
      </trkpt>
      <trkpt lat="42.32342" lon="2.48095">
        <ele>665.407</ele>
        <time>2012-03-31T06:30:26Z</time>
      </trkpt>
      <trkpt lat="42.32348" lon="2.48097">
        <ele>668.733</ele>
        <time>2012-03-31T06:30:38Z</time>
      </trkpt>
      <trkpt lat="42.32352" lon="2.48089">
        <ele>671.657</ele>
        <time>2012-03-31T06:30:47Z</time>
      </trkpt>
      <trkpt lat="42.32354" lon="2.48086">
        <ele>673.117</ele>
        <time>2012-03-31T06:30:50Z</time>
      </trkpt>
      <trkpt lat="42.32358" lon="2.48073">
        <ele>676.482</ele>
        <time>2012-03-31T06:31:02Z</time>
      </trkpt>
      <trkpt lat="42.32362" lon="2.48068">
        <ele>679.867</ele>
        <time>2012-03-31T06:31:14Z</time>
      </trkpt>
      <trkpt lat="42.32365" lon="2.48077">
        <ele>683.68</ele>
        <time>2012-03-31T06:31:22Z</time>
      </trkpt>
      <trkpt lat="42.32364" lon="2.48078">
        <ele>683.249</ele>
        <time>2012-03-31T06:31:23Z</time>
      </trkpt>
      <trkpt lat="42.32364" lon="2.48081">
        <ele>683.688</ele>
        <time>2012-03-31T06:31:27Z</time>
      </trkpt>
      <trkpt lat="42.32372" lon="2.48077">
        <ele>687.524</ele>
        <time>2012-03-31T06:31:39Z</time>
      </trkpt>
      <trkpt lat="42.32379" lon="2.48072">
        <ele>690.826</ele>
        <time>2012-03-31T06:31:50Z</time>
      </trkpt>
      <trkpt lat="42.32383" lon="2.48065">
        <ele>693.707</ele>
        <time>2012-03-31T06:32:01Z</time>
      </trkpt>
      <trkpt lat="42.32383" lon="2.48056">
        <ele>695.77</ele>
        <time>2012-03-31T06:32:09Z</time>
      </trkpt>
      <trkpt lat="42.32385" lon="2.48052">
        <ele>696.674</ele>
        <time>2012-03-31T06:32:13Z</time>
      </trkpt>
      <trkpt lat="42.32395" lon="2.48036">
        <ele>699.554</ele>
        <time>2012-03-31T06:32:26Z</time>
      </trkpt>
      <trkpt lat="42.32398" lon="2.48041">
        <ele>702.999</ele>
        <time>2012-03-31T06:32:39Z</time>
      </trkpt>
      <trkpt lat="42.32402" lon="2.4804">
        <ele>706.214</ele>
        <time>2012-03-31T06:32:50Z</time>
      </trkpt>
      <trkpt lat="42.32406" lon="2.48028">
        <ele>709.117</ele>
        <time>2012-03-31T06:33:00Z</time>
      </trkpt>
      <trkpt lat="42.32411" lon="2.48023">
        <ele>710.176</ele>
        <time>2012-03-31T06:33:04Z</time>
      </trkpt>
      <trkpt lat="42.32417" lon="2.48024">
        <ele>713.949</ele>
        <time>2012-03-31T06:33:17Z</time>
      </trkpt>
      <trkpt lat="42.32416" lon="2.48029">
        <ele>717.302</ele>
        <time>2012-03-31T06:33:23Z</time>
      </trkpt>
      <trkpt lat="42.32417" lon="2.4803">
        <ele>716.322</ele>
        <time>2012-03-31T06:33:24Z</time>
      </trkpt>
      <trkpt lat="42.32424" lon="2.48029">
        <ele>719.707</ele>
        <time>2012-03-31T06:33:36Z</time>
      </trkpt>
      <trkpt lat="42.32429" lon="2.48026">
        <ele>722.666</ele>
        <time>2012-03-31T06:33:46Z</time>
      </trkpt>
      <trkpt lat="42.32431" lon="2.48023">
        <ele>725.99</ele>
        <time>2012-03-31T06:34:02Z</time>
      </trkpt>
      <trkpt lat="42.32431" lon="2.48021">
        <ele>729.37</ele>
        <time>2012-03-31T06:34:15Z</time>
      </trkpt>
      <trkpt lat="42.32403" lon="2.47983">
        <ele>732.285</ele>
        <time>2012-03-31T06:34:26Z</time>
      </trkpt>
      <trkpt lat="42.32403" lon="2.47976">
        <ele>735.63</ele>
        <time>2012-03-31T06:34:37Z</time>
      </trkpt>
      <trkpt lat="42.32408" lon="2.47963">
        <ele>738.433</ele>
        <time>2012-03-31T06:34:50Z</time>
      </trkpt>
      <trkpt lat="42.32413" lon="2.47954">
        <ele>740.462</ele>
        <time>2012-03-31T06:34:57Z</time>
      </trkpt>
      <trkpt lat="42.32424" lon="2.47937">
        <ele>743.784</ele>
        <time>2012-03-31T06:35:15Z</time>
      </trkpt>
      <trkpt lat="42.3243" lon="2.4793">
        <ele>747.607</ele>
        <time>2012-03-31T06:35:24Z</time>
      </trkpt>
      <trkpt lat="42.3243" lon="2.4793">
        <ele>747.117</ele>
        <time>2012-03-31T06:35:25Z</time>
      </trkpt>
      <trkpt lat="42.32434" lon="2.47941">
        <ele>750.007</ele>
        <time>2012-03-31T06:35:42Z</time>
      </trkpt>
      <trkpt lat="42.32434" lon="2.47943">
        <ele>750.99</ele>
        <time>2012-03-31T06:35:44Z</time>
      </trkpt>
      <trkpt lat="42.32442" lon="2.47938">
        <ele>754.344</ele>
        <time>2012-03-31T06:35:59Z</time>
      </trkpt>
      <trkpt lat="42.32447" lon="2.47944">
        <ele>757.744</ele>
        <time>2012-03-31T06:36:14Z</time>
      </trkpt>
      <trkpt lat="42.32451" lon="2.47945">
        <ele>760.569</ele>
        <time>2012-03-31T06:36:27Z</time>
      </trkpt>
      <trkpt lat="42.32458" lon="2.47937">
        <ele>763.954</ele>
        <time>2012-03-31T06:36:39Z</time>
      </trkpt>
      <trkpt lat="42.32463" lon="2.47941">
        <ele>767.327</ele>
        <time>2012-03-31T06:36:53Z</time>
      </trkpt>
      <trkpt lat="42.32474" lon="2.47934">
        <ele>770.226</ele>
        <time>2012-03-31T06:37:05Z</time>
      </trkpt>
      <trkpt lat="42.32485" lon="2.47931">
        <ele>773.072</ele>
        <time>2012-03-31T06:37:17Z</time>
      </trkpt>
      <trkpt lat="42.32494" lon="2.47926">
        <ele>776.913</ele>
        <time>2012-03-31T06:37:25Z</time>
      </trkpt>
      <trkpt lat="42.32494" lon="2.47926">
        <ele>776.414</ele>
        <time>2012-03-31T06:37:26Z</time>
      </trkpt>
      <trkpt lat="42.32503" lon="2.4792">
        <ele>777.807</ele>
        <time>2012-03-31T06:37:35Z</time>
      </trkpt>
      <trkpt lat="42.3252" lon="2.47907">
        <ele>781.289</ele>
        <time>2012-03-31T06:37:51Z</time>
      </trkpt>
      <trkpt lat="42.32539" lon="2.47899">
        <ele>784.133</ele>
        <time>2012-03-31T06:38:07Z</time>
      </trkpt>
      <trkpt lat="42.32569" lon="2.47884">
        <ele>785.533</ele>
        <time>2012-03-31T06:38:24Z</time>
      </trkpt>
      <trkpt lat="42.32591" lon="2.47891">
        <ele>788.438</ele>
        <time>2012-03-31T06:38:38Z</time>
      </trkpt>
      <trkpt lat="42.32606" lon="2.47897">
        <ele>791.823</ele>
        <time>2012-03-31T06:38:49Z</time>
      </trkpt>
      <trkpt lat="42.32617" lon="2.479">
        <ele>794.746</ele>
        <time>2012-03-31T06:38:59Z</time>
      </trkpt>
      <trkpt lat="42.32635" lon="2.47896">
        <ele>796.185</ele>
        <time>2012-03-31T06:39:14Z</time>
      </trkpt>
      <trkpt lat="42.32669" lon="2.47906">
        <ele>799.024</ele>
        <time>2012-03-31T06:39:32Z</time>
      </trkpt>
      <trkpt lat="42.32695" lon="2.47931">
        <ele>802.404</ele>
        <time>2012-03-31T06:39:51Z</time>
      </trkpt>
      <trkpt lat="42.3272" lon="2.47945">
        <ele>805.214</ele>
        <time>2012-03-31T06:40:09Z</time>
      </trkpt>
      <trkpt lat="42.32742" lon="2.47963">
        <ele>808.107</ele>
        <time>2012-03-31T06:40:24Z</time>
      </trkpt>
      <trkpt lat="42.32749" lon="2.47986">
        <ele>811.584</ele>
        <time>2012-03-31T06:40:37Z</time>
      </trkpt>
      <trkpt lat="42.32754" lon="2.47999">
        <ele>814.478</ele>
        <time>2012-03-31T06:40:49Z</time>
      </trkpt>
      <trkpt lat="42.32756" lon="2.48016">
        <ele>817.768</ele>
        <time>2012-03-31T06:40:59Z</time>
      </trkpt>
      <trkpt lat="42.32752" lon="2.48035">
        <ele>819.733</ele>
        <time>2012-03-31T06:41:09Z</time>
      </trkpt>
      <trkpt lat="42.3276" lon="2.48055">
        <ele>822.698</ele>
        <time>2012-03-31T06:41:23Z</time>
      </trkpt>
      <trkpt lat="42.32764" lon="2.48067">
        <ele>824.551</ele>
        <time>2012-03-31T06:41:34Z</time>
      </trkpt>
      <trkpt lat="42.32782" lon="2.48083">
        <ele>827.47</ele>
        <time>2012-03-31T06:41:49Z</time>
      </trkpt>
      <trkpt lat="42.32794" lon="2.48095">
        <ele>830.272</ele>
        <time>2012-03-31T06:42:03Z</time>
      </trkpt>
      <trkpt lat="42.32803" lon="2.48101">
        <ele>833.613</ele>
        <time>2012-03-31T06:42:15Z</time>
      </trkpt>
      <trkpt lat="42.32805" lon="2.48103">
        <ele>834.114</ele>
        <time>2012-03-31T06:42:17Z</time>
      </trkpt>
      <trkpt lat="42.32811" lon="2.48112">
        <ele>836.007</ele>
        <time>2012-03-31T06:42:25Z</time>
      </trkpt>
      <trkpt lat="42.32819" lon="2.48132">
        <ele>839.939</ele>
        <time>2012-03-31T06:42:40Z</time>
      </trkpt>
      <trkpt lat="42.32829" lon="2.48144">
        <ele>841.893</ele>
        <time>2012-03-31T06:42:51Z</time>
      </trkpt>
      <trkpt lat="42.32845" lon="2.48146">
        <ele>844.253</ele>
        <time>2012-03-31T06:43:05Z</time>
      </trkpt>
      <trkpt lat="42.32858" lon="2.48152">
        <ele>848.068</ele>
        <time>2012-03-31T06:43:20Z</time>
      </trkpt>
      <trkpt lat="42.32865" lon="2.48157">
        <ele>849.053</ele>
        <time>2012-03-31T06:43:27Z</time>
      </trkpt>
      <trkpt lat="42.32876" lon="2.48173">
        <ele>852.486</ele>
        <time>2012-03-31T06:43:43Z</time>
      </trkpt>
      <trkpt lat="42.32883" lon="2.48185">
        <ele>855.785</ele>
        <time>2012-03-31T06:43:55Z</time>
      </trkpt>
      <trkpt lat="42.3289" lon="2.48192">
        <ele>858.677</ele>
        <time>2012-03-31T06:44:06Z</time>
      </trkpt>
      <trkpt lat="42.32897" lon="2.48214">
        <ele>862.061</ele>
        <time>2012-03-31T06:44:23Z</time>
      </trkpt>
      <trkpt lat="42.3291" lon="2.48228">
        <ele>864.827</ele>
        <time>2012-03-31T06:44:38Z</time>
      </trkpt>
      <trkpt lat="42.32917" lon="2.48236">
        <ele>866.307</ele>
        <time>2012-03-31T06:44:46Z</time>
      </trkpt>
      <trkpt lat="42.32933" lon="2.48258">
        <ele>869.759</ele>
        <time>2012-03-31T06:45:04Z</time>
      </trkpt>
      <trkpt lat="42.32933" lon="2.48263">
        <ele>870.163</ele>
        <time>2012-03-31T06:45:08Z</time>
      </trkpt>
      <trkpt lat="42.32929" lon="2.48283">
        <ele>873.573</ele>
        <time>2012-03-31T06:45:24Z</time>
      </trkpt>
      <trkpt lat="42.32929" lon="2.48292">
        <ele>875.498</ele>
        <time>2012-03-31T06:45:30Z</time>
      </trkpt>
      <trkpt lat="42.32931" lon="2.48295">
        <ele>875.473</ele>
        <time>2012-03-31T06:45:32Z</time>
      </trkpt>
      <trkpt lat="42.32936" lon="2.48315">
        <ele>879.376</ele>
        <time>2012-03-31T06:45:46Z</time>
      </trkpt>
      <trkpt lat="42.32938" lon="2.4832">
        <ele>880.255</ele>
        <time>2012-03-31T06:45:50Z</time>
      </trkpt>
      <trkpt lat="42.32944" lon="2.4834">
        <ele>883.659</ele>
        <time>2012-03-31T06:46:05Z</time>
      </trkpt>
      <trkpt lat="42.32955" lon="2.48358">
        <ele>887.003</ele>
        <time>2012-03-31T06:46:21Z</time>
      </trkpt>
      <trkpt lat="42.32967" lon="2.48363">
        <ele>889.823</ele>
        <time>2012-03-31T06:46:35Z</time>
      </trkpt>
      <trkpt lat="42.32978" lon="2.48365">
        <ele>893.207</ele>
        <time>2012-03-31T06:46:47Z</time>
      </trkpt>
      <trkpt lat="42.32984" lon="2.48367">
        <ele>895.157</ele>
        <time>2012-03-31T06:46:54Z</time>
      </trkpt>
      <trkpt lat="42.33001" lon="2.48368">
        <ele>898.081</ele>
        <time>2012-03-31T06:47:09Z</time>
      </trkpt>
      <trkpt lat="42.33012" lon="2.48375">
        <ele>901.431</ele>
        <time>2012-03-31T06:47:23Z</time>
      </trkpt>
      <trkpt lat="42.33027" lon="2.48383">
        <ele>904.746</ele>
        <time>2012-03-31T06:47:38Z</time>
      </trkpt>
      <trkpt lat="42.33039" lon="2.48392">
        <ele>907.681</ele>
        <time>2012-03-31T06:47:51Z</time>
      </trkpt>
      <trkpt lat="42.33048" lon="2.48393">
        <ele>911.584</ele>
        <time>2012-03-31T06:48:03Z</time>
      </trkpt>
      <trkpt lat="42.33049" lon="2.48393">
        <ele>911.583</ele>
        <time>2012-03-31T06:48:04Z</time>
      </trkpt>
      <trkpt lat="42.33062" lon="2.48393">
        <ele>915.331</ele>
        <time>2012-03-31T06:48:19Z</time>
      </trkpt>
      <trkpt lat="42.33074" lon="2.48395">
        <ele>918.261</ele>
        <time>2012-03-31T06:48:30Z</time>
      </trkpt>
      <trkpt lat="42.33088" lon="2.48396">
        <ele>921.107</ele>
        <time>2012-03-31T06:48:45Z</time>
      </trkpt>
      <trkpt lat="42.33098" lon="2.48392">
        <ele>924.507</ele>
        <time>2012-03-31T06:48:57Z</time>
      </trkpt>
      <trkpt lat="42.33105" lon="2.48391">
        <ele>926.495</ele>
        <time>2012-03-31T06:49:05Z</time>
      </trkpt>
      <trkpt lat="42.33117" lon="2.48394">
        <ele>929.339</ele>
        <time>2012-03-31T06:49:18Z</time>
      </trkpt>
      <trkpt lat="42.33127" lon="2.48404">
        <ele>930.779</ele>
        <time>2012-03-31T06:49:28Z</time>
      </trkpt>
      <trkpt lat="42.33143" lon="2.48417">
        <ele>933.624</ele>
        <time>2012-03-31T06:49:42Z</time>
      </trkpt>
      <trkpt lat="42.33152" lon="2.48433">
        <ele>935.559</ele>
        <time>2012-03-31T06:49:55Z</time>
      </trkpt>
      <trkpt lat="42.3316" lon="2.48436">
        <ele>938.972</ele>
        <time>2012-03-31T06:50:06Z</time>
      </trkpt>
      <trkpt lat="42.33167" lon="2.48439">
        <ele>941.881</ele>
        <time>2012-03-31T06:50:18Z</time>
      </trkpt>
      <trkpt lat="42.33173" lon="2.48435">
        <ele>945.193</ele>
        <time>2012-03-31T06:50:28Z</time>
      </trkpt>
      <trkpt lat="42.33181" lon="2.48429">
        <ele>948.065</ele>
        <time>2012-03-31T06:50:40Z</time>
      </trkpt>
      <trkpt lat="42.3319" lon="2.48428">
        <ele>950.921</ele>
        <time>2012-03-31T06:50:51Z</time>
      </trkpt>
      <trkpt lat="42.33206" lon="2.48434">
        <ele>954.307</ele>
        <time>2012-03-31T06:51:04Z</time>
      </trkpt>
      <trkpt lat="42.33219" lon="2.48435">
        <ele>956.791</ele>
        <time>2012-03-31T06:51:17Z</time>
      </trkpt>
      <trkpt lat="42.33232" lon="2.48429">
        <ele>958.615</ele>
        <time>2012-03-31T06:51:31Z</time>
      </trkpt>
      <trkpt lat="42.33233" lon="2.48429">
        <ele>960.585</ele>
        <time>2012-03-31T06:51:32Z</time>
      </trkpt>
      <trkpt lat="42.33248" lon="2.48427">
        <ele>962.91</ele>
        <time>2012-03-31T06:51:46Z</time>
      </trkpt>
      <trkpt lat="42.3325" lon="2.48426">
        <ele>963.485</ele>
        <time>2012-03-31T06:51:48Z</time>
      </trkpt>
      <trkpt lat="42.33258" lon="2.48422">
        <ele>964.368</ele>
        <time>2012-03-31T06:51:55Z</time>
      </trkpt>
      <trkpt lat="42.33275" lon="2.48399">
        <ele>964.337</ele>
        <time>2012-03-31T06:52:10Z</time>
      </trkpt>
      <trkpt lat="42.33277" lon="2.48398">
        <ele>964.836</ele>
        <time>2012-03-31T06:52:11Z</time>
      </trkpt>
      <trkpt lat="42.33285" lon="2.48395">
        <ele>965.317</ele>
        <time>2012-03-31T06:52:15Z</time>
      </trkpt>
      <trkpt lat="42.33324" lon="2.48386">
        <ele>967.718</ele>
        <time>2012-03-31T06:52:36Z</time>
      </trkpt>
      <trkpt lat="42.33336" lon="2.48383">
        <ele>967.707</ele>
        <time>2012-03-31T06:52:42Z</time>
      </trkpt>
      <trkpt lat="42.33347" lon="2.48379">
        <ele>968.265</ele>
        <time>2012-03-31T06:52:48Z</time>
      </trkpt>
      <trkpt lat="42.33363" lon="2.48378">
        <ele>970.679</ele>
        <time>2012-03-31T06:52:58Z</time>
      </trkpt>
      <trkpt lat="42.33369" lon="2.48379">
        <ele>971.649</ele>
        <time>2012-03-31T06:53:02Z</time>
      </trkpt>
      <trkpt lat="42.33389" lon="2.48379">
        <ele>974.934</ele>
        <time>2012-03-31T06:53:17Z</time>
      </trkpt>
      <trkpt lat="42.33397" lon="2.48374">
        <ele>976.879</ele>
        <time>2012-03-31T06:53:32Z</time>
      </trkpt>
      <trkpt lat="42.334" lon="2.48376">
        <ele>978.382</ele>
        <time>2012-03-31T06:53:34Z</time>
      </trkpt>
      <trkpt lat="42.33404" lon="2.48374">
        <ele>979.741</ele>
        <time>2012-03-31T06:53:41Z</time>
      </trkpt>
      <trkpt lat="42.33409" lon="2.48359">
        <ele>982.667</ele>
        <time>2012-03-31T06:53:52Z</time>
      </trkpt>
      <trkpt lat="42.33415" lon="2.48334">
        <ele>984.181</ele>
        <time>2012-03-31T06:54:02Z</time>
      </trkpt>
      <trkpt lat="42.33417" lon="2.48319">
        <ele>986.019</ele>
        <time>2012-03-31T06:54:09Z</time>
      </trkpt>
      <trkpt lat="42.33422" lon="2.48305">
        <ele>987.907</ele>
        <time>2012-03-31T06:54:18Z</time>
      </trkpt>
      <trkpt lat="42.33426" lon="2.48292">
        <ele>989.828</ele>
        <time>2012-03-31T06:54:26Z</time>
      </trkpt>
      <trkpt lat="42.33426" lon="2.48282">
        <ele>990.892</ele>
        <time>2012-03-31T06:54:31Z</time>
      </trkpt>
      <trkpt lat="42.33432" lon="2.48255">
        <ele>992.772</ele>
        <time>2012-03-31T06:54:45Z</time>
      </trkpt>
      <trkpt lat="42.33438" lon="2.48225">
        <ele>993.757</ele>
        <time>2012-03-31T06:54:56Z</time>
      </trkpt>
      <trkpt lat="42.33439" lon="2.48222">
        <ele>993.722</ele>
        <time>2012-03-31T06:54:57Z</time>
      </trkpt>
      <trkpt lat="42.33444" lon="2.4819">
        <ele>995.665</ele>
        <time>2012-03-31T06:55:10Z</time>
      </trkpt>
      <trkpt lat="42.33444" lon="2.48186">
        <ele>996.164</ele>
        <time>2012-03-31T06:55:11Z</time>
      </trkpt>
      <trkpt lat="42.3345" lon="2.48168">
        <ele>997.598</ele>
        <time>2012-03-31T06:55:18Z</time>
      </trkpt>
      <trkpt lat="42.3345" lon="2.48157">
        <ele>998.515</ele>
        <time>2012-03-31T06:55:22Z</time>
      </trkpt>
      <trkpt lat="42.33452" lon="2.48147">
        <ele>999.426</ele>
        <time>2012-03-31T06:55:27Z</time>
      </trkpt>
      <trkpt lat="42.33451" lon="2.48126">
        <ele>999.907</ele>
        <time>2012-03-31T06:55:35Z</time>
      </trkpt>
      <trkpt lat="42.33447" lon="2.48103">
        <ele>1003.371</ele>
        <time>2012-03-31T06:55:45Z</time>
      </trkpt>
      <trkpt lat="42.33447" lon="2.48101">
        <ele>1002.845</ele>
        <time>2012-03-31T06:55:46Z</time>
      </trkpt>
      <trkpt lat="42.33447" lon="2.48096">
        <ele>1004.745</ele>
        <time>2012-03-31T06:55:49Z</time>
      </trkpt>
      <trkpt lat="42.33445" lon="2.48084">
        <ele>1005.28</ele>
        <time>2012-03-31T06:55:53Z</time>
      </trkpt>
      <trkpt lat="42.33445" lon="2.48064">
        <ele>1006.285</ele>
        <time>2012-03-31T06:56:00Z</time>
      </trkpt>
      <trkpt lat="42.33447" lon="2.48042">
        <ele>1006.678</ele>
        <time>2012-03-31T06:56:09Z</time>
      </trkpt>
      <trkpt lat="42.33462" lon="2.48014">
        <ele>1006.667</ele>
        <time>2012-03-31T06:56:19Z</time>
      </trkpt>
      <trkpt lat="42.33469" lon="2.48001">
        <ele>1007.631</ele>
        <time>2012-03-31T06:56:24Z</time>
      </trkpt>
      <trkpt lat="42.33482" lon="2.47986">
        <ele>1010.561</ele>
        <time>2012-03-31T06:56:34Z</time>
      </trkpt>
      <trkpt lat="42.33491" lon="2.47976">
        <ele>1012.407</ele>
        <time>2012-03-31T06:56:40Z</time>
      </trkpt>
      <trkpt lat="42.33495" lon="2.47971">
        <ele>1012.907</ele>
        <time>2012-03-31T06:56:43Z</time>
      </trkpt>
      <trkpt lat="42.33498" lon="2.4796">
        <ele>1013.445</ele>
        <time>2012-03-31T06:56:47Z</time>
      </trkpt>
      <trkpt lat="42.33516" lon="2.47931">
        <ele>1013.979</ele>
        <time>2012-03-31T06:57:00Z</time>
      </trkpt>
      <trkpt lat="42.3352" lon="2.4793">
        <ele>1014.879</ele>
        <time>2012-03-31T06:57:02Z</time>
      </trkpt>
      <trkpt lat="42.33535" lon="2.47913">
        <ele>1016.394</ele>
        <time>2012-03-31T06:57:12Z</time>
      </trkpt>
      <trkpt lat="42.33549" lon="2.47897">
        <ele>1013.469</ele>
        <time>2012-03-31T06:57:19Z</time>
      </trkpt>
      <trkpt lat="42.33562" lon="2.47886">
        <ele>1010.022</ele>
        <time>2012-03-31T06:57:24Z</time>
      </trkpt>
      <trkpt lat="42.33565" lon="2.47884">
        <ele>1009.531</ele>
        <time>2012-03-31T06:57:25Z</time>
      </trkpt>
      <trkpt lat="42.33586" lon="2.47879">
        <ele>1008.662</ele>
        <time>2012-03-31T06:57:34Z</time>
      </trkpt>
      <trkpt lat="42.3361" lon="2.47878">
        <ele>1010.083</ele>
        <time>2012-03-31T06:57:44Z</time>
      </trkpt>
      <trkpt lat="42.33637" lon="2.47871">
        <ele>1010.011</ele>
        <time>2012-03-31T06:57:56Z</time>
      </trkpt>
      <trkpt lat="42.33655" lon="2.47846">
        <ele>1009.007</ele>
        <time>2012-03-31T06:58:06Z</time>
      </trkpt>
      <trkpt lat="42.33676" lon="2.47807">
        <ele>1008.178</ele>
        <time>2012-03-31T06:58:18Z</time>
      </trkpt>
      <trkpt lat="42.33694" lon="2.47774">
        <ele>1006.662</ele>
        <time>2012-03-31T06:58:29Z</time>
      </trkpt>
      <trkpt lat="42.33716" lon="2.47753">
        <ele>1008.692</ele>
        <time>2012-03-31T06:58:39Z</time>
      </trkpt>
      <trkpt lat="42.33718" lon="2.47751">
        <ele>1009.067</ele>
        <time>2012-03-31T06:58:40Z</time>
      </trkpt>
      <trkpt lat="42.33723" lon="2.47748">
        <ele>1010.512</ele>
        <time>2012-03-31T06:58:47Z</time>
      </trkpt>
      <trkpt lat="42.33725" lon="2.47746">
        <ele>1011.455</ele>
        <time>2012-03-31T06:58:49Z</time>
      </trkpt>
      <trkpt lat="42.3373" lon="2.47741">
        <ele>1012.974</ele>
        <time>2012-03-31T06:58:56Z</time>
      </trkpt>
      <trkpt lat="42.33735" lon="2.47729">
        <ele>1016.316</ele>
        <time>2012-03-31T06:59:06Z</time>
      </trkpt>
      <trkpt lat="42.33738" lon="2.47722">
        <ele>1017.276</ele>
        <time>2012-03-31T06:59:12Z</time>
      </trkpt>
      <trkpt lat="42.33739" lon="2.47711">
        <ele>1019.613</ele>
        <time>2012-03-31T06:59:19Z</time>
      </trkpt>
      <trkpt lat="42.33743" lon="2.47701">
        <ele>1021.507</ele>
        <time>2012-03-31T06:59:26Z</time>
      </trkpt>
      <trkpt lat="42.33746" lon="2.47692">
        <ele>1023.073</ele>
        <time>2012-03-31T06:59:32Z</time>
      </trkpt>
      <trkpt lat="42.3375" lon="2.47686">
        <ele>1024.437</ele>
        <time>2012-03-31T06:59:40Z</time>
      </trkpt>
      <trkpt lat="42.33762" lon="2.47669">
        <ele>1024.927</ele>
        <time>2012-03-31T06:59:52Z</time>
      </trkpt>
      <trkpt lat="42.33764" lon="2.47666">
        <ele>1025.912</ele>
        <time>2012-03-31T06:59:57Z</time>
      </trkpt>
      <trkpt lat="42.33772" lon="2.47647">
        <ele>1026.897</ele>
        <time>2012-03-31T07:00:03Z</time>
      </trkpt>
      <trkpt lat="42.33782" lon="2.47633">
        <ele>1028.36</ele>
        <time>2012-03-31T07:00:12Z</time>
      </trkpt>
      <trkpt lat="42.33786" lon="2.47625">
        <ele>1030.289</ele>
        <time>2012-03-31T07:00:24Z</time>
      </trkpt>
      <trkpt lat="42.33789" lon="2.47623">
        <ele>1030.281</ele>
        <time>2012-03-31T07:00:27Z</time>
      </trkpt>
      <trkpt lat="42.33802" lon="2.4761">
        <ele>1032.661</ele>
        <time>2012-03-31T07:00:35Z</time>
      </trkpt>
      <trkpt lat="42.33808" lon="2.47604">
        <ele>1034.017</ele>
        <time>2012-03-31T07:00:42Z</time>
      </trkpt>
      <trkpt lat="42.33812" lon="2.47603">
        <ele>1035.007</ele>
        <time>2012-03-31T07:00:44Z</time>
      </trkpt>
      <trkpt lat="42.33815" lon="2.47606">
        <ele>1035.07</ele>
        <time>2012-03-31T07:00:46Z</time>
      </trkpt>
      <trkpt lat="42.33827" lon="2.47617">
        <ele>1036.484</ele>
        <time>2012-03-31T07:00:58Z</time>
      </trkpt>
      <trkpt lat="42.33832" lon="2.47623">
        <ele>1036.954</ele>
        <time>2012-03-31T07:01:03Z</time>
      </trkpt>
      <trkpt lat="42.33843" lon="2.47636">
        <ele>1037.949</ele>
        <time>2012-03-31T07:01:13Z</time>
      </trkpt>
      <trkpt lat="42.33852" lon="2.47649">
        <ele>1039.394</ele>
        <time>2012-03-31T07:01:20Z</time>
      </trkpt>
      <trkpt lat="42.33872" lon="2.47662">
        <ele>1040.867</ele>
        <time>2012-03-31T07:01:31Z</time>
      </trkpt>
      <trkpt lat="42.33872" lon="2.47662">
        <ele>1040.846</ele>
        <time>2012-03-31T07:01:32Z</time>
      </trkpt>
      <trkpt lat="42.33882" lon="2.47674">
        <ele>1043.746</ele>
        <time>2012-03-31T07:01:44Z</time>
      </trkpt>
      <trkpt lat="42.33891" lon="2.47685">
        <ele>1046.188</ele>
        <time>2012-03-31T07:01:53Z</time>
      </trkpt>
      <trkpt lat="42.33899" lon="2.47696">
        <ele>1049.416</ele>
        <time>2012-03-31T07:02:04Z</time>
      </trkpt>
      <trkpt lat="42.33909" lon="2.47709">
        <ele>1052.807</ele>
        <time>2012-03-31T07:02:17Z</time>
      </trkpt>
      <trkpt lat="42.33915" lon="2.47725">
        <ele>1056.256</ele>
        <time>2012-03-31T07:02:29Z</time>
      </trkpt>
      <trkpt lat="42.3392" lon="2.47748">
        <ele>1059.02</ele>
        <time>2012-03-31T07:02:44Z</time>
      </trkpt>
      <trkpt lat="42.33934" lon="2.47781">
        <ele>1061.09</ele>
        <time>2012-03-31T07:03:00Z</time>
      </trkpt>
      <trkpt lat="42.33938" lon="2.47814">
        <ele>1063.425</ele>
        <time>2012-03-31T07:03:13Z</time>
      </trkpt>
      <trkpt lat="42.33945" lon="2.47838">
        <ele>1064.87</ele>
        <time>2012-03-31T07:03:30Z</time>
      </trkpt>
      <trkpt lat="42.33946" lon="2.4784">
        <ele>1065.323</ele>
        <time>2012-03-31T07:03:31Z</time>
      </trkpt>
      <trkpt lat="42.3397" lon="2.47873">
        <ele>1068.252</ele>
        <time>2012-03-31T07:03:48Z</time>
      </trkpt>
      <trkpt lat="42.33977" lon="2.47881">
        <ele>1070.163</ele>
        <time>2012-03-31T07:03:57Z</time>
      </trkpt>
      <trkpt lat="42.34" lon="2.47884">
        <ele>1073.544</ele>
        <time>2012-03-31T07:04:11Z</time>
      </trkpt>
      <trkpt lat="42.34019" lon="2.4789">
        <ele>1076.318</ele>
        <time>2012-03-31T07:04:23Z</time>
      </trkpt>
      <trkpt lat="42.34042" lon="2.479">
        <ele>1079.707</ele>
        <time>2012-03-31T07:04:37Z</time>
      </trkpt>
      <trkpt lat="42.34057" lon="2.4791">
        <ele>1083.168</ele>
        <time>2012-03-31T07:04:51Z</time>
      </trkpt>
      <trkpt lat="42.34064" lon="2.47918">
        <ele>1085.592</ele>
        <time>2012-03-31T07:05:05Z</time>
      </trkpt>
      <trkpt lat="42.34074" lon="2.47928">
        <ele>1087.952</ele>
        <time>2012-03-31T07:05:17Z</time>
      </trkpt>
      <trkpt lat="42.34083" lon="2.47933">
        <ele>1089.887</ele>
        <time>2012-03-31T07:05:26Z</time>
      </trkpt>
      <trkpt lat="42.34081" lon="2.47945">
        <ele>1093.662</ele>
        <time>2012-03-31T07:05:38Z</time>
      </trkpt>
      <trkpt lat="42.3408" lon="2.47945">
        <ele>1093.665</ele>
        <time>2012-03-31T07:05:39Z</time>
      </trkpt>
      <trkpt lat="42.34077" lon="2.47953">
        <ele>1096.084</ele>
        <time>2012-03-31T07:05:49Z</time>
      </trkpt>
      <trkpt lat="42.34077" lon="2.47953">
        <ele>1097.041</ele>
        <time>2012-03-31T07:05:52Z</time>
      </trkpt>
      <trkpt lat="42.34078" lon="2.47958">
        <ele>1098.081</ele>
        <time>2012-03-31T07:05:56Z</time>
      </trkpt>
      <trkpt lat="42.34079" lon="2.47962">
        <ele>1098.409</ele>
        <time>2012-03-31T07:05:59Z</time>
      </trkpt>
      <trkpt lat="42.34081" lon="2.47964">
        <ele>1099.407</ele>
        <time>2012-03-31T07:06:01Z</time>
      </trkpt>
      <trkpt lat="42.34078" lon="2.47967">
        <ele>1100.916</ele>
        <time>2012-03-31T07:06:06Z</time>
      </trkpt>
      <trkpt lat="42.34074" lon="2.47972">
        <ele>1102.86</ele>
        <time>2012-03-31T07:06:14Z</time>
      </trkpt>
      <trkpt lat="42.34071" lon="2.47976">
        <ele>1104.72</ele>
        <time>2012-03-31T07:06:21Z</time>
      </trkpt>
      <trkpt lat="42.34071" lon="2.47976">
        <ele>1104.785</ele>
        <time>2012-03-31T07:06:22Z</time>
      </trkpt>
      <trkpt lat="42.34069" lon="2.47985">
        <ele>1107.19</ele>
        <time>2012-03-31T07:06:30Z</time>
      </trkpt>
      <trkpt lat="42.34065" lon="2.47986">
        <ele>1108.583</ele>
        <time>2012-03-31T07:06:35Z</time>
      </trkpt>
      <trkpt lat="42.34059" lon="2.47989">
        <ele>1109.522</ele>
        <time>2012-03-31T07:06:41Z</time>
      </trkpt>
      <trkpt lat="42.34059" lon="2.47993">
        <ele>1111.463</ele>
        <time>2012-03-31T07:06:45Z</time>
      </trkpt>
      <trkpt lat="42.34059" lon="2.47995">
        <ele>1111.444</ele>
        <time>2012-03-31T07:06:48Z</time>
      </trkpt>
      <trkpt lat="42.34058" lon="2.48">
        <ele>1113.818</ele>
        <time>2012-03-31T07:06:53Z</time>
      </trkpt>
      <trkpt lat="42.34059" lon="2.48007">
        <ele>1114.807</ele>
        <time>2012-03-31T07:06:58Z</time>
      </trkpt>
      <trkpt lat="42.34063" lon="2.48015">
        <ele>1116.278</ele>
        <time>2012-03-31T07:07:04Z</time>
      </trkpt>
      <trkpt lat="42.34063" lon="2.4802">
        <ele>1117.752</ele>
        <time>2012-03-31T07:07:08Z</time>
      </trkpt>
      <trkpt lat="42.34067" lon="2.48024">
        <ele>1118.632</ele>
        <time>2012-03-31T07:07:13Z</time>
      </trkpt>
      <trkpt lat="42.3407" lon="2.48027">
        <ele>1120.177</ele>
        <time>2012-03-31T07:07:17Z</time>
      </trkpt>
      <trkpt lat="42.34073" lon="2.48031">
        <ele>1122.072</ele>
        <time>2012-03-31T07:07:24Z</time>
      </trkpt>
      <trkpt lat="42.34073" lon="2.48036">
        <ele>1123.035</ele>
        <time>2012-03-31T07:07:27Z</time>
      </trkpt>
      <trkpt lat="42.34076" lon="2.48041">
        <ele>1124.484</ele>
        <time>2012-03-31T07:07:32Z</time>
      </trkpt>
      <trkpt lat="42.34082" lon="2.4805">
        <ele>1126.362</ele>
        <time>2012-03-31T07:07:41Z</time>
      </trkpt>
      <trkpt lat="42.34085" lon="2.48057">
        <ele>1128.283</ele>
        <time>2012-03-31T07:07:49Z</time>
      </trkpt>
      <trkpt lat="42.34085" lon="2.48064">
        <ele>1129.211</ele>
        <time>2012-03-31T07:07:53Z</time>
      </trkpt>
      <trkpt lat="42.34085" lon="2.48076">
        <ele>1130.207</ele>
        <time>2012-03-31T07:08:01Z</time>
      </trkpt>
      <trkpt lat="42.34085" lon="2.4808">
        <ele>1131.118</ele>
        <time>2012-03-31T07:08:05Z</time>
      </trkpt>
      <trkpt lat="42.34084" lon="2.48087">
        <ele>1131.632</ele>
        <time>2012-03-31T07:08:08Z</time>
      </trkpt>
      <trkpt lat="42.34083" lon="2.48089">
        <ele>1131.682</ele>
        <time>2012-03-31T07:08:10Z</time>
      </trkpt>
      <trkpt lat="42.34079" lon="2.48105">
        <ele>1133.187</ele>
        <time>2012-03-31T07:08:20Z</time>
      </trkpt>
      <trkpt lat="42.34078" lon="2.48106">
        <ele>1133.182</ele>
        <time>2012-03-31T07:08:22Z</time>
      </trkpt>
      <trkpt lat="42.34077" lon="2.48108">
        <ele>1133.585</ele>
        <time>2012-03-31T07:08:24Z</time>
      </trkpt>
      <trkpt lat="42.34073" lon="2.48115">
        <ele>1134.594</ele>
        <time>2012-03-31T07:08:30Z</time>
      </trkpt>
      <trkpt lat="42.34061" lon="2.48124">
        <ele>1138.368</ele>
        <time>2012-03-31T07:08:44Z</time>
      </trkpt>
      <trkpt lat="42.34046" lon="2.48135">
        <ele>1141.242</ele>
        <time>2012-03-31T07:09:00Z</time>
      </trkpt>
      <trkpt lat="42.34041" lon="2.48145">
        <ele>1143.126</ele>
        <time>2012-03-31T07:09:08Z</time>
      </trkpt>
      <trkpt lat="42.34036" lon="2.48158">
        <ele>1145.107</ele>
        <time>2012-03-31T07:09:19Z</time>
      </trkpt>
      <trkpt lat="42.34028" lon="2.48175">
        <ele>1148.488</ele>
        <time>2012-03-31T07:09:34Z</time>
      </trkpt>
      <trkpt lat="42.34021" lon="2.48188">
        <ele>1151.892</ele>
        <time>2012-03-31T07:09:46Z</time>
      </trkpt>
      <trkpt lat="42.3402" lon="2.48191">
        <ele>1152.842</ele>
        <time>2012-03-31T07:09:49Z</time>
      </trkpt>
      <trkpt lat="42.34015" lon="2.48201">
        <ele>1156.157</ele>
        <time>2012-03-31T07:10:00Z</time>
      </trkpt>
      <trkpt lat="42.34012" lon="2.48206">
        <ele>1159.582</ele>
        <time>2012-03-31T07:10:07Z</time>
      </trkpt>
      <trkpt lat="42.34005" lon="2.4822">
        <ele>1162.465</ele>
        <time>2012-03-31T07:10:22Z</time>
      </trkpt>
      <trkpt lat="42.34002" lon="2.48224">
        <ele>1163.814</ele>
        <time>2012-03-31T07:10:27Z</time>
      </trkpt>
      <trkpt lat="42.33997" lon="2.48233">
        <ele>1167.757</ele>
        <time>2012-03-31T07:10:40Z</time>
      </trkpt>
      <trkpt lat="42.33994" lon="2.48244">
        <ele>1171</ele>
        <time>2012-03-31T07:10:52Z</time>
      </trkpt>
      <trkpt lat="42.33989" lon="2.4825">
        <ele>1174.42</ele>
        <time>2012-03-31T07:11:04Z</time>
      </trkpt>
      <trkpt lat="42.33985" lon="2.48256">
        <ele>1177.307</ele>
        <time>2012-03-31T07:11:15Z</time>
      </trkpt>
      <trkpt lat="42.33984" lon="2.48261">
        <ele>1180.647</ele>
        <time>2012-03-31T07:11:26Z</time>
      </trkpt>
      <trkpt lat="42.33983" lon="2.48263">
        <ele>1181.641</ele>
        <time>2012-03-31T07:11:29Z</time>
      </trkpt>
      <trkpt lat="42.3398" lon="2.48271">
        <ele>1185.021</ele>
        <time>2012-03-31T07:11:40Z</time>
      </trkpt>
      <trkpt lat="42.33972" lon="2.48276">
        <ele>1188.376</ele>
        <time>2012-03-31T07:11:51Z</time>
      </trkpt>
      <trkpt lat="42.33969" lon="2.48282">
        <ele>1191.231</ele>
        <time>2012-03-31T07:11:59Z</time>
      </trkpt>
      <trkpt lat="42.33966" lon="2.4829">
        <ele>1195.584</ele>
        <time>2012-03-31T07:12:08Z</time>
      </trkpt>
      <trkpt lat="42.33965" lon="2.48291">
        <ele>1194.633</ele>
        <time>2012-03-31T07:12:09Z</time>
      </trkpt>
      <trkpt lat="42.33951" lon="2.48305">
        <ele>1197.965</ele>
        <time>2012-03-31T07:12:26Z</time>
      </trkpt>
      <trkpt lat="42.33957" lon="2.48313">
        <ele>1200.868</ele>
        <time>2012-03-31T07:12:40Z</time>
      </trkpt>
      <trkpt lat="42.33962" lon="2.4832">
        <ele>1204.214</ele>
        <time>2012-03-31T07:12:52Z</time>
      </trkpt>
      <trkpt lat="42.33962" lon="2.4832">
        <ele>1207.607</ele>
        <time>2012-03-31T07:13:02Z</time>
      </trkpt>
      <trkpt lat="42.33963" lon="2.48323">
        <ele>1210.948</ele>
        <time>2012-03-31T07:13:15Z</time>
      </trkpt>
      <trkpt lat="42.33966" lon="2.48336">
        <ele>1212.472</ele>
        <time>2012-03-31T07:13:21Z</time>
      </trkpt>
      <trkpt lat="42.33979" lon="2.48354">
        <ele>1214.322</ele>
        <time>2012-03-31T07:13:33Z</time>
      </trkpt>
      <trkpt lat="42.33986" lon="2.48362">
        <ele>1213.847</ele>
        <time>2012-03-31T07:13:40Z</time>
      </trkpt>
      <trkpt lat="42.3399" lon="2.48367">
        <ele>1214.362</ele>
        <time>2012-03-31T07:13:44Z</time>
      </trkpt>
      <trkpt lat="42.34002" lon="2.48387">
        <ele>1214.315</ele>
        <time>2012-03-31T07:14:01Z</time>
      </trkpt>
      <trkpt lat="42.34011" lon="2.48404">
        <ele>1214.384</ele>
        <time>2012-03-31T07:14:13Z</time>
      </trkpt>
      <trkpt lat="42.34016" lon="2.48406">
        <ele>1210.942</ele>
        <time>2012-03-31T07:14:20Z</time>
      </trkpt>
      <trkpt lat="42.34021" lon="2.48405">
        <ele>1208.022</ele>
        <time>2012-03-31T07:14:26Z</time>
      </trkpt>
      <trkpt lat="42.34026" lon="2.48411">
        <ele>1204.714</ele>
        <time>2012-03-31T07:14:32Z</time>
      </trkpt>
      <trkpt lat="42.34029" lon="2.48417">
        <ele>1203.207</ele>
        <time>2012-03-31T07:14:35Z</time>
      </trkpt>
      <trkpt lat="42.34025" lon="2.48427">
        <ele>1199.416</ele>
        <time>2012-03-31T07:14:40Z</time>
      </trkpt>
      <trkpt lat="42.34029" lon="2.48433">
        <ele>1196.02</ele>
        <time>2012-03-31T07:14:46Z</time>
      </trkpt>
      <trkpt lat="42.34045" lon="2.48464">
        <ele>1193.61</ele>
        <time>2012-03-31T07:15:01Z</time>
      </trkpt>
      <trkpt lat="42.34062" lon="2.48495">
        <ele>1190.775</ele>
        <time>2012-03-31T07:15:15Z</time>
      </trkpt>
      <trkpt lat="42.34064" lon="2.485">
        <ele>1190.72</ele>
        <time>2012-03-31T07:15:17Z</time>
      </trkpt>
      <trkpt lat="42.34082" lon="2.48531">
        <ele>1187.923</ele>
        <time>2012-03-31T07:15:34Z</time>
      </trkpt>
      <trkpt lat="42.34084" lon="2.48543">
        <ele>1186.912</ele>
        <time>2012-03-31T07:15:40Z</time>
      </trkpt>
      <trkpt lat="42.34082" lon="2.48577">
        <ele>1186.467</ele>
        <time>2012-03-31T07:15:55Z</time>
      </trkpt>
      <trkpt lat="42.34091" lon="2.48603">
        <ele>1190.381</ele>
        <time>2012-03-31T07:16:10Z</time>
      </trkpt>
      <trkpt lat="42.34091" lon="2.48604">
        <ele>1189.819</ele>
        <time>2012-03-31T07:16:11Z</time>
      </trkpt>
      <trkpt lat="42.34093" lon="2.48617">
        <ele>1192.707</ele>
        <time>2012-03-31T07:16:22Z</time>
      </trkpt>
      <trkpt lat="42.34094" lon="2.48629">
        <ele>1196.078</ele>
        <time>2012-03-31T07:16:33Z</time>
      </trkpt>
      <trkpt lat="42.34095" lon="2.48637">
        <ele>1198.942</ele>
        <time>2012-03-31T07:16:43Z</time>
      </trkpt>
      <trkpt lat="42.34098" lon="2.48664">
        <ele>1202.392</ele>
        <time>2012-03-31T07:17:00Z</time>
      </trkpt>
      <trkpt lat="42.34103" lon="2.48698">
        <ele>1204.257</ele>
        <time>2012-03-31T07:17:17Z</time>
      </trkpt>
      <trkpt lat="42.34107" lon="2.48733">
        <ele>1207.162</ele>
        <time>2012-03-31T07:17:34Z</time>
      </trkpt>
      <trkpt lat="42.34108" lon="2.48757">
        <ele>1209.565</ele>
        <time>2012-03-31T07:17:50Z</time>
      </trkpt>
      <trkpt lat="42.3411" lon="2.48768">
        <ele>1210.954</ele>
        <time>2012-03-31T07:17:56Z</time>
      </trkpt>
      <trkpt lat="42.34107" lon="2.48795">
        <ele>1214.381</ele>
        <time>2012-03-31T07:18:11Z</time>
      </trkpt>
      <trkpt lat="42.34112" lon="2.4883">
        <ele>1215.761</ele>
        <time>2012-03-31T07:18:29Z</time>
      </trkpt>
      <trkpt lat="42.34118" lon="2.48844">
        <ele>1217.217</ele>
        <time>2012-03-31T07:18:35Z</time>
      </trkpt>
      <trkpt lat="42.34128" lon="2.4886">
        <ele>1220.107</ele>
        <time>2012-03-31T07:18:49Z</time>
      </trkpt>
      <trkpt lat="42.34132" lon="2.48868">
        <ele>1222.05</ele>
        <time>2012-03-31T07:18:56Z</time>
      </trkpt>
      <trkpt lat="42.34139" lon="2.48893">
        <ele>1224.494</ele>
        <time>2012-03-31T07:19:13Z</time>
      </trkpt>
      <trkpt lat="42.34145" lon="2.48924">
        <ele>1227.334</ele>
        <time>2012-03-31T07:19:29Z</time>
      </trkpt>
      <trkpt lat="42.34149" lon="2.4893">
        <ele>1228.239</ele>
        <time>2012-03-31T07:19:32Z</time>
      </trkpt>
      <trkpt lat="42.34171" lon="2.4896">
        <ele>1228.714</ele>
        <time>2012-03-31T07:19:50Z</time>
      </trkpt>
      <trkpt lat="42.34182" lon="2.48971">
        <ele>1231.187</ele>
        <time>2012-03-31T07:20:05Z</time>
      </trkpt>
      <trkpt lat="42.34195" lon="2.48987">
        <ele>1234.056</ele>
        <time>2012-03-31T07:20:20Z</time>
      </trkpt>
      <trkpt lat="42.34208" lon="2.49003">
        <ele>1236.438</ele>
        <time>2012-03-31T07:20:37Z</time>
      </trkpt>
      <trkpt lat="42.34221" lon="2.49019">
        <ele>1237.87</ele>
        <time>2012-03-31T07:20:55Z</time>
      </trkpt>
      <trkpt lat="42.34228" lon="2.49047">
        <ele>1238.817</ele>
        <time>2012-03-31T07:21:14Z</time>
      </trkpt>
      <trkpt lat="42.34237" lon="2.49077">
        <ele>1240.207</ele>
        <time>2012-03-31T07:21:34Z</time>
      </trkpt>
      <trkpt lat="42.34242" lon="2.491">
        <ele>1243.125</ele>
        <time>2012-03-31T07:21:47Z</time>
      </trkpt>
      <trkpt lat="42.34241" lon="2.49127">
        <ele>1244.139</ele>
        <time>2012-03-31T07:22:04Z</time>
      </trkpt>
      <trkpt lat="42.3424" lon="2.49133">
        <ele>1242.269</ele>
        <time>2012-03-31T07:22:08Z</time>
      </trkpt>
      <trkpt lat="42.34236" lon="2.49136">
        <ele>1241.214</ele>
        <time>2012-03-31T07:22:11Z</time>
      </trkpt>
      <trkpt lat="42.34235" lon="2.49139">
        <ele>1241.259</ele>
        <time>2012-03-31T07:22:12Z</time>
      </trkpt>
      <trkpt lat="42.3422" lon="2.49157">
        <ele>1243.612</ele>
        <time>2012-03-31T07:22:30Z</time>
      </trkpt>
      <trkpt lat="42.3421" lon="2.49154">
        <ele>1246.571</ele>
        <time>2012-03-31T07:22:40Z</time>
      </trkpt>
      <trkpt lat="42.34205" lon="2.49162">
        <ele>1249.998</ele>
        <time>2012-03-31T07:22:51Z</time>
      </trkpt>
      <trkpt lat="42.34203" lon="2.49166">
        <ele>1253.215</ele>
        <time>2012-03-31T07:23:04Z</time>
      </trkpt>
      <trkpt lat="42.34186" lon="2.49168">
        <ele>1256.126</ele>
        <time>2012-03-31T07:23:15Z</time>
      </trkpt>
      <trkpt lat="42.34179" lon="2.49174">
        <ele>1259.007</ele>
        <time>2012-03-31T07:23:26Z</time>
      </trkpt>
      <trkpt lat="42.34176" lon="2.49176">
        <ele>1262.471</ele>
        <time>2012-03-31T07:23:37Z</time>
      </trkpt>
      <trkpt lat="42.34169" lon="2.49177">
        <ele>1265.735</ele>
        <time>2012-03-31T07:23:50Z</time>
      </trkpt>
      <trkpt lat="42.34157" lon="2.49179">
        <ele>1268.625</ele>
        <time>2012-03-31T07:24:01Z</time>
      </trkpt>
      <trkpt lat="42.3415" lon="2.49181">
        <ele>1272.46</ele>
        <time>2012-03-31T07:24:13Z</time>
      </trkpt>
      <trkpt lat="42.34148" lon="2.49182">
        <ele>1271.585</ele>
        <time>2012-03-31T07:24:14Z</time>
      </trkpt>
      <trkpt lat="42.34133" lon="2.49202">
        <ele>1272.098</ele>
        <time>2012-03-31T07:24:26Z</time>
      </trkpt>
      <trkpt lat="42.34133" lon="2.49212">
        <ele>1272.957</ele>
        <time>2012-03-31T07:24:30Z</time>
      </trkpt>
      <trkpt lat="42.3413" lon="2.49235">
        <ele>1275.877</ele>
        <time>2012-03-31T07:24:44Z</time>
      </trkpt>
      <trkpt lat="42.34135" lon="2.49254">
        <ele>1279.761</ele>
        <time>2012-03-31T07:24:59Z</time>
      </trkpt>
      <trkpt lat="42.34139" lon="2.49268">
        <ele>1282.527</ele>
        <time>2012-03-31T07:25:11Z</time>
      </trkpt>
      <trkpt lat="42.34142" lon="2.49288">
        <ele>1284.907</ele>
        <time>2012-03-31T07:25:26Z</time>
      </trkpt>
      <trkpt lat="42.34145" lon="2.49304">
        <ele>1288.379</ele>
        <time>2012-03-31T07:25:40Z</time>
      </trkpt>
      <trkpt lat="42.3415" lon="2.49305">
        <ele>1291.213</ele>
        <time>2012-03-31T07:25:51Z</time>
      </trkpt>
      <trkpt lat="42.34153" lon="2.49304">
        <ele>1294.653</ele>
        <time>2012-03-31T07:26:01Z</time>
      </trkpt>
      <trkpt lat="42.34157" lon="2.49302">
        <ele>1297.478</ele>
        <time>2012-03-31T07:26:11Z</time>
      </trkpt>
      <trkpt lat="42.34159" lon="2.493">
        <ele>1298.963</ele>
        <time>2012-03-31T07:26:15Z</time>
      </trkpt>
      <trkpt lat="42.34163" lon="2.49297">
        <ele>1302.236</ele>
        <time>2012-03-31T07:26:25Z</time>
      </trkpt>
      <trkpt lat="42.3417" lon="2.49295">
        <ele>1305.145</ele>
        <time>2012-03-31T07:26:34Z</time>
      </trkpt>
      <trkpt lat="42.3418" lon="2.49288">
        <ele>1308.587</ele>
        <time>2012-03-31T07:26:47Z</time>
      </trkpt>
      <trkpt lat="42.34186" lon="2.49283">
        <ele>1311.442</ele>
        <time>2012-03-31T07:26:59Z</time>
      </trkpt>
      <trkpt lat="42.34198" lon="2.49295">
        <ele>1314.726</ele>
        <time>2012-03-31T07:27:13Z</time>
      </trkpt>
      <trkpt lat="42.34199" lon="2.49296">
        <ele>1314.707</ele>
        <time>2012-03-31T07:27:14Z</time>
      </trkpt>
      <trkpt lat="42.34214" lon="2.49309">
        <ele>1316.74</ele>
        <time>2012-03-31T07:27:32Z</time>
      </trkpt>
      <trkpt lat="42.34227" lon="2.49326">
        <ele>1315.744</ele>
        <time>2012-03-31T07:27:49Z</time>
      </trkpt>
      <trkpt lat="42.34231" lon="2.49354">
        <ele>1317.614</ele>
        <time>2012-03-31T07:28:05Z</time>
      </trkpt>
      <trkpt lat="42.3424" lon="2.49402">
        <ele>1318.149</ele>
        <time>2012-03-31T07:28:22Z</time>
      </trkpt>
      <trkpt lat="42.3425" lon="2.49428">
        <ele>1317.164</ele>
        <time>2012-03-31T07:28:31Z</time>
      </trkpt>
      <trkpt lat="42.34259" lon="2.49442">
        <ele>1317.647</ele>
        <time>2012-03-31T07:28:42Z</time>
      </trkpt>
      <trkpt lat="42.34264" lon="2.49452">
        <ele>1318.616</ele>
        <time>2012-03-31T07:28:47Z</time>
      </trkpt>
      <trkpt lat="42.34266" lon="2.49476">
        <ele>1320.527</ele>
        <time>2012-03-31T07:29:04Z</time>
      </trkpt>
      <trkpt lat="42.34269" lon="2.49501">
        <ele>1320.568</ele>
        <time>2012-03-31T07:29:21Z</time>
      </trkpt>
      <trkpt lat="42.34271" lon="2.49538">
        <ele>1321.514</ele>
        <time>2012-03-31T07:29:36Z</time>
      </trkpt>
      <trkpt lat="42.34271" lon="2.49564">
        <ele>1323.407</ele>
        <time>2012-03-31T07:29:50Z</time>
      </trkpt>
      <trkpt lat="42.34279" lon="2.49601">
        <ele>1326.374</ele>
        <time>2012-03-31T07:30:06Z</time>
      </trkpt>
      <trkpt lat="42.3428" lon="2.49603">
        <ele>1326.888</ele>
        <time>2012-03-31T07:30:07Z</time>
      </trkpt>
      <trkpt lat="42.3428" lon="2.4961">
        <ele>1327.728</ele>
        <time>2012-03-31T07:30:10Z</time>
      </trkpt>
      <trkpt lat="42.34284" lon="2.49628">
        <ele>1329.643</ele>
        <time>2012-03-31T07:30:20Z</time>
      </trkpt>
      <trkpt lat="42.34286" lon="2.49635">
        <ele>1329.618</ele>
        <time>2012-03-31T07:30:24Z</time>
      </trkpt>
      <trkpt lat="42.34288" lon="2.49642">
        <ele>1330.621</ele>
        <time>2012-03-31T07:30:28Z</time>
      </trkpt>
      <trkpt lat="42.34289" lon="2.49658">
        <ele>1331.17</ele>
        <time>2012-03-31T07:30:35Z</time>
      </trkpt>
      <trkpt lat="42.34289" lon="2.49674">
        <ele>1334.077</ele>
        <time>2012-03-31T07:30:47Z</time>
      </trkpt>
      <trkpt lat="42.3429" lon="2.49686">
        <ele>1335.961</ele>
        <time>2012-03-31T07:30:55Z</time>
      </trkpt>
      <trkpt lat="42.3429" lon="2.49694">
        <ele>1337.327</ele>
        <time>2012-03-31T07:31:02Z</time>
      </trkpt>
      <trkpt lat="42.34288" lon="2.49706">
        <ele>1339.307</ele>
        <time>2012-03-31T07:31:12Z</time>
      </trkpt>
      <trkpt lat="42.34287" lon="2.49712">
        <ele>1340.729</ele>
        <time>2012-03-31T07:31:16Z</time>
      </trkpt>
      <trkpt lat="42.3429" lon="2.49719">
        <ele>1341.283</ele>
        <time>2012-03-31T07:31:21Z</time>
      </trkpt>
      <trkpt lat="42.34292" lon="2.49733">
        <ele>1341.763</ele>
        <time>2012-03-31T07:31:29Z</time>
      </trkpt>
      <trkpt lat="42.34293" lon="2.49749">
        <ele>1343.168</ele>
        <time>2012-03-31T07:31:38Z</time>
      </trkpt>
      <trkpt lat="42.34294" lon="2.49761">
        <ele>1345.543</ele>
        <time>2012-03-31T07:31:50Z</time>
      </trkpt>
      <trkpt lat="42.34295" lon="2.49763">
        <ele>1346.916</ele>
        <time>2012-03-31T07:31:53Z</time>
      </trkpt>
      <trkpt lat="42.34297" lon="2.49772">
        <ele>1350.365</ele>
        <time>2012-03-31T07:32:02Z</time>
      </trkpt>
      <trkpt lat="42.34298" lon="2.49777">
        <ele>1351.349</ele>
        <time>2012-03-31T07:32:12Z</time>
      </trkpt>
      <trkpt lat="42.34298" lon="2.4978">
        <ele>1351.802</ele>
        <time>2012-03-31T07:32:14Z</time>
      </trkpt>
      <trkpt lat="42.34298" lon="2.49785">
        <ele>1353.222</ele>
        <time>2012-03-31T07:32:17Z</time>
      </trkpt>
      <trkpt lat="42.34299" lon="2.49789">
        <ele>1353.707</ele>
        <time>2012-03-31T07:32:20Z</time>
      </trkpt>
      <trkpt lat="42.343" lon="2.49801">
        <ele>1356.196</ele>
        <time>2012-03-31T07:32:30Z</time>
      </trkpt>
      <trkpt lat="42.343" lon="2.49801">
        <ele>1356.62</ele>
        <time>2012-03-31T07:32:32Z</time>
      </trkpt>
      <trkpt lat="42.34301" lon="2.49807">
        <ele>1358.06</ele>
        <time>2012-03-31T07:32:37Z</time>
      </trkpt>
      <trkpt lat="42.343" lon="2.49811">
        <ele>1360.975</ele>
        <time>2012-03-31T07:32:45Z</time>
      </trkpt>
      <trkpt lat="42.34298" lon="2.49822">
        <ele>1363.89</ele>
        <time>2012-03-31T07:32:57Z</time>
      </trkpt>
      <trkpt lat="42.34298" lon="2.49825">
        <ele>1364.763</ele>
        <time>2012-03-31T07:33:00Z</time>
      </trkpt>
      <trkpt lat="42.34297" lon="2.4983">
        <ele>1365.762</ele>
        <time>2012-03-31T07:33:04Z</time>
      </trkpt>
      <trkpt lat="42.34298" lon="2.49833">
        <ele>1366.266</ele>
        <time>2012-03-31T07:33:06Z</time>
      </trkpt>
      <trkpt lat="42.343" lon="2.49836">
        <ele>1366.229</ele>
        <time>2012-03-31T07:33:08Z</time>
      </trkpt>
      <trkpt lat="42.34302" lon="2.49839">
        <ele>1366.221</ele>
        <time>2012-03-31T07:33:10Z</time>
      </trkpt>
      <trkpt lat="42.34304" lon="2.49847">
        <ele>1366.207</ele>
        <time>2012-03-31T07:33:17Z</time>
      </trkpt>
      <trkpt lat="42.34307" lon="2.49863">
        <ele>1367.638</ele>
        <time>2012-03-31T07:33:25Z</time>
      </trkpt>
      <trkpt lat="42.34307" lon="2.49864">
        <ele>1367.172</ele>
        <time>2012-03-31T07:33:27Z</time>
      </trkpt>
      <trkpt lat="42.3431" lon="2.49873">
        <ele>1368.682</ele>
        <time>2012-03-31T07:33:33Z</time>
      </trkpt>
      <trkpt lat="42.34314" lon="2.49885">
        <ele>1369.537</ele>
        <time>2012-03-31T07:33:41Z</time>
      </trkpt>
      <trkpt lat="42.34313" lon="2.49887">
        <ele>1369.522</ele>
        <time>2012-03-31T07:33:43Z</time>
      </trkpt>
      <trkpt lat="42.34321" lon="2.49905">
        <ele>1371.535</ele>
        <time>2012-03-31T07:33:54Z</time>
      </trkpt>
      <trkpt lat="42.34321" lon="2.49916">
        <ele>1371.524</ele>
        <time>2012-03-31T07:34:01Z</time>
      </trkpt>
      <trkpt lat="42.34323" lon="2.49929">
        <ele>1371.077</ele>
        <time>2012-03-31T07:34:05Z</time>
      </trkpt>
      <trkpt lat="42.34326" lon="2.49963">
        <ele>1371.961</ele>
        <time>2012-03-31T07:34:17Z</time>
      </trkpt>
      <trkpt lat="42.34327" lon="2.49971">
        <ele>1371.527</ele>
        <time>2012-03-31T07:34:21Z</time>
      </trkpt>
      <trkpt lat="42.34327" lon="2.49988">
        <ele>1374.807</ele>
        <time>2012-03-31T07:34:31Z</time>
      </trkpt>
      <trkpt lat="42.34326" lon="2.50003">
        <ele>1376.849</ele>
        <time>2012-03-31T07:34:38Z</time>
      </trkpt>
      <trkpt lat="42.34326" lon="2.50007">
        <ele>1376.383</ele>
        <time>2012-03-31T07:34:40Z</time>
      </trkpt>
      <trkpt lat="42.34325" lon="2.50023">
        <ele>1378.793</ele>
        <time>2012-03-31T07:34:48Z</time>
      </trkpt>
      <trkpt lat="42.34318" lon="2.50034">
        <ele>1376.898</ele>
        <time>2012-03-31T07:34:53Z</time>
      </trkpt>
      <trkpt lat="42.34302" lon="2.50057">
        <ele>1372.923</ele>
        <time>2012-03-31T07:35:04Z</time>
      </trkpt>
      <trkpt lat="42.34298" lon="2.50066">
        <ele>1371.556</ele>
        <time>2012-03-31T07:35:08Z</time>
      </trkpt>
      <trkpt lat="42.3429" lon="2.5008">
        <ele>1367.145</ele>
        <time>2012-03-31T07:35:15Z</time>
      </trkpt>
      <trkpt lat="42.3428" lon="2.50089">
        <ele>1368.698</ele>
        <time>2012-03-31T07:35:21Z</time>
      </trkpt>
      <trkpt lat="42.34272" lon="2.50094">
        <ele>1371.915</ele>
        <time>2012-03-31T07:35:28Z</time>
      </trkpt>
      <trkpt lat="42.34264" lon="2.50112">
        <ele>1372.426</ele>
        <time>2012-03-31T07:35:36Z</time>
      </trkpt>
      <trkpt lat="42.3426" lon="2.50118">
        <ele>1370.007</ele>
        <time>2012-03-31T07:35:40Z</time>
      </trkpt>
      <trkpt lat="42.34258" lon="2.50123">
        <ele>1369.511</ele>
        <time>2012-03-31T07:35:42Z</time>
      </trkpt>
      <trkpt lat="42.34252" lon="2.50144">
        <ele>1366.295</ele>
        <time>2012-03-31T07:35:50Z</time>
      </trkpt>
      <trkpt lat="42.34245" lon="2.50159">
        <ele>1363.375</ele>
        <time>2012-03-31T07:35:57Z</time>
      </trkpt>
      <trkpt lat="42.34238" lon="2.50173">
        <ele>1360.96</ele>
        <time>2012-03-31T07:36:02Z</time>
      </trkpt>
      <trkpt lat="42.34222" lon="2.50209">
        <ele>1358.095</ele>
        <time>2012-03-31T07:36:14Z</time>
      </trkpt>
      <trkpt lat="42.34211" lon="2.50228">
        <ele>1358.548</ele>
        <time>2012-03-31T07:36:22Z</time>
      </trkpt>
      <trkpt lat="42.34205" lon="2.50236">
        <ele>1359.497</ele>
        <time>2012-03-31T07:36:27Z</time>
      </trkpt>
      <trkpt lat="42.34204" lon="2.5024">
        <ele>1359.931</ele>
        <time>2012-03-31T07:36:29Z</time>
      </trkpt>
      <trkpt lat="42.34203" lon="2.50246">
        <ele>1360.961</ele>
        <time>2012-03-31T07:36:32Z</time>
      </trkpt>
      <trkpt lat="42.34197" lon="2.50253">
        <ele>1362.307</ele>
        <time>2012-03-31T07:36:38Z</time>
      </trkpt>
      <trkpt lat="42.34189" lon="2.50268">
        <ele>1364.707</ele>
        <time>2012-03-31T07:36:49Z</time>
      </trkpt>
      <trkpt lat="42.34186" lon="2.50277">
        <ele>1368.185</ele>
        <time>2012-03-31T07:37:02Z</time>
      </trkpt>
      <trkpt lat="42.34179" lon="2.50293">
        <ele>1371.019</ele>
        <time>2012-03-31T07:37:17Z</time>
      </trkpt>
      <trkpt lat="42.34179" lon="2.50312">
        <ele>1370.069</ele>
        <time>2012-03-31T07:37:31Z</time>
      </trkpt>
      <trkpt lat="42.34162" lon="2.50337">
        <ele>1370.574</ele>
        <time>2012-03-31T07:37:48Z</time>
      </trkpt>
      <trkpt lat="42.34158" lon="2.50368">
        <ele>1371.529</ele>
        <time>2012-03-31T07:38:07Z</time>
      </trkpt>
      <trkpt lat="42.34156" lon="2.5038">
        <ele>1371.932</ele>
        <time>2012-03-31T07:38:15Z</time>
      </trkpt>
      <trkpt lat="42.34148" lon="2.50416">
        <ele>1371.931</ele>
        <time>2012-03-31T07:38:32Z</time>
      </trkpt>
      <trkpt lat="42.34151" lon="2.50429">
        <ele>1375.345</ele>
        <time>2012-03-31T07:38:43Z</time>
      </trkpt>
      <trkpt lat="42.34154" lon="2.50444">
        <ele>1378.747</ele>
        <time>2012-03-31T07:38:55Z</time>
      </trkpt>
      <trkpt lat="42.34152" lon="2.50449">
        <ele>1381.611</ele>
        <time>2012-03-31T07:39:04Z</time>
      </trkpt>
      <trkpt lat="42.34153" lon="2.50464">
        <ele>1384.407</ele>
        <time>2012-03-31T07:39:16Z</time>
      </trkpt>
      <trkpt lat="42.34152" lon="2.50483">
        <ele>1387.876</ele>
        <time>2012-03-31T07:39:32Z</time>
      </trkpt>
      <trkpt lat="42.34152" lon="2.5051">
        <ele>1390.72</ele>
        <time>2012-03-31T07:39:46Z</time>
      </trkpt>
      <trkpt lat="42.34149" lon="2.50532">
        <ele>1393.18</ele>
        <time>2012-03-31T07:40:03Z</time>
      </trkpt>
      <trkpt lat="42.34148" lon="2.50541">
        <ele>1392.655</ele>
        <time>2012-03-31T07:40:07Z</time>
      </trkpt>
      <trkpt lat="42.34142" lon="2.50556">
        <ele>1390.71</ele>
        <time>2012-03-31T07:40:17Z</time>
      </trkpt>
      <trkpt lat="42.34126" lon="2.50589">
        <ele>1387.353</ele>
        <time>2012-03-31T07:40:30Z</time>
      </trkpt>
      <trkpt lat="42.34119" lon="2.50603">
        <ele>1384.012</ele>
        <time>2012-03-31T07:40:36Z</time>
      </trkpt>
      <trkpt lat="42.34113" lon="2.50611">
        <ele>1380.661</ele>
        <time>2012-03-31T07:40:41Z</time>
      </trkpt>
      <trkpt lat="42.34105" lon="2.50621">
        <ele>1377.721</ele>
        <time>2012-03-31T07:40:46Z</time>
      </trkpt>
      <trkpt lat="42.34101" lon="2.50634">
        <ele>1374.313</ele>
        <time>2012-03-31T07:40:53Z</time>
      </trkpt>
      <trkpt lat="42.34097" lon="2.5064">
        <ele>1371.007</ele>
        <time>2012-03-31T07:41:00Z</time>
      </trkpt>
      <trkpt lat="42.3409" lon="2.50649">
        <ele>1367.688</ele>
        <time>2012-03-31T07:41:08Z</time>
      </trkpt>
      <trkpt lat="42.34083" lon="2.50659">
        <ele>1364.342</ele>
        <time>2012-03-31T07:41:16Z</time>
      </trkpt>
      <trkpt lat="42.34084" lon="2.50671">
        <ele>1360.922</ele>
        <time>2012-03-31T07:41:23Z</time>
      </trkpt>
      <trkpt lat="42.34083" lon="2.50683">
        <ele>1358.097</ele>
        <time>2012-03-31T07:41:29Z</time>
      </trkpt>
      <trkpt lat="42.34081" lon="2.50689">
        <ele>1356.162</ele>
        <time>2012-03-31T07:41:32Z</time>
      </trkpt>
      <trkpt lat="42.34068" lon="2.50706">
        <ele>1353.735</ele>
        <time>2012-03-31T07:41:45Z</time>
      </trkpt>
      <trkpt lat="42.34053" lon="2.50724">
        <ele>1351.884</ele>
        <time>2012-03-31T07:41:56Z</time>
      </trkpt>
      <trkpt lat="42.34044" lon="2.50746">
        <ele>1348.413</ele>
        <time>2012-03-31T07:42:07Z</time>
      </trkpt>
      <trkpt lat="42.3402" lon="2.50785">
        <ele>1345.043</ele>
        <time>2012-03-31T07:42:20Z</time>
      </trkpt>
      <trkpt lat="42.34009" lon="2.50817">
        <ele>1345.507</ele>
        <time>2012-03-31T07:42:32Z</time>
      </trkpt>
      <trkpt lat="42.33994" lon="2.50854">
        <ele>1347.407</ele>
        <time>2012-03-31T07:42:45Z</time>
      </trkpt>
      <trkpt lat="42.33986" lon="2.50881">
        <ele>1348.943</ele>
        <time>2012-03-31T07:42:57Z</time>
      </trkpt>
      <trkpt lat="42.33973" lon="2.50915">
        <ele>1350.337</ele>
        <time>2012-03-31T07:43:10Z</time>
      </trkpt>
      <trkpt lat="42.33963" lon="2.5094">
        <ele>1351.337</ele>
        <time>2012-03-31T07:43:22Z</time>
      </trkpt>
      <trkpt lat="42.33947" lon="2.50979">
        <ele>1350.372</ele>
        <time>2012-03-31T07:43:37Z</time>
      </trkpt>
      <trkpt lat="42.33929" lon="2.51012">
        <ele>1350.827</ele>
        <time>2012-03-31T07:43:53Z</time>
      </trkpt>
      <trkpt lat="42.33919" lon="2.51034">
        <ele>1346.98</ele>
        <time>2012-03-31T07:44:04Z</time>
      </trkpt>
      <trkpt lat="42.33919" lon="2.51035">
        <ele>1346.589</ele>
        <time>2012-03-31T07:44:05Z</time>
      </trkpt>
      <trkpt lat="42.33917" lon="2.51038">
        <ele>1345.583</ele>
        <time>2012-03-31T07:44:07Z</time>
      </trkpt>
      <trkpt lat="42.33914" lon="2.5104">
        <ele>1344.125</ele>
        <time>2012-03-31T07:44:09Z</time>
      </trkpt>
      <trkpt lat="42.33891" lon="2.51058">
        <ele>1342.117</ele>
        <time>2012-03-31T07:44:18Z</time>
      </trkpt>
      <trkpt lat="42.33869" lon="2.51083">
        <ele>1340.707</ele>
        <time>2012-03-31T07:44:32Z</time>
      </trkpt>
      <trkpt lat="42.33848" lon="2.5111">
        <ele>1341.71</ele>
        <time>2012-03-31T07:44:49Z</time>
      </trkpt>
      <trkpt lat="42.33835" lon="2.5112">
        <ele>1339.714</ele>
        <time>2012-03-31T07:44:56Z</time>
      </trkpt>
      <trkpt lat="42.33808" lon="2.5113">
        <ele>1337.834</ele>
        <time>2012-03-31T07:45:07Z</time>
      </trkpt>
      <trkpt lat="42.33807" lon="2.51131">
        <ele>1338.359</ele>
        <time>2012-03-31T07:45:08Z</time>
      </trkpt>
      <trkpt lat="42.33782" lon="2.51168">
        <ele>1337.874</ele>
        <time>2012-03-31T07:45:23Z</time>
      </trkpt>
      <trkpt lat="42.33767" lon="2.51202">
        <ele>1336.437</ele>
        <time>2012-03-31T07:45:40Z</time>
      </trkpt>
      <trkpt lat="42.3374" lon="2.51227">
        <ele>1334.996</ele>
        <time>2012-03-31T07:45:54Z</time>
      </trkpt>
      <trkpt lat="42.33724" lon="2.51262">
        <ele>1333.589</ele>
        <time>2012-03-31T07:46:07Z</time>
      </trkpt>
      <trkpt lat="42.33725" lon="2.51295">
        <ele>1332.006</ele>
        <time>2012-03-31T07:46:22Z</time>
      </trkpt>
      <trkpt lat="42.33726" lon="2.51305">
        <ele>1332.026</ele>
        <time>2012-03-31T07:46:28Z</time>
      </trkpt>
      <trkpt lat="42.3372" lon="2.51337">
        <ele>1330.607</ele>
        <time>2012-03-31T07:46:46Z</time>
      </trkpt>
      <trkpt lat="42.33709" lon="2.51368">
        <ele>1331.69</ele>
        <time>2012-03-31T07:47:07Z</time>
      </trkpt>
      <trkpt lat="42.33703" lon="2.51379">
        <ele>1328.714</ele>
        <time>2012-03-31T07:47:15Z</time>
      </trkpt>
      <trkpt lat="42.33701" lon="2.51388">
        <ele>1327.794</ele>
        <time>2012-03-31T07:47:22Z</time>
      </trkpt>
      <trkpt lat="42.33695" lon="2.51425">
        <ele>1329.699</ele>
        <time>2012-03-31T07:47:39Z</time>
      </trkpt>
      <trkpt lat="42.33677" lon="2.51452">
        <ele>1332.034</ele>
        <time>2012-03-31T07:47:57Z</time>
      </trkpt>
      <trkpt lat="42.33673" lon="2.51456">
        <ele>1333.077</ele>
        <time>2012-03-31T07:48:00Z</time>
      </trkpt>
      <trkpt lat="42.33655" lon="2.51482">
        <ele>1335.956</ele>
        <time>2012-03-31T07:48:19Z</time>
      </trkpt>
      <trkpt lat="42.33645" lon="2.51493">
        <ele>1339.392</ele>
        <time>2012-03-31T07:48:31Z</time>
      </trkpt>
      <trkpt lat="42.3363" lon="2.5151">
        <ele>1342.173</ele>
        <time>2012-03-31T07:48:45Z</time>
      </trkpt>
      <trkpt lat="42.33617" lon="2.51524">
        <ele>1345.02</ele>
        <time>2012-03-31T07:48:58Z</time>
      </trkpt>
      <trkpt lat="42.33607" lon="2.51536">
        <ele>1347.907</ele>
        <time>2012-03-31T07:49:09Z</time>
      </trkpt>
      <trkpt lat="42.33594" lon="2.5155">
        <ele>1351.381</ele>
        <time>2012-03-31T07:49:22Z</time>
      </trkpt>
      <trkpt lat="42.33578" lon="2.51568">
        <ele>1353.755</ele>
        <time>2012-03-31T07:49:39Z</time>
      </trkpt>
      <trkpt lat="42.33566" lon="2.51586">
        <ele>1354.655</ele>
        <time>2012-03-31T07:49:53Z</time>
      </trkpt>
      <trkpt lat="42.33555" lon="2.51604">
        <ele>1356.19</ele>
        <time>2012-03-31T07:50:07Z</time>
      </trkpt>
      <trkpt lat="42.33549" lon="2.51625">
        <ele>1359.045</ele>
        <time>2012-03-31T07:50:23Z</time>
      </trkpt>
      <trkpt lat="42.33547" lon="2.5163">
        <ele>1360.478</ele>
        <time>2012-03-31T07:50:30Z</time>
      </trkpt>
      <trkpt lat="42.33539" lon="2.51654">
        <ele>1361.487</ele>
        <time>2012-03-31T07:50:46Z</time>
      </trkpt>
      <trkpt lat="42.33544" lon="2.51673">
        <ele>1363.346</ele>
        <time>2012-03-31T07:50:55Z</time>
      </trkpt>
      <trkpt lat="42.33546" lon="2.51686">
        <ele>1366.788</ele>
        <time>2012-03-31T07:51:08Z</time>
      </trkpt>
      <trkpt lat="42.33553" lon="2.51702">
        <ele>1370.016</ele>
        <time>2012-03-31T07:51:19Z</time>
      </trkpt>
      <trkpt lat="42.33556" lon="2.51712">
        <ele>1372.907</ele>
        <time>2012-03-31T07:51:31Z</time>
      </trkpt>
      <trkpt lat="42.33557" lon="2.51725">
        <ele>1376.346</ele>
        <time>2012-03-31T07:51:44Z</time>
      </trkpt>
      <trkpt lat="42.33557" lon="2.51738">
        <ele>1379.27</ele>
        <time>2012-03-31T07:51:57Z</time>
      </trkpt>
      <trkpt lat="42.33557" lon="2.51741">
        <ele>1379.68</ele>
        <time>2012-03-31T07:52:00Z</time>
      </trkpt>
      <trkpt lat="42.33554" lon="2.51766">
        <ele>1383.085</ele>
        <time>2012-03-31T07:52:17Z</time>
      </trkpt>
      <trkpt lat="42.33557" lon="2.51777">
        <ele>1386.49</ele>
        <time>2012-03-31T07:52:27Z</time>
      </trkpt>
      <trkpt lat="42.33564" lon="2.51783">
        <ele>1389.723</ele>
        <time>2012-03-31T07:52:36Z</time>
      </trkpt>
      <trkpt lat="42.33562" lon="2.51792">
        <ele>1391.792</ele>
        <time>2012-03-31T07:52:46Z</time>
      </trkpt>
      <trkpt lat="42.33561" lon="2.51802">
        <ele>1393.153</ele>
        <time>2012-03-31T07:52:53Z</time>
      </trkpt>
      <trkpt lat="42.33557" lon="2.51817">
        <ele>1395.004</ele>
        <time>2012-03-31T07:53:04Z</time>
      </trkpt>
      <trkpt lat="42.33556" lon="2.51833">
        <ele>1398.414</ele>
        <time>2012-03-31T07:53:18Z</time>
      </trkpt>
      <trkpt lat="42.33557" lon="2.51844">
        <ele>1399.807</ele>
        <time>2012-03-31T07:53:26Z</time>
      </trkpt>
      <trkpt lat="42.33557" lon="2.51852">
        <ele>1401.737</ele>
        <time>2012-03-31T07:53:32Z</time>
      </trkpt>
      <trkpt lat="42.33555" lon="2.51862">
        <ele>1403.271</ele>
        <time>2012-03-31T07:53:40Z</time>
      </trkpt>
      <trkpt lat="42.33556" lon="2.51881">
        <ele>1406.181</ele>
        <time>2012-03-31T07:53:54Z</time>
      </trkpt>
      <trkpt lat="42.33557" lon="2.51895">
        <ele>1409.096</ele>
        <time>2012-03-31T07:54:07Z</time>
      </trkpt>
      <trkpt lat="42.33559" lon="2.51902">
        <ele>1410.411</ele>
        <time>2012-03-31T07:54:13Z</time>
      </trkpt>
      <trkpt lat="42.33557" lon="2.51909">
        <ele>1411.454</ele>
        <time>2012-03-31T07:54:19Z</time>
      </trkpt>
      <trkpt lat="42.33554" lon="2.5193">
        <ele>1413.883</ele>
        <time>2012-03-31T07:54:33Z</time>
      </trkpt>
      <trkpt lat="42.33552" lon="2.51944">
        <ele>1416.252</ele>
        <time>2012-03-31T07:54:45Z</time>
      </trkpt>
      <trkpt lat="42.33553" lon="2.51961">
        <ele>1419.553</ele>
        <time>2012-03-31T07:54:57Z</time>
      </trkpt>
      <trkpt lat="42.33554" lon="2.51964">
        <ele>1420.508</ele>
        <time>2012-03-31T07:55:01Z</time>
      </trkpt>
      <trkpt lat="42.33559" lon="2.51983">
        <ele>1423.907</ele>
        <time>2012-03-31T07:55:16Z</time>
      </trkpt>
      <trkpt lat="42.33559" lon="2.51986">
        <ele>1424.837</ele>
        <time>2012-03-31T07:55:19Z</time>
      </trkpt>
      <trkpt lat="42.33557" lon="2.51996">
        <ele>1426.751</ele>
        <time>2012-03-31T07:55:28Z</time>
      </trkpt>
      <trkpt lat="42.33554" lon="2.52003">
        <ele>1429.161</ele>
        <time>2012-03-31T07:55:36Z</time>
      </trkpt>
      <trkpt lat="42.33551" lon="2.52017">
        <ele>1432.026</ele>
        <time>2012-03-31T07:55:48Z</time>
      </trkpt>
      <trkpt lat="42.33547" lon="2.52026">
        <ele>1435.421</ele>
        <time>2012-03-31T07:55:59Z</time>
      </trkpt>
      <trkpt lat="42.3354" lon="2.52038">
        <ele>1438.334</ele>
        <time>2012-03-31T07:56:12Z</time>
      </trkpt>
      <trkpt lat="42.33533" lon="2.52051">
        <ele>1441.673</ele>
        <time>2012-03-31T07:56:26Z</time>
      </trkpt>
      <trkpt lat="42.33526" lon="2.52061">
        <ele>1444.568</ele>
        <time>2012-03-31T07:56:38Z</time>
      </trkpt>
      <trkpt lat="42.33514" lon="2.52076">
        <ele>1447.442</ele>
        <time>2012-03-31T07:56:54Z</time>
      </trkpt>
      <trkpt lat="42.33502" lon="2.52091">
        <ele>1450.826</ele>
        <time>2012-03-31T07:57:09Z</time>
      </trkpt>
      <trkpt lat="42.33498" lon="2.52099">
        <ele>1452.207</ele>
        <time>2012-03-31T07:57:16Z</time>
      </trkpt>
      <trkpt lat="42.33489" lon="2.52111">
        <ele>1455.628</ele>
        <time>2012-03-31T07:57:29Z</time>
      </trkpt>
      <trkpt lat="42.33485" lon="2.52116">
        <ele>1458.962</ele>
        <time>2012-03-31T07:57:40Z</time>
      </trkpt>
      <trkpt lat="42.3348" lon="2.52126">
        <ele>1461.882</ele>
        <time>2012-03-31T07:57:51Z</time>
      </trkpt>
      <trkpt lat="42.33474" lon="2.52134">
        <ele>1465.237</ele>
        <time>2012-03-31T07:58:04Z</time>
      </trkpt>
      <trkpt lat="42.33468" lon="2.52146">
        <ele>1467.112</ele>
        <time>2012-03-31T07:58:15Z</time>
      </trkpt>
      <trkpt lat="42.33462" lon="2.52161">
        <ele>1471.095</ele>
        <time>2012-03-31T07:58:28Z</time>
      </trkpt>
      <trkpt lat="42.33456" lon="2.52181">
        <ele>1472.464</ele>
        <time>2012-03-31T07:58:41Z</time>
      </trkpt>
      <trkpt lat="42.33453" lon="2.52204">
        <ele>1475.384</ele>
        <time>2012-03-31T07:58:55Z</time>
      </trkpt>
      <trkpt lat="42.33449" lon="2.52213">
        <ele>1478.707</ele>
        <time>2012-03-31T07:59:05Z</time>
      </trkpt>
      <trkpt lat="42.33447" lon="2.52225">
        <ele>1481.517</ele>
        <time>2012-03-31T07:59:14Z</time>
      </trkpt>
      <trkpt lat="42.33447" lon="2.52226">
        <ele>1482.007</ele>
        <time>2012-03-31T07:59:15Z</time>
      </trkpt>
      <trkpt lat="42.33447" lon="2.52231">
        <ele>1483.04</ele>
        <time>2012-03-31T07:59:18Z</time>
      </trkpt>
      <trkpt lat="42.33446" lon="2.5224">
        <ele>1484.984</ele>
        <time>2012-03-31T07:59:24Z</time>
      </trkpt>
      <trkpt lat="42.33441" lon="2.52251">
        <ele>1488.344</ele>
        <time>2012-03-31T07:59:36Z</time>
      </trkpt>
      <trkpt lat="42.33437" lon="2.52265">
        <ele>1490.729</ele>
        <time>2012-03-31T07:59:48Z</time>
      </trkpt>
      <trkpt lat="42.33431" lon="2.52276">
        <ele>1494.044</ele>
        <time>2012-03-31T08:00:01Z</time>
      </trkpt>
      <trkpt lat="42.33427" lon="2.52284">
        <ele>1497.447</ele>
        <time>2012-03-31T08:00:12Z</time>
      </trkpt>
      <trkpt lat="42.33422" lon="2.52294">
        <ele>1500.346</ele>
        <time>2012-03-31T08:00:24Z</time>
      </trkpt>
      <trkpt lat="42.33421" lon="2.52299">
        <ele>1502.279</ele>
        <time>2012-03-31T08:00:30Z</time>
      </trkpt>
      <trkpt lat="42.33421" lon="2.523">
        <ele>1502.205</ele>
        <time>2012-03-31T08:00:31Z</time>
      </trkpt>
      <trkpt lat="42.33417" lon="2.52311">
        <ele>1504.125</ele>
        <time>2012-03-31T08:00:40Z</time>
      </trkpt>
      <trkpt lat="42.33413" lon="2.52333">
        <ele>1505.607</ele>
        <time>2012-03-31T08:00:54Z</time>
      </trkpt>
      <trkpt lat="42.33405" lon="2.52351">
        <ele>1508.939</ele>
        <time>2012-03-31T08:01:08Z</time>
      </trkpt>
      <trkpt lat="42.33398" lon="2.52368">
        <ele>1512.353</ele>
        <time>2012-03-31T08:01:22Z</time>
      </trkpt>
      <trkpt lat="42.33385" lon="2.52388">
        <ele>1515.773</ele>
        <time>2012-03-31T08:01:39Z</time>
      </trkpt>
      <trkpt lat="42.33374" lon="2.52411">
        <ele>1518.168</ele>
        <time>2012-03-31T08:01:56Z</time>
      </trkpt>
      <trkpt lat="42.33365" lon="2.52428">
        <ele>1520.033</ele>
        <time>2012-03-31T08:02:08Z</time>
      </trkpt>
      <trkpt lat="42.33361" lon="2.52443">
        <ele>1521.976</ele>
        <time>2012-03-31T08:02:18Z</time>
      </trkpt>
      <trkpt lat="42.33355" lon="2.52467">
        <ele>1525.325</ele>
        <time>2012-03-31T08:02:30Z</time>
      </trkpt>
      <trkpt lat="42.33354" lon="2.52469">
        <ele>1524.318</ele>
        <time>2012-03-31T08:02:31Z</time>
      </trkpt>
      <trkpt lat="42.33352" lon="2.52481">
        <ele>1526.298</ele>
        <time>2012-03-31T08:02:40Z</time>
      </trkpt>
      <trkpt lat="42.33357" lon="2.52499">
        <ele>1529.117</ele>
        <time>2012-03-31T08:02:54Z</time>
      </trkpt>
      <trkpt lat="42.33361" lon="2.52512">
        <ele>1532.007</ele>
        <time>2012-03-31T08:03:05Z</time>
      </trkpt>
      <trkpt lat="42.33374" lon="2.52515">
        <ele>1534.913</ele>
        <time>2012-03-31T08:03:20Z</time>
      </trkpt>
      <trkpt lat="42.33379" lon="2.52513">
        <ele>1537.397</ele>
        <time>2012-03-31T08:03:31Z</time>
      </trkpt>
      <trkpt lat="42.33377" lon="2.52521">
        <ele>1540.797</ele>
        <time>2012-03-31T08:03:42Z</time>
      </trkpt>
      <trkpt lat="42.33376" lon="2.52526">
        <ele>1542.642</ele>
        <time>2012-03-31T08:03:48Z</time>
      </trkpt>
      <trkpt lat="42.33374" lon="2.52536">
        <ele>1545.937</ele>
        <time>2012-03-31T08:04:00Z</time>
      </trkpt>
      <trkpt lat="42.33374" lon="2.52537">
        <ele>1546.43</ele>
        <time>2012-03-31T08:04:01Z</time>
      </trkpt>
      <trkpt lat="42.3337" lon="2.52553">
        <ele>1547.489</ele>
        <time>2012-03-31T08:04:16Z</time>
      </trkpt>
      <trkpt lat="42.33364" lon="2.52571">
        <ele>1552.252</ele>
        <time>2012-03-31T08:04:31Z</time>
      </trkpt>
      <trkpt lat="42.33362" lon="2.52577">
        <ele>1550.753</ele>
        <time>2012-03-31T08:04:43Z</time>
      </trkpt>
      <trkpt lat="42.33359" lon="2.5259">
        <ele>1550.708</ele>
        <time>2012-03-31T08:04:57Z</time>
      </trkpt>
      <trkpt lat="42.33358" lon="2.52593">
        <ele>1552.207</ele>
        <time>2012-03-31T08:05:00Z</time>
      </trkpt>
      <trkpt lat="42.33351" lon="2.52609">
        <ele>1555.187</ele>
        <time>2012-03-31T08:05:18Z</time>
      </trkpt>
      <trkpt lat="42.33344" lon="2.52625">
        <ele>1558.411</ele>
        <time>2012-03-31T08:05:29Z</time>
      </trkpt>
      <trkpt lat="42.33342" lon="2.52631">
        <ele>1558.431</ele>
        <time>2012-03-31T08:05:30Z</time>
      </trkpt>
      <trkpt lat="42.33343" lon="2.52638">
        <ele>1558.016</ele>
        <time>2012-03-31T08:05:31Z</time>
      </trkpt>
      <trkpt lat="42.33342" lon="2.5265">
        <ele>1559.451</ele>
        <time>2012-03-31T08:05:37Z</time>
      </trkpt>
      <trkpt lat="42.3334" lon="2.52655">
        <ele>1559.474</ele>
        <time>2012-03-31T08:05:41Z</time>
      </trkpt>
      <trkpt lat="42.3334" lon="2.52661">
        <ele>1559.463</ele>
        <time>2012-03-31T08:05:45Z</time>
      </trkpt>
      <trkpt lat="42.33338" lon="2.52676">
        <ele>1556.013</ele>
        <time>2012-03-31T08:05:52Z</time>
      </trkpt>
      <trkpt lat="42.33337" lon="2.52683">
        <ele>1554.143</ele>
        <time>2012-03-31T08:05:55Z</time>
      </trkpt>
      <trkpt lat="42.33337" lon="2.52688">
        <ele>1554.107</ele>
        <time>2012-03-31T08:05:57Z</time>
      </trkpt>
      <trkpt lat="42.33333" lon="2.52697">
        <ele>1554.607</ele>
        <time>2012-03-31T08:06:02Z</time>
      </trkpt>
      <trkpt lat="42.33333" lon="2.52707">
        <ele>1555.123</ele>
        <time>2012-03-31T08:06:06Z</time>
      </trkpt>
      <trkpt lat="42.33334" lon="2.52716">
        <ele>1556.087</ele>
        <time>2012-03-31T08:06:10Z</time>
      </trkpt>
      <trkpt lat="42.33331" lon="2.52721">
        <ele>1557.517</ele>
        <time>2012-03-31T08:06:16Z</time>
      </trkpt>
      <trkpt lat="42.33332" lon="2.52735">
        <ele>1558.992</ele>
        <time>2012-03-31T08:06:24Z</time>
      </trkpt>
      <trkpt lat="42.33335" lon="2.5275">
        <ele>1562.317</ele>
        <time>2012-03-31T08:06:31Z</time>
      </trkpt>
      <trkpt lat="42.33335" lon="2.52751">
        <ele>1561.31</ele>
        <time>2012-03-31T08:06:32Z</time>
      </trkpt>
      <trkpt lat="42.33332" lon="2.52772">
        <ele>1562.399</ele>
        <time>2012-03-31T08:06:44Z</time>
      </trkpt>
      <trkpt lat="42.33332" lon="2.52775">
        <ele>1563.278</ele>
        <time>2012-03-31T08:06:55Z</time>
      </trkpt>
      <trkpt lat="42.33331" lon="2.52776">
        <ele>1562.833</ele>
        <time>2012-03-31T08:07:09Z</time>
      </trkpt>
      <trkpt lat="42.33331" lon="2.52776">
        <ele>1562.826</ele>
        <time>2012-03-31T08:07:33Z</time>
      </trkpt>
      <trkpt lat="42.33331" lon="2.52777">
        <ele>1562.807</ele>
        <time>2012-03-31T08:07:56Z</time>
      </trkpt>
      <trkpt lat="42.33331" lon="2.52776">
        <ele>1562.889</ele>
        <time>2012-03-31T08:08:19Z</time>
      </trkpt>
      <trkpt lat="42.3333" lon="2.52777">
        <ele>1562.873</ele>
        <time>2012-03-31T08:08:39Z</time>
      </trkpt>
      <trkpt lat="42.3333" lon="2.52777">
        <ele>1562.883</ele>
        <time>2012-03-31T08:09:05Z</time>
      </trkpt>
      <trkpt lat="42.33331" lon="2.52777">
        <ele>1562.388</ele>
        <time>2012-03-31T08:09:44Z</time>
      </trkpt>
      <trkpt lat="42.33331" lon="2.52777">
        <ele>1562.323</ele>
        <time>2012-03-31T08:10:25Z</time>
      </trkpt>
      <trkpt lat="42.33331" lon="2.52777">
        <ele>1562.386</ele>
        <time>2012-03-31T08:10:55Z</time>
      </trkpt>
      <trkpt lat="42.3333" lon="2.52777">
        <ele>1562.325</ele>
        <time>2012-03-31T08:11:32Z</time>
      </trkpt>
      <trkpt lat="42.3333" lon="2.52777">
        <ele>1561.813</ele>
        <time>2012-03-31T08:12:05Z</time>
      </trkpt>
      <trkpt lat="42.3333" lon="2.52777">
        <ele>1561.843</ele>
        <time>2012-03-31T08:12:36Z</time>
      </trkpt>
      <trkpt lat="42.3333" lon="2.52777">
        <ele>1561.807</ele>
        <time>2012-03-31T08:13:09Z</time>
      </trkpt>
      <trkpt lat="42.33331" lon="2.52776">
        <ele>1561.307</ele>
        <time>2012-03-31T08:13:46Z</time>
      </trkpt>
      <trkpt lat="42.33331" lon="2.52776">
        <ele>1561.363</ele>
        <time>2012-03-31T08:14:28Z</time>
      </trkpt>
      <trkpt lat="42.33331" lon="2.52777">
        <ele>1561.317</ele>
        <time>2012-03-31T08:15:08Z</time>
      </trkpt>
      <trkpt lat="42.33331" lon="2.52777">
        <ele>1560.867</ele>
        <time>2012-03-31T08:15:53Z</time>
      </trkpt>
      <trkpt lat="42.33331" lon="2.52776">
        <ele>1560.892</ele>
        <time>2012-03-31T08:16:32Z</time>
      </trkpt>
      <trkpt lat="42.33331" lon="2.52776">
        <ele>1560.847</ele>
        <time>2012-03-31T08:17:10Z</time>
      </trkpt>
      <trkpt lat="42.33331" lon="2.52777">
        <ele>1560.83</ele>
        <time>2012-03-31T08:17:47Z</time>
      </trkpt>
      <trkpt lat="42.33331" lon="2.52776">
        <ele>1560.449</ele>
        <time>2012-03-31T08:18:26Z</time>
      </trkpt>
      <trkpt lat="42.33331" lon="2.52776">
        <ele>1560.422</ele>
        <time>2012-03-31T08:19:09Z</time>
      </trkpt>
      <trkpt lat="42.33331" lon="2.52776">
        <ele>1560.462</ele>
        <time>2012-03-31T08:19:49Z</time>
      </trkpt>
      <trkpt lat="42.33331" lon="2.52776">
        <ele>1559.908</ele>
        <time>2012-03-31T08:20:28Z</time>
      </trkpt>
      <trkpt lat="42.33331" lon="2.52776">
        <ele>1559.907</ele>
        <time>2012-03-31T08:21:07Z</time>
      </trkpt>
      <trkpt lat="42.33331" lon="2.52776">
        <ele>1559.924</ele>
        <time>2012-03-31T08:21:48Z</time>
      </trkpt>
      <trkpt lat="42.33331" lon="2.52776">
        <ele>1559.978</ele>
        <time>2012-03-31T08:22:26Z</time>
      </trkpt>
      <trkpt lat="42.3333" lon="2.52776">
        <ele>1559.498</ele>
        <time>2012-03-31T08:23:07Z</time>
      </trkpt>
      <trkpt lat="42.3333" lon="2.52776">
        <ele>1559.443</ele>
        <time>2012-03-31T08:23:48Z</time>
      </trkpt>
      <trkpt lat="42.3333" lon="2.52777">
        <ele>1558.968</ele>
        <time>2012-03-31T08:24:32Z</time>
      </trkpt>
      <trkpt lat="42.3333" lon="2.52776">
        <ele>1558.921</ele>
        <time>2012-03-31T08:25:15Z</time>
      </trkpt>
      <trkpt lat="42.33331" lon="2.52776">
        <ele>1558.93</ele>
        <time>2012-03-31T08:25:56Z</time>
      </trkpt>
      <trkpt lat="42.33331" lon="2.52778">
        <ele>1558.451</ele>
        <time>2012-03-31T08:26:19Z</time>
      </trkpt>
      <trkpt lat="42.3333" lon="2.52781">
        <ele>1558.401</ele>
        <time>2012-03-31T08:26:37Z</time>
      </trkpt>
      <trkpt lat="42.3333" lon="2.52781">
        <ele>1558.411</ele>
        <time>2012-03-31T08:26:42Z</time>
      </trkpt>
      <trkpt lat="42.33329" lon="2.52793">
        <ele>1556.507</ele>
        <time>2012-03-31T08:26:52Z</time>
      </trkpt>
      <trkpt lat="42.33328" lon="2.52795">
        <ele>1556.597</ele>
        <time>2012-03-31T08:26:53Z</time>
      </trkpt>
      <trkpt lat="42.33327" lon="2.52802">
        <ele>1556.051</ele>
        <time>2012-03-31T08:26:56Z</time>
      </trkpt>
      <trkpt lat="42.33331" lon="2.52804">
        <ele>1553.661</ele>
        <time>2012-03-31T08:27:08Z</time>
      </trkpt>
      <trkpt lat="42.3333" lon="2.52804">
        <ele>1553.226</ele>
        <time>2012-03-31T08:27:26Z</time>
      </trkpt>
      <trkpt lat="42.3333" lon="2.52805">
        <ele>1553.251</ele>
        <time>2012-03-31T08:27:27Z</time>
      </trkpt>
      <trkpt lat="42.33326" lon="2.52828">
        <ele>1548.864</ele>
        <time>2012-03-31T08:27:36Z</time>
      </trkpt>
      <trkpt lat="42.33322" lon="2.52856">
        <ele>1545.593</ele>
        <time>2012-03-31T08:27:47Z</time>
      </trkpt>
      <trkpt lat="42.33322" lon="2.52859">
        <ele>1545.549</ele>
        <time>2012-03-31T08:27:48Z</time>
      </trkpt>
      <trkpt lat="42.33322" lon="2.52883">
        <ele>1541.602</ele>
        <time>2012-03-31T08:27:56Z</time>
      </trkpt>
      <trkpt lat="42.33322" lon="2.52886">
        <ele>1541.122</ele>
        <time>2012-03-31T08:27:57Z</time>
      </trkpt>
      <trkpt lat="42.3332" lon="2.52897">
        <ele>1540.207</ele>
        <time>2012-03-31T08:28:02Z</time>
      </trkpt>
      <trkpt lat="42.33316" lon="2.52924">
        <ele>1538.366</ele>
        <time>2012-03-31T08:28:11Z</time>
      </trkpt>
      <trkpt lat="42.3331" lon="2.52945">
        <ele>1539.21</ele>
        <time>2012-03-31T08:28:21Z</time>
      </trkpt>
      <trkpt lat="42.33306" lon="2.52971">
        <ele>1536.89</ele>
        <time>2012-03-31T08:28:31Z</time>
      </trkpt>
      <trkpt lat="42.33306" lon="2.52988">
        <ele>1533.965</ele>
        <time>2012-03-31T08:28:40Z</time>
      </trkpt>
      <trkpt lat="42.33304" lon="2.53008">
        <ele>1530.68</ele>
        <time>2012-03-31T08:28:50Z</time>
      </trkpt>
      <trkpt lat="42.33304" lon="2.53011">
        <ele>1529.643</ele>
        <time>2012-03-31T08:28:52Z</time>
      </trkpt>
      <trkpt lat="42.33305" lon="2.53016">
        <ele>1528.272</ele>
        <time>2012-03-31T08:28:55Z</time>
      </trkpt>
      <trkpt lat="42.33301" lon="2.53028">
        <ele>1526.723</ele>
        <time>2012-03-31T08:29:00Z</time>
      </trkpt>
      <trkpt lat="42.33299" lon="2.53034">
        <ele>1525.883</ele>
        <time>2012-03-31T08:29:04Z</time>
      </trkpt>
      <trkpt lat="42.33306" lon="2.53033">
        <ele>1523.811</ele>
        <time>2012-03-31T08:29:08Z</time>
      </trkpt>
      <trkpt lat="42.33308" lon="2.53034">
        <ele>1522.907</ele>
        <time>2012-03-31T08:29:10Z</time>
      </trkpt>
      <trkpt lat="42.3331" lon="2.53035">
        <ele>1521.914</ele>
        <time>2012-03-31T08:29:12Z</time>
      </trkpt>
      <trkpt lat="42.33313" lon="2.53037">
        <ele>1520.958</ele>
        <time>2012-03-31T08:29:14Z</time>
      </trkpt>
      <trkpt lat="42.33315" lon="2.53042">
        <ele>1519.038</ele>
        <time>2012-03-31T08:29:17Z</time>
      </trkpt>
      <trkpt lat="42.33316" lon="2.53046">
        <ele>1518.193</ele>
        <time>2012-03-31T08:29:19Z</time>
      </trkpt>
      <trkpt lat="42.33315" lon="2.53064">
        <ele>1514.758</ele>
        <time>2012-03-31T08:29:26Z</time>
      </trkpt>
      <trkpt lat="42.33317" lon="2.53078">
        <ele>1512.331</ele>
        <time>2012-03-31T08:29:31Z</time>
      </trkpt>
      <trkpt lat="42.33318" lon="2.5308">
        <ele>1511.33</ele>
        <time>2012-03-31T08:29:32Z</time>
      </trkpt>
      <trkpt lat="42.33319" lon="2.53088">
        <ele>1509.473</ele>
        <time>2012-03-31T08:29:36Z</time>
      </trkpt>
      <trkpt lat="42.3332" lon="2.53095">
        <ele>1508.085</ele>
        <time>2012-03-31T08:29:39Z</time>
      </trkpt>
      <trkpt lat="42.3332" lon="2.53101">
        <ele>1507.013</ele>
        <time>2012-03-31T08:29:42Z</time>
      </trkpt>
      <trkpt lat="42.33318" lon="2.53109">
        <ele>1507.007</ele>
        <time>2012-03-31T08:29:48Z</time>
      </trkpt>
      <trkpt lat="42.33318" lon="2.53117">
        <ele>1507.029</ele>
        <time>2012-03-31T08:29:52Z</time>
      </trkpt>
      <trkpt lat="42.33314" lon="2.53135">
        <ele>1506.573</ele>
        <time>2012-03-31T08:29:59Z</time>
      </trkpt>
      <trkpt lat="42.33312" lon="2.53147">
        <ele>1506.573</ele>
        <time>2012-03-31T08:30:05Z</time>
      </trkpt>
      <trkpt lat="42.33311" lon="2.53172">
        <ele>1505.628</ele>
        <time>2012-03-31T08:30:15Z</time>
      </trkpt>
      <trkpt lat="42.3331" lon="2.53192">
        <ele>1502.283</ele>
        <time>2012-03-31T08:30:26Z</time>
      </trkpt>
      <trkpt lat="42.33306" lon="2.53207">
        <ele>1502.286</ele>
        <time>2012-03-31T08:30:32Z</time>
      </trkpt>
      <trkpt lat="42.33304" lon="2.53225">
        <ele>1500.875</ele>
        <time>2012-03-31T08:30:38Z</time>
      </trkpt>
      <trkpt lat="42.33304" lon="2.53231">
        <ele>1501.273</ele>
        <time>2012-03-31T08:30:40Z</time>
      </trkpt>
      <trkpt lat="42.33304" lon="2.53247">
        <ele>1500.885</ele>
        <time>2012-03-31T08:30:45Z</time>
      </trkpt>
      <trkpt lat="42.33302" lon="2.53267">
        <ele>1501.713</ele>
        <time>2012-03-31T08:30:53Z</time>
      </trkpt>
      <trkpt lat="42.33302" lon="2.53301">
        <ele>1500.807</ele>
        <time>2012-03-31T08:31:08Z</time>
      </trkpt>
      <trkpt lat="42.33303" lon="2.53313">
        <ele>1498.489</ele>
        <time>2012-03-31T08:31:13Z</time>
      </trkpt>
      <trkpt lat="42.33304" lon="2.53315">
        <ele>1497.933</ele>
        <time>2012-03-31T08:31:15Z</time>
      </trkpt>
      <trkpt lat="42.33306" lon="2.53324">
        <ele>1496.463</ele>
        <time>2012-03-31T08:31:20Z</time>
      </trkpt>
      <trkpt lat="42.33313" lon="2.53336">
        <ele>1492.188</ele>
        <time>2012-03-31T08:31:29Z</time>
      </trkpt>
      <trkpt lat="42.33316" lon="2.53338">
        <ele>1490.723</ele>
        <time>2012-03-31T08:31:31Z</time>
      </trkpt>
      <trkpt lat="42.33321" lon="2.53347">
        <ele>1487.366</ele>
        <time>2012-03-31T08:31:38Z</time>
      </trkpt>
      <trkpt lat="42.33327" lon="2.53359">
        <ele>1483.925</ele>
        <time>2012-03-31T08:31:44Z</time>
      </trkpt>
      <trkpt lat="42.33328" lon="2.53361">
        <ele>1483.569</ele>
        <time>2012-03-31T08:31:45Z</time>
      </trkpt>
      <trkpt lat="42.33329" lon="2.53361">
        <ele>1482.504</ele>
        <time>2012-03-31T08:31:47Z</time>
      </trkpt>
      <trkpt lat="42.33333" lon="2.53366">
        <ele>1480.624</ele>
        <time>2012-03-31T08:31:51Z</time>
      </trkpt>
      <trkpt lat="42.33334" lon="2.53366">
        <ele>1479.607</ele>
        <time>2012-03-31T08:31:52Z</time>
      </trkpt>
      <trkpt lat="42.33338" lon="2.5337">
        <ele>1476.768</ele>
        <time>2012-03-31T08:31:57Z</time>
      </trkpt>
      <trkpt lat="42.33339" lon="2.5337">
        <ele>1475.852</ele>
        <time>2012-03-31T08:31:58Z</time>
      </trkpt>
      <trkpt lat="42.3334" lon="2.53378">
        <ele>1472.422</ele>
        <time>2012-03-31T08:32:05Z</time>
      </trkpt>
      <trkpt lat="42.33342" lon="2.53382">
        <ele>1469.067</ele>
        <time>2012-03-31T08:32:09Z</time>
      </trkpt>
      <trkpt lat="42.33343" lon="2.53387">
        <ele>1467.672</ele>
        <time>2012-03-31T08:32:13Z</time>
      </trkpt>
      <trkpt lat="42.33344" lon="2.53389">
        <ele>1467.185</ele>
        <time>2012-03-31T08:32:14Z</time>
      </trkpt>
      <trkpt lat="42.33343" lon="2.53393">
        <ele>1466.264</ele>
        <time>2012-03-31T08:32:16Z</time>
      </trkpt>
      <trkpt lat="42.33346" lon="2.53394">
        <ele>1464.275</ele>
        <time>2012-03-31T08:32:20Z</time>
      </trkpt>
      <trkpt lat="42.3335" lon="2.53394">
        <ele>1460.928</ele>
        <time>2012-03-31T08:32:27Z</time>
      </trkpt>
      <trkpt lat="42.33355" lon="2.53392">
        <ele>1457.02</ele>
        <time>2012-03-31T08:32:34Z</time>
      </trkpt>
      <trkpt lat="42.33355" lon="2.53393">
        <ele>1457.007</ele>
        <time>2012-03-31T08:32:35Z</time>
      </trkpt>
      <trkpt lat="42.33356" lon="2.53394">
        <ele>1456.519</ele>
        <time>2012-03-31T08:32:36Z</time>
      </trkpt>
      <trkpt lat="42.33358" lon="2.53395">
        <ele>1455.683</ele>
        <time>2012-03-31T08:32:38Z</time>
      </trkpt>
      <trkpt lat="42.33361" lon="2.53399">
        <ele>1451.773</ele>
        <time>2012-03-31T08:32:46Z</time>
      </trkpt>
      <trkpt lat="42.33361" lon="2.53399">
        <ele>1451.318</ele>
        <time>2012-03-31T08:32:47Z</time>
      </trkpt>
      <trkpt lat="42.33366" lon="2.53398">
        <ele>1447.983</ele>
        <time>2012-03-31T08:32:54Z</time>
      </trkpt>
      <trkpt lat="42.33367" lon="2.53398">
        <ele>1445.066</ele>
        <time>2012-03-31T08:33:00Z</time>
      </trkpt>
      <trkpt lat="42.3337" lon="2.53402">
        <ele>1441.635</ele>
        <time>2012-03-31T08:33:05Z</time>
      </trkpt>
      <trkpt lat="42.33372" lon="2.53403">
        <ele>1441.258</ele>
        <time>2012-03-31T08:33:06Z</time>
      </trkpt>
      <trkpt lat="42.33376" lon="2.53413">
        <ele>1437.852</ele>
        <time>2012-03-31T08:33:10Z</time>
      </trkpt>
      <trkpt lat="42.33381" lon="2.53436">
        <ele>1434.917</ele>
        <time>2012-03-31T08:33:17Z</time>
      </trkpt>
      <trkpt lat="42.33387" lon="2.53452">
        <ele>1432.507</ele>
        <time>2012-03-31T08:33:23Z</time>
      </trkpt>
      <trkpt lat="42.33389" lon="2.53456">
        <ele>1432.577</ele>
        <time>2012-03-31T08:33:25Z</time>
      </trkpt>
      <trkpt lat="42.3339" lon="2.53468">
        <ele>1430.651</ele>
        <time>2012-03-31T08:33:30Z</time>
      </trkpt>
      <trkpt lat="42.33388" lon="2.53479">
        <ele>1429.171</ele>
        <time>2012-03-31T08:33:33Z</time>
      </trkpt>
      <trkpt lat="42.33384" lon="2.53503">
        <ele>1425.836</ele>
        <time>2012-03-31T08:33:42Z</time>
      </trkpt>
      <trkpt lat="42.33384" lon="2.53505">
        <ele>1425.371</ele>
        <time>2012-03-31T08:33:43Z</time>
      </trkpt>
      <trkpt lat="42.33386" lon="2.53517">
        <ele>1420.544</ele>
        <time>2012-03-31T08:33:48Z</time>
      </trkpt>
      <trkpt lat="42.33384" lon="2.53529">
        <ele>1419.033</ele>
        <time>2012-03-31T08:33:52Z</time>
      </trkpt>
      <trkpt lat="42.33386" lon="2.5354">
        <ele>1417.611</ele>
        <time>2012-03-31T08:33:56Z</time>
      </trkpt>
      <trkpt lat="42.33389" lon="2.5355">
        <ele>1415.721</ele>
        <time>2012-03-31T08:33:59Z</time>
      </trkpt>
      <trkpt lat="42.33392" lon="2.53575">
        <ele>1411.803</ele>
        <time>2012-03-31T08:34:07Z</time>
      </trkpt>
      <trkpt lat="42.33397" lon="2.53592">
        <ele>1408.507</ele>
        <time>2012-03-31T08:34:11Z</time>
      </trkpt>
      <trkpt lat="42.33398" lon="2.53604">
        <ele>1406.613</ele>
        <time>2012-03-31T08:34:14Z</time>
      </trkpt>
      <trkpt lat="42.33397" lon="2.53615">
        <ele>1405.157</ele>
        <time>2012-03-31T08:34:17Z</time>
      </trkpt>
      <trkpt lat="42.33387" lon="2.53643">
        <ele>1404.147</ele>
        <time>2012-03-31T08:34:26Z</time>
      </trkpt>
      <trkpt lat="42.33384" lon="2.5367">
        <ele>1404.632</ele>
        <time>2012-03-31T08:34:35Z</time>
      </trkpt>
      <trkpt lat="42.33383" lon="2.53688">
        <ele>1404.697</ele>
        <time>2012-03-31T08:34:41Z</time>
      </trkpt>
      <trkpt lat="42.33381" lon="2.53694">
        <ele>1404.65</ele>
        <time>2012-03-31T08:34:43Z</time>
      </trkpt>
      <trkpt lat="42.3338" lon="2.53722">
        <ele>1405.159</ele>
        <time>2012-03-31T08:34:54Z</time>
      </trkpt>
      <trkpt lat="42.33379" lon="2.53727">
        <ele>1405.663</ele>
        <time>2012-03-31T08:34:56Z</time>
      </trkpt>
      <trkpt lat="42.33379" lon="2.53742">
        <ele>1406.644</ele>
        <time>2012-03-31T08:35:02Z</time>
      </trkpt>
      <trkpt lat="42.33382" lon="2.53765">
        <ele>1407.018</ele>
        <time>2012-03-31T08:35:11Z</time>
      </trkpt>
      <trkpt lat="42.33381" lon="2.53777">
        <ele>1406.607</ele>
        <time>2012-03-31T08:35:15Z</time>
      </trkpt>
      <trkpt lat="42.33383" lon="2.53785">
        <ele>1406.628</ele>
        <time>2012-03-31T08:35:18Z</time>
      </trkpt>
      <trkpt lat="42.33385" lon="2.53807">
        <ele>1405.632</ele>
        <time>2012-03-31T08:35:27Z</time>
      </trkpt>
      <trkpt lat="42.33386" lon="2.53815">
        <ele>1405.692</ele>
        <time>2012-03-31T08:35:30Z</time>
      </trkpt>
      <trkpt lat="42.33386" lon="2.53821">
        <ele>1405.627</ele>
        <time>2012-03-31T08:35:33Z</time>
      </trkpt>
      <trkpt lat="42.33386" lon="2.53825">
        <ele>1406.122</ele>
        <time>2012-03-31T08:35:35Z</time>
      </trkpt>
      <trkpt lat="42.33386" lon="2.5384">
        <ele>1405.195</ele>
        <time>2012-03-31T08:35:43Z</time>
      </trkpt>
      <trkpt lat="42.33385" lon="2.53867">
        <ele>1401.724</ele>
        <time>2012-03-31T08:35:53Z</time>
      </trkpt>
      <trkpt lat="42.33384" lon="2.53874">
        <ele>1400.851</ele>
        <time>2012-03-31T08:35:55Z</time>
      </trkpt>
      <trkpt lat="42.33374" lon="2.53908">
        <ele>1400.301</ele>
        <time>2012-03-31T08:36:07Z</time>
      </trkpt>
      <trkpt lat="42.33374" lon="2.53939">
        <ele>1398.411</ele>
        <time>2012-03-31T08:36:17Z</time>
      </trkpt>
      <trkpt lat="42.33374" lon="2.53949">
        <ele>1399.807</ele>
        <time>2012-03-31T08:36:22Z</time>
      </trkpt>
      <trkpt lat="42.33371" lon="2.53958">
        <ele>1400.887</ele>
        <time>2012-03-31T08:36:27Z</time>
      </trkpt>
      <trkpt lat="42.33372" lon="2.53969">
        <ele>1400.861</ele>
        <time>2012-03-31T08:36:32Z</time>
      </trkpt>
      <trkpt lat="42.33369" lon="2.53986">
        <ele>1400.311</ele>
        <time>2012-03-31T08:36:37Z</time>
      </trkpt>
      <trkpt lat="42.33369" lon="2.53991">
        <ele>1399.376</ele>
        <time>2012-03-31T08:36:39Z</time>
      </trkpt>
      <trkpt lat="42.33368" lon="2.54017">
        <ele>1400.361</ele>
        <time>2012-03-31T08:36:48Z</time>
      </trkpt>
      <trkpt lat="42.33368" lon="2.54021">
        <ele>1399.864</ele>
        <time>2012-03-31T08:36:49Z</time>
      </trkpt>
      <trkpt lat="42.33369" lon="2.54036">
        <ele>1400.353</ele>
        <time>2012-03-31T08:36:55Z</time>
      </trkpt>
      <trkpt lat="42.33368" lon="2.54041">
        <ele>1399.315</ele>
        <time>2012-03-31T08:36:57Z</time>
      </trkpt>
      <trkpt lat="42.33364" lon="2.54078">
        <ele>1399.865</ele>
        <time>2012-03-31T08:37:10Z</time>
      </trkpt>
      <trkpt lat="42.3336" lon="2.54107">
        <ele>1398.411</ele>
        <time>2012-03-31T08:37:19Z</time>
      </trkpt>
      <trkpt lat="42.33354" lon="2.54134">
        <ele>1395.507</ele>
        <time>2012-03-31T08:37:28Z</time>
      </trkpt>
      <trkpt lat="42.33346" lon="2.54162">
        <ele>1393.133</ele>
        <time>2012-03-31T08:37:39Z</time>
      </trkpt>
      <trkpt lat="42.33335" lon="2.54188">
        <ele>1389.797</ele>
        <time>2012-03-31T08:37:47Z</time>
      </trkpt>
      <trkpt lat="42.33331" lon="2.54218">
        <ele>1386.827</ele>
        <time>2012-03-31T08:37:56Z</time>
      </trkpt>
      <trkpt lat="42.3333" lon="2.54252">
        <ele>1383.552</ele>
        <time>2012-03-31T08:38:06Z</time>
      </trkpt>
      <trkpt lat="42.33319" lon="2.54271">
        <ele>1380.127</ele>
        <time>2012-03-31T08:38:12Z</time>
      </trkpt>
      <trkpt lat="42.33304" lon="2.54297">
        <ele>1377.78</ele>
        <time>2012-03-31T08:38:21Z</time>
      </trkpt>
      <trkpt lat="42.333" lon="2.54304">
        <ele>1377.279</ele>
        <time>2012-03-31T08:38:23Z</time>
      </trkpt>
      <trkpt lat="42.33286" lon="2.54329">
        <ele>1375.397</ele>
        <time>2012-03-31T08:38:31Z</time>
      </trkpt>
      <trkpt lat="42.33269" lon="2.5437">
        <ele>1374.823</ele>
        <time>2012-03-31T08:38:44Z</time>
      </trkpt>
      <trkpt lat="42.33267" lon="2.54373">
        <ele>1375.325</ele>
        <time>2012-03-31T08:38:46Z</time>
      </trkpt>
      <trkpt lat="42.33258" lon="2.54404">
        <ele>1375.307</ele>
        <time>2012-03-31T08:38:56Z</time>
      </trkpt>
      <trkpt lat="42.3325" lon="2.5442">
        <ele>1373.951</ele>
        <time>2012-03-31T08:39:02Z</time>
      </trkpt>
      <trkpt lat="42.33242" lon="2.5444">
        <ele>1372.955</ele>
        <time>2012-03-31T08:39:09Z</time>
      </trkpt>
      <trkpt lat="42.33237" lon="2.54447">
        <ele>1371.915</ele>
        <time>2012-03-31T08:39:12Z</time>
      </trkpt>
      <trkpt lat="42.33227" lon="2.54458">
        <ele>1372.98</ele>
        <time>2012-03-31T08:39:18Z</time>
      </trkpt>
      <trkpt lat="42.33212" lon="2.54471">
        <ele>1370.555</ele>
        <time>2012-03-31T08:39:28Z</time>
      </trkpt>
      <trkpt lat="42.33208" lon="2.54475">
        <ele>1369.198</ele>
        <time>2012-03-31T08:39:31Z</time>
      </trkpt>
      <trkpt lat="42.332" lon="2.54489">
        <ele>1365.757</ele>
        <time>2012-03-31T08:39:36Z</time>
      </trkpt>
      <trkpt lat="42.33195" lon="2.54497">
        <ele>1366.779</ele>
        <time>2012-03-31T08:39:40Z</time>
      </trkpt>
      <trkpt lat="42.33192" lon="2.54507">
        <ele>1364.705</ele>
        <time>2012-03-31T08:39:46Z</time>
      </trkpt>
      <trkpt lat="42.33188" lon="2.54512">
        <ele>1362.325</ele>
        <time>2012-03-31T08:39:51Z</time>
      </trkpt>
      <trkpt lat="42.33182" lon="2.54514">
        <ele>1360.407</ele>
        <time>2012-03-31T08:39:54Z</time>
      </trkpt>
      <trkpt lat="42.33178" lon="2.54519">
        <ele>1359.019</ele>
        <time>2012-03-31T08:39:58Z</time>
      </trkpt>
      <trkpt lat="42.33175" lon="2.54519">
        <ele>1357.513</ele>
        <time>2012-03-31T08:40:02Z</time>
      </trkpt>
      <trkpt lat="42.33168" lon="2.54526">
        <ele>1355.623</ele>
        <time>2012-03-31T08:40:07Z</time>
      </trkpt>
      <trkpt lat="42.33152" lon="2.54537">
        <ele>1352.298</ele>
        <time>2012-03-31T08:40:17Z</time>
      </trkpt>
      <trkpt lat="42.33142" lon="2.54555">
        <ele>1348.963</ele>
        <time>2012-03-31T08:40:25Z</time>
      </trkpt>
      <trkpt lat="42.33135" lon="2.54567">
        <ele>1347.426</ele>
        <time>2012-03-31T08:40:30Z</time>
      </trkpt>
      <trkpt lat="42.33133" lon="2.54569">
        <ele>1347.465</ele>
        <time>2012-03-31T08:40:31Z</time>
      </trkpt>
      <trkpt lat="42.33119" lon="2.54588">
        <ele>1344.116</ele>
        <time>2012-03-31T08:40:40Z</time>
      </trkpt>
      <trkpt lat="42.33109" lon="2.54601">
        <ele>1341.276</ele>
        <time>2012-03-31T08:40:46Z</time>
      </trkpt>
      <trkpt lat="42.33096" lon="2.54623">
        <ele>1339.713</ele>
        <time>2012-03-31T08:40:54Z</time>
      </trkpt>
      <trkpt lat="42.3309" lon="2.54632">
        <ele>1340.207</ele>
        <time>2012-03-31T08:40:58Z</time>
      </trkpt>
      <trkpt lat="42.33073" lon="2.54662">
        <ele>1340.223</ele>
        <time>2012-03-31T08:41:10Z</time>
      </trkpt>
      <trkpt lat="42.33063" lon="2.54693">
        <ele>1341.737</ele>
        <time>2012-03-31T08:41:22Z</time>
      </trkpt>
      <trkpt lat="42.33054" lon="2.54705">
        <ele>1342.637</ele>
        <time>2012-03-31T08:41:29Z</time>
      </trkpt>
      <trkpt lat="42.33044" lon="2.54715">
        <ele>1342.682</ele>
        <time>2012-03-31T08:41:36Z</time>
      </trkpt>
      <trkpt lat="42.3304" lon="2.54748">
        <ele>1343.177</ele>
        <time>2012-03-31T08:41:48Z</time>
      </trkpt>
      <trkpt lat="42.3304" lon="2.5475">
        <ele>1343.13</ele>
        <time>2012-03-31T08:41:49Z</time>
      </trkpt>
      <trkpt lat="42.33034" lon="2.54776">
        <ele>1345.079</ele>
        <time>2012-03-31T08:42:00Z</time>
      </trkpt>
      <trkpt lat="42.33021" lon="2.54805">
        <ele>1347.495</ele>
        <time>2012-03-31T08:42:12Z</time>
      </trkpt>
      <trkpt lat="42.33019" lon="2.54809">
        <ele>1348.449</ele>
        <time>2012-03-31T08:42:14Z</time>
      </trkpt>
      <trkpt lat="42.33018" lon="2.54829">
        <ele>1349.423</ele>
        <time>2012-03-31T08:42:22Z</time>
      </trkpt>
      <trkpt lat="42.33012" lon="2.54838">
        <ele>1346.507</ele>
        <time>2012-03-31T08:42:27Z</time>
      </trkpt>
      <trkpt lat="42.33007" lon="2.54846">
        <ele>1345.521</ele>
        <time>2012-03-31T08:42:30Z</time>
      </trkpt>
      <trkpt lat="42.33003" lon="2.54849">
        <ele>1346.065</ele>
        <time>2012-03-31T08:42:33Z</time>
      </trkpt>
      <trkpt lat="42.32992" lon="2.54876">
        <ele>1344.585</ele>
        <time>2012-03-31T08:42:44Z</time>
      </trkpt>
      <trkpt lat="42.32988" lon="2.54888">
        <ele>1343.69</ele>
        <time>2012-03-31T08:42:49Z</time>
      </trkpt>
      <trkpt lat="42.32986" lon="2.54896">
        <ele>1343.135</ele>
        <time>2012-03-31T08:42:52Z</time>
      </trkpt>
      <trkpt lat="42.32979" lon="2.54925">
        <ele>1339.328</ele>
        <time>2012-03-31T08:43:02Z</time>
      </trkpt>
      <trkpt lat="42.32978" lon="2.54927">
        <ele>1339.387</ele>
        <time>2012-03-31T08:43:03Z</time>
      </trkpt>
      <trkpt lat="42.32971" lon="2.54943">
        <ele>1336.966</ele>
        <time>2012-03-31T08:43:10Z</time>
      </trkpt>
      <trkpt lat="42.32966" lon="2.54957">
        <ele>1333.529</ele>
        <time>2012-03-31T08:43:19Z</time>
      </trkpt>
      <trkpt lat="42.32965" lon="2.54958">
        <ele>1333.021</ele>
        <time>2012-03-31T08:43:20Z</time>
      </trkpt>
      <trkpt lat="42.32964" lon="2.5496">
        <ele>1332.507</ele>
        <time>2012-03-31T08:43:21Z</time>
      </trkpt>
      <trkpt lat="42.32961" lon="2.54965">
        <ele>1330.678</ele>
        <time>2012-03-31T08:43:24Z</time>
      </trkpt>
      <trkpt lat="42.32958" lon="2.54968">
        <ele>1329.642</ele>
        <time>2012-03-31T08:43:26Z</time>
      </trkpt>
      <trkpt lat="42.32957" lon="2.5497">
        <ele>1328.772</ele>
        <time>2012-03-31T08:43:27Z</time>
      </trkpt>
      <trkpt lat="42.3295" lon="2.54985">
        <ele>1324.437</ele>
        <time>2012-03-31T08:43:33Z</time>
      </trkpt>
      <trkpt lat="42.32949" lon="2.54989">
        <ele>1324.492</ele>
        <time>2012-03-31T08:43:34Z</time>
      </trkpt>
      <trkpt lat="42.32943" lon="2.55012">
        <ele>1321.055</ele>
        <time>2012-03-31T08:43:42Z</time>
      </trkpt>
      <trkpt lat="42.32943" lon="2.55017">
        <ele>1319.154</ele>
        <time>2012-03-31T08:43:45Z</time>
      </trkpt>
      <trkpt lat="42.32942" lon="2.5502">
        <ele>1319.115</ele>
        <time>2012-03-31T08:43:47Z</time>
      </trkpt>
      <trkpt lat="42.32937" lon="2.5503">
        <ele>1314.765</ele>
        <time>2012-03-31T08:43:52Z</time>
      </trkpt>
      <trkpt lat="42.32935" lon="2.55035">
        <ele>1313.311</ele>
        <time>2012-03-31T08:43:54Z</time>
      </trkpt>
      <trkpt lat="42.32925" lon="2.55049">
        <ele>1315.707</ele>
        <time>2012-03-31T08:44:04Z</time>
      </trkpt>
      <trkpt lat="42.32922" lon="2.55051">
        <ele>1317.153</ele>
        <time>2012-03-31T08:44:07Z</time>
      </trkpt>
      <trkpt lat="42.3292" lon="2.5505">
        <ele>1318.167</ele>
        <time>2012-03-31T08:44:09Z</time>
      </trkpt>
      <trkpt lat="42.32915" lon="2.55046">
        <ele>1321.087</ele>
        <time>2012-03-31T08:44:18Z</time>
      </trkpt>
      <trkpt lat="42.32909" lon="2.55046">
        <ele>1324.442</ele>
        <time>2012-03-31T08:44:28Z</time>
      </trkpt>
      <trkpt lat="42.32906" lon="2.55048">
        <ele>1325.337</ele>
        <time>2012-03-31T08:44:32Z</time>
      </trkpt>
      <trkpt lat="42.32903" lon="2.55047">
        <ele>1326.36</ele>
        <time>2012-03-31T08:44:35Z</time>
      </trkpt>
      <trkpt lat="42.329" lon="2.5505">
        <ele>1325.879</ele>
        <time>2012-03-31T08:44:38Z</time>
      </trkpt>
      <trkpt lat="42.32896" lon="2.55054">
        <ele>1324.467</ele>
        <time>2012-03-31T08:44:40Z</time>
      </trkpt>
      <trkpt lat="42.32894" lon="2.55061">
        <ele>1324.881</ele>
        <time>2012-03-31T08:44:42Z</time>
      </trkpt>
      <trkpt lat="42.32892" lon="2.55065">
        <ele>1325.319</ele>
        <time>2012-03-31T08:44:44Z</time>
      </trkpt>
      <trkpt lat="42.32878" lon="2.55079">
        <ele>1325.307</ele>
        <time>2012-03-31T08:44:51Z</time>
      </trkpt>
      <trkpt lat="42.32852" lon="2.55098">
        <ele>1322.058</ele>
        <time>2012-03-31T08:45:03Z</time>
      </trkpt>
      <trkpt lat="42.32845" lon="2.55101">
        <ele>1320.522</ele>
        <time>2012-03-31T08:45:06Z</time>
      </trkpt>
      <trkpt lat="42.32842" lon="2.55103">
        <ele>1320.552</ele>
        <time>2012-03-31T08:45:07Z</time>
      </trkpt>
      <trkpt lat="42.32835" lon="2.55105">
        <ele>1322.027</ele>
        <time>2012-03-31T08:45:12Z</time>
      </trkpt>
      <trkpt lat="42.32835" lon="2.55108">
        <ele>1322.942</ele>
        <time>2012-03-31T08:45:14Z</time>
      </trkpt>
      <trkpt lat="42.32832" lon="2.55112">
        <ele>1324.445</ele>
        <time>2012-03-31T08:45:18Z</time>
      </trkpt>
      <trkpt lat="42.32831" lon="2.55116">
        <ele>1326.344</ele>
        <time>2012-03-31T08:45:25Z</time>
      </trkpt>
      <trkpt lat="42.32831" lon="2.55116">
        <ele>1326.351</ele>
        <time>2012-03-31T08:45:26Z</time>
      </trkpt>
      <trkpt lat="42.32825" lon="2.55122">
        <ele>1329.201</ele>
        <time>2012-03-31T08:45:34Z</time>
      </trkpt>
      <trkpt lat="42.32819" lon="2.55123">
        <ele>1331.111</ele>
        <time>2012-03-31T08:45:41Z</time>
      </trkpt>
      <trkpt lat="42.32811" lon="2.55121">
        <ele>1334.007</ele>
        <time>2012-03-31T08:45:50Z</time>
      </trkpt>
      <trkpt lat="42.32811" lon="2.55121">
        <ele>1334.927</ele>
        <time>2012-03-31T08:45:53Z</time>
      </trkpt>
      <trkpt lat="42.32802" lon="2.55122">
        <ele>1336.921</ele>
        <time>2012-03-31T08:46:02Z</time>
      </trkpt>
      <trkpt lat="42.328" lon="2.55121">
        <ele>1338.821</ele>
        <time>2012-03-31T08:46:09Z</time>
      </trkpt>
      <trkpt lat="42.32799" lon="2.55117">
        <ele>1341.216</ele>
        <time>2012-03-31T08:46:16Z</time>
      </trkpt>
      <trkpt lat="42.32797" lon="2.55115">
        <ele>1342.621</ele>
        <time>2012-03-31T08:46:21Z</time>
      </trkpt>
      <trkpt lat="42.32795" lon="2.55114">
        <ele>1343.634</ele>
        <time>2012-03-31T08:46:25Z</time>
      </trkpt>
      <trkpt lat="42.32784" lon="2.55121">
        <ele>1344.193</ele>
        <time>2012-03-31T08:46:32Z</time>
      </trkpt>
      <trkpt lat="42.32779" lon="2.55129">
        <ele>1344.196</ele>
        <time>2012-03-31T08:46:36Z</time>
      </trkpt>
      <trkpt lat="42.32763" lon="2.55146">
        <ele>1344.531</ele>
        <time>2012-03-31T08:46:46Z</time>
      </trkpt>
      <trkpt lat="42.32757" lon="2.55154">
        <ele>1344.524</ele>
        <time>2012-03-31T08:46:50Z</time>
      </trkpt>
      <trkpt lat="42.32751" lon="2.55163">
        <ele>1345.507</ele>
        <time>2012-03-31T08:46:55Z</time>
      </trkpt>
      <trkpt lat="42.32741" lon="2.5518">
        <ele>1342.161</ele>
        <time>2012-03-31T08:47:02Z</time>
      </trkpt>
      <trkpt lat="42.32736" lon="2.55187">
        <ele>1341.715</ele>
        <time>2012-03-31T08:47:05Z</time>
      </trkpt>
      <trkpt lat="42.32721" lon="2.55199">
        <ele>1339.385</ele>
        <time>2012-03-31T08:47:14Z</time>
      </trkpt>
      <trkpt lat="42.32712" lon="2.55213">
        <ele>1339.74</ele>
        <time>2012-03-31T08:47:20Z</time>
      </trkpt>
      <trkpt lat="42.32704" lon="2.55234">
        <ele>1339.395</ele>
        <time>2012-03-31T08:47:27Z</time>
      </trkpt>
      <trkpt lat="42.32686" lon="2.55252">
        <ele>1336.968</ele>
        <time>2012-03-31T08:47:35Z</time>
      </trkpt>
      <trkpt lat="42.32683" lon="2.55253">
        <ele>1336.967</ele>
        <time>2012-03-31T08:47:36Z</time>
      </trkpt>
      <trkpt lat="42.32672" lon="2.55265">
        <ele>1337.349</ele>
        <time>2012-03-31T08:47:44Z</time>
      </trkpt>
      <trkpt lat="42.32658" lon="2.55284">
        <ele>1336.402</ele>
        <time>2012-03-31T08:47:53Z</time>
      </trkpt>
      <trkpt lat="42.32656" lon="2.55285">
        <ele>1336.422</ele>
        <time>2012-03-31T08:47:54Z</time>
      </trkpt>
      <trkpt lat="42.32636" lon="2.55305">
        <ele>1335.407</ele>
        <time>2012-03-31T08:48:04Z</time>
      </trkpt>
      <trkpt lat="42.32623" lon="2.55324">
        <ele>1334.956</ele>
        <time>2012-03-31T08:48:12Z</time>
      </trkpt>
      <trkpt lat="42.32621" lon="2.55325">
        <ele>1334.93</ele>
        <time>2012-03-31T08:48:13Z</time>
      </trkpt>
      <trkpt lat="42.32614" lon="2.55339">
        <ele>1336.95</ele>
        <time>2012-03-31T08:48:20Z</time>
      </trkpt>
      <trkpt lat="42.32606" lon="2.55347">
        <ele>1339.355</ele>
        <time>2012-03-31T08:48:28Z</time>
      </trkpt>
      <trkpt lat="42.326" lon="2.55363">
        <ele>1341.23</ele>
        <time>2012-03-31T08:48:36Z</time>
      </trkpt>
      <trkpt lat="42.32599" lon="2.55365">
        <ele>1342.173</ele>
        <time>2012-03-31T08:48:38Z</time>
      </trkpt>
      <trkpt lat="42.32599" lon="2.5537">
        <ele>1342.612</ele>
        <time>2012-03-31T08:48:41Z</time>
      </trkpt>
      <trkpt lat="42.32596" lon="2.55382">
        <ele>1345.086</ele>
        <time>2012-03-31T08:48:49Z</time>
      </trkpt>
      <trkpt lat="42.32597" lon="2.55382">
        <ele>1345.06</ele>
        <time>2012-03-31T08:48:52Z</time>
      </trkpt>
      <trkpt lat="42.32596" lon="2.55397">
        <ele>1347.926</ele>
        <time>2012-03-31T08:49:01Z</time>
      </trkpt>
      <trkpt lat="42.32595" lon="2.55397">
        <ele>1348.907</ele>
        <time>2012-03-31T08:49:05Z</time>
      </trkpt>
      <trkpt lat="42.32592" lon="2.55401">
        <ele>1351.31</ele>
        <time>2012-03-31T08:49:12Z</time>
      </trkpt>
      <trkpt lat="42.32589" lon="2.55409">
        <ele>1354.224</ele>
        <time>2012-03-31T08:49:20Z</time>
      </trkpt>
      <trkpt lat="42.32586" lon="2.55413">
        <ele>1355.684</ele>
        <time>2012-03-31T08:49:26Z</time>
      </trkpt>
      <trkpt lat="42.32586" lon="2.5542">
        <ele>1357.089</ele>
        <time>2012-03-31T08:49:31Z</time>
      </trkpt>
      <trkpt lat="42.32581" lon="2.55435">
        <ele>1359.454</ele>
        <time>2012-03-31T08:49:41Z</time>
      </trkpt>
      <trkpt lat="42.32579" lon="2.5544">
        <ele>1361.497</ele>
        <time>2012-03-31T08:49:47Z</time>
      </trkpt>
      <trkpt lat="42.32571" lon="2.55448">
        <ele>1364.366</ele>
        <time>2012-03-31T08:49:59Z</time>
      </trkpt>
      <trkpt lat="42.3256" lon="2.55461">
        <ele>1366.288</ele>
        <time>2012-03-31T08:50:11Z</time>
      </trkpt>
      <trkpt lat="42.32552" lon="2.55473">
        <ele>1368.624</ele>
        <time>2012-03-31T08:50:21Z</time>
      </trkpt>
      <trkpt lat="42.32542" lon="2.55486">
        <ele>1369.126</ele>
        <time>2012-03-31T08:50:35Z</time>
      </trkpt>
      <trkpt lat="42.32542" lon="2.55486">
        <ele>1370.007</ele>
        <time>2012-03-31T08:50:38Z</time>
      </trkpt>
      <trkpt lat="42.32531" lon="2.55505">
        <ele>1371.93</ele>
        <time>2012-03-31T08:50:49Z</time>
      </trkpt>
      <trkpt lat="42.32517" lon="2.55522">
        <ele>1374.824</ele>
        <time>2012-03-31T08:51:03Z</time>
      </trkpt>
      <trkpt lat="42.32512" lon="2.55528">
        <ele>1378.284</ele>
        <time>2012-03-31T08:51:13Z</time>
      </trkpt>
      <trkpt lat="42.32504" lon="2.55537">
        <ele>1380.179</ele>
        <time>2012-03-31T08:51:21Z</time>
      </trkpt>
      <trkpt lat="42.32499" lon="2.55541">
        <ele>1383.574</ele>
        <time>2012-03-31T08:51:33Z</time>
      </trkpt>
      <trkpt lat="42.32494" lon="2.55544">
        <ele>1386.437</ele>
        <time>2012-03-31T08:51:42Z</time>
      </trkpt>
      <trkpt lat="42.32488" lon="2.55542">
        <ele>1388.876</ele>
        <time>2012-03-31T08:51:50Z</time>
      </trkpt>
      <trkpt lat="42.32469" lon="2.55546">
        <ele>1389.239</ele>
        <time>2012-03-31T08:51:59Z</time>
      </trkpt>
      <trkpt lat="42.32459" lon="2.55549">
        <ele>1389.201</ele>
        <time>2012-03-31T08:52:04Z</time>
      </trkpt>
      <trkpt lat="42.32455" lon="2.55551">
        <ele>1389.721</ele>
        <time>2012-03-31T08:52:06Z</time>
      </trkpt>
      <trkpt lat="42.32445" lon="2.5555">
        <ele>1388.807</ele>
        <time>2012-03-31T08:52:17Z</time>
      </trkpt>
      <trkpt lat="42.32438" lon="2.55555">
        <ele>1387.835</ele>
        <time>2012-03-31T08:52:22Z</time>
      </trkpt>
      <trkpt lat="42.32435" lon="2.55557">
        <ele>1385.929</ele>
        <time>2012-03-31T08:52:27Z</time>
      </trkpt>
      <trkpt lat="42.32432" lon="2.55557">
        <ele>1384.429</ele>
        <time>2012-03-31T08:52:30Z</time>
      </trkpt>
      <trkpt lat="42.32429" lon="2.55554">
        <ele>1383.044</ele>
        <time>2012-03-31T08:52:33Z</time>
      </trkpt>
      <trkpt lat="42.32428" lon="2.55553">
        <ele>1381.649</ele>
        <time>2012-03-31T08:52:35Z</time>
      </trkpt>
      <trkpt lat="42.32425" lon="2.55557">
        <ele>1378.782</ele>
        <time>2012-03-31T08:52:41Z</time>
      </trkpt>
      <trkpt lat="42.32423" lon="2.55558">
        <ele>1377.211</ele>
        <time>2012-03-31T08:52:44Z</time>
      </trkpt>
      <trkpt lat="42.32421" lon="2.55559">
        <ele>1374.894</ele>
        <time>2012-03-31T08:52:47Z</time>
      </trkpt>
      <trkpt lat="42.32419" lon="2.55559">
        <ele>1372.457</ele>
        <time>2012-03-31T08:52:49Z</time>
      </trkpt>
      <trkpt lat="42.32413" lon="2.55564">
        <ele>1367.622</ele>
        <time>2012-03-31T08:52:54Z</time>
      </trkpt>
      <trkpt lat="42.3241" lon="2.55567">
        <ele>1365.707</ele>
        <time>2012-03-31T08:52:57Z</time>
      </trkpt>
      <trkpt lat="42.32403" lon="2.55569">
        <ele>1362.381</ele>
        <time>2012-03-31T08:53:01Z</time>
      </trkpt>
      <trkpt lat="42.32395" lon="2.55577">
        <ele>1359.025</ele>
        <time>2012-03-31T08:53:05Z</time>
      </trkpt>
      <trkpt lat="42.32391" lon="2.55579">
        <ele>1357.535</ele>
        <time>2012-03-31T08:53:07Z</time>
      </trkpt>
      <trkpt lat="42.32381" lon="2.55581">
        <ele>1354.29</ele>
        <time>2012-03-31T08:53:11Z</time>
      </trkpt>
      <trkpt lat="42.3237" lon="2.55585">
        <ele>1350.885</ele>
        <time>2012-03-31T08:53:15Z</time>
      </trkpt>
      <trkpt lat="42.32366" lon="2.55588">
        <ele>1349.498</ele>
        <time>2012-03-31T08:53:17Z</time>
      </trkpt>
      <trkpt lat="42.32362" lon="2.5559">
        <ele>1348.487</ele>
        <time>2012-03-31T08:53:19Z</time>
      </trkpt>
      <trkpt lat="42.32353" lon="2.55593">
        <ele>1345.087</ele>
        <time>2012-03-31T08:53:23Z</time>
      </trkpt>
      <trkpt lat="42.32351" lon="2.55594">
        <ele>1344.542</ele>
        <time>2012-03-31T08:53:24Z</time>
      </trkpt>
      <trkpt lat="42.32346" lon="2.55595">
        <ele>1342.626</ele>
        <time>2012-03-31T08:53:26Z</time>
      </trkpt>
      <trkpt lat="42.3233" lon="2.55603">
        <ele>1338.807</ele>
        <time>2012-03-31T08:53:33Z</time>
      </trkpt>
      <trkpt lat="42.32321" lon="2.55607">
        <ele>1336.44</ele>
        <time>2012-03-31T08:53:36Z</time>
      </trkpt>
      <trkpt lat="42.32305" lon="2.5561">
        <ele>1336.944</ele>
        <time>2012-03-31T08:53:42Z</time>
      </trkpt>
      <trkpt lat="42.323" lon="2.55618">
        <ele>1337.814</ele>
        <time>2012-03-31T08:53:48Z</time>
      </trkpt>
      <trkpt lat="42.32292" lon="2.55634">
        <ele>1334.919</ele>
        <time>2012-03-31T08:53:54Z</time>
      </trkpt>
      <trkpt lat="42.32286" lon="2.55643">
        <ele>1334.514</ele>
        <time>2012-03-31T08:53:58Z</time>
      </trkpt>
      <trkpt lat="42.32282" lon="2.55651">
        <ele>1333.047</ele>
        <time>2012-03-31T08:54:02Z</time>
      </trkpt>
      <trkpt lat="42.32278" lon="2.5566">
        <ele>1330.166</ele>
        <time>2012-03-31T08:54:06Z</time>
      </trkpt>
      <trkpt lat="42.32267" lon="2.5567">
        <ele>1326.374</ele>
        <time>2012-03-31T08:54:13Z</time>
      </trkpt>
      <trkpt lat="42.32251" lon="2.55693">
        <ele>1326.356</ele>
        <time>2012-03-31T08:54:23Z</time>
      </trkpt>
      <trkpt lat="42.32247" lon="2.55702">
        <ele>1327.221</ele>
        <time>2012-03-31T08:54:28Z</time>
      </trkpt>
      <trkpt lat="42.32242" lon="2.55715">
        <ele>1328.207</ele>
        <time>2012-03-31T08:54:34Z</time>
      </trkpt>
      <trkpt lat="42.32243" lon="2.55721">
        <ele>1328.289</ele>
        <time>2012-03-31T08:54:38Z</time>
      </trkpt>
      <trkpt lat="42.32243" lon="2.55736">
        <ele>1325.343</ele>
        <time>2012-03-31T08:54:49Z</time>
      </trkpt>
      <trkpt lat="42.32243" lon="2.55739">
        <ele>1324.833</ele>
        <time>2012-03-31T08:55:00Z</time>
      </trkpt>
      <trkpt lat="42.32242" lon="2.5574">
        <ele>1324.478</ele>
        <time>2012-03-31T08:55:01Z</time>
      </trkpt>
      <trkpt lat="42.32238" lon="2.55744">
        <ele>1322.463</ele>
        <time>2012-03-31T08:55:05Z</time>
      </trkpt>
      <trkpt lat="42.32237" lon="2.55744">
        <ele>1321.526</ele>
        <time>2012-03-31T08:55:06Z</time>
      </trkpt>
      <trkpt lat="42.32235" lon="2.55748">
        <ele>1320.515</ele>
        <time>2012-03-31T08:55:08Z</time>
      </trkpt>
      <trkpt lat="42.32234" lon="2.5575">
        <ele>1320.061</ele>
        <time>2012-03-31T08:55:09Z</time>
      </trkpt>
      <trkpt lat="42.32231" lon="2.55757">
        <ele>1318.121</ele>
        <time>2012-03-31T08:55:13Z</time>
      </trkpt>
      <trkpt lat="42.3222" lon="2.55761">
        <ele>1313.813</ele>
        <time>2012-03-31T08:55:18Z</time>
      </trkpt>
      <trkpt lat="42.32214" lon="2.55768">
        <ele>1313.307</ele>
        <time>2012-03-31T08:55:21Z</time>
      </trkpt>
      <trkpt lat="42.3221" lon="2.55769">
        <ele>1313.338</ele>
        <time>2012-03-31T08:55:23Z</time>
      </trkpt>
      <trkpt lat="42.32208" lon="2.55773">
        <ele>1313.312</ele>
        <time>2012-03-31T08:55:27Z</time>
      </trkpt>
      <trkpt lat="42.32205" lon="2.5578">
        <ele>1313.812</ele>
        <time>2012-03-31T08:55:31Z</time>
      </trkpt>
      <trkpt lat="42.32198" lon="2.55785">
        <ele>1314.347</ele>
        <time>2012-03-31T08:55:43Z</time>
      </trkpt>
      <trkpt lat="42.32192" lon="2.55786">
        <ele>1310.912</ele>
        <time>2012-03-31T08:55:48Z</time>
      </trkpt>
      <trkpt lat="42.3219" lon="2.55785">
        <ele>1309.565</ele>
        <time>2012-03-31T08:55:51Z</time>
      </trkpt>
      <trkpt lat="42.32186" lon="2.55784">
        <ele>1308.554</ele>
        <time>2012-03-31T08:55:53Z</time>
      </trkpt>
      <trkpt lat="42.32173" lon="2.55785">
        <ele>1305.671</ele>
        <time>2012-03-31T08:56:01Z</time>
      </trkpt>
      <trkpt lat="42.32167" lon="2.5579">
        <ele>1305.141</ele>
        <time>2012-03-31T08:56:06Z</time>
      </trkpt>
      <trkpt lat="42.32152" lon="2.55807">
        <ele>1302.215</ele>
        <time>2012-03-31T08:56:16Z</time>
      </trkpt>
      <trkpt lat="42.32151" lon="2.55808">
        <ele>1302.207</ele>
        <time>2012-03-31T08:56:17Z</time>
      </trkpt>
      <trkpt lat="42.32152" lon="2.55803">
        <ele>1302.239</ele>
        <time>2012-03-31T08:56:20Z</time>
      </trkpt>
      <trkpt lat="42.32149" lon="2.55801">
        <ele>1301.393</ele>
        <time>2012-03-31T08:56:23Z</time>
      </trkpt>
      <trkpt lat="42.32146" lon="2.558">
        <ele>1299.473</ele>
        <time>2012-03-31T08:56:26Z</time>
      </trkpt>
      <trkpt lat="42.32145" lon="2.55797">
        <ele>1296.598</ele>
        <time>2012-03-31T08:56:29Z</time>
      </trkpt>
      <trkpt lat="42.32139" lon="2.55801">
        <ele>1292.653</ele>
        <time>2012-03-31T08:56:35Z</time>
      </trkpt>
      <trkpt lat="42.32138" lon="2.55802">
        <ele>1292.686</ele>
        <time>2012-03-31T08:56:36Z</time>
      </trkpt>
      <trkpt lat="42.32139" lon="2.55808">
        <ele>1290.755</ele>
        <time>2012-03-31T08:56:39Z</time>
      </trkpt>
      <trkpt lat="42.32138" lon="2.55813">
        <ele>1289.386</ele>
        <time>2012-03-31T08:56:41Z</time>
      </trkpt>
      <trkpt lat="42.32137" lon="2.55821">
        <ele>1287.36</ele>
        <time>2012-03-31T08:56:44Z</time>
      </trkpt>
      <trkpt lat="42.32135" lon="2.5583">
        <ele>1284.026</ele>
        <time>2012-03-31T08:56:49Z</time>
      </trkpt>
      <trkpt lat="42.32133" lon="2.55837">
        <ele>1282.107</ele>
        <time>2012-03-31T08:56:53Z</time>
      </trkpt>
      <trkpt lat="42.32132" lon="2.55843">
        <ele>1279.75</ele>
        <time>2012-03-31T08:56:56Z</time>
      </trkpt>
      <trkpt lat="42.32127" lon="2.55843">
        <ele>1276.334</ele>
        <time>2012-03-31T08:57:04Z</time>
      </trkpt>
      <trkpt lat="42.32126" lon="2.55843">
        <ele>1273.944</ele>
        <time>2012-03-31T08:57:08Z</time>
      </trkpt>
      <trkpt lat="42.32124" lon="2.55857">
        <ele>1272.099</ele>
        <time>2012-03-31T08:57:12Z</time>
      </trkpt>
      <trkpt lat="42.32123" lon="2.55862">
        <ele>1272.414</ele>
        <time>2012-03-31T08:57:14Z</time>
      </trkpt>
      <trkpt lat="42.32121" lon="2.5587">
        <ele>1273.417</ele>
        <time>2012-03-31T08:57:19Z</time>
      </trkpt>
      <trkpt lat="42.32118" lon="2.55878">
        <ele>1272.046</ele>
        <time>2012-03-31T08:57:24Z</time>
      </trkpt>
      <trkpt lat="42.32117" lon="2.55885">
        <ele>1270.092</ele>
        <time>2012-03-31T08:57:27Z</time>
      </trkpt>
      <trkpt lat="42.32117" lon="2.55897">
        <ele>1267.673</ele>
        <time>2012-03-31T08:57:32Z</time>
      </trkpt>
      <trkpt lat="42.32118" lon="2.55904">
        <ele>1266.22</ele>
        <time>2012-03-31T08:57:35Z</time>
      </trkpt>
      <trkpt lat="42.32118" lon="2.55906">
        <ele>1265.707</ele>
        <time>2012-03-31T08:57:37Z</time>
      </trkpt>
      <trkpt lat="42.32115" lon="2.55907">
        <ele>1263.851</ele>
        <time>2012-03-31T08:57:40Z</time>
      </trkpt>
      <trkpt lat="42.32095" lon="2.5592">
        <ele>1259.925</ele>
        <time>2012-03-31T08:57:49Z</time>
      </trkpt>
      <trkpt lat="42.32088" lon="2.55939">
        <ele>1260.445</ele>
        <time>2012-03-31T08:58:00Z</time>
      </trkpt>
      <trkpt lat="42.32082" lon="2.55955">
        <ele>1260.97</ele>
        <time>2012-03-31T08:58:10Z</time>
      </trkpt>
      <trkpt lat="42.32081" lon="2.55965">
        <ele>1259.965</ele>
        <time>2012-03-31T08:58:13Z</time>
      </trkpt>
      <trkpt lat="42.32069" lon="2.55981">
        <ele>1260.938</ele>
        <time>2012-03-31T08:58:22Z</time>
      </trkpt>
      <trkpt lat="42.32069" lon="2.55981">
        <ele>1259.987</ele>
        <time>2012-03-31T08:58:23Z</time>
      </trkpt>
      <trkpt lat="42.32066" lon="2.55991">
        <ele>1257.562</ele>
        <time>2012-03-31T08:58:27Z</time>
      </trkpt>
      <trkpt lat="42.32062" lon="2.55997">
        <ele>1258.083</ele>
        <time>2012-03-31T08:58:29Z</time>
      </trkpt>
      <trkpt lat="42.32047" lon="2.56038">
        <ele>1255.111</ele>
        <time>2012-03-31T08:58:42Z</time>
      </trkpt>
      <trkpt lat="42.32041" lon="2.56049">
        <ele>1255.607</ele>
        <time>2012-03-31T08:58:46Z</time>
      </trkpt>
      <trkpt lat="42.32035" lon="2.56056">
        <ele>1256.648</ele>
        <time>2012-03-31T08:58:50Z</time>
      </trkpt>
      <trkpt lat="42.32024" lon="2.56084">
        <ele>1258.522</ele>
        <time>2012-03-31T08:59:04Z</time>
      </trkpt>
      <trkpt lat="42.32019" lon="2.56095">
        <ele>1258.512</ele>
        <time>2012-03-31T08:59:10Z</time>
      </trkpt>
      <trkpt lat="42.32" lon="2.56111">
        <ele>1259.077</ele>
        <time>2012-03-31T08:59:24Z</time>
      </trkpt>
      <trkpt lat="42.31985" lon="2.56124">
        <ele>1260.452</ele>
        <time>2012-03-31T08:59:34Z</time>
      </trkpt>
      <trkpt lat="42.31975" lon="2.56138">
        <ele>1261.915</ele>
        <time>2012-03-31T08:59:42Z</time>
      </trkpt>
      <trkpt lat="42.3197" lon="2.56141">
        <ele>1261.914</ele>
        <time>2012-03-31T08:59:45Z</time>
      </trkpt>
      <trkpt lat="42.31961" lon="2.5615">
        <ele>1262.896</ele>
        <time>2012-03-31T08:59:52Z</time>
      </trkpt>
      <trkpt lat="42.31957" lon="2.5616">
        <ele>1264.831</ele>
        <time>2012-03-31T08:59:58Z</time>
      </trkpt>
      <trkpt lat="42.31955" lon="2.56169">
        <ele>1266.224</ele>
        <time>2012-03-31T09:00:03Z</time>
      </trkpt>
      <trkpt lat="42.31945" lon="2.56183">
        <ele>1264.807</ele>
        <time>2012-03-31T09:00:11Z</time>
      </trkpt>
      <trkpt lat="42.31932" lon="2.56184">
        <ele>1260.471</ele>
        <time>2012-03-31T09:00:20Z</time>
      </trkpt>
      <trkpt lat="42.31928" lon="2.56168">
        <ele>1256.625</ele>
        <time>2012-03-31T09:00:27Z</time>
      </trkpt>
      <trkpt lat="42.31919" lon="2.56161">
        <ele>1253.765</ele>
        <time>2012-03-31T09:00:33Z</time>
      </trkpt>
      <trkpt lat="42.31915" lon="2.56159">
        <ele>1252.38</ele>
        <time>2012-03-31T09:00:36Z</time>
      </trkpt>
      <trkpt lat="42.31907" lon="2.5616">
        <ele>1251.865</ele>
        <time>2012-03-31T09:00:41Z</time>
      </trkpt>
      <trkpt lat="42.31895" lon="2.5616">
        <ele>1251.898</ele>
        <time>2012-03-31T09:00:47Z</time>
      </trkpt>
      <trkpt lat="42.31883" lon="2.56152">
        <ele>1249.937</ele>
        <time>2012-03-31T09:00:57Z</time>
      </trkpt>
      <trkpt lat="42.31882" lon="2.56148">
        <ele>1248.918</ele>
        <time>2012-03-31T09:00:59Z</time>
      </trkpt>
      <trkpt lat="42.31877" lon="2.56132">
        <ele>1245.598</ele>
        <time>2012-03-31T09:01:07Z</time>
      </trkpt>
      <trkpt lat="42.31874" lon="2.56126">
        <ele>1245.517</ele>
        <time>2012-03-31T09:01:10Z</time>
      </trkpt>
      <trkpt lat="42.31865" lon="2.56113">
        <ele>1247.507</ele>
        <time>2012-03-31T09:01:20Z</time>
      </trkpt>
      <trkpt lat="42.31861" lon="2.56103">
        <ele>1248.953</ele>
        <time>2012-03-31T09:01:26Z</time>
      </trkpt>
      <trkpt lat="42.3186" lon="2.56095">
        <ele>1248.417</ele>
        <time>2012-03-31T09:01:30Z</time>
      </trkpt>
      <trkpt lat="42.31852" lon="2.56093">
        <ele>1249.977</ele>
        <time>2012-03-31T09:01:36Z</time>
      </trkpt>
      <trkpt lat="42.31848" lon="2.5609">
        <ele>1249.472</ele>
        <time>2012-03-31T09:01:41Z</time>
      </trkpt>
      <trkpt lat="42.31837" lon="2.56095">
        <ele>1251.377</ele>
        <time>2012-03-31T09:01:51Z</time>
      </trkpt>
      <trkpt lat="42.31826" lon="2.56098">
        <ele>1252.32</ele>
        <time>2012-03-31T09:01:57Z</time>
      </trkpt>
      <trkpt lat="42.31809" lon="2.561">
        <ele>1253.739</ele>
        <time>2012-03-31T09:02:05Z</time>
      </trkpt>
      <trkpt lat="42.31802" lon="2.56104">
        <ele>1255.139</ele>
        <time>2012-03-31T09:02:12Z</time>
      </trkpt>
      <trkpt lat="42.31793" lon="2.56114">
        <ele>1256.601</ele>
        <time>2012-03-31T09:02:18Z</time>
      </trkpt>
      <trkpt lat="42.31774" lon="2.56117">
        <ele>1258.021</ele>
        <time>2012-03-31T09:02:27Z</time>
      </trkpt>
      <trkpt lat="42.31766" lon="2.56116">
        <ele>1259.007</ele>
        <time>2012-03-31T09:02:35Z</time>
      </trkpt>
      <trkpt lat="42.31758" lon="2.56119">
        <ele>1259.995</ele>
        <time>2012-03-31T09:02:38Z</time>
      </trkpt>
      <trkpt lat="42.31745" lon="2.56123">
        <ele>1260.989</ele>
        <time>2012-03-31T09:02:47Z</time>
      </trkpt>
      <trkpt lat="42.31736" lon="2.56125">
        <ele>1263.369</ele>
        <time>2012-03-31T09:02:56Z</time>
      </trkpt>
      <trkpt lat="42.31736" lon="2.56125">
        <ele>1263.864</ele>
        <time>2012-03-31T09:02:57Z</time>
      </trkpt>
      <trkpt lat="42.31729" lon="2.56125">
        <ele>1263.819</ele>
        <time>2012-03-31T09:03:03Z</time>
      </trkpt>
      <trkpt lat="42.31714" lon="2.56132">
        <ele>1265.242</ele>
        <time>2012-03-31T09:03:13Z</time>
      </trkpt>
      <trkpt lat="42.31698" lon="2.56128">
        <ele>1266.231</ele>
        <time>2012-03-31T09:03:20Z</time>
      </trkpt>
      <trkpt lat="42.31694" lon="2.56125">
        <ele>1267.298</ele>
        <time>2012-03-31T09:03:24Z</time>
      </trkpt>
      <trkpt lat="42.31689" lon="2.56121">
        <ele>1268.615</ele>
        <time>2012-03-31T09:03:30Z</time>
      </trkpt>
      <trkpt lat="42.31683" lon="2.56113">
        <ele>1270.026</ele>
        <time>2012-03-31T09:03:38Z</time>
      </trkpt>
      <trkpt lat="42.31675" lon="2.56105">
        <ele>1272.007</ele>
        <time>2012-03-31T09:03:47Z</time>
      </trkpt>
      <trkpt lat="42.31669" lon="2.56092">
        <ele>1273.961</ele>
        <time>2012-03-31T09:03:55Z</time>
      </trkpt>
      <trkpt lat="42.31666" lon="2.56084">
        <ele>1275.325</ele>
        <time>2012-03-31T09:04:03Z</time>
      </trkpt>
      <trkpt lat="42.31661" lon="2.5608">
        <ele>1276.865</ele>
        <time>2012-03-31T09:04:06Z</time>
      </trkpt>
      <trkpt lat="42.3166" lon="2.56079">
        <ele>1277.39</ele>
        <time>2012-03-31T09:04:08Z</time>
      </trkpt>
      <trkpt lat="42.31657" lon="2.56069">
        <ele>1277.325</ele>
        <time>2012-03-31T09:04:12Z</time>
      </trkpt>
      <trkpt lat="42.31649" lon="2.56065">
        <ele>1277.778</ele>
        <time>2012-03-31T09:04:22Z</time>
      </trkpt>
      <trkpt lat="42.31641" lon="2.56061">
        <ele>1277.727</ele>
        <time>2012-03-31T09:04:28Z</time>
      </trkpt>
      <trkpt lat="42.31632" lon="2.56058">
        <ele>1277.329</ele>
        <time>2012-03-31T09:04:33Z</time>
      </trkpt>
      <trkpt lat="42.31616" lon="2.56057">
        <ele>1275.3</ele>
        <time>2012-03-31T09:04:42Z</time>
      </trkpt>
      <trkpt lat="42.31606" lon="2.56056">
        <ele>1274.42</ele>
        <time>2012-03-31T09:04:47Z</time>
      </trkpt>
      <trkpt lat="42.31589" lon="2.56064">
        <ele>1274.907</ele>
        <time>2012-03-31T09:04:56Z</time>
      </trkpt>
      <trkpt lat="42.31589" lon="2.56066">
        <ele>1274.984</ele>
        <time>2012-03-31T09:04:57Z</time>
      </trkpt>
      <trkpt lat="42.31572" lon="2.56074">
        <ele>1275.368</ele>
        <time>2012-03-31T09:05:06Z</time>
      </trkpt>
      <trkpt lat="42.31561" lon="2.56084">
        <ele>1275.898</ele>
        <time>2012-03-31T09:05:13Z</time>
      </trkpt>
      <trkpt lat="42.31552" lon="2.56095">
        <ele>1275.823</ele>
        <time>2012-03-31T09:05:19Z</time>
      </trkpt>
      <trkpt lat="42.31551" lon="2.56099">
        <ele>1276.338</ele>
        <time>2012-03-31T09:05:21Z</time>
      </trkpt>
      <trkpt lat="42.31549" lon="2.56103">
        <ele>1275.811</ele>
        <time>2012-03-31T09:05:24Z</time>
      </trkpt>
      <trkpt lat="42.3154" lon="2.56118">
        <ele>1276.38</ele>
        <time>2012-03-31T09:05:31Z</time>
      </trkpt>
      <trkpt lat="42.31535" lon="2.56124">
        <ele>1275.353</ele>
        <time>2012-03-31T09:05:35Z</time>
      </trkpt>
      <trkpt lat="42.31535" lon="2.56134">
        <ele>1275.804</ele>
        <time>2012-03-31T09:05:39Z</time>
      </trkpt>
      <trkpt lat="42.31539" lon="2.56147">
        <ele>1275.814</ele>
        <time>2012-03-31T09:05:44Z</time>
      </trkpt>
      <trkpt lat="42.31537" lon="2.56164">
        <ele>1275.807</ele>
        <time>2012-03-31T09:05:53Z</time>
      </trkpt>
      <trkpt lat="42.31527" lon="2.56178">
        <ele>1273.477</ele>
        <time>2012-03-31T09:06:02Z</time>
      </trkpt>
      <trkpt lat="42.31526" lon="2.56178">
        <ele>1272.941</ele>
        <time>2012-03-31T09:06:03Z</time>
      </trkpt>
      <trkpt lat="42.31522" lon="2.56197">
        <ele>1271.551</ele>
        <time>2012-03-31T09:06:13Z</time>
      </trkpt>
      <trkpt lat="42.31523" lon="2.56217">
        <ele>1269.686</ele>
        <time>2012-03-31T09:06:22Z</time>
      </trkpt>
      <trkpt lat="42.31521" lon="2.56226">
        <ele>1268.621</ele>
        <time>2012-03-31T09:06:26Z</time>
      </trkpt>
      <trkpt lat="42.31514" lon="2.56239">
        <ele>1266.234</ele>
        <time>2012-03-31T09:06:33Z</time>
      </trkpt>
      <trkpt lat="42.31512" lon="2.56262">
        <ele>1263.873</ele>
        <time>2012-03-31T09:06:40Z</time>
      </trkpt>
      <trkpt lat="42.31507" lon="2.56286">
        <ele>1260.936</ele>
        <time>2012-03-31T09:06:47Z</time>
      </trkpt>
      <trkpt lat="42.31507" lon="2.56289">
        <ele>1260.917</ele>
        <time>2012-03-31T09:06:48Z</time>
      </trkpt>
      <trkpt lat="42.31506" lon="2.56291">
        <ele>1260.918</ele>
        <time>2012-03-31T09:06:49Z</time>
      </trkpt>
      <trkpt lat="42.31504" lon="2.56304">
        <ele>1260.407</ele>
        <time>2012-03-31T09:06:54Z</time>
      </trkpt>
      <trkpt lat="42.31502" lon="2.56309">
        <ele>1259.965</ele>
        <time>2012-03-31T09:06:56Z</time>
      </trkpt>
      <trkpt lat="42.31498" lon="2.56334">
        <ele>1257.179</ele>
        <time>2012-03-31T09:07:05Z</time>
      </trkpt>
      <trkpt lat="42.31496" lon="2.56338">
        <ele>1256.699</ele>
        <time>2012-03-31T09:07:06Z</time>
      </trkpt>
      <trkpt lat="42.31495" lon="2.56342">
        <ele>1256.114</ele>
        <time>2012-03-31T09:07:07Z</time>
      </trkpt>
      <trkpt lat="42.3149" lon="2.56368">
        <ele>1254.239</ele>
        <time>2012-03-31T09:07:16Z</time>
      </trkpt>
      <trkpt lat="42.31488" lon="2.56369">
        <ele>1253.282</ele>
        <time>2012-03-31T09:07:19Z</time>
      </trkpt>
      <trkpt lat="42.31474" lon="2.56362">
        <ele>1249.951</ele>
        <time>2012-03-31T09:07:26Z</time>
      </trkpt>
      <trkpt lat="42.31468" lon="2.56359">
        <ele>1248.961</ele>
        <time>2012-03-31T09:07:29Z</time>
      </trkpt>
      <trkpt lat="42.31466" lon="2.5636">
        <ele>1247.521</ele>
        <time>2012-03-31T09:07:30Z</time>
      </trkpt>
      <trkpt lat="42.31452" lon="2.56376">
        <ele>1245.013</ele>
        <time>2012-03-31T09:07:37Z</time>
      </trkpt>
      <trkpt lat="42.3144" lon="2.56392">
        <ele>1245.507</ele>
        <time>2012-03-31T09:07:45Z</time>
      </trkpt>
      <trkpt lat="42.3143" lon="2.5642">
        <ele>1244.618</ele>
        <time>2012-03-31T09:07:55Z</time>
      </trkpt>
      <trkpt lat="42.31426" lon="2.56438">
        <ele>1244.162</ele>
        <time>2012-03-31T09:08:01Z</time>
      </trkpt>
      <trkpt lat="42.31424" lon="2.56452">
        <ele>1244.152</ele>
        <time>2012-03-31T09:08:06Z</time>
      </trkpt>
      <trkpt lat="42.31421" lon="2.56464">
        <ele>1243.677</ele>
        <time>2012-03-31T09:08:10Z</time>
      </trkpt>
      <trkpt lat="42.31413" lon="2.56472">
        <ele>1241.792</ele>
        <time>2012-03-31T09:08:19Z</time>
      </trkpt>
      <trkpt lat="42.31411" lon="2.56473">
        <ele>1240.775</ele>
        <time>2012-03-31T09:08:21Z</time>
      </trkpt>
      <trkpt lat="42.31407" lon="2.56474">
        <ele>1238.834</ele>
        <time>2012-03-31T09:08:25Z</time>
      </trkpt>
      <trkpt lat="42.31406" lon="2.56473">
        <ele>1238.321</ele>
        <time>2012-03-31T09:08:26Z</time>
      </trkpt>
      <trkpt lat="42.31403" lon="2.56473">
        <ele>1237.441</ele>
        <time>2012-03-31T09:08:28Z</time>
      </trkpt>
      <trkpt lat="42.31401" lon="2.56473">
        <ele>1236.905</ele>
        <time>2012-03-31T09:08:29Z</time>
      </trkpt>
      <trkpt lat="42.31397" lon="2.56471">
        <ele>1235.407</ele>
        <time>2012-03-31T09:08:32Z</time>
      </trkpt>
      <trkpt lat="42.31388" lon="2.5647">
        <ele>1233.594</ele>
        <time>2012-03-31T09:08:37Z</time>
      </trkpt>
      <trkpt lat="42.31382" lon="2.56474">
        <ele>1231.168</ele>
        <time>2012-03-31T09:08:41Z</time>
      </trkpt>
      <trkpt lat="42.31376" lon="2.56479">
        <ele>1229.718</ele>
        <time>2012-03-31T09:08:46Z</time>
      </trkpt>
      <trkpt lat="42.31365" lon="2.56492">
        <ele>1227.363</ele>
        <time>2012-03-31T09:08:53Z</time>
      </trkpt>
      <trkpt lat="42.31362" lon="2.56494">
        <ele>1226.838</ele>
        <time>2012-03-31T09:08:55Z</time>
      </trkpt>
      <trkpt lat="42.31347" lon="2.5651">
        <ele>1223.441</ele>
        <time>2012-03-31T09:09:04Z</time>
      </trkpt>
      <trkpt lat="42.31343" lon="2.56515">
        <ele>1222.02</ele>
        <time>2012-03-31T09:09:07Z</time>
      </trkpt>
      <trkpt lat="42.31342" lon="2.56517">
        <ele>1221.544</ele>
        <time>2012-03-31T09:09:08Z</time>
      </trkpt>
      <trkpt lat="42.31337" lon="2.56522">
        <ele>1219.605</ele>
        <time>2012-03-31T09:09:13Z</time>
      </trkpt>
      <trkpt lat="42.31333" lon="2.56525">
        <ele>1218.115</ele>
        <time>2012-03-31T09:09:16Z</time>
      </trkpt>
      <trkpt lat="42.31331" lon="2.56526">
        <ele>1216.707</ele>
        <time>2012-03-31T09:09:18Z</time>
      </trkpt>
      <trkpt lat="42.31316" lon="2.56523">
        <ele>1215.296</ele>
        <time>2012-03-31T09:09:24Z</time>
      </trkpt>
      <trkpt lat="42.31301" lon="2.56527">
        <ele>1211.45</ele>
        <time>2012-03-31T09:09:29Z</time>
      </trkpt>
      <trkpt lat="42.31295" lon="2.56528">
        <ele>1210.48</ele>
        <time>2012-03-31T09:09:31Z</time>
      </trkpt>
      <trkpt lat="42.3129" lon="2.56529">
        <ele>1210.495</ele>
        <time>2012-03-31T09:09:33Z</time>
      </trkpt>
      <trkpt lat="42.31266" lon="2.56539">
        <ele>1210.46</ele>
        <time>2012-03-31T09:09:42Z</time>
      </trkpt>
      <trkpt lat="42.3126" lon="2.56544">
        <ele>1210.023</ele>
        <time>2012-03-31T09:09:45Z</time>
      </trkpt>
      <trkpt lat="42.31234" lon="2.5656">
        <ele>1208.562</ele>
        <time>2012-03-31T09:09:56Z</time>
      </trkpt>
      <trkpt lat="42.31216" lon="2.56577">
        <ele>1209.069</ele>
        <time>2012-03-31T09:10:05Z</time>
      </trkpt>
      <trkpt lat="42.31201" lon="2.56595">
        <ele>1208.504</ele>
        <time>2012-03-31T09:10:14Z</time>
      </trkpt>
      <trkpt lat="42.31194" lon="2.56593">
        <ele>1208.024</ele>
        <time>2012-03-31T09:10:19Z</time>
      </trkpt>
      <trkpt lat="42.31185" lon="2.56593">
        <ele>1206.607</ele>
        <time>2012-03-31T09:10:24Z</time>
      </trkpt>
      <trkpt lat="42.31181" lon="2.56595">
        <ele>1205.228</ele>
        <time>2012-03-31T09:10:27Z</time>
      </trkpt>
      <trkpt lat="42.31176" lon="2.56596">
        <ele>1203.722</ele>
        <time>2012-03-31T09:10:30Z</time>
      </trkpt>
      <trkpt lat="42.31174" lon="2.56602">
        <ele>1202.392</ele>
        <time>2012-03-31T09:10:33Z</time>
      </trkpt>
      <trkpt lat="42.31173" lon="2.56606">
        <ele>1201.327</ele>
        <time>2012-03-31T09:10:35Z</time>
      </trkpt>
      <trkpt lat="42.31168" lon="2.5661">
        <ele>1199.462</ele>
        <time>2012-03-31T09:10:39Z</time>
      </trkpt>
      <trkpt lat="42.31165" lon="2.56615">
        <ele>1197.065</ele>
        <time>2012-03-31T09:10:44Z</time>
      </trkpt>
      <trkpt lat="42.31162" lon="2.56622">
        <ele>1193.134</ele>
        <time>2012-03-31T09:10:48Z</time>
      </trkpt>
      <trkpt lat="42.31158" lon="2.56635">
        <ele>1188.313</ele>
        <time>2012-03-31T09:10:58Z</time>
      </trkpt>
      <trkpt lat="42.31153" lon="2.56638">
        <ele>1185.443</ele>
        <time>2012-03-31T09:11:03Z</time>
      </trkpt>
      <trkpt lat="42.31152" lon="2.56642">
        <ele>1184.507</ele>
        <time>2012-03-31T09:11:05Z</time>
      </trkpt>
      <trkpt lat="42.31152" lon="2.56645">
        <ele>1183.507</ele>
        <time>2012-03-31T09:11:08Z</time>
      </trkpt>
      <trkpt lat="42.31149" lon="2.56635">
        <ele>1179.713</ele>
        <time>2012-03-31T09:11:13Z</time>
      </trkpt>
      <trkpt lat="42.3114" lon="2.56628">
        <ele>1176.837</ele>
        <time>2012-03-31T09:11:18Z</time>
      </trkpt>
      <trkpt lat="42.31134" lon="2.56623">
        <ele>1173.997</ele>
        <time>2012-03-31T09:11:22Z</time>
      </trkpt>
      <trkpt lat="42.3113" lon="2.56623">
        <ele>1172.022</ele>
        <time>2012-03-31T09:11:25Z</time>
      </trkpt>
      <trkpt lat="42.31127" lon="2.56627">
        <ele>1170.127</ele>
        <time>2012-03-31T09:11:29Z</time>
      </trkpt>
      <trkpt lat="42.31125" lon="2.56627">
        <ele>1168.62</ele>
        <time>2012-03-31T09:11:31Z</time>
      </trkpt>
      <trkpt lat="42.3112" lon="2.56624">
        <ele>1166.759</ele>
        <time>2012-03-31T09:11:33Z</time>
      </trkpt>
      <trkpt lat="42.31113" lon="2.56626">
        <ele>1164.831</ele>
        <time>2012-03-31T09:11:37Z</time>
      </trkpt>
      <trkpt lat="42.31105" lon="2.56617">
        <ele>1161.961</ele>
        <time>2012-03-31T09:11:42Z</time>
      </trkpt>
      <trkpt lat="42.31104" lon="2.56632">
        <ele>1159.507</ele>
        <time>2012-03-31T09:11:49Z</time>
      </trkpt>
      <trkpt lat="42.31108" lon="2.56636">
        <ele>1157.107</ele>
        <time>2012-03-31T09:11:55Z</time>
      </trkpt>
      <trkpt lat="42.31115" lon="2.56638">
        <ele>1154.775</ele>
        <time>2012-03-31T09:11:59Z</time>
      </trkpt>
      <trkpt lat="42.31124" lon="2.56642">
        <ele>1154.269</ele>
        <time>2012-03-31T09:12:04Z</time>
      </trkpt>
      <trkpt lat="42.31127" lon="2.56649">
        <ele>1151.399</ele>
        <time>2012-03-31T09:12:12Z</time>
      </trkpt>
      <trkpt lat="42.31125" lon="2.56655">
        <ele>1149.954</ele>
        <time>2012-03-31T09:12:17Z</time>
      </trkpt>
      <trkpt lat="42.31124" lon="2.5665">
        <ele>1148.049</ele>
        <time>2012-03-31T09:12:24Z</time>
      </trkpt>
      <trkpt lat="42.3112" lon="2.56656">
        <ele>1145.162</ele>
        <time>2012-03-31T09:12:28Z</time>
      </trkpt>
      <trkpt lat="42.31111" lon="2.56657">
        <ele>1143.181</ele>
        <time>2012-03-31T09:12:31Z</time>
      </trkpt>
      <trkpt lat="42.311" lon="2.56659">
        <ele>1141.716</ele>
        <time>2012-03-31T09:12:33Z</time>
      </trkpt>
      <trkpt lat="42.31092" lon="2.56664">
        <ele>1137.976</ele>
        <time>2012-03-31T09:12:40Z</time>
      </trkpt>
      <trkpt lat="42.31091" lon="2.56666">
        <ele>1136.413</ele>
        <time>2012-03-31T09:12:43Z</time>
      </trkpt>
      <trkpt lat="42.31089" lon="2.56667">
        <ele>1135.007</ele>
        <time>2012-03-31T09:12:47Z</time>
      </trkpt>
      <trkpt lat="42.31086" lon="2.5667">
        <ele>1134.073</ele>
        <time>2012-03-31T09:12:49Z</time>
      </trkpt>
      <trkpt lat="42.31085" lon="2.56675">
        <ele>1133.157</ele>
        <time>2012-03-31T09:12:51Z</time>
      </trkpt>
      <trkpt lat="42.31084" lon="2.56678">
        <ele>1132.177</ele>
        <time>2012-03-31T09:12:54Z</time>
      </trkpt>
      <trkpt lat="42.31079" lon="2.56693">
        <ele>1129.242</ele>
        <time>2012-03-31T09:13:04Z</time>
      </trkpt>
      <trkpt lat="42.31072" lon="2.56695">
        <ele>1126.317</ele>
        <time>2012-03-31T09:13:10Z</time>
      </trkpt>
      <trkpt lat="42.31064" lon="2.56698">
        <ele>1123.44</ele>
        <time>2012-03-31T09:13:15Z</time>
      </trkpt>
      <trkpt lat="42.31055" lon="2.56702">
        <ele>1120.149</ele>
        <time>2012-03-31T09:13:21Z</time>
      </trkpt>
      <trkpt lat="42.3105" lon="2.56702">
        <ele>1118.645</ele>
        <time>2012-03-31T09:13:25Z</time>
      </trkpt>
      <trkpt lat="42.31045" lon="2.56703">
        <ele>1117.247</ele>
        <time>2012-03-31T09:13:28Z</time>
      </trkpt>
      <trkpt lat="42.31043" lon="2.56704">
        <ele>1116.211</ele>
        <time>2012-03-31T09:13:30Z</time>
      </trkpt>
      <trkpt lat="42.31038" lon="2.56706">
        <ele>1114.307</ele>
        <time>2012-03-31T09:13:34Z</time>
      </trkpt>
      <trkpt lat="42.3103" lon="2.56707">
        <ele>1110.996</ele>
        <time>2012-03-31T09:13:39Z</time>
      </trkpt>
      <trkpt lat="42.31016" lon="2.56715">
        <ele>1108.55</ele>
        <time>2012-03-31T09:13:47Z</time>
      </trkpt>
      <trkpt lat="42.31008" lon="2.56712">
        <ele>1104.78</ele>
        <time>2012-03-31T09:13:54Z</time>
      </trkpt>
      <trkpt lat="42.31007" lon="2.56712">
        <ele>1104.295</ele>
        <time>2012-03-31T09:13:55Z</time>
      </trkpt>
      <trkpt lat="42.3099" lon="2.56717">
        <ele>1101.39</ele>
        <time>2012-03-31T09:14:03Z</time>
      </trkpt>
      <trkpt lat="42.30978" lon="2.56721">
        <ele>1098.443</ele>
        <time>2012-03-31T09:14:09Z</time>
      </trkpt>
      <trkpt lat="42.30956" lon="2.56728">
        <ele>1095.622</ele>
        <time>2012-03-31T09:14:18Z</time>
      </trkpt>
      <trkpt lat="42.30944" lon="2.5673">
        <ele>1093.248</ele>
        <time>2012-03-31T09:14:24Z</time>
      </trkpt>
      <trkpt lat="42.30939" lon="2.5673">
        <ele>1091.761</ele>
        <time>2012-03-31T09:14:26Z</time>
      </trkpt>
      <trkpt lat="42.30924" lon="2.56734">
        <ele>1090.317</ele>
        <time>2012-03-31T09:14:33Z</time>
      </trkpt>
      <trkpt lat="42.30918" lon="2.56733">
        <ele>1087.907</ele>
        <time>2012-03-31T09:14:37Z</time>
      </trkpt>
      <trkpt lat="42.30899" lon="2.56735">
        <ele>1084.516</ele>
        <time>2012-03-31T09:14:45Z</time>
      </trkpt>
      <trkpt lat="42.30875" lon="2.56734">
        <ele>1081.17</ele>
        <time>2012-03-31T09:14:56Z</time>
      </trkpt>
      <trkpt lat="42.30861" lon="2.56727">
        <ele>1078.33</ele>
        <time>2012-03-31T09:15:04Z</time>
      </trkpt>
      <trkpt lat="42.30841" lon="2.56722">
        <ele>1074.945</ele>
        <time>2012-03-31T09:15:14Z</time>
      </trkpt>
      <trkpt lat="42.30831" lon="2.56717">
        <ele>1071.53</ele>
        <time>2012-03-31T09:15:19Z</time>
      </trkpt>
      <trkpt lat="42.30818" lon="2.56711">
        <ele>1068.643</ele>
        <time>2012-03-31T09:15:26Z</time>
      </trkpt>
      <trkpt lat="42.30806" lon="2.56708">
        <ele>1065.822</ele>
        <time>2012-03-31T09:15:31Z</time>
      </trkpt>
      <trkpt lat="42.30804" lon="2.56708">
        <ele>1065.315</ele>
        <time>2012-03-31T09:15:32Z</time>
      </trkpt>
      <trkpt lat="42.30789" lon="2.56709">
        <ele>1063.865</ele>
        <time>2012-03-31T09:15:39Z</time>
      </trkpt>
      <trkpt lat="42.3077" lon="2.56709">
        <ele>1060.511</ele>
        <time>2012-03-31T09:15:47Z</time>
      </trkpt>
      <trkpt lat="42.3074" lon="2.56716">
        <ele>1057.607</ele>
        <time>2012-03-31T09:16:00Z</time>
      </trkpt>
      <trkpt lat="42.30715" lon="2.56707">
        <ele>1056.223</ele>
        <time>2012-03-31T09:16:14Z</time>
      </trkpt>
      <trkpt lat="42.30714" lon="2.56706">
        <ele>1055.797</ele>
        <time>2012-03-31T09:16:15Z</time>
      </trkpt>
      <trkpt lat="42.30705" lon="2.56699">
        <ele>1053.757</ele>
        <time>2012-03-31T09:16:20Z</time>
      </trkpt>
      <trkpt lat="42.30685" lon="2.56705">
        <ele>1052.342</ele>
        <time>2012-03-31T09:16:33Z</time>
      </trkpt>
      <trkpt lat="42.30678" lon="2.56706">
        <ele>1050.977</ele>
        <time>2012-03-31T09:16:38Z</time>
      </trkpt>
      <trkpt lat="42.30664" lon="2.56705">
        <ele>1048.95</ele>
        <time>2012-03-31T09:16:47Z</time>
      </trkpt>
      <trkpt lat="42.30663" lon="2.56708">
        <ele>1047.599</ele>
        <time>2012-03-31T09:16:50Z</time>
      </trkpt>
      <trkpt lat="42.30662" lon="2.56713">
        <ele>1046.192</ele>
        <time>2012-03-31T09:16:54Z</time>
      </trkpt>
      <trkpt lat="42.30657" lon="2.56735">
        <ele>1042.273</ele>
        <time>2012-03-31T09:17:06Z</time>
      </trkpt>
      <trkpt lat="42.30651" lon="2.56749">
        <ele>1039.82</ele>
        <time>2012-03-31T09:17:13Z</time>
      </trkpt>
      <trkpt lat="42.30645" lon="2.56748">
        <ele>1038.407</ele>
        <time>2012-03-31T09:17:17Z</time>
      </trkpt>
      <trkpt lat="42.30636" lon="2.56738">
        <ele>1035.011</ele>
        <time>2012-03-31T09:17:26Z</time>
      </trkpt>
      <trkpt lat="42.30634" lon="2.5674">
        <ele>1034.565</ele>
        <time>2012-03-31T09:17:28Z</time>
      </trkpt>
      <trkpt lat="42.30632" lon="2.5674">
        <ele>1033.155</ele>
        <time>2012-03-31T09:17:31Z</time>
      </trkpt>
      <trkpt lat="42.30629" lon="2.56742">
        <ele>1032.17</ele>
        <time>2012-03-31T09:17:33Z</time>
      </trkpt>
      <trkpt lat="42.30617" lon="2.56739">
        <ele>1029.265</ele>
        <time>2012-03-31T09:17:40Z</time>
      </trkpt>
      <trkpt lat="42.30612" lon="2.56732">
        <ele>1028.328</ele>
        <time>2012-03-31T09:17:43Z</time>
      </trkpt>
      <trkpt lat="42.306" lon="2.56738">
        <ele>1024.487</ele>
        <time>2012-03-31T09:17:50Z</time>
      </trkpt>
      <trkpt lat="42.30595" lon="2.56736">
        <ele>1022.079</ele>
        <time>2012-03-31T09:17:53Z</time>
      </trkpt>
      <trkpt lat="42.30587" lon="2.56743">
        <ele>1020.105</ele>
        <time>2012-03-31T09:18:00Z</time>
      </trkpt>
      <trkpt lat="42.30587" lon="2.56742">
        <ele>1020.125</ele>
        <time>2012-03-31T09:18:06Z</time>
      </trkpt>
      <trkpt lat="42.30588" lon="2.56721">
        <ele>1018.707</ele>
        <time>2012-03-31T09:18:15Z</time>
      </trkpt>
      <trkpt lat="42.30593" lon="2.56703">
        <ele>1018.729</ele>
        <time>2012-03-31T09:18:24Z</time>
      </trkpt>
      <trkpt lat="42.30593" lon="2.56696">
        <ele>1018.243</ele>
        <time>2012-03-31T09:18:27Z</time>
      </trkpt>
      <trkpt lat="42.30594" lon="2.5669">
        <ele>1018.213</ele>
        <time>2012-03-31T09:18:29Z</time>
      </trkpt>
      <trkpt lat="42.30603" lon="2.56668">
        <ele>1017.278</ele>
        <time>2012-03-31T09:18:39Z</time>
      </trkpt>
      <trkpt lat="42.30607" lon="2.56662">
        <ele>1017.793</ele>
        <time>2012-03-31T09:18:44Z</time>
      </trkpt>
      <trkpt lat="42.30606" lon="2.56645">
        <ele>1014.316</ele>
        <time>2012-03-31T09:18:51Z</time>
      </trkpt>
      <trkpt lat="42.30604" lon="2.56642">
        <ele>1013.995</ele>
        <time>2012-03-31T09:18:52Z</time>
      </trkpt>
      <trkpt lat="42.30604" lon="2.56636">
        <ele>1013.485</ele>
        <time>2012-03-31T09:18:54Z</time>
      </trkpt>
      <trkpt lat="42.30611" lon="2.56622">
        <ele>1012.989</ele>
        <time>2012-03-31T09:19:00Z</time>
      </trkpt>
      <trkpt lat="42.30615" lon="2.56609">
        <ele>1011.417</ele>
        <time>2012-03-31T09:19:05Z</time>
      </trkpt>
      <trkpt lat="42.30619" lon="2.56589">
        <ele>1008.107</ele>
        <time>2012-03-31T09:19:12Z</time>
      </trkpt>
      <trkpt lat="42.30622" lon="2.56578">
        <ele>1006.68</ele>
        <time>2012-03-31T09:19:16Z</time>
      </trkpt>
      <trkpt lat="42.30634" lon="2.56567">
        <ele>1005.284</ele>
        <time>2012-03-31T09:19:21Z</time>
      </trkpt>
      <trkpt lat="42.30638" lon="2.56563">
        <ele>1004.784</ele>
        <time>2012-03-31T09:19:23Z</time>
      </trkpt>
      <trkpt lat="42.30656" lon="2.56557">
        <ele>1004.229</ele>
        <time>2012-03-31T09:19:31Z</time>
      </trkpt>
      <trkpt lat="42.30659" lon="2.56556">
        <ele>1003.894</ele>
        <time>2012-03-31T09:19:33Z</time>
      </trkpt>
      <trkpt lat="42.30671" lon="2.56555">
        <ele>1004.767</ele>
        <time>2012-03-31T09:19:38Z</time>
      </trkpt>
      <trkpt lat="42.30678" lon="2.56557">
        <ele>1004.236</ele>
        <time>2012-03-31T09:19:42Z</time>
      </trkpt>
      <trkpt lat="42.30686" lon="2.56556">
        <ele>1003.891</ele>
        <time>2012-03-31T09:19:45Z</time>
      </trkpt>
      <trkpt lat="42.30698" lon="2.56553">
        <ele>999.981</ele>
        <time>2012-03-31T09:19:50Z</time>
      </trkpt>
      <trkpt lat="42.30701" lon="2.56552">
        <ele>999.919</ele>
        <time>2012-03-31T09:19:51Z</time>
      </trkpt>
      <trkpt lat="42.30715" lon="2.56548">
        <ele>998.507</ele>
        <time>2012-03-31T09:19:57Z</time>
      </trkpt>
      <trkpt lat="42.30726" lon="2.56554">
        <ele>997.021</ele>
        <time>2012-03-31T09:20:04Z</time>
      </trkpt>
      <trkpt lat="42.30733" lon="2.56561">
        <ele>994.185</ele>
        <time>2012-03-31T09:20:11Z</time>
      </trkpt>
      <trkpt lat="42.30734" lon="2.5656">
        <ele>993.235</ele>
        <time>2012-03-31T09:20:12Z</time>
      </trkpt>
      <trkpt lat="42.30736" lon="2.56557">
        <ele>992.25</ele>
        <time>2012-03-31T09:20:14Z</time>
      </trkpt>
      <trkpt lat="42.30739" lon="2.56551">
        <ele>989.335</ele>
        <time>2012-03-31T09:20:18Z</time>
      </trkpt>
      <trkpt lat="42.30742" lon="2.56547">
        <ele>986.578</ele>
        <time>2012-03-31T09:20:24Z</time>
      </trkpt>
      <trkpt lat="42.30741" lon="2.56542">
        <ele>985.077</ele>
        <time>2012-03-31T09:20:26Z</time>
      </trkpt>
      <trkpt lat="42.3074" lon="2.56534">
        <ele>982.664</ele>
        <time>2012-03-31T09:20:31Z</time>
      </trkpt>
      <trkpt lat="42.30735" lon="2.56521">
        <ele>980.706</ele>
        <time>2012-03-31T09:20:37Z</time>
      </trkpt>
      <trkpt lat="42.30731" lon="2.56517">
        <ele>979.716</ele>
        <time>2012-03-31T09:20:40Z</time>
      </trkpt>
      <trkpt lat="42.30726" lon="2.56511">
        <ele>977.307</ele>
        <time>2012-03-31T09:20:44Z</time>
      </trkpt>
      <trkpt lat="42.30721" lon="2.56506">
        <ele>976.828</ele>
        <time>2012-03-31T09:20:48Z</time>
      </trkpt>
      <trkpt lat="42.30705" lon="2.5649">
        <ele>974.472</ele>
        <time>2012-03-31T09:21:01Z</time>
      </trkpt>
      <trkpt lat="42.30678" lon="2.56482">
        <ele>973.572</ele>
        <time>2012-03-31T09:21:15Z</time>
      </trkpt>
      <trkpt lat="42.30669" lon="2.56476">
        <ele>972.567</ele>
        <time>2012-03-31T09:21:19Z</time>
      </trkpt>
      <trkpt lat="42.30651" lon="2.56472">
        <ele>970.682</ele>
        <time>2012-03-31T09:21:29Z</time>
      </trkpt>
      <trkpt lat="42.30637" lon="2.5647">
        <ele>968.785</ele>
        <time>2012-03-31T09:21:38Z</time>
      </trkpt>
      <trkpt lat="42.30633" lon="2.5647">
        <ele>968.714</ele>
        <time>2012-03-31T09:21:40Z</time>
      </trkpt>
      <trkpt lat="42.30611" lon="2.56476">
        <ele>968.297</ele>
        <time>2012-03-31T09:21:50Z</time>
      </trkpt>
      <trkpt lat="42.306" lon="2.56489">
        <ele>967.223</ele>
        <time>2012-03-31T09:21:59Z</time>
      </trkpt>
      <trkpt lat="42.30597" lon="2.56502">
        <ele>967.225</ele>
        <time>2012-03-31T09:22:08Z</time>
      </trkpt>
      <trkpt lat="42.30597" lon="2.56505">
        <ele>967.707</ele>
        <time>2012-03-31T09:22:09Z</time>
      </trkpt>
      <trkpt lat="42.30591" lon="2.56515">
        <ele>967.221</ele>
        <time>2012-03-31T09:22:14Z</time>
      </trkpt>
      <trkpt lat="42.30588" lon="2.56521">
        <ele>967.715</ele>
        <time>2012-03-31T09:22:17Z</time>
      </trkpt>
      <trkpt lat="42.30581" lon="2.56542">
        <ele>966.775</ele>
        <time>2012-03-31T09:22:27Z</time>
      </trkpt>
      <trkpt lat="42.30574" lon="2.56564">
        <ele>965.33</ele>
        <time>2012-03-31T09:22:35Z</time>
      </trkpt>
      <trkpt lat="42.30574" lon="2.56571">
        <ele>965.345</ele>
        <time>2012-03-31T09:22:38Z</time>
      </trkpt>
      <trkpt lat="42.30564" lon="2.56585">
        <ele>964.818</ele>
        <time>2012-03-31T09:22:43Z</time>
      </trkpt>
      <trkpt lat="42.3056" lon="2.56593">
        <ele>963.937</ele>
        <time>2012-03-31T09:22:46Z</time>
      </trkpt>
      <trkpt lat="42.30557" lon="2.56609">
        <ele>962.458</ele>
        <time>2012-03-31T09:22:52Z</time>
      </trkpt>
      <trkpt lat="42.30551" lon="2.56624">
        <ele>960.552</ele>
        <time>2012-03-31T09:22:56Z</time>
      </trkpt>
      <trkpt lat="42.30541" lon="2.56636">
        <ele>958.117</ele>
        <time>2012-03-31T09:23:01Z</time>
      </trkpt>
      <trkpt lat="42.30532" lon="2.56642">
        <ele>956.207</ele>
        <time>2012-03-31T09:23:06Z</time>
      </trkpt>
      <trkpt lat="42.30525" lon="2.56643">
        <ele>954.377</ele>
        <time>2012-03-31T09:23:09Z</time>
      </trkpt>
      <trkpt lat="42.30518" lon="2.56644">
        <ele>952.351</ele>
        <time>2012-03-31T09:23:12Z</time>
      </trkpt>
      <trkpt lat="42.3051" lon="2.56647">
        <ele>950.921</ele>
        <time>2012-03-31T09:23:15Z</time>
      </trkpt>
      <trkpt lat="42.30503" lon="2.56651">
        <ele>949.046</ele>
        <time>2012-03-31T09:23:18Z</time>
      </trkpt>
      <trkpt lat="42.30488" lon="2.56652">
        <ele>944.631</ele>
        <time>2012-03-31T09:23:24Z</time>
      </trkpt>
      <trkpt lat="42.30478" lon="2.56659">
        <ele>941.834</ele>
        <time>2012-03-31T09:23:30Z</time>
      </trkpt>
      <trkpt lat="42.30476" lon="2.56661">
        <ele>940.813</ele>
        <time>2012-03-31T09:23:31Z</time>
      </trkpt>
      <trkpt lat="42.30471" lon="2.5665">
        <ele>937.453</ele>
        <time>2012-03-31T09:23:40Z</time>
      </trkpt>
      <trkpt lat="42.30473" lon="2.56644">
        <ele>935.504</ele>
        <time>2012-03-31T09:23:42Z</time>
      </trkpt>
      <trkpt lat="42.30482" lon="2.56641">
        <ele>935.014</ele>
        <time>2012-03-31T09:23:47Z</time>
      </trkpt>
      <trkpt lat="42.3051" lon="2.56622">
        <ele>933.107</ele>
        <time>2012-03-31T09:23:58Z</time>
      </trkpt>
      <trkpt lat="42.30518" lon="2.56613">
        <ele>933.657</ele>
        <time>2012-03-31T09:24:02Z</time>
      </trkpt>
      <trkpt lat="42.30521" lon="2.56606">
        <ele>932.691</ele>
        <time>2012-03-31T09:24:05Z</time>
      </trkpt>
      <trkpt lat="42.30525" lon="2.56594">
        <ele>932.121</ele>
        <time>2012-03-31T09:24:08Z</time>
      </trkpt>
      <trkpt lat="42.30529" lon="2.56584">
        <ele>930.766</ele>
        <time>2012-03-31T09:24:11Z</time>
      </trkpt>
      <trkpt lat="42.30529" lon="2.5657">
        <ele>928.891</ele>
        <time>2012-03-31T09:24:15Z</time>
      </trkpt>
      <trkpt lat="42.30529" lon="2.56563">
        <ele>927.874</ele>
        <time>2012-03-31T09:24:17Z</time>
      </trkpt>
      <trkpt lat="42.30529" lon="2.56556">
        <ele>927.363</ele>
        <time>2012-03-31T09:24:19Z</time>
      </trkpt>
      <trkpt lat="42.30535" lon="2.56537">
        <ele>926.446</ele>
        <time>2012-03-31T09:24:25Z</time>
      </trkpt>
      <trkpt lat="42.30539" lon="2.56501">
        <ele>923.088</ele>
        <time>2012-03-31T09:24:35Z</time>
      </trkpt>
      <trkpt lat="42.30542" lon="2.56471">
        <ele>920.116</ele>
        <time>2012-03-31T09:24:43Z</time>
      </trkpt>
      <trkpt lat="42.30541" lon="2.56464">
        <ele>919.207</ele>
        <time>2012-03-31T09:24:45Z</time>
      </trkpt>
      <trkpt lat="42.30545" lon="2.56439">
        <ele>916.316</ele>
        <time>2012-03-31T09:24:53Z</time>
      </trkpt>
      <trkpt lat="42.30554" lon="2.56412">
        <ele>914.49</ele>
        <time>2012-03-31T09:25:03Z</time>
      </trkpt>
      <trkpt lat="42.30556" lon="2.56401">
        <ele>912.07</ele>
        <time>2012-03-31T09:25:07Z</time>
      </trkpt>
      <trkpt lat="42.30545" lon="2.56397">
        <ele>908.115</ele>
        <time>2012-03-31T09:25:15Z</time>
      </trkpt>
      <trkpt lat="42.30541" lon="2.56402">
        <ele>907.14</ele>
        <time>2012-03-31T09:25:17Z</time>
      </trkpt>
      <trkpt lat="42.30524" lon="2.56441">
        <ele>903.833</ele>
        <time>2012-03-31T09:25:30Z</time>
      </trkpt>
      <trkpt lat="42.3051" lon="2.56486">
        <ele>900.952</ele>
        <time>2012-03-31T09:25:44Z</time>
      </trkpt>
      <trkpt lat="42.30504" lon="2.565">
        <ele>900.983</ele>
        <time>2012-03-31T09:25:49Z</time>
      </trkpt>
      <trkpt lat="42.30493" lon="2.56521">
        <ele>897.525</ele>
        <time>2012-03-31T09:25:56Z</time>
      </trkpt>
      <trkpt lat="42.30485" lon="2.56531">
        <ele>896.117</ele>
        <time>2012-03-31T09:25:59Z</time>
      </trkpt>
      <trkpt lat="42.30479" lon="2.56538">
        <ele>895.107</ele>
        <time>2012-03-31T09:26:02Z</time>
      </trkpt>
      <trkpt lat="42.3046" lon="2.56557">
        <ele>893.24</ele>
        <time>2012-03-31T09:26:11Z</time>
      </trkpt>
      <trkpt lat="42.30437" lon="2.56574">
        <ele>890.394</ele>
        <time>2012-03-31T09:26:21Z</time>
      </trkpt>
      <trkpt lat="42.30435" lon="2.56576">
        <ele>890.314</ele>
        <time>2012-03-31T09:26:22Z</time>
      </trkpt>
      <trkpt lat="42.30421" lon="2.56589">
        <ele>887.919</ele>
        <time>2012-03-31T09:26:28Z</time>
      </trkpt>
      <trkpt lat="42.30413" lon="2.56596">
        <ele>886.524</ele>
        <time>2012-03-31T09:26:32Z</time>
      </trkpt>
      <trkpt lat="42.30395" lon="2.56615">
        <ele>884.697</ele>
        <time>2012-03-31T09:26:40Z</time>
      </trkpt>
      <trkpt lat="42.30384" lon="2.56643">
        <ele>881.276</ele>
        <time>2012-03-31T09:26:50Z</time>
      </trkpt>
      <trkpt lat="42.30381" lon="2.56648">
        <ele>880.234</ele>
        <time>2012-03-31T09:26:52Z</time>
      </trkpt>
      <trkpt lat="42.30378" lon="2.56653">
        <ele>879.755</ele>
        <time>2012-03-31T09:26:54Z</time>
      </trkpt>
      <trkpt lat="42.30363" lon="2.56683">
        <ele>876.41</ele>
        <time>2012-03-31T09:27:03Z</time>
      </trkpt>
      <trkpt lat="42.30359" lon="2.56688">
        <ele>875.907</ele>
        <time>2012-03-31T09:27:05Z</time>
      </trkpt>
      <trkpt lat="42.30353" lon="2.567">
        <ele>875.445</ele>
        <time>2012-03-31T09:27:09Z</time>
      </trkpt>
      <trkpt lat="42.30347" lon="2.56712">
        <ele>874.019</ele>
        <time>2012-03-31T09:27:13Z</time>
      </trkpt>
      <trkpt lat="42.30325" lon="2.5673">
        <ele>870.189</ele>
        <time>2012-03-31T09:27:21Z</time>
      </trkpt>
      <trkpt lat="42.30313" lon="2.56736">
        <ele>866.834</ele>
        <time>2012-03-31T09:27:27Z</time>
      </trkpt>
      <trkpt lat="42.3031" lon="2.56735">
        <ele>866.829</ele>
        <time>2012-03-31T09:27:28Z</time>
      </trkpt>
      <trkpt lat="42.30309" lon="2.56733">
        <ele>866.382</ele>
        <time>2012-03-31T09:27:29Z</time>
      </trkpt>
      <trkpt lat="42.30303" lon="2.56708">
        <ele>863.951</ele>
        <time>2012-03-31T09:27:37Z</time>
      </trkpt>
      <trkpt lat="42.30297" lon="2.56687">
        <ele>862.074</ele>
        <time>2012-03-31T09:27:43Z</time>
      </trkpt>
      <trkpt lat="42.30293" lon="2.56687">
        <ele>860.056</ele>
        <time>2012-03-31T09:27:46Z</time>
      </trkpt>
      <trkpt lat="42.30292" lon="2.56689">
        <ele>860.521</ele>
        <time>2012-03-31T09:27:48Z</time>
      </trkpt>
      <trkpt lat="42.30292" lon="2.5669">
        <ele>860.507</ele>
        <time>2012-03-31T09:27:54Z</time>
      </trkpt>
      <trkpt lat="42.30298" lon="2.56672">
        <ele>860.529</ele>
        <time>2012-03-31T09:28:02Z</time>
      </trkpt>
      <trkpt lat="42.30292" lon="2.5666">
        <ele>858.653</ele>
        <time>2012-03-31T09:28:08Z</time>
      </trkpt>
      <trkpt lat="42.30292" lon="2.5666">
        <ele>858.113</ele>
        <time>2012-03-31T09:28:09Z</time>
      </trkpt>
      <trkpt lat="42.30281" lon="2.56669">
        <ele>855.788</ele>
        <time>2012-03-31T09:28:17Z</time>
      </trkpt>
      <trkpt lat="42.30275" lon="2.56671">
        <ele>855.223</ele>
        <time>2012-03-31T09:28:20Z</time>
      </trkpt>
      <trkpt lat="42.30273" lon="2.56672">
        <ele>854.886</ele>
        <time>2012-03-31T09:28:24Z</time>
      </trkpt>
      <trkpt lat="42.30266" lon="2.56673">
        <ele>852.855</ele>
        <time>2012-03-31T09:28:28Z</time>
      </trkpt>
      <trkpt lat="42.30263" lon="2.56671">
        <ele>852.477</ele>
        <time>2012-03-31T09:28:31Z</time>
      </trkpt>
      <trkpt lat="42.30257" lon="2.56673">
        <ele>850.961</ele>
        <time>2012-03-31T09:28:34Z</time>
      </trkpt>
      <trkpt lat="42.30246" lon="2.56686">
        <ele>848.027</ele>
        <time>2012-03-31T09:28:41Z</time>
      </trkpt>
      <trkpt lat="42.30236" lon="2.56698">
        <ele>845.607</ele>
        <time>2012-03-31T09:28:46Z</time>
      </trkpt>
      <trkpt lat="42.30225" lon="2.56706">
        <ele>842.359</ele>
        <time>2012-03-31T09:28:52Z</time>
      </trkpt>
      <trkpt lat="42.30225" lon="2.56709">
        <ele>842.343</ele>
        <time>2012-03-31T09:28:53Z</time>
      </trkpt>
      <trkpt lat="42.30213" lon="2.56741">
        <ele>838.423</ele>
        <time>2012-03-31T09:29:03Z</time>
      </trkpt>
      <trkpt lat="42.30212" lon="2.56745">
        <ele>838.438</ele>
        <time>2012-03-31T09:29:04Z</time>
      </trkpt>
      <trkpt lat="42.3021" lon="2.5675">
        <ele>837.013</ele>
        <time>2012-03-31T09:29:06Z</time>
      </trkpt>
      <trkpt lat="42.30205" lon="2.56757">
        <ele>836.596</ele>
        <time>2012-03-31T09:29:09Z</time>
      </trkpt>
      <trkpt lat="42.302" lon="2.56785">
        <ele>833.685</ele>
        <time>2012-03-31T09:29:18Z</time>
      </trkpt>
      <trkpt lat="42.302" lon="2.56796">
        <ele>833.169</ele>
        <time>2012-03-31T09:29:21Z</time>
      </trkpt>
      <trkpt lat="42.30196" lon="2.56813">
        <ele>831.204</ele>
        <time>2012-03-31T09:29:26Z</time>
      </trkpt>
      <trkpt lat="42.30193" lon="2.56818">
        <ele>830.224</ele>
        <time>2012-03-31T09:29:28Z</time>
      </trkpt>
      <trkpt lat="42.30174" lon="2.56831">
        <ele>826.907</ele>
        <time>2012-03-31T09:29:38Z</time>
      </trkpt>
      <trkpt lat="42.30167" lon="2.56834">
        <ele>825.958</ele>
        <time>2012-03-31T09:29:42Z</time>
      </trkpt>
      <trkpt lat="42.30162" lon="2.56839">
        <ele>824.592</ele>
        <time>2012-03-31T09:29:46Z</time>
      </trkpt>
      <trkpt lat="42.30153" lon="2.56844">
        <ele>822.682</ele>
        <time>2012-03-31T09:29:51Z</time>
      </trkpt>
      <trkpt lat="42.30146" lon="2.56845">
        <ele>822.187</ele>
        <time>2012-03-31T09:29:56Z</time>
      </trkpt>
      <trkpt lat="42.30146" lon="2.5685">
        <ele>820.182</ele>
        <time>2012-03-31T09:30:03Z</time>
      </trkpt>
      <trkpt lat="42.30153" lon="2.56849">
        <ele>818.775</ele>
        <time>2012-03-31T09:30:07Z</time>
      </trkpt>
      <trkpt lat="42.3017" lon="2.56885">
        <ele>815.864</ele>
        <time>2012-03-31T09:30:19Z</time>
      </trkpt>
      <trkpt lat="42.30171" lon="2.56892">
        <ele>815.864</ele>
        <time>2012-03-31T09:30:21Z</time>
      </trkpt>
      <trkpt lat="42.30172" lon="2.56915">
        <ele>814.906</ele>
        <time>2012-03-31T09:30:28Z</time>
      </trkpt>
      <trkpt lat="42.30166" lon="2.56927">
        <ele>812.516</ele>
        <time>2012-03-31T09:30:33Z</time>
      </trkpt>
      <trkpt lat="42.30165" lon="2.5693">
        <ele>812.507</ele>
        <time>2012-03-31T09:30:34Z</time>
      </trkpt>
      <trkpt lat="42.30159" lon="2.56942">
        <ele>811.058</ele>
        <time>2012-03-31T09:30:38Z</time>
      </trkpt>
      <trkpt lat="42.30152" lon="2.56967">
        <ele>807.692</ele>
        <time>2012-03-31T09:30:47Z</time>
      </trkpt>
      <trkpt lat="42.30147" lon="2.56978">
        <ele>806.272</ele>
        <time>2012-03-31T09:30:52Z</time>
      </trkpt>
      <trkpt lat="42.30143" lon="2.56986">
        <ele>804.397</ele>
        <time>2012-03-31T09:30:57Z</time>
      </trkpt>
      <trkpt lat="42.30142" lon="2.56989">
        <ele>802.472</ele>
        <time>2012-03-31T09:30:59Z</time>
      </trkpt>
      <trkpt lat="42.30139" lon="2.56991">
        <ele>801.495</ele>
        <time>2012-03-31T09:31:01Z</time>
      </trkpt>
      <trkpt lat="42.30136" lon="2.57">
        <ele>799.584</ele>
        <time>2012-03-31T09:31:05Z</time>
      </trkpt>
      <trkpt lat="42.30134" lon="2.57014">
        <ele>797.614</ele>
        <time>2012-03-31T09:31:10Z</time>
      </trkpt>
      <trkpt lat="42.30133" lon="2.57016">
        <ele>796.654</ele>
        <time>2012-03-31T09:31:11Z</time>
      </trkpt>
      <trkpt lat="42.30129" lon="2.5704">
        <ele>792.709</ele>
        <time>2012-03-31T09:31:19Z</time>
      </trkpt>
      <trkpt lat="42.30129" lon="2.57046">
        <ele>792.307</ele>
        <time>2012-03-31T09:31:21Z</time>
      </trkpt>
      <trkpt lat="42.3013" lon="2.57058">
        <ele>789.993</ele>
        <time>2012-03-31T09:31:26Z</time>
      </trkpt>
      <trkpt lat="42.30129" lon="2.5706">
        <ele>789.487</ele>
        <time>2012-03-31T09:31:27Z</time>
      </trkpt>
      <trkpt lat="42.30129" lon="2.5707">
        <ele>787.077</ele>
        <time>2012-03-31T09:31:31Z</time>
      </trkpt>
      <trkpt lat="42.30128" lon="2.57076">
        <ele>786.012</ele>
        <time>2012-03-31T09:31:33Z</time>
      </trkpt>
      <trkpt lat="42.30128" lon="2.57083">
        <ele>785.517</ele>
        <time>2012-03-31T09:31:35Z</time>
      </trkpt>
      <trkpt lat="42.30135" lon="2.57121">
        <ele>784.62</ele>
        <time>2012-03-31T09:31:48Z</time>
      </trkpt>
      <trkpt lat="42.30137" lon="2.57131">
        <ele>785.569</ele>
        <time>2012-03-31T09:31:52Z</time>
      </trkpt>
      <trkpt lat="42.30142" lon="2.57155">
        <ele>784.654</ele>
        <time>2012-03-31T09:32:02Z</time>
      </trkpt>
      <trkpt lat="42.30142" lon="2.57167">
        <ele>785.156</ele>
        <time>2012-03-31T09:32:06Z</time>
      </trkpt>
      <trkpt lat="42.30139" lon="2.57185">
        <ele>784.611</ele>
        <time>2012-03-31T09:32:13Z</time>
      </trkpt>
      <trkpt lat="42.30133" lon="2.57186">
        <ele>781.207</ele>
        <time>2012-03-31T09:32:18Z</time>
      </trkpt>
      <trkpt lat="42.30131" lon="2.57198">
        <ele>778.877</ele>
        <time>2012-03-31T09:32:24Z</time>
      </trkpt>
      <trkpt lat="42.30128" lon="2.57207">
        <ele>777.831</ele>
        <time>2012-03-31T09:32:28Z</time>
      </trkpt>
      <trkpt lat="42.30128" lon="2.57214">
        <ele>776.441</ele>
        <time>2012-03-31T09:32:31Z</time>
      </trkpt>
      <trkpt lat="42.30132" lon="2.57225">
        <ele>775.466</ele>
        <time>2012-03-31T09:32:39Z</time>
      </trkpt>
      <trkpt lat="42.30121" lon="2.5723">
        <ele>774.561</ele>
        <time>2012-03-31T09:32:45Z</time>
      </trkpt>
      <trkpt lat="42.30114" lon="2.5723">
        <ele>773.084</ele>
        <time>2012-03-31T09:32:50Z</time>
      </trkpt>
      <trkpt lat="42.30105" lon="2.57233">
        <ele>771.613</ele>
        <time>2012-03-31T09:32:55Z</time>
      </trkpt>
      <trkpt lat="42.30096" lon="2.57236">
        <ele>771.693</ele>
        <time>2012-03-31T09:33:00Z</time>
      </trkpt>
      <trkpt lat="42.30092" lon="2.57238">
        <ele>771.165</ele>
        <time>2012-03-31T09:33:06Z</time>
      </trkpt>
      <trkpt lat="42.30082" lon="2.57244">
        <ele>772.121</ele>
        <time>2012-03-31T09:33:12Z</time>
      </trkpt>
      <trkpt lat="42.3007" lon="2.5724">
        <ele>772.107</ele>
        <time>2012-03-31T09:33:20Z</time>
      </trkpt>
      <trkpt lat="42.30065" lon="2.5724">
        <ele>771.681</ele>
        <time>2012-03-31T09:33:24Z</time>
      </trkpt>
      <trkpt lat="42.30044" lon="2.57241">
        <ele>769.765</ele>
        <time>2012-03-31T09:33:34Z</time>
      </trkpt>
      <trkpt lat="42.3003" lon="2.57241">
        <ele>766.375</ele>
        <time>2012-03-31T09:33:40Z</time>
      </trkpt>
      <trkpt lat="42.30018" lon="2.57235">
        <ele>764.91</ele>
        <time>2012-03-31T09:33:47Z</time>
      </trkpt>
      <trkpt lat="42.30009" lon="2.5723">
        <ele>762.965</ele>
        <time>2012-03-31T09:33:54Z</time>
      </trkpt>
      <trkpt lat="42.2999" lon="2.57234">
        <ele>759.628</ele>
        <time>2012-03-31T09:34:04Z</time>
      </trkpt>
      <trkpt lat="42.29982" lon="2.57238">
        <ele>759.137</ele>
        <time>2012-03-31T09:34:14Z</time>
      </trkpt>
      <trkpt lat="42.29982" lon="2.57238">
        <ele>759.155</ele>
        <time>2012-03-31T09:34:32Z</time>
      </trkpt>
      <trkpt lat="42.29982" lon="2.57239">
        <ele>759.107</ele>
        <time>2012-03-31T09:34:46Z</time>
      </trkpt>
      <trkpt lat="42.2999" lon="2.57251">
        <ele>756.217</ele>
        <time>2012-03-31T09:34:54Z</time>
      </trkpt>
      <trkpt lat="42.2999" lon="2.57252">
        <ele>755.707</ele>
        <time>2012-03-31T09:34:55Z</time>
      </trkpt>
      <trkpt lat="42.2999" lon="2.57258">
        <ele>754.317</ele>
        <time>2012-03-31T09:34:58Z</time>
      </trkpt>
      <trkpt lat="42.2999" lon="2.57274">
        <ele>752.411</ele>
        <time>2012-03-31T09:35:14Z</time>
      </trkpt>
      <trkpt lat="42.2999" lon="2.57271">
        <ele>752.481</ele>
        <time>2012-03-31T09:35:34Z</time>
      </trkpt>
      <trkpt lat="42.29996" lon="2.57266">
        <ele>751.416</ele>
        <time>2012-03-31T09:35:54Z</time>
      </trkpt>
      <trkpt lat="42.29996" lon="2.57268">
        <ele>750.941</ele>
        <time>2012-03-31T09:36:25Z</time>
      </trkpt>
      <trkpt lat="42.29997" lon="2.57274">
        <ele>750.944</ele>
        <time>2012-03-31T09:36:49Z</time>
      </trkpt>
      <trkpt lat="42.29998" lon="2.57274">
        <ele>750.093</ele>
        <time>2012-03-31T09:37:15Z</time>
      </trkpt>
      <trkpt lat="42.30002" lon="2.57275">
        <ele>750.044</ele>
        <time>2012-03-31T09:37:36Z</time>
      </trkpt>
      <trkpt lat="42.3" lon="2.57277">
        <ele>750.005</ele>
        <time>2012-03-31T09:37:56Z</time>
      </trkpt>
      <trkpt lat="42.3" lon="2.57277">
        <ele>750.015</ele>
        <time>2012-03-31T09:38:19Z</time>
      </trkpt>
      <trkpt lat="42.3" lon="2.57277">
        <ele>749.507</ele>
        <time>2012-03-31T09:38:36Z</time>
      </trkpt>
      <trkpt lat="42.30001" lon="2.57278">
        <ele>748.526</ele>
        <time>2012-03-31T09:38:40Z</time>
      </trkpt>
      <trkpt lat="42.30005" lon="2.57285">
        <ele>747.62</ele>
        <time>2012-03-31T09:38:44Z</time>
      </trkpt>
      <trkpt lat="42.30008" lon="2.57293">
        <ele>746.64</ele>
        <time>2012-03-31T09:38:48Z</time>
      </trkpt>
      <trkpt lat="42.30009" lon="2.57296">
        <ele>744.795</ele>
        <time>2012-03-31T09:38:50Z</time>
      </trkpt>
      <trkpt lat="42.30019" lon="2.57313">
        <ele>741.37</ele>
        <time>2012-03-31T09:38:58Z</time>
      </trkpt>
      <trkpt lat="42.30027" lon="2.57324">
        <ele>737.523</ele>
        <time>2012-03-31T09:39:03Z</time>
      </trkpt>
      <trkpt lat="42.30033" lon="2.57334">
        <ele>738.082</ele>
        <time>2012-03-31T09:39:07Z</time>
      </trkpt>
      <trkpt lat="42.30062" lon="2.57364">
        <ele>734.195</ele>
        <time>2012-03-31T09:39:23Z</time>
      </trkpt>
      <trkpt lat="42.30095" lon="2.57398">
        <ele>732.249</ele>
        <time>2012-03-31T09:39:38Z</time>
      </trkpt>
      <trkpt lat="42.301" lon="2.57409">
        <ele>730.723</ele>
        <time>2012-03-31T09:39:42Z</time>
      </trkpt>
      <trkpt lat="42.30109" lon="2.57428">
        <ele>728.807</ele>
        <time>2012-03-31T09:39:49Z</time>
      </trkpt>
      <trkpt lat="42.30114" lon="2.57435">
        <ele>727.421</ele>
        <time>2012-03-31T09:39:52Z</time>
      </trkpt>
      <trkpt lat="42.30112" lon="2.57443">
        <ele>725.515</ele>
        <time>2012-03-31T09:39:57Z</time>
      </trkpt>
      <trkpt lat="42.30115" lon="2.57451">
        <ele>724.035</ele>
        <time>2012-03-31T09:40:02Z</time>
      </trkpt>
      <trkpt lat="42.30121" lon="2.57467">
        <ele>720.73</ele>
        <time>2012-03-31T09:40:17Z</time>
      </trkpt>
      <trkpt lat="42.30135" lon="2.57459">
        <ele>719.215</ele>
        <time>2012-03-31T09:40:26Z</time>
      </trkpt>
      <trkpt lat="42.30138" lon="2.57455">
        <ele>717.868</ele>
        <time>2012-03-31T09:40:28Z</time>
      </trkpt>
      <trkpt lat="42.30155" lon="2.57434">
        <ele>714.927</ele>
        <time>2012-03-31T09:40:37Z</time>
      </trkpt>
      <trkpt lat="42.30159" lon="2.57432">
        <ele>714.423</ele>
        <time>2012-03-31T09:40:39Z</time>
      </trkpt>
      <trkpt lat="42.30164" lon="2.57432">
        <ele>713.083</ele>
        <time>2012-03-31T09:40:42Z</time>
      </trkpt>
      <trkpt lat="42.30168" lon="2.57433">
        <ele>711.511</ele>
        <time>2012-03-31T09:40:45Z</time>
      </trkpt>
      <trkpt lat="42.30198" lon="2.57426">
        <ele>708.607</ele>
        <time>2012-03-31T09:40:57Z</time>
      </trkpt>
      <trkpt lat="42.30202" lon="2.57426">
        <ele>707.774</ele>
        <time>2012-03-31T09:40:59Z</time>
      </trkpt>
      <trkpt lat="42.30216" lon="2.57423">
        <ele>705.828</ele>
        <time>2012-03-31T09:41:05Z</time>
      </trkpt>
      <trkpt lat="42.30225" lon="2.57404">
        <ele>702.968</ele>
        <time>2012-03-31T09:41:14Z</time>
      </trkpt>
      <trkpt lat="42.30234" lon="2.57382">
        <ele>700.093</ele>
        <time>2012-03-31T09:41:25Z</time>
      </trkpt>
      <trkpt lat="42.30249" lon="2.57365">
        <ele>700.038</ele>
        <time>2012-03-31T09:41:39Z</time>
      </trkpt>
      <trkpt lat="42.30268" lon="2.57358">
        <ele>700.591</ele>
        <time>2012-03-31T09:41:44Z</time>
      </trkpt>
      <trkpt lat="42.30274" lon="2.57362">
        <ele>700.07</ele>
        <time>2012-03-31T09:41:48Z</time>
      </trkpt>
      <trkpt lat="42.3031" lon="2.57374">
        <ele>697.696</ele>
        <time>2012-03-31T09:42:03Z</time>
      </trkpt>
      <trkpt lat="42.30312" lon="2.57383">
        <ele>696.631</ele>
        <time>2012-03-31T09:42:07Z</time>
      </trkpt>
      <trkpt lat="42.30314" lon="2.57396">
        <ele>695.724</ele>
        <time>2012-03-31T09:42:13Z</time>
      </trkpt>
      <trkpt lat="42.30316" lon="2.57413">
        <ele>693.707</ele>
        <time>2012-03-31T09:42:20Z</time>
      </trkpt>
      <trkpt lat="42.30307" lon="2.57435">
        <ele>692.381</ele>
        <time>2012-03-31T09:42:33Z</time>
      </trkpt>
      <trkpt lat="42.30303" lon="2.57443">
        <ele>691.875</ele>
        <time>2012-03-31T09:42:36Z</time>
      </trkpt>
      <trkpt lat="42.30303" lon="2.57465">
        <ele>690.875</ele>
        <time>2012-03-31T09:42:43Z</time>
      </trkpt>
      <trkpt lat="42.30316" lon="2.57518">
        <ele>689.94</ele>
        <time>2012-03-31T09:43:00Z</time>
      </trkpt>
      <trkpt lat="42.30315" lon="2.57551">
        <ele>686.045</ele>
        <time>2012-03-31T09:43:13Z</time>
      </trkpt>
      <trkpt lat="42.30316" lon="2.57554">
        <ele>686.098</ele>
        <time>2012-03-31T09:43:14Z</time>
      </trkpt>
      <trkpt lat="42.30315" lon="2.5758">
        <ele>682.797</ele>
        <time>2012-03-31T09:43:27Z</time>
      </trkpt>
      <trkpt lat="42.30319" lon="2.57605">
        <ele>680.332</ele>
        <time>2012-03-31T09:43:37Z</time>
      </trkpt>
      <trkpt lat="42.30327" lon="2.5762">
        <ele>681.792</ele>
        <time>2012-03-31T09:43:44Z</time>
      </trkpt>
      <trkpt lat="42.30339" lon="2.57646">
        <ele>682.711</ele>
        <time>2012-03-31T09:43:57Z</time>
      </trkpt>
      <trkpt lat="42.30358" lon="2.57647">
        <ele>681.707</ele>
        <time>2012-03-31T09:44:06Z</time>
      </trkpt>
      <trkpt lat="42.30358" lon="2.57666">
        <ele>678.485</ele>
        <time>2012-03-31T09:44:18Z</time>
      </trkpt>
      <trkpt lat="42.30355" lon="2.57679">
        <ele>676.999</ele>
        <time>2012-03-31T09:44:23Z</time>
      </trkpt>
      <trkpt lat="42.30369" lon="2.57724">
        <ele>676.419</ele>
        <time>2012-03-31T09:44:41Z</time>
      </trkpt>
      <trkpt lat="42.30379" lon="2.57765">
        <ele>673.544</ele>
        <time>2012-03-31T09:44:56Z</time>
      </trkpt>
      <trkpt lat="42.3037" lon="2.57773">
        <ele>672.199</ele>
        <time>2012-03-31T09:45:05Z</time>
      </trkpt>
      <trkpt lat="42.30369" lon="2.57776">
        <ele>671.132</ele>
        <time>2012-03-31T09:45:07Z</time>
      </trkpt>
      <trkpt lat="42.30365" lon="2.57781">
        <ele>669.291</ele>
        <time>2012-03-31T09:45:11Z</time>
      </trkpt>
      <trkpt lat="42.30364" lon="2.57786">
        <ele>668.375</ele>
        <time>2012-03-31T09:45:13Z</time>
      </trkpt>
      <trkpt lat="42.30367" lon="2.57825">
        <ele>669.728</ele>
        <time>2012-03-31T09:45:30Z</time>
      </trkpt>
      <trkpt lat="42.30374" lon="2.57838">
        <ele>672.62</ele>
        <time>2012-03-31T09:45:45Z</time>
      </trkpt>
      <trkpt lat="42.30383" lon="2.57863">
        <ele>674.007</ele>
        <time>2012-03-31T09:45:57Z</time>
      </trkpt>
      <trkpt lat="42.30384" lon="2.57886">
        <ele>675.559</ele>
        <time>2012-03-31T09:46:09Z</time>
      </trkpt>
      <trkpt lat="42.30382" lon="2.57917">
        <ele>675.523</ele>
        <time>2012-03-31T09:46:20Z</time>
      </trkpt>
      <trkpt lat="42.3038" lon="2.57932">
        <ele>674.593</ele>
        <time>2012-03-31T09:46:25Z</time>
      </trkpt>
      <trkpt lat="42.3038" lon="2.57955">
        <ele>672.678</ele>
        <time>2012-03-31T09:46:32Z</time>
      </trkpt>
      <trkpt lat="42.3038" lon="2.57965">
        <ele>672.133</ele>
        <time>2012-03-31T09:46:35Z</time>
      </trkpt>
      <trkpt lat="42.30377" lon="2.57975">
        <ele>670.766</ele>
        <time>2012-03-31T09:46:39Z</time>
      </trkpt>
      <trkpt lat="42.30375" lon="2.5798">
        <ele>669.285</ele>
        <time>2012-03-31T09:46:42Z</time>
      </trkpt>
      <trkpt lat="42.30368" lon="2.57996">
        <ele>665.944</ele>
        <time>2012-03-31T09:46:53Z</time>
      </trkpt>
      <trkpt lat="42.30366" lon="2.58007">
        <ele>663.005</ele>
        <time>2012-03-31T09:46:58Z</time>
      </trkpt>
      <trkpt lat="42.30366" lon="2.5801">
        <ele>662.515</ele>
        <time>2012-03-31T09:46:59Z</time>
      </trkpt>
      <trkpt lat="42.30367" lon="2.58036">
        <ele>659.107</ele>
        <time>2012-03-31T09:47:07Z</time>
      </trkpt>
      <trkpt lat="42.30367" lon="2.5804">
        <ele>658.626</ele>
        <time>2012-03-31T09:47:08Z</time>
      </trkpt>
      <trkpt lat="42.30374" lon="2.58058">
        <ele>657.28</ele>
        <time>2012-03-31T09:47:18Z</time>
      </trkpt>
      <trkpt lat="42.30385" lon="2.58082">
        <ele>654.38</ele>
        <time>2012-03-31T09:47:30Z</time>
      </trkpt>
      <trkpt lat="42.30387" lon="2.58087">
        <ele>653.825</ele>
        <time>2012-03-31T09:47:32Z</time>
      </trkpt>
      <trkpt lat="42.30386" lon="2.58099">
        <ele>651.44</ele>
        <time>2012-03-31T09:47:39Z</time>
      </trkpt>
      <trkpt lat="42.30383" lon="2.58105">
        <ele>650.033</ele>
        <time>2012-03-31T09:47:43Z</time>
      </trkpt>
      <trkpt lat="42.3038" lon="2.5814">
        <ele>647.652</ele>
        <time>2012-03-31T09:47:59Z</time>
      </trkpt>
      <trkpt lat="42.30374" lon="2.58156">
        <ele>645.211</ele>
        <time>2012-03-31T09:48:07Z</time>
      </trkpt>
      <trkpt lat="42.30373" lon="2.58162">
        <ele>643.721</ele>
        <time>2012-03-31T09:48:10Z</time>
      </trkpt>
      <trkpt lat="42.30364" lon="2.58197">
        <ele>640.903</ele>
        <time>2012-03-31T09:48:23Z</time>
      </trkpt>
      <trkpt lat="42.30364" lon="2.58238">
        <ele>637.507</ele>
        <time>2012-03-31T09:48:35Z</time>
      </trkpt>
      <trkpt lat="42.30364" lon="2.58246">
        <ele>637.053</ele>
        <time>2012-03-31T09:48:38Z</time>
      </trkpt>
      <trkpt lat="42.30363" lon="2.58282">
        <ele>632.737</ele>
        <time>2012-03-31T09:48:49Z</time>
      </trkpt>
      <trkpt lat="42.30364" lon="2.58291">
        <ele>630.877</ele>
        <time>2012-03-31T09:48:54Z</time>
      </trkpt>
      <trkpt lat="42.30366" lon="2.58304">
        <ele>629.322</ele>
        <time>2012-03-31T09:48:58Z</time>
      </trkpt>
      <trkpt lat="42.30382" lon="2.58333">
        <ele>626.497</ele>
        <time>2012-03-31T09:49:10Z</time>
      </trkpt>
      <trkpt lat="42.30387" lon="2.58344">
        <ele>625.09</ele>
        <time>2012-03-31T09:49:14Z</time>
      </trkpt>
      <trkpt lat="42.30395" lon="2.58358">
        <ele>621.669</ele>
        <time>2012-03-31T09:49:21Z</time>
      </trkpt>
      <trkpt lat="42.30395" lon="2.58373">
        <ele>618.871</ele>
        <time>2012-03-31T09:49:28Z</time>
      </trkpt>
      <trkpt lat="42.30401" lon="2.58395">
        <ele>615.941</ele>
        <time>2012-03-31T09:49:40Z</time>
      </trkpt>
      <trkpt lat="42.30403" lon="2.58433">
        <ele>612.515</ele>
        <time>2012-03-31T09:49:55Z</time>
      </trkpt>
      <trkpt lat="42.30409" lon="2.58467">
        <ele>610.607</ele>
        <time>2012-03-31T09:50:09Z</time>
      </trkpt>
      <trkpt lat="42.30411" lon="2.58482">
        <ele>608.239</ele>
        <time>2012-03-31T09:50:15Z</time>
      </trkpt>
      <trkpt lat="42.30412" lon="2.58492">
        <ele>606.753</ele>
        <time>2012-03-31T09:50:19Z</time>
      </trkpt>
      <trkpt lat="42.30415" lon="2.58507">
        <ele>606.393</ele>
        <time>2012-03-31T09:50:24Z</time>
      </trkpt>
      <trkpt lat="42.30423" lon="2.58521">
        <ele>602.418</ele>
        <time>2012-03-31T09:50:32Z</time>
      </trkpt>
      <trkpt lat="42.30433" lon="2.58538">
        <ele>599.073</ele>
        <time>2012-03-31T09:50:45Z</time>
      </trkpt>
      <trkpt lat="42.30435" lon="2.5854">
        <ele>598.666</ele>
        <time>2012-03-31T09:50:46Z</time>
      </trkpt>
      <trkpt lat="42.30441" lon="2.5856">
        <ele>594.755</ele>
        <time>2012-03-31T09:50:56Z</time>
      </trkpt>
      <trkpt lat="42.3045" lon="2.58584">
        <ele>591.852</ele>
        <time>2012-03-31T09:51:04Z</time>
      </trkpt>
      <trkpt lat="42.30453" lon="2.58599">
        <ele>588.553</ele>
        <time>2012-03-31T09:51:10Z</time>
      </trkpt>
      <trkpt lat="42.30453" lon="2.58604">
        <ele>586.508</ele>
        <time>2012-03-31T09:51:14Z</time>
      </trkpt>
      <trkpt lat="42.30456" lon="2.58612">
        <ele>583.707</ele>
        <time>2012-03-31T09:51:20Z</time>
      </trkpt>
      <trkpt lat="42.30456" lon="2.58625">
        <ele>580.357</ele>
        <time>2012-03-31T09:51:26Z</time>
      </trkpt>
      <trkpt lat="42.30455" lon="2.58634">
        <ele>578.941</ele>
        <time>2012-03-31T09:51:29Z</time>
      </trkpt>
      <trkpt lat="42.30456" lon="2.58667">
        <ele>576.561</ele>
        <time>2012-03-31T09:51:42Z</time>
      </trkpt>
      <trkpt lat="42.30456" lon="2.58674">
        <ele>575.526</ele>
        <time>2012-03-31T09:51:46Z</time>
      </trkpt>
      <trkpt lat="42.30463" lon="2.58706">
        <ele>572.191</ele>
        <time>2012-03-31T09:51:57Z</time>
      </trkpt>
      <trkpt lat="42.30463" lon="2.58709">
        <ele>572.124</ele>
        <time>2012-03-31T09:51:58Z</time>
      </trkpt>
      <trkpt lat="42.30464" lon="2.58726">
        <ele>569.713</ele>
        <time>2012-03-31T09:52:05Z</time>
      </trkpt>
      <trkpt lat="42.30465" lon="2.58731">
        <ele>568.897</ele>
        <time>2012-03-31T09:52:07Z</time>
      </trkpt>
      <trkpt lat="42.30464" lon="2.5874">
        <ele>567.823</ele>
        <time>2012-03-31T09:52:10Z</time>
      </trkpt>
      <trkpt lat="42.30464" lon="2.58742">
        <ele>567.325</ele>
        <time>2012-03-31T09:52:11Z</time>
      </trkpt>
      <trkpt lat="42.30466" lon="2.58761">
        <ele>565.907</ele>
        <time>2012-03-31T09:52:19Z</time>
      </trkpt>
      <trkpt lat="42.30471" lon="2.58771">
        <ele>565.981</ele>
        <time>2012-03-31T09:52:23Z</time>
      </trkpt>
      <trkpt lat="42.30494" lon="2.58793">
        <ele>567.825</ele>
        <time>2012-03-31T09:52:37Z</time>
      </trkpt>
      <trkpt lat="42.30494" lon="2.58794">
        <ele>567.825</ele>
        <time>2012-03-31T09:52:38Z</time>
      </trkpt>
      <trkpt lat="42.30498" lon="2.58802">
        <ele>569.28</ele>
        <time>2012-03-31T09:52:43Z</time>
      </trkpt>
      <trkpt lat="42.30525" lon="2.5881">
        <ele>573.155</ele>
        <time>2012-03-31T09:52:59Z</time>
      </trkpt>
      <trkpt lat="42.30531" lon="2.5881">
        <ele>575.018</ele>
        <time>2012-03-31T09:53:04Z</time>
      </trkpt>
      <trkpt lat="42.30546" lon="2.58808">
        <ele>578.447</ele>
        <time>2012-03-31T09:53:16Z</time>
      </trkpt>
      <trkpt lat="42.30562" lon="2.5881">
        <ele>581.746</ele>
        <time>2012-03-31T09:53:30Z</time>
      </trkpt>
      <trkpt lat="42.30578" lon="2.58806">
        <ele>584.188</ele>
        <time>2012-03-31T09:53:42Z</time>
      </trkpt>
      <trkpt lat="42.30594" lon="2.58787">
        <ele>581.316</ele>
        <time>2012-03-31T09:53:56Z</time>
      </trkpt>
      <trkpt lat="42.30595" lon="2.58786">
        <ele>581.307</ele>
        <time>2012-03-31T09:53:57Z</time>
      </trkpt>
      <trkpt lat="42.30625" lon="2.58783">
        <ele>578.996</ele>
        <time>2012-03-31T09:54:15Z</time>
      </trkpt>
      <trkpt lat="42.30639" lon="2.58794">
        <ele>577.95</ele>
        <time>2012-03-31T09:54:21Z</time>
      </trkpt>
      <trkpt lat="42.3065" lon="2.58801">
        <ele>577.44</ele>
        <time>2012-03-31T09:54:25Z</time>
      </trkpt>
      <trkpt lat="42.30672" lon="2.58765">
        <ele>574.595</ele>
        <time>2012-03-31T09:54:40Z</time>
      </trkpt>
      <trkpt lat="42.30678" lon="2.58749">
        <ele>571.61</ele>
        <time>2012-03-31T09:54:47Z</time>
      </trkpt>
      <trkpt lat="42.30697" lon="2.58717">
        <ele>569.763</ele>
        <time>2012-03-31T09:55:02Z</time>
      </trkpt>
      <trkpt lat="42.30704" lon="2.58694">
        <ele>567.342</ele>
        <time>2012-03-31T09:55:15Z</time>
      </trkpt>
      <trkpt lat="42.30705" lon="2.58688">
        <ele>565.915</ele>
        <time>2012-03-31T09:55:18Z</time>
      </trkpt>
      <trkpt lat="42.30717" lon="2.58672">
        <ele>562.565</ele>
        <time>2012-03-31T09:55:30Z</time>
      </trkpt>
      <trkpt lat="42.3072" lon="2.58671">
        <ele>559.611</ele>
        <time>2012-03-31T09:55:34Z</time>
      </trkpt>
      <trkpt lat="42.30745" lon="2.58664">
        <ele>558.207</ele>
        <time>2012-03-31T09:55:37Z</time>
      </trkpt>
      <trkpt lat="42.30754" lon="2.58663">
        <ele>554.893</ele>
        <time>2012-03-31T09:55:40Z</time>
      </trkpt>
      <trkpt lat="42.30758" lon="2.58665">
        <ele>552.947</ele>
        <time>2012-03-31T09:55:44Z</time>
      </trkpt>
      <trkpt lat="42.30763" lon="2.58668">
        <ele>549.547</ele>
        <time>2012-03-31T09:55:49Z</time>
      </trkpt>
      <trkpt lat="42.30764" lon="2.58669">
        <ele>549.572</ele>
        <time>2012-03-31T09:55:50Z</time>
      </trkpt>
      <trkpt lat="42.30787" lon="2.58693">
        <ele>546.297</ele>
        <time>2012-03-31T09:55:59Z</time>
      </trkpt>
      <trkpt lat="42.308" lon="2.58696">
        <ele>543.36</ele>
        <time>2012-03-31T09:56:04Z</time>
      </trkpt>
      <trkpt lat="42.30802" lon="2.58697">
        <ele>542.819</ele>
        <time>2012-03-31T09:56:05Z</time>
      </trkpt>
      <trkpt lat="42.30824" lon="2.58698">
        <ele>539.445</ele>
        <time>2012-03-31T09:56:16Z</time>
      </trkpt>
      <trkpt lat="42.30826" lon="2.58698">
        <ele>538.547</ele>
        <time>2012-03-31T09:56:18Z</time>
      </trkpt>
      <trkpt lat="42.30828" lon="2.58698">
        <ele>537.511</ele>
        <time>2012-03-31T09:56:21Z</time>
      </trkpt>
      <trkpt lat="42.3085" lon="2.58698">
        <ele>539.907</ele>
        <time>2012-03-31T09:56:37Z</time>
      </trkpt>
      <trkpt lat="42.30859" lon="2.58697">
        <ele>542.816</ele>
        <time>2012-03-31T09:56:45Z</time>
      </trkpt>
      <trkpt lat="42.3087" lon="2.58704">
        <ele>546.21</ele>
        <time>2012-03-31T09:56:55Z</time>
      </trkpt>
      <trkpt lat="42.3089" lon="2.58728">
        <ele>549.14</ele>
        <time>2012-03-31T09:57:05Z</time>
      </trkpt>
      <trkpt lat="42.30895" lon="2.58731">
        <ele>550.535</ele>
        <time>2012-03-31T09:57:07Z</time>
      </trkpt>
      <trkpt lat="42.30898" lon="2.5873">
        <ele>551.06</ele>
        <time>2012-03-31T09:57:09Z</time>
      </trkpt>
      <trkpt lat="42.30905" lon="2.58727">
        <ele>553.473</ele>
        <time>2012-03-31T09:57:16Z</time>
      </trkpt>
      <trkpt lat="42.30913" lon="2.5872">
        <ele>556.732</ele>
        <time>2012-03-31T09:57:26Z</time>
      </trkpt>
      <trkpt lat="42.30924" lon="2.5871">
        <ele>560.186</ele>
        <time>2012-03-31T09:57:39Z</time>
      </trkpt>
      <trkpt lat="42.30934" lon="2.587">
        <ele>563.06</ele>
        <time>2012-03-31T09:57:51Z</time>
      </trkpt>
      <trkpt lat="42.30945" lon="2.58672">
        <ele>563.026</ele>
        <time>2012-03-31T09:58:04Z</time>
      </trkpt>
      <trkpt lat="42.30964" lon="2.58661">
        <ele>566.407</ele>
        <time>2012-03-31T09:58:18Z</time>
      </trkpt>
      <trkpt lat="42.30968" lon="2.58661">
        <ele>566.82</ele>
        <time>2012-03-31T09:58:20Z</time>
      </trkpt>
      <trkpt lat="42.30995" lon="2.58663">
        <ele>570.254</ele>
        <time>2012-03-31T09:58:30Z</time>
      </trkpt>
      <trkpt lat="42.31024" lon="2.58654">
        <ele>569.284</ele>
        <time>2012-03-31T09:58:45Z</time>
      </trkpt>
      <trkpt lat="42.31052" lon="2.58645">
        <ele>571.639</ele>
        <time>2012-03-31T09:59:03Z</time>
      </trkpt>
      <trkpt lat="42.31069" lon="2.5863">
        <ele>574.074</ele>
        <time>2012-03-31T09:59:13Z</time>
      </trkpt>
      <trkpt lat="42.31077" lon="2.58635">
        <ele>570.787</ele>
        <time>2012-03-31T09:59:19Z</time>
      </trkpt>
      <trkpt lat="42.31079" lon="2.58633">
        <ele>567.886</ele>
        <time>2012-03-31T09:59:24Z</time>
      </trkpt>
      <trkpt lat="42.31083" lon="2.58629">
        <ele>564.068</ele>
        <time>2012-03-31T09:59:31Z</time>
      </trkpt>
      <trkpt lat="42.31088" lon="2.58624">
        <ele>560.642</ele>
        <time>2012-03-31T09:59:37Z</time>
      </trkpt>
      <trkpt lat="42.31091" lon="2.58619">
        <ele>560.626</ele>
        <time>2012-03-31T09:59:38Z</time>
      </trkpt>
      <trkpt lat="42.31097" lon="2.58609">
        <ele>558.707</ele>
        <time>2012-03-31T09:59:41Z</time>
      </trkpt>
      <trkpt lat="42.31102" lon="2.5861">
        <ele>557.228</ele>
        <time>2012-03-31T09:59:44Z</time>
      </trkpt>
      <trkpt lat="42.31104" lon="2.58615">
        <ele>555.382</ele>
        <time>2012-03-31T09:59:47Z</time>
      </trkpt>
      <trkpt lat="42.31107" lon="2.58622">
        <ele>552.462</ele>
        <time>2012-03-31T09:59:51Z</time>
      </trkpt>
      <trkpt lat="42.3111" lon="2.5863">
        <ele>550.597</ele>
        <time>2012-03-31T09:59:56Z</time>
      </trkpt>
      <trkpt lat="42.31114" lon="2.58628">
        <ele>548.692</ele>
        <time>2012-03-31T10:00:01Z</time>
      </trkpt>
      <trkpt lat="42.31136" lon="2.58615">
        <ele>548.615</ele>
        <time>2012-03-31T10:00:19Z</time>
      </trkpt>
      <trkpt lat="42.31165" lon="2.5857">
        <ele>550.574</ele>
        <time>2012-03-31T10:00:37Z</time>
      </trkpt>
      <trkpt lat="42.31188" lon="2.58532">
        <ele>548.183</ele>
        <time>2012-03-31T10:00:51Z</time>
      </trkpt>
      <trkpt lat="42.31206" lon="2.58514">
        <ele>544.225</ele>
        <time>2012-03-31T10:01:03Z</time>
      </trkpt>
      <trkpt lat="42.31208" lon="2.58514">
        <ele>544.217</ele>
        <time>2012-03-31T10:01:04Z</time>
      </trkpt>
      <trkpt lat="42.31216" lon="2.58513">
        <ele>542.307</ele>
        <time>2012-03-31T10:01:08Z</time>
      </trkpt>
      <trkpt lat="42.31228" lon="2.58516">
        <ele>539.93</ele>
        <time>2012-03-31T10:01:14Z</time>
      </trkpt>
      <trkpt lat="42.3123" lon="2.58516">
        <ele>539.054</ele>
        <time>2012-03-31T10:01:15Z</time>
      </trkpt>
      <trkpt lat="42.31243" lon="2.58521">
        <ele>535.664</ele>
        <time>2012-03-31T10:01:22Z</time>
      </trkpt>
      <trkpt lat="42.31261" lon="2.58523">
        <ele>533.259</ele>
        <time>2012-03-31T10:01:30Z</time>
      </trkpt>
      <trkpt lat="42.31272" lon="2.58517">
        <ele>533.284</ele>
        <time>2012-03-31T10:01:35Z</time>
      </trkpt>
      <trkpt lat="42.31315" lon="2.58502">
        <ele>532.277</ele>
        <time>2012-03-31T10:01:53Z</time>
      </trkpt>
      <trkpt lat="42.3132" lon="2.58502">
        <ele>533.296</ele>
        <time>2012-03-31T10:01:56Z</time>
      </trkpt>
      <trkpt lat="42.31328" lon="2.58501">
        <ele>534.295</ele>
        <time>2012-03-31T10:02:00Z</time>
      </trkpt>
      <trkpt lat="42.31358" lon="2.58488">
        <ele>534.649</ele>
        <time>2012-03-31T10:02:16Z</time>
      </trkpt>
      <trkpt lat="42.31385" lon="2.58525">
        <ele>532.223</ele>
        <time>2012-03-31T10:02:35Z</time>
      </trkpt>
      <trkpt lat="42.31399" lon="2.58555">
        <ele>528.907</ele>
        <time>2012-03-31T10:02:45Z</time>
      </trkpt>
      <trkpt lat="42.31399" lon="2.5856">
        <ele>526.971</ele>
        <time>2012-03-31T10:02:49Z</time>
      </trkpt>
      <trkpt lat="42.31393" lon="2.58569">
        <ele>523.665</ele>
        <time>2012-03-31T10:02:57Z</time>
      </trkpt>
      <trkpt lat="42.31397" lon="2.58575">
        <ele>522.155</ele>
        <time>2012-03-31T10:03:00Z</time>
      </trkpt>
      <trkpt lat="42.31404" lon="2.58582">
        <ele>519.75</ele>
        <time>2012-03-31T10:03:06Z</time>
      </trkpt>
      <trkpt lat="42.3141" lon="2.58584">
        <ele>515.965</ele>
        <time>2012-03-31T10:03:11Z</time>
      </trkpt>
      <trkpt lat="42.31414" lon="2.58586">
        <ele>515.488</ele>
        <time>2012-03-31T10:03:13Z</time>
      </trkpt>
      <trkpt lat="42.31447" lon="2.58578">
        <ele>514.027</ele>
        <time>2012-03-31T10:03:30Z</time>
      </trkpt>
      <trkpt lat="42.31489" lon="2.5859">
        <ele>511.126</ele>
        <time>2012-03-31T10:03:48Z</time>
      </trkpt>
      <trkpt lat="42.31504" lon="2.586">
        <ele>507.747</ele>
        <time>2012-03-31T10:03:57Z</time>
      </trkpt>
      <trkpt lat="42.31517" lon="2.58614">
        <ele>506.311</ele>
        <time>2012-03-31T10:04:04Z</time>
      </trkpt>
      <trkpt lat="42.31524" lon="2.5862">
        <ele>505.307</ele>
        <time>2012-03-31T10:04:07Z</time>
      </trkpt>
      <trkpt lat="42.31556" lon="2.58647">
        <ele>501.084</ele>
        <time>2012-03-31T10:04:22Z</time>
      </trkpt>
      <trkpt lat="42.31557" lon="2.58649">
        <ele>501.048</ele>
        <time>2012-03-31T10:04:23Z</time>
      </trkpt>
      <trkpt lat="42.31558" lon="2.58652">
        <ele>500.038</ele>
        <time>2012-03-31T10:04:25Z</time>
      </trkpt>
      <trkpt lat="42.31568" lon="2.58686">
        <ele>496.293</ele>
        <time>2012-03-31T10:04:37Z</time>
      </trkpt>
      <trkpt lat="42.3157" lon="2.58692">
        <ele>494.758</ele>
        <time>2012-03-31T10:04:39Z</time>
      </trkpt>
      <trkpt lat="42.3158" lon="2.58716">
        <ele>490.951</ele>
        <time>2012-03-31T10:04:49Z</time>
      </trkpt>
      <trkpt lat="42.31581" lon="2.58719">
        <ele>490.41</ele>
        <time>2012-03-31T10:04:50Z</time>
      </trkpt>
      <trkpt lat="42.31591" lon="2.58728">
        <ele>489.939</ele>
        <time>2012-03-31T10:04:56Z</time>
      </trkpt>
      <trkpt lat="42.31595" lon="2.5873">
        <ele>489.001</ele>
        <time>2012-03-31T10:04:58Z</time>
      </trkpt>
      <trkpt lat="42.31614" lon="2.58743">
        <ele>485.621</ele>
        <time>2012-03-31T10:05:06Z</time>
      </trkpt>
      <trkpt lat="42.31627" lon="2.58747">
        <ele>482.707</ele>
        <time>2012-03-31T10:05:13Z</time>
      </trkpt>
      <trkpt lat="42.31628" lon="2.58746">
        <ele>482.755</ele>
        <time>2012-03-31T10:05:14Z</time>
      </trkpt>
      <trkpt lat="42.31633" lon="2.5874">
        <ele>478.979</ele>
        <time>2012-03-31T10:05:22Z</time>
      </trkpt>
      <trkpt lat="42.31633" lon="2.58737">
        <ele>478.439</ele>
        <time>2012-03-31T10:05:24Z</time>
      </trkpt>
      <trkpt lat="42.31639" lon="2.58706">
        <ele>477.454</ele>
        <time>2012-03-31T10:05:39Z</time>
      </trkpt>
      <trkpt lat="42.31651" lon="2.58714">
        <ele>475.589</ele>
        <time>2012-03-31T10:05:59Z</time>
      </trkpt>
      <trkpt lat="42.31661" lon="2.58724">
        <ele>476.592</ele>
        <time>2012-03-31T10:06:20Z</time>
      </trkpt>
      <trkpt lat="42.31661" lon="2.58724">
        <ele>477.411</ele>
        <time>2012-03-31T10:06:48Z</time>
      </trkpt>
      <trkpt lat="42.31661" lon="2.58724">
        <ele>477.912</ele>
        <time>2012-03-31T10:07:11Z</time>
      </trkpt>
      <trkpt lat="42.31663" lon="2.58731">
        <ele>478.432</ele>
        <time>2012-03-31T10:07:40Z</time>
      </trkpt>
      <trkpt lat="42.31664" lon="2.58735">
        <ele>478.905</ele>
        <time>2012-03-31T10:08:08Z</time>
      </trkpt>
      <trkpt lat="42.31664" lon="2.58735">
        <ele>479.407</ele>
        <time>2012-03-31T10:08:35Z</time>
      </trkpt>
      <trkpt lat="42.31663" lon="2.58736">
        <ele>480.883</ele>
        <time>2012-03-31T10:09:11Z</time>
      </trkpt>
      <trkpt lat="42.31664" lon="2.58737">
        <ele>481.377</ele>
        <time>2012-03-31T10:09:37Z</time>
      </trkpt>
      <trkpt lat="42.31664" lon="2.58737">
        <ele>481.847</ele>
        <time>2012-03-31T10:10:02Z</time>
      </trkpt>
      <trkpt lat="42.31664" lon="2.58738">
        <ele>482.742</ele>
        <time>2012-03-31T10:10:30Z</time>
      </trkpt>
      <trkpt lat="42.31664" lon="2.58739">
        <ele>483.777</ele>
        <time>2012-03-31T10:10:56Z</time>
      </trkpt>
      <trkpt lat="42.31664" lon="2.58739">
        <ele>484.27</ele>
        <time>2012-03-31T10:11:26Z</time>
      </trkpt>
      <trkpt lat="42.31665" lon="2.58739">
        <ele>485.139</ele>
        <time>2012-03-31T10:11:58Z</time>
      </trkpt>
      <trkpt lat="42.31666" lon="2.58741">
        <ele>485.677</ele>
        <time>2012-03-31T10:12:25Z</time>
      </trkpt>
      <trkpt lat="42.31668" lon="2.58742">
        <ele>486.161</ele>
        <time>2012-03-31T10:12:52Z</time>
      </trkpt>
      <trkpt lat="42.31668" lon="2.58742">
        <ele>487.127</ele>
        <time>2012-03-31T10:13:21Z</time>
      </trkpt>
      <trkpt lat="42.31669" lon="2.58743">
        <ele>487.507</ele>
        <time>2012-03-31T10:13:45Z</time>
      </trkpt>
      <trkpt lat="42.3167" lon="2.58744">
        <ele>488.029</ele>
        <time>2012-03-31T10:14:06Z</time>
      </trkpt>
      <trkpt lat="42.3167" lon="2.58743">
        <ele>488.513</ele>
        <time>2012-03-31T10:14:36Z</time>
      </trkpt>
      <trkpt lat="42.3167" lon="2.58743">
        <ele>489.083</ele>
        <time>2012-03-31T10:15:08Z</time>
      </trkpt>
      <trkpt lat="42.3167" lon="2.58743">
        <ele>489.598</ele>
        <time>2012-03-31T10:15:36Z</time>
      </trkpt>
      <trkpt lat="42.3167" lon="2.58743">
        <ele>489.583</ele>
        <time>2012-03-31T10:16:06Z</time>
      </trkpt>
      <trkpt lat="42.3167" lon="2.58743">
        <ele>490.456</ele>
        <time>2012-03-31T10:16:34Z</time>
      </trkpt>
      <trkpt lat="42.3167" lon="2.58743">
        <ele>490.975</ele>
        <time>2012-03-31T10:17:06Z</time>
      </trkpt>
      <trkpt lat="42.3167" lon="2.58742">
        <ele>491.445</ele>
        <time>2012-03-31T10:17:36Z</time>
      </trkpt>
      <trkpt lat="42.31671" lon="2.58741">
        <ele>492.347</ele>
        <time>2012-03-31T10:18:05Z</time>
      </trkpt>
      <trkpt lat="42.31671" lon="2.5874">
        <ele>492.811</ele>
        <time>2012-03-31T10:18:34Z</time>
      </trkpt>
      <trkpt lat="42.31672" lon="2.58741">
        <ele>492.807</ele>
        <time>2012-03-31T10:19:06Z</time>
      </trkpt>
      <trkpt lat="42.31672" lon="2.58741">
        <ele>493.876</ele>
        <time>2012-03-31T10:19:42Z</time>
      </trkpt>
      <trkpt lat="42.31672" lon="2.58741">
        <ele>493.87</ele>
        <time>2012-03-31T10:20:13Z</time>
      </trkpt>
      <trkpt lat="42.31672" lon="2.58741">
        <ele>494.78</ele>
        <time>2012-03-31T10:20:45Z</time>
      </trkpt>
      <trkpt lat="42.31675" lon="2.58739">
        <ele>495.765</ele>
        <time>2012-03-31T10:21:07Z</time>
      </trkpt>
      <trkpt lat="42.31676" lon="2.58739">
        <ele>495.26</ele>
        <time>2012-03-31T10:21:24Z</time>
      </trkpt>
      <trkpt lat="42.31681" lon="2.58733">
        <ele>495.223</ele>
        <time>2012-03-31T10:21:36Z</time>
      </trkpt>
      <trkpt lat="42.31683" lon="2.58735">
        <ele>495.792</ele>
        <time>2012-03-31T10:21:49Z</time>
      </trkpt>
      <trkpt lat="42.31683" lon="2.58735">
        <ele>494.785</ele>
        <time>2012-03-31T10:22:10Z</time>
      </trkpt>
      <trkpt lat="42.31684" lon="2.58734">
        <ele>495.789</ele>
        <time>2012-03-31T10:22:28Z</time>
      </trkpt>
      <trkpt lat="42.31684" lon="2.58734">
        <ele>495.217</ele>
        <time>2012-03-31T10:22:53Z</time>
      </trkpt>
      <trkpt lat="42.31684" lon="2.58734">
        <ele>494.707</ele>
        <time>2012-03-31T10:23:09Z</time>
      </trkpt>
      <trkpt lat="42.31685" lon="2.58735">
        <ele>494.77</ele>
        <time>2012-03-31T10:23:26Z</time>
      </trkpt>
      <trkpt lat="42.31682" lon="2.58745">
        <ele>494.344</ele>
        <time>2012-03-31T10:23:35Z</time>
      </trkpt>
      <trkpt lat="42.31688" lon="2.58748">
        <ele>493.854</ele>
        <time>2012-03-31T10:23:50Z</time>
      </trkpt>
      <trkpt lat="42.3169" lon="2.58747">
        <ele>493.849</ele>
        <time>2012-03-31T10:23:53Z</time>
      </trkpt>
      <trkpt lat="42.31685" lon="2.58756">
        <ele>492.324</ele>
        <time>2012-03-31T10:23:59Z</time>
      </trkpt>
      <trkpt lat="42.31684" lon="2.58764">
        <ele>490.987</ele>
        <time>2012-03-31T10:24:04Z</time>
      </trkpt>
      <trkpt lat="42.31687" lon="2.5877">
        <ele>490.436</ele>
        <time>2012-03-31T10:24:07Z</time>
      </trkpt>
      <trkpt lat="42.31687" lon="2.58779">
        <ele>489.022</ele>
        <time>2012-03-31T10:24:11Z</time>
      </trkpt>
      <trkpt lat="42.31693" lon="2.58788">
        <ele>487.562</ele>
        <time>2012-03-31T10:24:18Z</time>
      </trkpt>
      <trkpt lat="42.31694" lon="2.5879">
        <ele>487.108</ele>
        <time>2012-03-31T10:24:19Z</time>
      </trkpt>
      <trkpt lat="42.31697" lon="2.58797">
        <ele>486.107</ele>
        <time>2012-03-31T10:24:23Z</time>
      </trkpt>
      <trkpt lat="42.31702" lon="2.58794">
        <ele>485.114</ele>
        <time>2012-03-31T10:24:26Z</time>
      </trkpt>
      <trkpt lat="42.31706" lon="2.58794">
        <ele>484.218</ele>
        <time>2012-03-31T10:24:29Z</time>
      </trkpt>
      <trkpt lat="42.31712" lon="2.58805">
        <ele>482.748</ele>
        <time>2012-03-31T10:24:35Z</time>
      </trkpt>
      <trkpt lat="42.31713" lon="2.58806">
        <ele>482.793</ele>
        <time>2012-03-31T10:24:36Z</time>
      </trkpt>
      <trkpt lat="42.31718" lon="2.58809">
        <ele>483.798</ele>
        <time>2012-03-31T10:24:40Z</time>
      </trkpt>
      <trkpt lat="42.31718" lon="2.5882">
        <ele>482.741</ele>
        <time>2012-03-31T10:24:47Z</time>
      </trkpt>
      <trkpt lat="42.31716" lon="2.58826">
        <ele>484.24</ele>
        <time>2012-03-31T10:24:56Z</time>
      </trkpt>
      <trkpt lat="42.31703" lon="2.58843">
        <ele>484.624</ele>
        <time>2012-03-31T10:25:08Z</time>
      </trkpt>
      <trkpt lat="42.31701" lon="2.58847">
        <ele>485.604</ele>
        <time>2012-03-31T10:25:11Z</time>
      </trkpt>
      <trkpt lat="42.31694" lon="2.5886">
        <ele>487.114</ele>
        <time>2012-03-31T10:25:18Z</time>
      </trkpt>
      <trkpt lat="42.31693" lon="2.58864">
        <ele>488.007</ele>
        <time>2012-03-31T10:25:22Z</time>
      </trkpt>
      <trkpt lat="42.31691" lon="2.58865">
        <ele>489.534</ele>
        <time>2012-03-31T10:25:24Z</time>
      </trkpt>
      <trkpt lat="42.31681" lon="2.58868">
        <ele>490.918</ele>
        <time>2012-03-31T10:25:34Z</time>
      </trkpt>
      <trkpt lat="42.31671" lon="2.58873">
        <ele>492.888</ele>
        <time>2012-03-31T10:25:41Z</time>
      </trkpt>
      <trkpt lat="42.31661" lon="2.58874">
        <ele>490.913</ele>
        <time>2012-03-31T10:25:47Z</time>
      </trkpt>
      <trkpt lat="42.31646" lon="2.58882">
        <ele>488.028</ele>
        <time>2012-03-31T10:25:55Z</time>
      </trkpt>
      <trkpt lat="42.31642" lon="2.58883">
        <ele>488.531</ele>
        <time>2012-03-31T10:25:57Z</time>
      </trkpt>
      <trkpt lat="42.31633" lon="2.58886">
        <ele>488.09</ele>
        <time>2012-03-31T10:26:02Z</time>
      </trkpt>
      <trkpt lat="42.3162" lon="2.58895">
        <ele>487.174</ele>
        <time>2012-03-31T10:26:09Z</time>
      </trkpt>
      <trkpt lat="42.31615" lon="2.58895">
        <ele>486.156</ele>
        <time>2012-03-31T10:26:13Z</time>
      </trkpt>
      <trkpt lat="42.31597" lon="2.58882">
        <ele>484.221</ele>
        <time>2012-03-31T10:26:23Z</time>
      </trkpt>
      <trkpt lat="42.31587" lon="2.58879">
        <ele>482.707</ele>
        <time>2012-03-31T10:26:28Z</time>
      </trkpt>
      <trkpt lat="42.31578" lon="2.58868">
        <ele>480.819</ele>
        <time>2012-03-31T10:26:33Z</time>
      </trkpt>
      <trkpt lat="42.31566" lon="2.58859">
        <ele>479.873</ele>
        <time>2012-03-31T10:26:39Z</time>
      </trkpt>
      <trkpt lat="42.31556" lon="2.58852">
        <ele>479.893</ele>
        <time>2012-03-31T10:26:44Z</time>
      </trkpt>
      <trkpt lat="42.31539" lon="2.58846">
        <ele>477.928</ele>
        <time>2012-03-31T10:26:52Z</time>
      </trkpt>
      <trkpt lat="42.31527" lon="2.58838">
        <ele>476.553</ele>
        <time>2012-03-31T10:27:00Z</time>
      </trkpt>
      <trkpt lat="42.3151" lon="2.58824">
        <ele>475.556</ele>
        <time>2012-03-31T10:27:09Z</time>
      </trkpt>
      <trkpt lat="42.31508" lon="2.58823">
        <ele>476.055</ele>
        <time>2012-03-31T10:27:11Z</time>
      </trkpt>
      <trkpt lat="42.31501" lon="2.58823">
        <ele>476.519</ele>
        <time>2012-03-31T10:27:13Z</time>
      </trkpt>
      <trkpt lat="42.31468" lon="2.58811">
        <ele>477.409</ele>
        <time>2012-03-31T10:27:24Z</time>
      </trkpt>
      <trkpt lat="42.31466" lon="2.58815">
        <ele>478.419</ele>
        <time>2012-03-31T10:27:28Z</time>
      </trkpt>
      <trkpt lat="42.31461" lon="2.58823">
        <ele>478.407</ele>
        <time>2012-03-31T10:27:32Z</time>
      </trkpt>
      <trkpt lat="42.31458" lon="2.58834">
        <ele>477.483</ele>
        <time>2012-03-31T10:27:39Z</time>
      </trkpt>
      <trkpt lat="42.3146" lon="2.58844">
        <ele>476.027</ele>
        <time>2012-03-31T10:27:43Z</time>
      </trkpt>
      <trkpt lat="42.31462" lon="2.58847">
        <ele>475.537</ele>
        <time>2012-03-31T10:27:45Z</time>
      </trkpt>
      <trkpt lat="42.31461" lon="2.5885">
        <ele>475.562</ele>
        <time>2012-03-31T10:27:47Z</time>
      </trkpt>
      <trkpt lat="42.31459" lon="2.58872">
        <ele>473.697</ele>
        <time>2012-03-31T10:27:55Z</time>
      </trkpt>
      <trkpt lat="42.31455" lon="2.58895">
        <ele>471.78</ele>
        <time>2012-03-31T10:28:05Z</time>
      </trkpt>
      <trkpt lat="42.31443" lon="2.58927">
        <ele>470.299</ele>
        <time>2012-03-31T10:28:17Z</time>
      </trkpt>
      <trkpt lat="42.31433" lon="2.58946">
        <ele>470.724</ele>
        <time>2012-03-31T10:28:26Z</time>
      </trkpt>
      <trkpt lat="42.31433" lon="2.58958">
        <ele>472.604</ele>
        <time>2012-03-31T10:28:33Z</time>
      </trkpt>
      <trkpt lat="42.31433" lon="2.58964">
        <ele>473.114</ele>
        <time>2012-03-31T10:28:37Z</time>
      </trkpt>
      <trkpt lat="42.31424" lon="2.5898">
        <ele>473.607</ele>
        <time>2012-03-31T10:28:43Z</time>
      </trkpt>
      <trkpt lat="42.31414" lon="2.58998">
        <ele>474.614</ele>
        <time>2012-03-31T10:28:52Z</time>
      </trkpt>
      <trkpt lat="42.31406" lon="2.5901">
        <ele>474.658</ele>
        <time>2012-03-31T10:28:58Z</time>
      </trkpt>
      <trkpt lat="42.31399" lon="2.59022">
        <ele>475.578</ele>
        <time>2012-03-31T10:29:04Z</time>
      </trkpt>
      <trkpt lat="42.31391" lon="2.59027">
        <ele>474.123</ele>
        <time>2012-03-31T10:29:09Z</time>
      </trkpt>
      <trkpt lat="42.31384" lon="2.59031">
        <ele>473.198</ele>
        <time>2012-03-31T10:29:12Z</time>
      </trkpt>
      <trkpt lat="42.31366" lon="2.59039">
        <ele>470.291</ele>
        <time>2012-03-31T10:29:24Z</time>
      </trkpt>
      <trkpt lat="42.31358" lon="2.59034">
        <ele>468.87</ele>
        <time>2012-03-31T10:29:28Z</time>
      </trkpt>
      <trkpt lat="42.31351" lon="2.59037">
        <ele>467.884</ele>
        <time>2012-03-31T10:29:32Z</time>
      </trkpt>
      <trkpt lat="42.31342" lon="2.59041">
        <ele>464.507</ele>
        <time>2012-03-31T10:29:43Z</time>
      </trkpt>
      <trkpt lat="42.31342" lon="2.59041">
        <ele>463.517</ele>
        <time>2012-03-31T10:29:45Z</time>
      </trkpt>
      <trkpt lat="42.31331" lon="2.59033">
        <ele>461.107</ele>
        <time>2012-03-31T10:29:50Z</time>
      </trkpt>
      <trkpt lat="42.3132" lon="2.59022">
        <ele>458.25</ele>
        <time>2012-03-31T10:29:57Z</time>
      </trkpt>
      <trkpt lat="42.31319" lon="2.5902">
        <ele>457.724</ele>
        <time>2012-03-31T10:29:58Z</time>
      </trkpt>
      <trkpt lat="42.31313" lon="2.59012">
        <ele>457.274</ele>
        <time>2012-03-31T10:30:02Z</time>
      </trkpt>
      <trkpt lat="42.31309" lon="2.5901">
        <ele>455.829</ele>
        <time>2012-03-31T10:30:06Z</time>
      </trkpt>
      <trkpt lat="42.31308" lon="2.59011">
        <ele>455.894</ele>
        <time>2012-03-31T10:30:08Z</time>
      </trkpt>
      <trkpt lat="42.31314" lon="2.59025">
        <ele>452.917</ele>
        <time>2012-03-31T10:30:17Z</time>
      </trkpt>
      <trkpt lat="42.31315" lon="2.59032">
        <ele>451.036</ele>
        <time>2012-03-31T10:30:21Z</time>
      </trkpt>
      <trkpt lat="42.3132" lon="2.59053">
        <ele>449.182</ele>
        <time>2012-03-31T10:30:32Z</time>
      </trkpt>
      <trkpt lat="42.3132" lon="2.59061">
        <ele>449.643</ele>
        <time>2012-03-31T10:30:37Z</time>
      </trkpt>
      <trkpt lat="42.31321" lon="2.59074">
        <ele>449.117</ele>
        <time>2012-03-31T10:30:45Z</time>
      </trkpt>
      <trkpt lat="42.3132" lon="2.59076">
        <ele>449.107</ele>
        <time>2012-03-31T10:30:46Z</time>
      </trkpt>
      <trkpt lat="42.3131" lon="2.591">
        <ele>448.17</ele>
        <time>2012-03-31T10:30:53Z</time>
      </trkpt>
      <trkpt lat="42.31305" lon="2.591">
        <ele>449.114</ele>
        <time>2012-03-31T10:30:59Z</time>
      </trkpt>
      <trkpt lat="42.313" lon="2.59103">
        <ele>451.524</ele>
        <time>2012-03-31T10:31:12Z</time>
      </trkpt>
      <trkpt lat="42.31299" lon="2.59113">
        <ele>453.969</ele>
        <time>2012-03-31T10:31:28Z</time>
      </trkpt>
      <trkpt lat="42.31298" lon="2.59127">
        <ele>456.814</ele>
        <time>2012-03-31T10:31:41Z</time>
      </trkpt>
      <trkpt lat="42.31294" lon="2.59141">
        <ele>458.747</ele>
        <time>2012-03-31T10:31:55Z</time>
      </trkpt>
      <trkpt lat="42.31294" lon="2.5915">
        <ele>459.796</ele>
        <time>2012-03-31T10:32:04Z</time>
      </trkpt>
      <trkpt lat="42.31292" lon="2.59158">
        <ele>461.141</ele>
        <time>2012-03-31T10:32:08Z</time>
      </trkpt>
      <trkpt lat="42.31294" lon="2.59194">
        <ele>464.081</ele>
        <time>2012-03-31T10:32:26Z</time>
      </trkpt>
      <trkpt lat="42.31294" lon="2.59212">
        <ele>466.409</ele>
        <time>2012-03-31T10:32:43Z</time>
      </trkpt>
      <trkpt lat="42.31302" lon="2.59243">
        <ele>469.307</ele>
        <time>2012-03-31T10:33:01Z</time>
      </trkpt>
      <trkpt lat="42.31306" lon="2.5926">
        <ele>472.166</ele>
        <time>2012-03-31T10:33:14Z</time>
      </trkpt>
      <trkpt lat="42.31306" lon="2.59266">
        <ele>476.03</ele>
        <time>2012-03-31T10:33:29Z</time>
      </trkpt>
      <trkpt lat="42.31303" lon="2.59286">
        <ele>478.97</ele>
        <time>2012-03-31T10:33:42Z</time>
      </trkpt>
      <trkpt lat="42.31303" lon="2.59287">
        <ele>481.835</ele>
        <time>2012-03-31T10:33:56Z</time>
      </trkpt>
      <trkpt lat="42.31306" lon="2.59301">
        <ele>485.16</ele>
        <time>2012-03-31T10:34:09Z</time>
      </trkpt>
      <trkpt lat="42.31296" lon="2.59306">
        <ele>488.073</ele>
        <time>2012-03-31T10:34:27Z</time>
      </trkpt>
      <trkpt lat="42.31284" lon="2.59307">
        <ele>490.412</ele>
        <time>2012-03-31T10:34:43Z</time>
      </trkpt>
      <trkpt lat="42.31279" lon="2.59313">
        <ele>493.831</ele>
        <time>2012-03-31T10:35:00Z</time>
      </trkpt>
      <trkpt lat="42.31275" lon="2.59317">
        <ele>496.261</ele>
        <time>2012-03-31T10:35:15Z</time>
      </trkpt>
      <trkpt lat="42.31272" lon="2.59316">
        <ele>499.507</ele>
        <time>2012-03-31T10:35:27Z</time>
      </trkpt>
      <trkpt lat="42.31266" lon="2.59316">
        <ele>502.407</ele>
        <time>2012-03-31T10:35:40Z</time>
      </trkpt>
      <trkpt lat="42.31266" lon="2.59325">
        <ele>505.815</ele>
        <time>2012-03-31T10:35:52Z</time>
      </trkpt>
      <trkpt lat="42.3126" lon="2.59323">
        <ele>509.259</ele>
        <time>2012-03-31T10:36:06Z</time>
      </trkpt>
      <trkpt lat="42.31259" lon="2.59328">
        <ele>512.039</ele>
        <time>2012-03-31T10:36:19Z</time>
      </trkpt>
      <trkpt lat="42.3126" lon="2.59337">
        <ele>515.484</ele>
        <time>2012-03-31T10:36:31Z</time>
      </trkpt>
      <trkpt lat="42.31264" lon="2.59345">
        <ele>518.389</ele>
        <time>2012-03-31T10:36:44Z</time>
      </trkpt>
      <trkpt lat="42.31265" lon="2.59362">
        <ele>521.792</ele>
        <time>2012-03-31T10:36:58Z</time>
      </trkpt>
      <trkpt lat="42.31275" lon="2.59384">
        <ele>524.551</ele>
        <time>2012-03-31T10:37:14Z</time>
      </trkpt>
      <trkpt lat="42.31277" lon="2.59403">
        <ele>527.963</ele>
        <time>2012-03-31T10:37:28Z</time>
      </trkpt>
      <trkpt lat="42.31276" lon="2.59411">
        <ele>531.344</ele>
        <time>2012-03-31T10:37:43Z</time>
      </trkpt>
      <trkpt lat="42.31276" lon="2.59414">
        <ele>534.218</ele>
        <time>2012-03-31T10:37:57Z</time>
      </trkpt>
      <trkpt lat="42.31276" lon="2.59416">
        <ele>537.507</ele>
        <time>2012-03-31T10:38:11Z</time>
      </trkpt>
      <trkpt lat="42.31275" lon="2.59446">
        <ele>540.488</ele>
        <time>2012-03-31T10:38:28Z</time>
      </trkpt>
      <trkpt lat="42.31283" lon="2.59453">
        <ele>543.362</ele>
        <time>2012-03-31T10:38:40Z</time>
      </trkpt>
      <trkpt lat="42.31289" lon="2.59461">
        <ele>546.762</ele>
        <time>2012-03-31T10:38:51Z</time>
      </trkpt>
      <trkpt lat="42.31295" lon="2.59472">
        <ele>550.057</ele>
        <time>2012-03-31T10:39:06Z</time>
      </trkpt>
      <trkpt lat="42.313" lon="2.59482">
        <ele>553.442</ele>
        <time>2012-03-31T10:39:16Z</time>
      </trkpt>
      <trkpt lat="42.31296" lon="2.59505">
        <ele>556.375</ele>
        <time>2012-03-31T10:39:27Z</time>
      </trkpt>
      <trkpt lat="42.31302" lon="2.59541">
        <ele>559.614</ele>
        <time>2012-03-31T10:39:41Z</time>
      </trkpt>
      <trkpt lat="42.31306" lon="2.59551">
        <ele>562.541</ele>
        <time>2012-03-31T10:39:57Z</time>
      </trkpt>
      <trkpt lat="42.3131" lon="2.59563">
        <ele>565.481</ele>
        <time>2012-03-31T10:40:09Z</time>
      </trkpt>
      <trkpt lat="42.31317" lon="2.59578">
        <ele>568.809</ele>
        <time>2012-03-31T10:40:24Z</time>
      </trkpt>
      <trkpt lat="42.31326" lon="2.59596">
        <ele>571.607</ele>
        <time>2012-03-31T10:40:40Z</time>
      </trkpt>
      <trkpt lat="42.31335" lon="2.59618">
        <ele>575.046</ele>
        <time>2012-03-31T10:40:56Z</time>
      </trkpt>
      <trkpt lat="42.31337" lon="2.5962">
        <ele>576.96</ele>
        <time>2012-03-31T10:41:09Z</time>
      </trkpt>
      <trkpt lat="42.3133" lon="2.59617">
        <ele>580.34</ele>
        <time>2012-03-31T10:41:22Z</time>
      </trkpt>
      <trkpt lat="42.31329" lon="2.59617">
        <ele>583.785</ele>
        <time>2012-03-31T10:41:36Z</time>
      </trkpt>
      <trkpt lat="42.31324" lon="2.59622">
        <ele>586.18</ele>
        <time>2012-03-31T10:41:50Z</time>
      </trkpt>
      <trkpt lat="42.31322" lon="2.59626">
        <ele>589.413</ele>
        <time>2012-03-31T10:42:06Z</time>
      </trkpt>
      <trkpt lat="42.31322" lon="2.59635">
        <ele>591.472</ele>
        <time>2012-03-31T10:42:13Z</time>
      </trkpt>
      <trkpt lat="42.31318" lon="2.59655">
        <ele>594.286</ele>
        <time>2012-03-31T10:42:28Z</time>
      </trkpt>
      <trkpt lat="42.31317" lon="2.59671">
        <ele>597.66</ele>
        <time>2012-03-31T10:42:42Z</time>
      </trkpt>
      <trkpt lat="42.31313" lon="2.59688">
        <ele>600.526</ele>
        <time>2012-03-31T10:42:50Z</time>
      </trkpt>
      <trkpt lat="42.31314" lon="2.597">
        <ele>603.407</ele>
        <time>2012-03-31T10:43:02Z</time>
      </trkpt>
      <trkpt lat="42.31318" lon="2.5971">
        <ele>607.27</ele>
        <time>2012-03-31T10:43:12Z</time>
      </trkpt>
      <trkpt lat="42.31322" lon="2.59725">
        <ele>610.114</ele>
        <time>2012-03-31T10:43:25Z</time>
      </trkpt>
      <trkpt lat="42.31327" lon="2.59742">
        <ele>613.584</ele>
        <time>2012-03-31T10:43:40Z</time>
      </trkpt>
      <trkpt lat="42.31327" lon="2.5975">
        <ele>616.869</ele>
        <time>2012-03-31T10:43:53Z</time>
      </trkpt>
      <trkpt lat="42.31328" lon="2.59755">
        <ele>620.244</ele>
        <time>2012-03-31T10:44:09Z</time>
      </trkpt>
      <trkpt lat="42.31331" lon="2.59765">
        <ele>623.677</ele>
        <time>2012-03-31T10:44:23Z</time>
      </trkpt>
      <trkpt lat="42.3133" lon="2.59777">
        <ele>626.456</ele>
        <time>2012-03-31T10:44:35Z</time>
      </trkpt>
      <trkpt lat="42.3133" lon="2.59789">
        <ele>628.454</ele>
        <time>2012-03-31T10:44:42Z</time>
      </trkpt>
      <trkpt lat="42.3133" lon="2.598">
        <ele>631.756</ele>
        <time>2012-03-31T10:44:56Z</time>
      </trkpt>
      <trkpt lat="42.31335" lon="2.59833">
        <ele>634.611</ele>
        <time>2012-03-31T10:45:09Z</time>
      </trkpt>
      <trkpt lat="42.31332" lon="2.59859">
        <ele>638.007</ele>
        <time>2012-03-31T10:45:21Z</time>
      </trkpt>
      <trkpt lat="42.3133" lon="2.59869">
        <ele>640.987</ele>
        <time>2012-03-31T10:45:35Z</time>
      </trkpt>
      <trkpt lat="42.3133" lon="2.59919">
        <ele>643.721</ele>
        <time>2012-03-31T10:45:48Z</time>
      </trkpt>
      <trkpt lat="42.31328" lon="2.59936">
        <ele>647.111</ele>
        <time>2012-03-31T10:46:01Z</time>
      </trkpt>
      <trkpt lat="42.31332" lon="2.59958">
        <ele>650.526</ele>
        <time>2012-03-31T10:46:14Z</time>
      </trkpt>
      <trkpt lat="42.31332" lon="2.59972">
        <ele>653.821</ele>
        <time>2012-03-31T10:46:28Z</time>
      </trkpt>
      <trkpt lat="42.31332" lon="2.5998">
        <ele>657.224</ele>
        <time>2012-03-31T10:46:39Z</time>
      </trkpt>
      <trkpt lat="42.31335" lon="2.60009">
        <ele>660.143</ele>
        <time>2012-03-31T10:46:56Z</time>
      </trkpt>
      <trkpt lat="42.31337" lon="2.60026">
        <ele>663.535</ele>
        <time>2012-03-31T10:47:08Z</time>
      </trkpt>
      <trkpt lat="42.31335" lon="2.6004">
        <ele>666.886</ele>
        <time>2012-03-31T10:47:22Z</time>
      </trkpt>
      <trkpt lat="42.3134" lon="2.60056">
        <ele>669.714</ele>
        <time>2012-03-31T10:47:35Z</time>
      </trkpt>
      <trkpt lat="42.31342" lon="2.60064">
        <ele>672.607</ele>
        <time>2012-03-31T10:47:48Z</time>
      </trkpt>
      <trkpt lat="42.31349" lon="2.60077">
        <ele>675.915</ele>
        <time>2012-03-31T10:48:02Z</time>
      </trkpt>
      <trkpt lat="42.31354" lon="2.60096">
        <ele>679.389</ele>
        <time>2012-03-31T10:48:15Z</time>
      </trkpt>
      <trkpt lat="42.31362" lon="2.60119">
        <ele>682.769</ele>
        <time>2012-03-31T10:48:33Z</time>
      </trkpt>
      <trkpt lat="42.31369" lon="2.60125">
        <ele>685.694</ele>
        <time>2012-03-31T10:48:46Z</time>
      </trkpt>
      <trkpt lat="42.31375" lon="2.60139">
        <ele>688.959</ele>
        <time>2012-03-31T10:49:00Z</time>
      </trkpt>
      <trkpt lat="42.31379" lon="2.60146">
        <ele>691.812</ele>
        <time>2012-03-31T10:49:13Z</time>
      </trkpt>
      <trkpt lat="42.31388" lon="2.60175">
        <ele>695.281</ele>
        <time>2012-03-31T10:49:28Z</time>
      </trkpt>
      <trkpt lat="42.31393" lon="2.60181">
        <ele>698.122</ele>
        <time>2012-03-31T10:49:40Z</time>
      </trkpt>
      <trkpt lat="42.31397" lon="2.60186">
        <ele>701.462</ele>
        <time>2012-03-31T10:49:53Z</time>
      </trkpt>
      <trkpt lat="42.31397" lon="2.60186">
        <ele>704.308</ele>
        <time>2012-03-31T10:50:04Z</time>
      </trkpt>
      <trkpt lat="42.31398" lon="2.60188">
        <ele>707.707</ele>
        <time>2012-03-31T10:50:18Z</time>
      </trkpt>
      <trkpt lat="42.31402" lon="2.60218">
        <ele>711.014</ele>
        <time>2012-03-31T10:50:29Z</time>
      </trkpt>
      <trkpt lat="42.31409" lon="2.60244">
        <ele>713.938</ele>
        <time>2012-03-31T10:50:44Z</time>
      </trkpt>
      <trkpt lat="42.3141" lon="2.60261">
        <ele>717.348</ele>
        <time>2012-03-31T10:50:56Z</time>
      </trkpt>
      <trkpt lat="42.31412" lon="2.60281">
        <ele>719.263</ele>
        <time>2012-03-31T10:51:10Z</time>
      </trkpt>
      <trkpt lat="42.31412" lon="2.60283">
        <ele>719.778</ele>
        <time>2012-03-31T10:51:11Z</time>
      </trkpt>
      <trkpt lat="42.31399" lon="2.60319">
        <ele>719.221</ele>
        <time>2012-03-31T10:51:26Z</time>
      </trkpt>
      <trkpt lat="42.31384" lon="2.60348">
        <ele>717.37</ele>
        <time>2012-03-31T10:51:41Z</time>
      </trkpt>
      <trkpt lat="42.31384" lon="2.60352">
        <ele>717.356</ele>
        <time>2012-03-31T10:51:43Z</time>
      </trkpt>
      <trkpt lat="42.31387" lon="2.60365">
        <ele>718.759</ele>
        <time>2012-03-31T10:51:49Z</time>
      </trkpt>
      <trkpt lat="42.3138" lon="2.60403">
        <ele>719.214</ele>
        <time>2012-03-31T10:52:05Z</time>
      </trkpt>
      <trkpt lat="42.31373" lon="2.60442">
        <ele>720.207</ele>
        <time>2012-03-31T10:52:18Z</time>
      </trkpt>
      <trkpt lat="42.31371" lon="2.60463">
        <ele>721.687</ele>
        <time>2012-03-31T10:52:30Z</time>
      </trkpt>
      <trkpt lat="42.3137" lon="2.60487">
        <ele>725.091</ele>
        <time>2012-03-31T10:52:43Z</time>
      </trkpt>
      <trkpt lat="42.31365" lon="2.60519">
        <ele>728.351</ele>
        <time>2012-03-31T10:53:00Z</time>
      </trkpt>
      <trkpt lat="42.3136" lon="2.60543">
        <ele>731.286</ele>
        <time>2012-03-31T10:53:16Z</time>
      </trkpt>
      <trkpt lat="42.31355" lon="2.60565">
        <ele>734.681</ele>
        <time>2012-03-31T10:53:30Z</time>
      </trkpt>
      <trkpt lat="42.31349" lon="2.60583">
        <ele>738.024</ele>
        <time>2012-03-31T10:53:46Z</time>
      </trkpt>
      <trkpt lat="42.31341" lon="2.60601">
        <ele>739.923</ele>
        <time>2012-03-31T10:54:00Z</time>
      </trkpt>
      <trkpt lat="42.31341" lon="2.60603">
        <ele>740.496</ele>
        <time>2012-03-31T10:54:01Z</time>
      </trkpt>
      <trkpt lat="42.3133" lon="2.60629">
        <ele>741.831</ele>
        <time>2012-03-31T10:54:17Z</time>
      </trkpt>
      <trkpt lat="42.3133" lon="2.60631">
        <ele>741.324</ele>
        <time>2012-03-31T10:54:19Z</time>
      </trkpt>
      <trkpt lat="42.3133" lon="2.60648">
        <ele>744.207</ele>
        <time>2012-03-31T10:54:35Z</time>
      </trkpt>
      <trkpt lat="42.31332" lon="2.60667">
        <ele>747.181</ele>
        <time>2012-03-31T10:54:46Z</time>
      </trkpt>
      <trkpt lat="42.31338" lon="2.60678">
        <ele>750.525</ele>
        <time>2012-03-31T10:54:59Z</time>
      </trkpt>
      <trkpt lat="42.31339" lon="2.60692">
        <ele>753.335</ele>
        <time>2012-03-31T10:55:12Z</time>
      </trkpt>
      <trkpt lat="42.31338" lon="2.60703">
        <ele>756.25</ele>
        <time>2012-03-31T10:55:24Z</time>
      </trkpt>
      <trkpt lat="42.3134" lon="2.60716">
        <ele>759.635</ele>
        <time>2012-03-31T10:55:39Z</time>
      </trkpt>
      <trkpt lat="42.31345" lon="2.6073">
        <ele>761.578</ele>
        <time>2012-03-31T10:55:52Z</time>
      </trkpt>
      <trkpt lat="42.31348" lon="2.60741">
        <ele>762.537</ele>
        <time>2012-03-31T10:55:57Z</time>
      </trkpt>
      <trkpt lat="42.31359" lon="2.60763">
        <ele>762.585</ele>
        <time>2012-03-31T10:56:12Z</time>
      </trkpt>
      <trkpt lat="42.31371" lon="2.60795">
        <ele>765.889</ele>
        <time>2012-03-31T10:56:28Z</time>
      </trkpt>
      <trkpt lat="42.31376" lon="2.60817">
        <ele>768.717</ele>
        <time>2012-03-31T10:56:45Z</time>
      </trkpt>
      <trkpt lat="42.31382" lon="2.60837">
        <ele>771.607</ele>
        <time>2012-03-31T10:57:00Z</time>
      </trkpt>
      <trkpt lat="42.31388" lon="2.60858">
        <ele>775.03</ele>
        <time>2012-03-31T10:57:18Z</time>
      </trkpt>
      <trkpt lat="42.3139" lon="2.60869">
        <ele>778.314</ele>
        <time>2012-03-31T10:57:31Z</time>
      </trkpt>
      <trkpt lat="42.31394" lon="2.60889">
        <ele>781.294</ele>
        <time>2012-03-31T10:57:45Z</time>
      </trkpt>
      <trkpt lat="42.31398" lon="2.60901">
        <ele>784.669</ele>
        <time>2012-03-31T10:58:01Z</time>
      </trkpt>
      <trkpt lat="42.31404" lon="2.60918">
        <ele>787.584</ele>
        <time>2012-03-31T10:58:18Z</time>
      </trkpt>
      <trkpt lat="42.31409" lon="2.6095">
        <ele>790.867</ele>
        <time>2012-03-31T10:58:35Z</time>
      </trkpt>
      <trkpt lat="42.31415" lon="2.60966">
        <ele>793.786</ele>
        <time>2012-03-31T10:58:50Z</time>
      </trkpt>
      <trkpt lat="42.31423" lon="2.60981">
        <ele>796.699</ele>
        <time>2012-03-31T10:59:04Z</time>
      </trkpt>
      <trkpt lat="42.31432" lon="2.60997">
        <ele>799.507</ele>
        <time>2012-03-31T10:59:20Z</time>
      </trkpt>
      <trkpt lat="42.31437" lon="2.61005">
        <ele>802.827</ele>
        <time>2012-03-31T10:59:35Z</time>
      </trkpt>
      <trkpt lat="42.31451" lon="2.61032">
        <ele>804.307</ele>
        <time>2012-03-31T10:59:54Z</time>
      </trkpt>
      <trkpt lat="42.31469" lon="2.61028">
        <ele>807.251</ele>
        <time>2012-03-31T11:00:10Z</time>
      </trkpt>
      <trkpt lat="42.31483" lon="2.61002">
        <ele>810.515</ele>
        <time>2012-03-31T11:00:28Z</time>
      </trkpt>
      <trkpt lat="42.31498" lon="2.60983">
        <ele>813.415</ele>
        <time>2012-03-31T11:00:46Z</time>
      </trkpt>
      <trkpt lat="42.31515" lon="2.60969">
        <ele>816.86</ele>
        <time>2012-03-31T11:01:01Z</time>
      </trkpt>
      <trkpt lat="42.31517" lon="2.60972">
        <ele>819.795</ele>
        <time>2012-03-31T11:01:16Z</time>
      </trkpt>
      <trkpt lat="42.31516" lon="2.6098">
        <ele>822.618</ele>
        <time>2012-03-31T11:01:29Z</time>
      </trkpt>
      <trkpt lat="42.31513" lon="2.60992">
        <ele>825.927</ele>
        <time>2012-03-31T11:01:42Z</time>
      </trkpt>
      <trkpt lat="42.31513" lon="2.61017">
        <ele>829.394</ele>
        <time>2012-03-31T11:01:55Z</time>
      </trkpt>
      <trkpt lat="42.31511" lon="2.61043">
        <ele>832.257</ele>
        <time>2012-03-31T11:02:12Z</time>
      </trkpt>
      <trkpt lat="42.31506" lon="2.61064">
        <ele>835.522</ele>
        <time>2012-03-31T11:02:27Z</time>
      </trkpt>
      <trkpt lat="42.31505" lon="2.61086">
        <ele>838.407</ele>
        <time>2012-03-31T11:02:44Z</time>
      </trkpt>
      <trkpt lat="42.31505" lon="2.61096">
        <ele>841.361</ele>
        <time>2012-03-31T11:02:58Z</time>
      </trkpt>
      <trkpt lat="42.31503" lon="2.61124">
        <ele>844.275</ele>
        <time>2012-03-31T11:03:12Z</time>
      </trkpt>
      <trkpt lat="42.31501" lon="2.61137">
        <ele>847.165</ele>
        <time>2012-03-31T11:03:27Z</time>
      </trkpt>
      <trkpt lat="42.31491" lon="2.61163">
        <ele>850.49</ele>
        <time>2012-03-31T11:03:42Z</time>
      </trkpt>
      <trkpt lat="42.3149" lon="2.61182">
        <ele>853.315</ele>
        <time>2012-03-31T11:03:56Z</time>
      </trkpt>
      <trkpt lat="42.3149" lon="2.61187">
        <ele>854.348</ele>
        <time>2012-03-31T11:04:00Z</time>
      </trkpt>
      <trkpt lat="42.31489" lon="2.61189">
        <ele>855.767</ele>
        <time>2012-03-31T11:04:03Z</time>
      </trkpt>
      <trkpt lat="42.31488" lon="2.61198">
        <ele>856.763</ele>
        <time>2012-03-31T11:04:10Z</time>
      </trkpt>
      <trkpt lat="42.31492" lon="2.61227">
        <ele>853.844</ele>
        <time>2012-03-31T11:04:21Z</time>
      </trkpt>
      <trkpt lat="42.3151" lon="2.61274">
        <ele>852.418</ele>
        <time>2012-03-31T11:04:40Z</time>
      </trkpt>
      <trkpt lat="42.31517" lon="2.61286">
        <ele>855.707</ele>
        <time>2012-03-31T11:04:51Z</time>
      </trkpt>
      <trkpt lat="42.31526" lon="2.61294">
        <ele>859.178</ele>
        <time>2012-03-31T11:05:03Z</time>
      </trkpt>
      <trkpt lat="42.3153" lon="2.61299">
        <ele>862.082</ele>
        <time>2012-03-31T11:05:14Z</time>
      </trkpt>
      <trkpt lat="42.3154" lon="2.61312">
        <ele>864.812</ele>
        <time>2012-03-31T11:05:26Z</time>
      </trkpt>
      <trkpt lat="42.3155" lon="2.6132">
        <ele>868.287</ele>
        <time>2012-03-31T11:05:38Z</time>
      </trkpt>
      <trkpt lat="42.31555" lon="2.6133">
        <ele>871.122</ele>
        <time>2012-03-31T11:05:51Z</time>
      </trkpt>
      <trkpt lat="42.31563" lon="2.61355">
        <ele>874.085</ele>
        <time>2012-03-31T11:06:05Z</time>
      </trkpt>
      <trkpt lat="42.3157" lon="2.61367">
        <ele>877.324</ele>
        <time>2012-03-31T11:06:18Z</time>
      </trkpt>
      <trkpt lat="42.31577" lon="2.61386">
        <ele>879.324</ele>
        <time>2012-03-31T11:06:34Z</time>
      </trkpt>
      <trkpt lat="42.31589" lon="2.61415">
        <ele>882.604</ele>
        <time>2012-03-31T11:06:51Z</time>
      </trkpt>
      <trkpt lat="42.31599" lon="2.61432">
        <ele>887.014</ele>
        <time>2012-03-31T11:07:08Z</time>
      </trkpt>
      <trkpt lat="42.31608" lon="2.6145">
        <ele>889.807</ele>
        <time>2012-03-31T11:07:28Z</time>
      </trkpt>
      <trkpt lat="42.31624" lon="2.61462">
        <ele>893.234</ele>
        <time>2012-03-31T11:07:40Z</time>
      </trkpt>
      <trkpt lat="42.31627" lon="2.61464">
        <ele>896.118</ele>
        <time>2012-03-31T11:07:56Z</time>
      </trkpt>
      <trkpt lat="42.3165" lon="2.6147">
        <ele>899.088</ele>
        <time>2012-03-31T11:08:12Z</time>
      </trkpt>
      <trkpt lat="42.31665" lon="2.61495">
        <ele>902.363</ele>
        <time>2012-03-31T11:08:28Z</time>
      </trkpt>
      <trkpt lat="42.31675" lon="2.6151">
        <ele>904.758</ele>
        <time>2012-03-31T11:08:39Z</time>
      </trkpt>
      <trkpt lat="42.3169" lon="2.61529">
        <ele>906.781</ele>
        <time>2012-03-31T11:08:59Z</time>
      </trkpt>
      <trkpt lat="42.31712" lon="2.61538">
        <ele>907.18</ele>
        <time>2012-03-31T11:09:16Z</time>
      </trkpt>
      <trkpt lat="42.31716" lon="2.61536">
        <ele>910.526</ele>
        <time>2012-03-31T11:09:30Z</time>
      </trkpt>
      <trkpt lat="42.31757" lon="2.61546">
        <ele>906.747</ele>
        <time>2012-03-31T11:09:44Z</time>
      </trkpt>
      <trkpt lat="42.31791" lon="2.61564">
        <ele>905.211</ele>
        <time>2012-03-31T11:09:59Z</time>
      </trkpt>
      <trkpt lat="42.31806" lon="2.61574">
        <ele>905.707</ele>
        <time>2012-03-31T11:10:08Z</time>
      </trkpt>
      <trkpt lat="42.31816" lon="2.61587">
        <ele>906.734</ele>
        <time>2012-03-31T11:10:16Z</time>
      </trkpt>
      <trkpt lat="42.31813" lon="2.61628">
        <ele>907.698</ele>
        <time>2012-03-31T11:10:34Z</time>
      </trkpt>
      <trkpt lat="42.31812" lon="2.61664">
        <ele>909.178</ele>
        <time>2012-03-31T11:10:50Z</time>
      </trkpt>
      <trkpt lat="42.31816" lon="2.61688">
        <ele>911.013</ele>
        <time>2012-03-31T11:10:57Z</time>
      </trkpt>
      <trkpt lat="42.31835" lon="2.61711">
        <ele>910.568</ele>
        <time>2012-03-31T11:11:15Z</time>
      </trkpt>
      <trkpt lat="42.31865" lon="2.61724">
        <ele>909.521</ele>
        <time>2012-03-31T11:11:31Z</time>
      </trkpt>
      <trkpt lat="42.31891" lon="2.61744">
        <ele>907.66</ele>
        <time>2012-03-31T11:11:45Z</time>
      </trkpt>
      <trkpt lat="42.31928" lon="2.61758">
        <ele>903.897</ele>
        <time>2012-03-31T11:12:03Z</time>
      </trkpt>
      <trkpt lat="42.31929" lon="2.61759">
        <ele>903.823</ele>
        <time>2012-03-31T11:12:04Z</time>
      </trkpt>
      <trkpt lat="42.31936" lon="2.61764">
        <ele>900.925</ele>
        <time>2012-03-31T11:12:09Z</time>
      </trkpt>
      <trkpt lat="42.31935" lon="2.61767">
        <ele>899.907</ele>
        <time>2012-03-31T11:12:11Z</time>
      </trkpt>
      <trkpt lat="42.31938" lon="2.61776">
        <ele>896.621</ele>
        <time>2012-03-31T11:12:18Z</time>
      </trkpt>
      <trkpt lat="42.31937" lon="2.61781">
        <ele>893.765</ele>
        <time>2012-03-31T11:12:24Z</time>
      </trkpt>
      <trkpt lat="42.31936" lon="2.61782">
        <ele>893.235</ele>
        <time>2012-03-31T11:12:25Z</time>
      </trkpt>
      <trkpt lat="42.31938" lon="2.61795">
        <ele>889.88</ele>
        <time>2012-03-31T11:12:32Z</time>
      </trkpt>
      <trkpt lat="42.3194" lon="2.61801">
        <ele>891.345</ele>
        <time>2012-03-31T11:12:46Z</time>
      </trkpt>
      <trkpt lat="42.31939" lon="2.6181">
        <ele>893.228</ele>
        <time>2012-03-31T11:12:53Z</time>
      </trkpt>
      <trkpt lat="42.31934" lon="2.61835">
        <ele>896.697</ele>
        <time>2012-03-31T11:13:07Z</time>
      </trkpt>
      <trkpt lat="42.31926" lon="2.61858">
        <ele>899.919</ele>
        <time>2012-03-31T11:13:23Z</time>
      </trkpt>
      <trkpt lat="42.3192" lon="2.61866">
        <ele>901.909</ele>
        <time>2012-03-31T11:13:32Z</time>
      </trkpt>
      <trkpt lat="42.31912" lon="2.6188">
        <ele>904.319</ele>
        <time>2012-03-31T11:13:46Z</time>
      </trkpt>
      <trkpt lat="42.31906" lon="2.6189">
        <ele>905.207</ele>
        <time>2012-03-31T11:13:54Z</time>
      </trkpt>
      <trkpt lat="42.31897" lon="2.6191">
        <ele>908.653</ele>
        <time>2012-03-31T11:14:09Z</time>
      </trkpt>
      <trkpt lat="42.31888" lon="2.61924">
        <ele>911.537</ele>
        <time>2012-03-31T11:14:25Z</time>
      </trkpt>
      <trkpt lat="42.31875" lon="2.61937">
        <ele>914.867</ele>
        <time>2012-03-31T11:14:40Z</time>
      </trkpt>
      <trkpt lat="42.31873" lon="2.61941">
        <ele>917.782</ele>
        <time>2012-03-31T11:14:53Z</time>
      </trkpt>
      <trkpt lat="42.3187" lon="2.61957">
        <ele>921.147</ele>
        <time>2012-03-31T11:15:04Z</time>
      </trkpt>
      <trkpt lat="42.31865" lon="2.61964">
        <ele>923.01</ele>
        <time>2012-03-31T11:15:12Z</time>
      </trkpt>
      <trkpt lat="42.31867" lon="2.61976">
        <ele>925.969</ele>
        <time>2012-03-31T11:15:25Z</time>
      </trkpt>
      <trkpt lat="42.31868" lon="2.61981">
        <ele>926.961</ele>
        <time>2012-03-31T11:15:28Z</time>
      </trkpt>
      <trkpt lat="42.31872" lon="2.62003">
        <ele>928.821</ele>
        <time>2012-03-31T11:15:40Z</time>
      </trkpt>
      <trkpt lat="42.31875" lon="2.62005">
        <ele>929.313</ele>
        <time>2012-03-31T11:15:43Z</time>
      </trkpt>
      <trkpt lat="42.31891" lon="2.62007">
        <ele>932.607</ele>
        <time>2012-03-31T11:15:57Z</time>
      </trkpt>
      <trkpt lat="42.31903" lon="2.62001">
        <ele>935.528</ele>
        <time>2012-03-31T11:16:13Z</time>
      </trkpt>
      <trkpt lat="42.31906" lon="2.62003">
        <ele>937.432</ele>
        <time>2012-03-31T11:16:23Z</time>
      </trkpt>
      <trkpt lat="42.31911" lon="2.62025">
        <ele>937.492</ele>
        <time>2012-03-31T11:16:34Z</time>
      </trkpt>
      <trkpt lat="42.31917" lon="2.62034">
        <ele>937.937</ele>
        <time>2012-03-31T11:16:40Z</time>
      </trkpt>
      <trkpt lat="42.31924" lon="2.62042">
        <ele>938.992</ele>
        <time>2012-03-31T11:16:48Z</time>
      </trkpt>
      <trkpt lat="42.31932" lon="2.62068">
        <ele>942.285</ele>
        <time>2012-03-31T11:17:02Z</time>
      </trkpt>
      <trkpt lat="42.31935" lon="2.62072">
        <ele>942.744</ele>
        <time>2012-03-31T11:17:05Z</time>
      </trkpt>
      <trkpt lat="42.31941" lon="2.62078">
        <ele>947.058</ele>
        <time>2012-03-31T11:17:12Z</time>
      </trkpt>
      <trkpt lat="42.31942" lon="2.62078">
        <ele>946.152</ele>
        <time>2012-03-31T11:17:13Z</time>
      </trkpt>
      <trkpt lat="42.31943" lon="2.62079">
        <ele>946.117</ele>
        <time>2012-03-31T11:17:14Z</time>
      </trkpt>
      <trkpt lat="42.31945" lon="2.6208">
        <ele>946.607</ele>
        <time>2012-03-31T11:17:16Z</time>
      </trkpt>
      <trkpt lat="42.31948" lon="2.62082">
        <ele>947.027</ele>
        <time>2012-03-31T11:17:18Z</time>
      </trkpt>
      <trkpt lat="42.31963" lon="2.62089">
        <ele>949.981</ele>
        <time>2012-03-31T11:17:32Z</time>
      </trkpt>
      <trkpt lat="42.31964" lon="2.6209">
        <ele>949.911</ele>
        <time>2012-03-31T11:17:34Z</time>
      </trkpt>
      <trkpt lat="42.31973" lon="2.62111">
        <ele>949.956</ele>
        <time>2012-03-31T11:17:50Z</time>
      </trkpt>
      <trkpt lat="42.31992" lon="2.62146">
        <ele>947.591</ele>
        <time>2012-03-31T11:18:03Z</time>
      </trkpt>
      <trkpt lat="42.32014" lon="2.62186">
        <ele>946.144</ele>
        <time>2012-03-31T11:18:16Z</time>
      </trkpt>
      <trkpt lat="42.32034" lon="2.62224">
        <ele>946.113</ele>
        <time>2012-03-31T11:18:30Z</time>
      </trkpt>
      <trkpt lat="42.32041" lon="2.62246">
        <ele>945.149</ele>
        <time>2012-03-31T11:18:38Z</time>
      </trkpt>
      <trkpt lat="42.32067" lon="2.62281">
        <ele>946.602</ele>
        <time>2012-03-31T11:18:53Z</time>
      </trkpt>
      <trkpt lat="42.3208" lon="2.62305">
        <ele>945.622</ele>
        <time>2012-03-31T11:19:05Z</time>
      </trkpt>
      <trkpt lat="42.32082" lon="2.62309">
        <ele>945.607</ele>
        <time>2012-03-31T11:19:07Z</time>
      </trkpt>
      <trkpt lat="42.32088" lon="2.62323">
        <ele>945.656</ele>
        <time>2012-03-31T11:19:11Z</time>
      </trkpt>
      <trkpt lat="42.32092" lon="2.62337">
        <ele>944.67</ele>
        <time>2012-03-31T11:19:15Z</time>
      </trkpt>
      <trkpt lat="42.32098" lon="2.62361">
        <ele>944.27</ele>
        <time>2012-03-31T11:19:27Z</time>
      </trkpt>
      <trkpt lat="42.32107" lon="2.62375">
        <ele>946.185</ele>
        <time>2012-03-31T11:19:38Z</time>
      </trkpt>
      <trkpt lat="42.32107" lon="2.6238">
        <ele>946.63</ele>
        <time>2012-03-31T11:19:41Z</time>
      </trkpt>
      <trkpt lat="42.32116" lon="2.62396">
        <ele>947.593</ele>
        <time>2012-03-31T11:19:52Z</time>
      </trkpt>
      <trkpt lat="42.32117" lon="2.62409">
        <ele>947.052</ele>
        <time>2012-03-31T11:19:58Z</time>
      </trkpt>
      <trkpt lat="42.32117" lon="2.62432">
        <ele>944.659</ele>
        <time>2012-03-31T11:20:07Z</time>
      </trkpt>
      <trkpt lat="42.32117" lon="2.62444">
        <ele>944.203</ele>
        <time>2012-03-31T11:20:11Z</time>
      </trkpt>
      <trkpt lat="42.32121" lon="2.62466">
        <ele>945.123</ele>
        <time>2012-03-31T11:20:21Z</time>
      </trkpt>
      <trkpt lat="42.32122" lon="2.62501">
        <ele>943.207</ele>
        <time>2012-03-31T11:20:32Z</time>
      </trkpt>
      <trkpt lat="42.32122" lon="2.62508">
        <ele>943.257</ele>
        <time>2012-03-31T11:20:34Z</time>
      </trkpt>
      <trkpt lat="42.32127" lon="2.6253">
        <ele>945.681</ele>
        <time>2012-03-31T11:20:46Z</time>
      </trkpt>
      <trkpt lat="42.32126" lon="2.62532">
        <ele>945.111</ele>
        <time>2012-03-31T11:20:47Z</time>
      </trkpt>
      <trkpt lat="42.32126" lon="2.62542">
        <ele>945.186</ele>
        <time>2012-03-31T11:20:52Z</time>
      </trkpt>
      <trkpt lat="42.3213" lon="2.62554">
        <ele>947.571</ele>
        <time>2012-03-31T11:21:04Z</time>
      </trkpt>
      <trkpt lat="42.3213" lon="2.62554">
        <ele>948.014</ele>
        <time>2012-03-31T11:21:05Z</time>
      </trkpt>
      <trkpt lat="42.32138" lon="2.62577">
        <ele>948.053</ele>
        <time>2012-03-31T11:21:13Z</time>
      </trkpt>
      <trkpt lat="42.32145" lon="2.62592">
        <ele>946.113</ele>
        <time>2012-03-31T11:21:18Z</time>
      </trkpt>
      <trkpt lat="42.32151" lon="2.6261">
        <ele>944.643</ele>
        <time>2012-03-31T11:21:23Z</time>
      </trkpt>
      <trkpt lat="42.32156" lon="2.62617">
        <ele>940.307</ele>
        <time>2012-03-31T11:21:30Z</time>
      </trkpt>
      <trkpt lat="42.32157" lon="2.62619">
        <ele>939.807</ele>
        <time>2012-03-31T11:21:31Z</time>
      </trkpt>
      <trkpt lat="42.32162" lon="2.62627">
        <ele>936.513</ele>
        <time>2012-03-31T11:21:35Z</time>
      </trkpt>
      <trkpt lat="42.32164" lon="2.62629">
        <ele>935.527</ele>
        <time>2012-03-31T11:21:37Z</time>
      </trkpt>
      <trkpt lat="42.32167" lon="2.62631">
        <ele>933.147</ele>
        <time>2012-03-31T11:21:40Z</time>
      </trkpt>
      <trkpt lat="42.3217" lon="2.62639">
        <ele>931.272</ele>
        <time>2012-03-31T11:21:44Z</time>
      </trkpt>
      <trkpt lat="42.32176" lon="2.62648">
        <ele>927.847</ele>
        <time>2012-03-31T11:21:48Z</time>
      </trkpt>
      <trkpt lat="42.32195" lon="2.62658">
        <ele>925.44</ele>
        <time>2012-03-31T11:21:55Z</time>
      </trkpt>
      <trkpt lat="42.32202" lon="2.62682">
        <ele>926.499</ele>
        <time>2012-03-31T11:22:11Z</time>
      </trkpt>
      <trkpt lat="42.32201" lon="2.62683">
        <ele>927.824</ele>
        <time>2012-03-31T11:22:14Z</time>
      </trkpt>
      <trkpt lat="42.32199" lon="2.62684">
        <ele>928.304</ele>
        <time>2012-03-31T11:22:18Z</time>
      </trkpt>
      <trkpt lat="42.3219" lon="2.62683">
        <ele>931.714</ele>
        <time>2012-03-31T11:22:28Z</time>
      </trkpt>
      <trkpt lat="42.32184" lon="2.62687">
        <ele>932.607</ele>
        <time>2012-03-31T11:22:37Z</time>
      </trkpt>
      <trkpt lat="42.32184" lon="2.62693">
        <ele>934.574</ele>
        <time>2012-03-31T11:22:43Z</time>
      </trkpt>
      <trkpt lat="42.3218" lon="2.62698">
        <ele>937.478</ele>
        <time>2012-03-31T11:22:50Z</time>
      </trkpt>
      <trkpt lat="42.32174" lon="2.627">
        <ele>939.498</ele>
        <time>2012-03-31T11:23:04Z</time>
      </trkpt>
      <trkpt lat="42.32173" lon="2.62709">
        <ele>943.233</ele>
        <time>2012-03-31T11:23:15Z</time>
      </trkpt>
      <trkpt lat="42.32174" lon="2.62715">
        <ele>944.258</ele>
        <time>2012-03-31T11:23:29Z</time>
      </trkpt>
      <trkpt lat="42.32168" lon="2.62719">
        <ele>947.581</ele>
        <time>2012-03-31T11:23:38Z</time>
      </trkpt>
      <trkpt lat="42.32166" lon="2.62726">
        <ele>950.46</ele>
        <time>2012-03-31T11:23:50Z</time>
      </trkpt>
      <trkpt lat="42.32153" lon="2.62736">
        <ele>951.819</ele>
        <time>2012-03-31T11:24:04Z</time>
      </trkpt>
      <trkpt lat="42.32131" lon="2.6274">
        <ele>953.309</ele>
        <time>2012-03-31T11:24:21Z</time>
      </trkpt>
      <trkpt lat="42.32127" lon="2.62741">
        <ele>953.819</ele>
        <time>2012-03-31T11:24:23Z</time>
      </trkpt>
      <trkpt lat="42.32116" lon="2.62749">
        <ele>951.807</ele>
        <time>2012-03-31T11:24:29Z</time>
      </trkpt>
      <trkpt lat="42.3208" lon="2.62762">
        <ele>953.373</ele>
        <time>2012-03-31T11:24:45Z</time>
      </trkpt>
      <trkpt lat="42.32075" lon="2.6277">
        <ele>956.777</ele>
        <time>2012-03-31T11:24:55Z</time>
      </trkpt>
      <trkpt lat="42.32062" lon="2.62785">
        <ele>959.577</ele>
        <time>2012-03-31T11:25:07Z</time>
      </trkpt>
      <trkpt lat="42.32058" lon="2.62796">
        <ele>961.572</ele>
        <time>2012-03-31T11:25:14Z</time>
      </trkpt>
      <trkpt lat="42.32059" lon="2.62799">
        <ele>962.997</ele>
        <time>2012-03-31T11:25:17Z</time>
      </trkpt>
      <trkpt lat="42.32059" lon="2.628">
        <ele>962.94</ele>
        <time>2012-03-31T11:25:18Z</time>
      </trkpt>
      <trkpt lat="42.32065" lon="2.62811">
        <ele>965.829</ele>
        <time>2012-03-31T11:25:31Z</time>
      </trkpt>
      <trkpt lat="42.32064" lon="2.62815">
        <ele>967.762</ele>
        <time>2012-03-31T11:25:37Z</time>
      </trkpt>
      <trkpt lat="42.32063" lon="2.62818">
        <ele>968.283</ele>
        <time>2012-03-31T11:25:39Z</time>
      </trkpt>
      <trkpt lat="42.32063" lon="2.62823">
        <ele>968.711</ele>
        <time>2012-03-31T11:25:43Z</time>
      </trkpt>
      <trkpt lat="42.32062" lon="2.62835">
        <ele>971.107</ele>
        <time>2012-03-31T11:25:55Z</time>
      </trkpt>
      <trkpt lat="42.32059" lon="2.62857">
        <ele>973.048</ele>
        <time>2012-03-31T11:26:11Z</time>
      </trkpt>
      <trkpt lat="42.32064" lon="2.62856">
        <ele>976.422</ele>
        <time>2012-03-31T11:26:24Z</time>
      </trkpt>
      <trkpt lat="42.32072" lon="2.62846">
        <ele>979.232</ele>
        <time>2012-03-31T11:26:38Z</time>
      </trkpt>
      <trkpt lat="42.32082" lon="2.62839">
        <ele>982.687</ele>
        <time>2012-03-31T11:26:51Z</time>
      </trkpt>
      <trkpt lat="42.32086" lon="2.62829">
        <ele>984.112</ele>
        <time>2012-03-31T11:26:57Z</time>
      </trkpt>
      <trkpt lat="42.32088" lon="2.62827">
        <ele>984.115</ele>
        <time>2012-03-31T11:26:59Z</time>
      </trkpt>
      <trkpt lat="42.32104" lon="2.6282">
        <ele>986.934</ele>
        <time>2012-03-31T11:27:13Z</time>
      </trkpt>
      <trkpt lat="42.32106" lon="2.62822">
        <ele>988.469</ele>
        <time>2012-03-31T11:27:18Z</time>
      </trkpt>
      <trkpt lat="42.321" lon="2.62836">
        <ele>991.304</ele>
        <time>2012-03-31T11:27:32Z</time>
      </trkpt>
      <trkpt lat="42.32099" lon="2.62845">
        <ele>993.724</ele>
        <time>2012-03-31T11:27:44Z</time>
      </trkpt>
      <trkpt lat="42.32099" lon="2.62853">
        <ele>997.007</ele>
        <time>2012-03-31T11:27:55Z</time>
      </trkpt>
      <trkpt lat="42.32097" lon="2.62866">
        <ele>999.968</ele>
        <time>2012-03-31T11:28:05Z</time>
      </trkpt>
      <trkpt lat="42.32095" lon="2.62873">
        <ele>1003.382</ele>
        <time>2012-03-31T11:28:16Z</time>
      </trkpt>
      <trkpt lat="42.32095" lon="2.62883">
        <ele>1006.652</ele>
        <time>2012-03-31T11:28:27Z</time>
      </trkpt>
      <trkpt lat="42.32095" lon="2.62896">
        <ele>1009.077</ele>
        <time>2012-03-31T11:28:39Z</time>
      </trkpt>
      <trkpt lat="42.32092" lon="2.6291">
        <ele>1012.452</ele>
        <time>2012-03-31T11:28:52Z</time>
      </trkpt>
      <trkpt lat="42.32092" lon="2.6292">
        <ele>1015.375</ele>
        <time>2012-03-31T11:29:03Z</time>
      </trkpt>
      <trkpt lat="42.3209" lon="2.62929">
        <ele>1018.714</ele>
        <time>2012-03-31T11:29:17Z</time>
      </trkpt>
      <trkpt lat="42.3209" lon="2.62929">
        <ele>1019.631</ele>
        <time>2012-03-31T11:29:19Z</time>
      </trkpt>
      <trkpt lat="42.32092" lon="2.62944">
        <ele>1023.061</ele>
        <time>2012-03-31T11:29:32Z</time>
      </trkpt>
      <trkpt lat="42.32089" lon="2.62954">
        <ele>1026.307</ele>
        <time>2012-03-31T11:29:47Z</time>
      </trkpt>
      <trkpt lat="42.32088" lon="2.62956">
        <ele>1029.207</ele>
        <time>2012-03-31T11:29:57Z</time>
      </trkpt>
      <trkpt lat="42.32082" lon="2.62981">
        <ele>1032.645</ele>
        <time>2012-03-31T11:30:13Z</time>
      </trkpt>
      <trkpt lat="42.32078" lon="2.63004">
        <ele>1035.539</ele>
        <time>2012-03-31T11:30:30Z</time>
      </trkpt>
      <trkpt lat="42.32075" lon="2.63019">
        <ele>1037.429</ele>
        <time>2012-03-31T11:30:44Z</time>
      </trkpt>
      <trkpt lat="42.32074" lon="2.63026">
        <ele>1040.884</ele>
        <time>2012-03-31T11:30:55Z</time>
      </trkpt>
      <trkpt lat="42.32078" lon="2.63049">
        <ele>1043.749</ele>
        <time>2012-03-31T11:31:08Z</time>
      </trkpt>
      <trkpt lat="42.32079" lon="2.63059">
        <ele>1048.032</ele>
        <time>2012-03-31T11:31:19Z</time>
      </trkpt>
      <trkpt lat="42.32078" lon="2.6307">
        <ele>1049.931</ele>
        <time>2012-03-31T11:31:33Z</time>
      </trkpt>
      <trkpt lat="42.32078" lon="2.63078">
        <ele>1052.835</ele>
        <time>2012-03-31T11:31:47Z</time>
      </trkpt>
      <trkpt lat="42.3208" lon="2.63096">
        <ele>1056.286</ele>
        <time>2012-03-31T11:32:00Z</time>
      </trkpt>
      <trkpt lat="42.3208" lon="2.63114">
        <ele>1059.014</ele>
        <time>2012-03-31T11:32:12Z</time>
      </trkpt>
      <trkpt lat="42.32081" lon="2.63119">
        <ele>1061.007</ele>
        <time>2012-03-31T11:32:19Z</time>
      </trkpt>
      <trkpt lat="42.32083" lon="2.63126">
        <ele>1064.385</ele>
        <time>2012-03-31T11:32:30Z</time>
      </trkpt>
      <trkpt lat="42.32081" lon="2.63135">
        <ele>1067.759</ele>
        <time>2012-03-31T11:32:44Z</time>
      </trkpt>
      <trkpt lat="42.32083" lon="2.6314">
        <ele>1070.679</ele>
        <time>2012-03-31T11:32:55Z</time>
      </trkpt>
      <trkpt lat="42.32088" lon="2.63143">
        <ele>1073.584</ele>
        <time>2012-03-31T11:33:08Z</time>
      </trkpt>
      <trkpt lat="42.32087" lon="2.63151">
        <ele>1076.899</ele>
        <time>2012-03-31T11:33:20Z</time>
      </trkpt>
      <trkpt lat="42.32085" lon="2.63161">
        <ele>1080.292</ele>
        <time>2012-03-31T11:33:38Z</time>
      </trkpt>
      <trkpt lat="42.32086" lon="2.63175">
        <ele>1083.591</ele>
        <time>2012-03-31T11:33:51Z</time>
      </trkpt>
      <trkpt lat="42.3208" lon="2.63192">
        <ele>1086.916</ele>
        <time>2012-03-31T11:34:06Z</time>
      </trkpt>
      <trkpt lat="42.32079" lon="2.63202">
        <ele>1089.876</ele>
        <time>2012-03-31T11:34:17Z</time>
      </trkpt>
      <trkpt lat="42.32079" lon="2.63214">
        <ele>1093.213</ele>
        <time>2012-03-31T11:34:31Z</time>
      </trkpt>
      <trkpt lat="42.32076" lon="2.63233">
        <ele>1096.007</ele>
        <time>2012-03-31T11:34:46Z</time>
      </trkpt>
      <trkpt lat="42.32075" lon="2.63252">
        <ele>1099.473</ele>
        <time>2012-03-31T11:34:59Z</time>
      </trkpt>
      <trkpt lat="42.3207" lon="2.63263">
        <ele>1102.827</ele>
        <time>2012-03-31T11:35:13Z</time>
      </trkpt>
      <trkpt lat="42.32071" lon="2.63272">
        <ele>1105.747</ele>
        <time>2012-03-31T11:35:21Z</time>
      </trkpt>
      <trkpt lat="42.32072" lon="2.63273">
        <ele>1105.252</ele>
        <time>2012-03-31T11:35:22Z</time>
      </trkpt>
      <trkpt lat="42.32074" lon="2.63285">
        <ele>1108.177</ele>
        <time>2012-03-31T11:35:34Z</time>
      </trkpt>
      <trkpt lat="42.32071" lon="2.63301">
        <ele>1111.47</ele>
        <time>2012-03-31T11:35:49Z</time>
      </trkpt>
      <trkpt lat="42.32071" lon="2.63315">
        <ele>1114.379</ele>
        <time>2012-03-31T11:36:01Z</time>
      </trkpt>
      <trkpt lat="42.32068" lon="2.63323">
        <ele>1117.775</ele>
        <time>2012-03-31T11:36:15Z</time>
      </trkpt>
      <trkpt lat="42.32069" lon="2.63324">
        <ele>1118.628</ele>
        <time>2012-03-31T11:36:17Z</time>
      </trkpt>
      <trkpt lat="42.32073" lon="2.63335">
        <ele>1121.52</ele>
        <time>2012-03-31T11:36:30Z</time>
      </trkpt>
      <trkpt lat="42.32076" lon="2.63344">
        <ele>1124.907</ele>
        <time>2012-03-31T11:36:43Z</time>
      </trkpt>
      <trkpt lat="42.32078" lon="2.63349">
        <ele>1127.349</ele>
        <time>2012-03-31T11:36:59Z</time>
      </trkpt>
      <trkpt lat="42.32069" lon="2.63358">
        <ele>1130.263</ele>
        <time>2012-03-31T11:37:17Z</time>
      </trkpt>
      <trkpt lat="42.32058" lon="2.63374">
        <ele>1133.173</ele>
        <time>2012-03-31T11:37:28Z</time>
      </trkpt>
      <trkpt lat="42.32046" lon="2.63387">
        <ele>1133.558</ele>
        <time>2012-03-31T11:37:34Z</time>
      </trkpt>
      <trkpt lat="42.32029" lon="2.63403">
        <ele>1135.563</ele>
        <time>2012-03-31T11:37:47Z</time>
      </trkpt>
      <trkpt lat="42.32015" lon="2.63409">
        <ele>1137.936</ele>
        <time>2012-03-31T11:37:58Z</time>
      </trkpt>
      <trkpt lat="42.32003" lon="2.63426">
        <ele>1140.715</ele>
        <time>2012-03-31T11:38:10Z</time>
      </trkpt>
      <trkpt lat="42.32002" lon="2.63427">
        <ele>1141.285</ele>
        <time>2012-03-31T11:38:12Z</time>
      </trkpt>
      <trkpt lat="42.31984" lon="2.63455">
        <ele>1141.289</ele>
        <time>2012-03-31T11:38:24Z</time>
      </trkpt>
      <trkpt lat="42.31972" lon="2.63467">
        <ele>1140.717</ele>
        <time>2012-03-31T11:38:31Z</time>
      </trkpt>
      <trkpt lat="42.31955" lon="2.63479">
        <ele>1141.207</ele>
        <time>2012-03-31T11:38:40Z</time>
      </trkpt>
      <trkpt lat="42.31941" lon="2.63499">
        <ele>1140.72</ele>
        <time>2012-03-31T11:38:50Z</time>
      </trkpt>
      <trkpt lat="42.31939" lon="2.63501">
        <ele>1140.784</ele>
        <time>2012-03-31T11:38:51Z</time>
      </trkpt>
      <trkpt lat="42.31931" lon="2.63515">
        <ele>1140.734</ele>
        <time>2012-03-31T11:38:56Z</time>
      </trkpt>
      <trkpt lat="42.31921" lon="2.63527">
        <ele>1140.749</ele>
        <time>2012-03-31T11:39:02Z</time>
      </trkpt>
      <trkpt lat="42.31902" lon="2.63535">
        <ele>1139.814</ele>
        <time>2012-03-31T11:39:09Z</time>
      </trkpt>
      <trkpt lat="42.31895" lon="2.63539">
        <ele>1139.867</ele>
        <time>2012-03-31T11:39:12Z</time>
      </trkpt>
      <trkpt lat="42.31888" lon="2.63547">
        <ele>1139.866</ele>
        <time>2012-03-31T11:39:16Z</time>
      </trkpt>
      <trkpt lat="42.31872" lon="2.63574">
        <ele>1139.319</ele>
        <time>2012-03-31T11:39:26Z</time>
      </trkpt>
      <trkpt lat="42.3186" lon="2.63588">
        <ele>1141.709</ele>
        <time>2012-03-31T11:39:34Z</time>
      </trkpt>
      <trkpt lat="42.31845" lon="2.63596">
        <ele>1141.219</ele>
        <time>2012-03-31T11:39:43Z</time>
      </trkpt>
      <trkpt lat="42.31834" lon="2.63595">
        <ele>1139.307</ele>
        <time>2012-03-31T11:39:48Z</time>
      </trkpt>
      <trkpt lat="42.31815" lon="2.63586">
        <ele>1138.313</ele>
        <time>2012-03-31T11:39:57Z</time>
      </trkpt>
      <trkpt lat="42.3181" lon="2.63586">
        <ele>1137.487</ele>
        <time>2012-03-31T11:39:59Z</time>
      </trkpt>
      <trkpt lat="42.31793" lon="2.63592">
        <ele>1136.457</ele>
        <time>2012-03-31T11:40:05Z</time>
      </trkpt>
      <trkpt lat="42.3179" lon="2.63598">
        <ele>1135.042</ele>
        <time>2012-03-31T11:40:08Z</time>
      </trkpt>
      <trkpt lat="42.31779" lon="2.6362">
        <ele>1132.147</ele>
        <time>2012-03-31T11:40:16Z</time>
      </trkpt>
      <trkpt lat="42.31773" lon="2.63638">
        <ele>1131.66</ele>
        <time>2012-03-31T11:40:21Z</time>
      </trkpt>
      <trkpt lat="42.31767" lon="2.63682">
        <ele>1130.249</ele>
        <time>2012-03-31T11:40:32Z</time>
      </trkpt>
      <trkpt lat="42.31772" lon="2.63727">
        <ele>1129.741</ele>
        <time>2012-03-31T11:40:45Z</time>
      </trkpt>
      <trkpt lat="42.3178" lon="2.63775">
        <ele>1127.881</ele>
        <time>2012-03-31T11:40:58Z</time>
      </trkpt>
      <trkpt lat="42.31783" lon="2.63801">
        <ele>1124.409</ele>
        <time>2012-03-31T11:41:05Z</time>
      </trkpt>
      <trkpt lat="42.31782" lon="2.63832">
        <ele>1123.907</ele>
        <time>2012-03-31T11:41:12Z</time>
      </trkpt>
      <trkpt lat="42.3178" lon="2.63854">
        <ele>1123.426</ele>
        <time>2012-03-31T11:41:18Z</time>
      </trkpt>
      <trkpt lat="42.31777" lon="2.63883">
        <ele>1122.09</ele>
        <time>2012-03-31T11:41:26Z</time>
      </trkpt>
      <trkpt lat="42.31768" lon="2.6393">
        <ele>1119.68</ele>
        <time>2012-03-31T11:41:37Z</time>
      </trkpt>
      <trkpt lat="42.31754" lon="2.63976">
        <ele>1117.725</ele>
        <time>2012-03-31T11:41:50Z</time>
      </trkpt>
      <trkpt lat="42.31747" lon="2.63984">
        <ele>1116.23</ele>
        <time>2012-03-31T11:41:54Z</time>
      </trkpt>
      <trkpt lat="42.31726" lon="2.63998">
        <ele>1115.843</ele>
        <time>2012-03-31T11:42:01Z</time>
      </trkpt>
      <trkpt lat="42.31718" lon="2.64007">
        <ele>1114.852</ele>
        <time>2012-03-31T11:42:04Z</time>
      </trkpt>
      <trkpt lat="42.31689" lon="2.64031">
        <ele>1115.861</ele>
        <time>2012-03-31T11:42:17Z</time>
      </trkpt>
      <trkpt lat="42.31666" lon="2.64038">
        <ele>1113.821</ele>
        <time>2012-03-31T11:42:26Z</time>
      </trkpt>
      <trkpt lat="42.31637" lon="2.64036">
        <ele>1110.513</ele>
        <time>2012-03-31T11:42:36Z</time>
      </trkpt>
      <trkpt lat="42.31628" lon="2.64029">
        <ele>1109.007</ele>
        <time>2012-03-31T11:42:40Z</time>
      </trkpt>
      <trkpt lat="42.31621" lon="2.6402">
        <ele>1108.128</ele>
        <time>2012-03-31T11:42:43Z</time>
      </trkpt>
      <trkpt lat="42.31607" lon="2.63998">
        <ele>1104.712</ele>
        <time>2012-03-31T11:42:51Z</time>
      </trkpt>
      <trkpt lat="42.31605" lon="2.63996">
        <ele>1104.742</ele>
        <time>2012-03-31T11:42:52Z</time>
      </trkpt>
      <trkpt lat="42.31597" lon="2.63979">
        <ele>1103.337</ele>
        <time>2012-03-31T11:42:58Z</time>
      </trkpt>
      <trkpt lat="42.31593" lon="2.6397">
        <ele>1101.822</ele>
        <time>2012-03-31T11:43:01Z</time>
      </trkpt>
      <trkpt lat="42.31586" lon="2.63961">
        <ele>1100.475</ele>
        <time>2012-03-31T11:43:06Z</time>
      </trkpt>
      <trkpt lat="42.3158" lon="2.63957">
        <ele>1098.984</ele>
        <time>2012-03-31T11:43:09Z</time>
      </trkpt>
      <trkpt lat="42.31571" lon="2.63958">
        <ele>1095.166</ele>
        <time>2012-03-31T11:43:18Z</time>
      </trkpt>
      <trkpt lat="42.31572" lon="2.63964">
        <ele>1093.229</ele>
        <time>2012-03-31T11:43:32Z</time>
      </trkpt>
      <trkpt lat="42.31571" lon="2.63965">
        <ele>1092.221</ele>
        <time>2012-03-31T11:43:51Z</time>
      </trkpt>
      <trkpt lat="42.31567" lon="2.63968">
        <ele>1091.207</ele>
        <time>2012-03-31T11:43:55Z</time>
      </trkpt>
      <trkpt lat="42.31569" lon="2.63967">
        <ele>1089.358</ele>
        <time>2012-03-31T11:43:58Z</time>
      </trkpt>
      <trkpt lat="42.31571" lon="2.63969">
        <ele>1088.812</ele>
        <time>2012-03-31T11:44:00Z</time>
      </trkpt>
      <trkpt lat="42.31581" lon="2.63978">
        <ele>1087.452</ele>
        <time>2012-03-31T11:44:07Z</time>
      </trkpt>
      <trkpt lat="42.31583" lon="2.64002">
        <ele>1084.027</ele>
        <time>2012-03-31T11:44:16Z</time>
      </trkpt>
      <trkpt lat="42.31583" lon="2.64005">
        <ele>1083.592</ele>
        <time>2012-03-31T11:44:17Z</time>
      </trkpt>
      <trkpt lat="42.31583" lon="2.64024">
        <ele>1083.545</ele>
        <time>2012-03-31T11:44:24Z</time>
      </trkpt>
      <trkpt lat="42.31584" lon="2.64034">
        <ele>1083.174</ele>
        <time>2012-03-31T11:44:28Z</time>
      </trkpt>
      <trkpt lat="42.31577" lon="2.64067">
        <ele>1079.793</ele>
        <time>2012-03-31T11:44:36Z</time>
      </trkpt>
      <trkpt lat="42.31569" lon="2.64088">
        <ele>1076.865</ele>
        <time>2012-03-31T11:44:42Z</time>
      </trkpt>
      <trkpt lat="42.31567" lon="2.6409">
        <ele>1076.321</ele>
        <time>2012-03-31T11:44:44Z</time>
      </trkpt>
      <trkpt lat="42.31561" lon="2.64104">
        <ele>1073.507</ele>
        <time>2012-03-31T11:44:50Z</time>
      </trkpt>
      <trkpt lat="42.31559" lon="2.64111">
        <ele>1072.561</ele>
        <time>2012-03-31T11:44:52Z</time>
      </trkpt>
      <trkpt lat="42.31557" lon="2.64115">
        <ele>1071.595</ele>
        <time>2012-03-31T11:44:54Z</time>
      </trkpt>
      <trkpt lat="42.31551" lon="2.64124">
        <ele>1067.725</ele>
        <time>2012-03-31T11:45:00Z</time>
      </trkpt>
      <trkpt lat="42.3155" lon="2.64129">
        <ele>1067.23</ele>
        <time>2012-03-31T11:45:02Z</time>
      </trkpt>
      <trkpt lat="42.31552" lon="2.64144">
        <ele>1066.265</ele>
        <time>2012-03-31T11:45:08Z</time>
      </trkpt>
      <trkpt lat="42.31548" lon="2.64149">
        <ele>1064.388</ele>
        <time>2012-03-31T11:45:11Z</time>
      </trkpt>
      <trkpt lat="42.31539" lon="2.6416">
        <ele>1061.947</ele>
        <time>2012-03-31T11:45:17Z</time>
      </trkpt>
      <trkpt lat="42.31537" lon="2.64165">
        <ele>1060.041</ele>
        <time>2012-03-31T11:45:23Z</time>
      </trkpt>
      <trkpt lat="42.31533" lon="2.6416">
        <ele>1057.681</ele>
        <time>2012-03-31T11:45:28Z</time>
      </trkpt>
      <trkpt lat="42.31531" lon="2.6416">
        <ele>1056.609</ele>
        <time>2012-03-31T11:45:31Z</time>
      </trkpt>
      <trkpt lat="42.31529" lon="2.64159">
        <ele>1056.207</ele>
        <time>2012-03-31T11:45:41Z</time>
      </trkpt>
      <trkpt lat="42.31529" lon="2.64159">
        <ele>1054.736</ele>
        <time>2012-03-31T11:45:53Z</time>
      </trkpt>
      <trkpt lat="42.31523" lon="2.64181">
        <ele>1052.36</ele>
        <time>2012-03-31T11:46:01Z</time>
      </trkpt>
      <trkpt lat="42.31527" lon="2.64189">
        <ele>1050.45</ele>
        <time>2012-03-31T11:46:07Z</time>
      </trkpt>
      <trkpt lat="42.31525" lon="2.64198">
        <ele>1048.915</ele>
        <time>2012-03-31T11:46:11Z</time>
      </trkpt>
      <trkpt lat="42.31521" lon="2.64198">
        <ele>1046.51</ele>
        <time>2012-03-31T11:46:18Z</time>
      </trkpt>
      <trkpt lat="42.31519" lon="2.64195">
        <ele>1045.633</ele>
        <time>2012-03-31T11:46:20Z</time>
      </trkpt>
      <trkpt lat="42.31518" lon="2.64194">
        <ele>1045.172</ele>
        <time>2012-03-31T11:46:21Z</time>
      </trkpt>
      <trkpt lat="42.31511" lon="2.64186">
        <ele>1041.777</ele>
        <time>2012-03-31T11:46:27Z</time>
      </trkpt>
      <trkpt lat="42.31502" lon="2.64202">
        <ele>1039.361</ele>
        <time>2012-03-31T11:46:33Z</time>
      </trkpt>
      <trkpt lat="42.31502" lon="2.64216">
        <ele>1038.427</ele>
        <time>2012-03-31T11:46:39Z</time>
      </trkpt>
      <trkpt lat="42.31503" lon="2.64241">
        <ele>1036.907</ele>
        <time>2012-03-31T11:46:49Z</time>
      </trkpt>
      <trkpt lat="42.31498" lon="2.64257">
        <ele>1035.559</ele>
        <time>2012-03-31T11:46:54Z</time>
      </trkpt>
      <trkpt lat="42.31496" lon="2.64261">
        <ele>1034.093</ele>
        <time>2012-03-31T11:46:57Z</time>
      </trkpt>
      <trkpt lat="42.31495" lon="2.6426">
        <ele>1033.683</ele>
        <time>2012-03-31T11:46:58Z</time>
      </trkpt>
      <trkpt lat="42.31495" lon="2.64255">
        <ele>1032.178</ele>
        <time>2012-03-31T11:47:02Z</time>
      </trkpt>
      <trkpt lat="42.31492" lon="2.64246">
        <ele>1028.383</ele>
        <time>2012-03-31T11:47:11Z</time>
      </trkpt>
      <trkpt lat="42.3149" lon="2.64246">
        <ele>1027.336</ele>
        <time>2012-03-31T11:47:14Z</time>
      </trkpt>
      <trkpt lat="42.31485" lon="2.64241">
        <ele>1023.915</ele>
        <time>2012-03-31T11:47:20Z</time>
      </trkpt>
      <trkpt lat="42.31481" lon="2.64252">
        <ele>1020.622</ele>
        <time>2012-03-31T11:47:28Z</time>
      </trkpt>
      <trkpt lat="42.31476" lon="2.64269">
        <ele>1016.762</ele>
        <time>2012-03-31T11:47:37Z</time>
      </trkpt>
      <trkpt lat="42.31473" lon="2.64279">
        <ele>1015.808</ele>
        <time>2012-03-31T11:47:44Z</time>
      </trkpt>
      <trkpt lat="42.31471" lon="2.64278">
        <ele>1013.907</ele>
        <time>2012-03-31T11:47:46Z</time>
      </trkpt>
      <trkpt lat="42.3147" lon="2.64277">
        <ele>1013.464</ele>
        <time>2012-03-31T11:47:47Z</time>
      </trkpt>
      <trkpt lat="42.31469" lon="2.64272">
        <ele>1012.958</ele>
        <time>2012-03-31T11:47:50Z</time>
      </trkpt>
      <trkpt lat="42.31466" lon="2.64264">
        <ele>1010.068</ele>
        <time>2012-03-31T11:47:54Z</time>
      </trkpt>
      <trkpt lat="42.31463" lon="2.64266">
        <ele>1009.533</ele>
        <time>2012-03-31T11:47:57Z</time>
      </trkpt>
      <trkpt lat="42.31459" lon="2.64276">
        <ele>1007.648</ele>
        <time>2012-03-31T11:48:03Z</time>
      </trkpt>
      <trkpt lat="42.31456" lon="2.64283">
        <ele>1005.281</ele>
        <time>2012-03-31T11:48:08Z</time>
      </trkpt>
      <trkpt lat="42.31449" lon="2.64286">
        <ele>1002.83</ele>
        <time>2012-03-31T11:48:15Z</time>
      </trkpt>
      <trkpt lat="42.31445" lon="2.64299">
        <ele>999.478</ele>
        <time>2012-03-31T11:48:24Z</time>
      </trkpt>
      <trkpt lat="42.31445" lon="2.64299">
        <ele>999.033</ele>
        <time>2012-03-31T11:48:25Z</time>
      </trkpt>
      <trkpt lat="42.31443" lon="2.64304">
        <ele>996.526</ele>
        <time>2012-03-31T11:48:28Z</time>
      </trkpt>
      <trkpt lat="42.31442" lon="2.64313">
        <ele>995.607</ele>
        <time>2012-03-31T11:48:32Z</time>
      </trkpt>
      <trkpt lat="42.31436" lon="2.64316">
        <ele>993.719</ele>
        <time>2012-03-31T11:48:37Z</time>
      </trkpt>
      <trkpt lat="42.31429" lon="2.64326">
        <ele>991.743</ele>
        <time>2012-03-31T11:48:42Z</time>
      </trkpt>
      <trkpt lat="42.31426" lon="2.64329">
        <ele>990.843</ele>
        <time>2012-03-31T11:48:44Z</time>
      </trkpt>
      <trkpt lat="42.3142" lon="2.64341">
        <ele>986.958</ele>
        <time>2012-03-31T11:48:52Z</time>
      </trkpt>
      <trkpt lat="42.31419" lon="2.64343">
        <ele>986.943</ele>
        <time>2012-03-31T11:48:53Z</time>
      </trkpt>
      <trkpt lat="42.31412" lon="2.64348">
        <ele>983.116</ele>
        <time>2012-03-31T11:48:59Z</time>
      </trkpt>
      <trkpt lat="42.31408" lon="2.64356">
        <ele>981.265</ele>
        <time>2012-03-31T11:49:05Z</time>
      </trkpt>
      <trkpt lat="42.31406" lon="2.64361">
        <ele>979.751</ele>
        <time>2012-03-31T11:49:08Z</time>
      </trkpt>
      <trkpt lat="42.31404" lon="2.64365">
        <ele>978.301</ele>
        <time>2012-03-31T11:49:11Z</time>
      </trkpt>
      <trkpt lat="42.31401" lon="2.64357">
        <ele>976.811</ele>
        <time>2012-03-31T11:49:15Z</time>
      </trkpt>
      <trkpt lat="42.314" lon="2.64349">
        <ele>975.907</ele>
        <time>2012-03-31T11:49:18Z</time>
      </trkpt>
      <trkpt lat="42.31396" lon="2.64348">
        <ele>973.027</ele>
        <time>2012-03-31T11:49:25Z</time>
      </trkpt>
      <trkpt lat="42.31392" lon="2.64355">
        <ele>969.671</ele>
        <time>2012-03-31T11:49:30Z</time>
      </trkpt>
      <trkpt lat="42.31387" lon="2.6436">
        <ele>967.761</ele>
        <time>2012-03-31T11:49:34Z</time>
      </trkpt>
      <trkpt lat="42.31381" lon="2.6437">
        <ele>965.376</ele>
        <time>2012-03-31T11:49:40Z</time>
      </trkpt>
      <trkpt lat="42.31375" lon="2.64365">
        <ele>963.481</ele>
        <time>2012-03-31T11:49:47Z</time>
      </trkpt>
      <trkpt lat="42.31376" lon="2.64349">
        <ele>961.534</ele>
        <time>2012-03-31T11:49:56Z</time>
      </trkpt>
      <trkpt lat="42.31374" lon="2.64345">
        <ele>959.563</ele>
        <time>2012-03-31T11:50:02Z</time>
      </trkpt>
      <trkpt lat="42.31371" lon="2.64346">
        <ele>957.686</ele>
        <time>2012-03-31T11:50:05Z</time>
      </trkpt>
      <trkpt lat="42.31368" lon="2.64348">
        <ele>956.76</ele>
        <time>2012-03-31T11:50:08Z</time>
      </trkpt>
      <trkpt lat="42.31363" lon="2.6436">
        <ele>953.326</ele>
        <time>2012-03-31T11:50:16Z</time>
      </trkpt>
      <trkpt lat="42.31359" lon="2.64366">
        <ele>951.407</ele>
        <time>2012-03-31T11:50:20Z</time>
      </trkpt>
      <trkpt lat="42.31357" lon="2.64374">
        <ele>949.91</ele>
        <time>2012-03-31T11:50:24Z</time>
      </trkpt>
      <trkpt lat="42.31357" lon="2.64375">
        <ele>949.034</ele>
        <time>2012-03-31T11:50:25Z</time>
      </trkpt>
      <trkpt lat="42.3135" lon="2.64393">
        <ele>946.664</ele>
        <time>2012-03-31T11:50:34Z</time>
      </trkpt>
      <trkpt lat="42.31345" lon="2.64401">
        <ele>944.619</ele>
        <time>2012-03-31T11:50:40Z</time>
      </trkpt>
      <trkpt lat="42.31342" lon="2.64407">
        <ele>942.794</ele>
        <time>2012-03-31T11:50:44Z</time>
      </trkpt>
      <trkpt lat="42.31341" lon="2.64408">
        <ele>942.237</ele>
        <time>2012-03-31T11:50:45Z</time>
      </trkpt>
      <trkpt lat="42.31336" lon="2.6442">
        <ele>938.426</ele>
        <time>2012-03-31T11:50:54Z</time>
      </trkpt>
      <trkpt lat="42.31335" lon="2.64421">
        <ele>938.498</ele>
        <time>2012-03-31T11:50:55Z</time>
      </trkpt>
      <trkpt lat="42.31328" lon="2.64415">
        <ele>935.515</ele>
        <time>2012-03-31T11:51:01Z</time>
      </trkpt>
      <trkpt lat="42.31328" lon="2.64415">
        <ele>935.026</ele>
        <time>2012-03-31T11:51:03Z</time>
      </trkpt>
      <trkpt lat="42.31328" lon="2.64421">
        <ele>933.107</ele>
        <time>2012-03-31T11:51:06Z</time>
      </trkpt>
      <trkpt lat="42.31327" lon="2.64424">
        <ele>933.151</ele>
        <time>2012-03-31T11:51:08Z</time>
      </trkpt>
      <trkpt lat="42.31323" lon="2.64438">
        <ele>931.795</ele>
        <time>2012-03-31T11:51:13Z</time>
      </trkpt>
      <trkpt lat="42.31325" lon="2.64459">
        <ele>928.395</ele>
        <time>2012-03-31T11:51:27Z</time>
      </trkpt>
      <trkpt lat="42.31323" lon="2.64468">
        <ele>926.92</ele>
        <time>2012-03-31T11:51:31Z</time>
      </trkpt>
      <trkpt lat="42.31318" lon="2.64477">
        <ele>923.565</ele>
        <time>2012-03-31T11:51:38Z</time>
      </trkpt>
      <trkpt lat="42.31316" lon="2.64477">
        <ele>922.098</ele>
        <time>2012-03-31T11:51:41Z</time>
      </trkpt>
      <trkpt lat="42.31308" lon="2.64486">
        <ele>920.197</ele>
        <time>2012-03-31T11:51:48Z</time>
      </trkpt>
      <trkpt lat="42.31305" lon="2.64496">
        <ele>917.276</ele>
        <time>2012-03-31T11:51:55Z</time>
      </trkpt>
      <trkpt lat="42.31299" lon="2.64509">
        <ele>913.49</ele>
        <time>2012-03-31T11:52:04Z</time>
      </trkpt>
      <trkpt lat="42.31292" lon="2.64517">
        <ele>911.019</ele>
        <time>2012-03-31T11:52:11Z</time>
      </trkpt>
      <trkpt lat="42.31289" lon="2.64521">
        <ele>909.507</ele>
        <time>2012-03-31T11:52:16Z</time>
      </trkpt>
      <trkpt lat="42.31288" lon="2.64526">
        <ele>908.159</ele>
        <time>2012-03-31T11:52:19Z</time>
      </trkpt>
      <trkpt lat="42.31289" lon="2.64532">
        <ele>906.713</ele>
        <time>2012-03-31T11:52:23Z</time>
      </trkpt>
      <trkpt lat="42.31283" lon="2.64541">
        <ele>903.393</ele>
        <time>2012-03-31T11:52:31Z</time>
      </trkpt>
      <trkpt lat="42.31284" lon="2.64542">
        <ele>903.398</ele>
        <time>2012-03-31T11:52:32Z</time>
      </trkpt>
      <trkpt lat="42.31283" lon="2.64543">
        <ele>902.843</ele>
        <time>2012-03-31T11:52:33Z</time>
      </trkpt>
      <trkpt lat="42.31284" lon="2.64546">
        <ele>901.966</ele>
        <time>2012-03-31T11:52:36Z</time>
      </trkpt>
      <trkpt lat="42.31282" lon="2.64557">
        <ele>898.535</ele>
        <time>2012-03-31T11:52:45Z</time>
      </trkpt>
      <trkpt lat="42.31282" lon="2.64569">
        <ele>896.152</ele>
        <time>2012-03-31T11:52:52Z</time>
      </trkpt>
      <trkpt lat="42.31282" lon="2.64571">
        <ele>895.653</ele>
        <time>2012-03-31T11:52:54Z</time>
      </trkpt>
      <trkpt lat="42.31276" lon="2.64571">
        <ele>892.708</ele>
        <time>2012-03-31T11:53:02Z</time>
      </trkpt>
      <trkpt lat="42.31276" lon="2.64592">
        <ele>889.407</ele>
        <time>2012-03-31T11:53:12Z</time>
      </trkpt>
      <trkpt lat="42.31277" lon="2.64593">
        <ele>888.927</ele>
        <time>2012-03-31T11:53:14Z</time>
      </trkpt>
      <trkpt lat="42.31277" lon="2.64593">
        <ele>888.431</ele>
        <time>2012-03-31T11:53:15Z</time>
      </trkpt>
      <trkpt lat="42.31278" lon="2.64601">
        <ele>885.531</ele>
        <time>2012-03-31T11:53:22Z</time>
      </trkpt>
      <trkpt lat="42.31273" lon="2.64611">
        <ele>882.616</ele>
        <time>2012-03-31T11:53:30Z</time>
      </trkpt>
      <trkpt lat="42.31277" lon="2.64616">
        <ele>881.221</ele>
        <time>2012-03-31T11:53:35Z</time>
      </trkpt>
      <trkpt lat="42.31276" lon="2.64625">
        <ele>879.314</ele>
        <time>2012-03-31T11:53:38Z</time>
      </trkpt>
      <trkpt lat="42.31278" lon="2.64633">
        <ele>877.883</ele>
        <time>2012-03-31T11:53:42Z</time>
      </trkpt>
      <trkpt lat="42.31283" lon="2.64639">
        <ele>876.949</ele>
        <time>2012-03-31T11:53:46Z</time>
      </trkpt>
      <trkpt lat="42.31284" lon="2.64642">
        <ele>876.902</ele>
        <time>2012-03-31T11:53:48Z</time>
      </trkpt>
      <trkpt lat="42.31287" lon="2.64648">
        <ele>875.422</ele>
        <time>2012-03-31T11:53:52Z</time>
      </trkpt>
      <trkpt lat="42.31285" lon="2.64659">
        <ele>873.507</ele>
        <time>2012-03-31T11:53:58Z</time>
      </trkpt>
      <trkpt lat="42.31284" lon="2.64671">
        <ele>871.636</ele>
        <time>2012-03-31T11:54:05Z</time>
      </trkpt>
      <trkpt lat="42.31284" lon="2.64678">
        <ele>870.18</ele>
        <time>2012-03-31T11:54:08Z</time>
      </trkpt>
      <trkpt lat="42.31287" lon="2.64697">
        <ele>868.21</ele>
        <time>2012-03-31T11:54:18Z</time>
      </trkpt>
      <trkpt lat="42.31288" lon="2.64699">
        <ele>867.715</ele>
        <time>2012-03-31T11:54:20Z</time>
      </trkpt>
      <trkpt lat="42.31285" lon="2.64718">
        <ele>864.44</ele>
        <time>2012-03-31T11:54:31Z</time>
      </trkpt>
      <trkpt lat="42.31285" lon="2.64731">
        <ele>861.593</ele>
        <time>2012-03-31T11:54:39Z</time>
      </trkpt>
      <trkpt lat="42.31285" lon="2.64731">
        <ele>860.052</ele>
        <time>2012-03-31T11:54:41Z</time>
      </trkpt>
      <trkpt lat="42.31276" lon="2.64762">
        <ele>857.249</ele>
        <time>2012-03-31T11:54:49Z</time>
      </trkpt>
      <trkpt lat="42.31271" lon="2.64769">
        <ele>855.202</ele>
        <time>2012-03-31T11:54:53Z</time>
      </trkpt>
      <trkpt lat="42.31267" lon="2.64778">
        <ele>853.322</ele>
        <time>2012-03-31T11:54:56Z</time>
      </trkpt>
      <trkpt lat="42.31264" lon="2.64783">
        <ele>852.407</ele>
        <time>2012-03-31T11:54:59Z</time>
      </trkpt>
      <trkpt lat="42.31264" lon="2.64783">
        <ele>851.986</ele>
        <time>2012-03-31T11:55:00Z</time>
      </trkpt>
      <trkpt lat="42.31262" lon="2.64783">
        <ele>850.42</ele>
        <time>2012-03-31T11:55:03Z</time>
      </trkpt>
      <trkpt lat="42.31263" lon="2.64784">
        <ele>849.02</ele>
        <time>2012-03-31T11:55:07Z</time>
      </trkpt>
      <trkpt lat="42.31263" lon="2.64795">
        <ele>846.165</ele>
        <time>2012-03-31T11:55:13Z</time>
      </trkpt>
      <trkpt lat="42.31263" lon="2.64802">
        <ele>843.74</ele>
        <time>2012-03-31T11:55:17Z</time>
      </trkpt>
      <trkpt lat="42.31261" lon="2.6481">
        <ele>841.823</ele>
        <time>2012-03-31T11:55:21Z</time>
      </trkpt>
      <trkpt lat="42.31254" lon="2.6481">
        <ele>839.412</ele>
        <time>2012-03-31T11:55:26Z</time>
      </trkpt>
      <trkpt lat="42.31252" lon="2.64809">
        <ele>838.974</ele>
        <time>2012-03-31T11:55:28Z</time>
      </trkpt>
      <trkpt lat="42.31248" lon="2.64804">
        <ele>837.056</ele>
        <time>2012-03-31T11:55:33Z</time>
      </trkpt>
      <trkpt lat="42.31244" lon="2.64803">
        <ele>833.621</ele>
        <time>2012-03-31T11:55:39Z</time>
      </trkpt>
      <trkpt lat="42.31244" lon="2.64808">
        <ele>831.707</ele>
        <time>2012-03-31T11:55:44Z</time>
      </trkpt>
      <trkpt lat="42.31245" lon="2.64812">
        <ele>830.759</ele>
        <time>2012-03-31T11:55:46Z</time>
      </trkpt>
      <trkpt lat="42.31245" lon="2.64818">
        <ele>829.863</ele>
        <time>2012-03-31T11:55:50Z</time>
      </trkpt>
      <trkpt lat="42.31249" lon="2.64826">
        <ele>827.843</ele>
        <time>2012-03-31T11:55:54Z</time>
      </trkpt>
      <trkpt lat="42.31252" lon="2.64839">
        <ele>828.318</ele>
        <time>2012-03-31T11:55:59Z</time>
      </trkpt>
      <trkpt lat="42.31262" lon="2.64869">
        <ele>827.883</ele>
        <time>2012-03-31T11:56:13Z</time>
      </trkpt>
      <trkpt lat="42.3127" lon="2.64883">
        <ele>827.436</ele>
        <time>2012-03-31T11:56:19Z</time>
      </trkpt>
      <trkpt lat="42.3129" lon="2.64909">
        <ele>827.435</ele>
        <time>2012-03-31T11:56:32Z</time>
      </trkpt>
      <trkpt lat="42.31305" lon="2.6493">
        <ele>826.465</ele>
        <time>2012-03-31T11:56:43Z</time>
      </trkpt>
      <trkpt lat="42.31317" lon="2.64951">
        <ele>825.468</ele>
        <time>2012-03-31T11:56:54Z</time>
      </trkpt>
      <trkpt lat="42.31323" lon="2.64965">
        <ele>825.414</ele>
        <time>2012-03-31T11:57:07Z</time>
      </trkpt>
      <trkpt lat="42.31325" lon="2.64971">
        <ele>825.407</ele>
        <time>2012-03-31T11:57:10Z</time>
      </trkpt>
      <trkpt lat="42.31323" lon="2.64996">
        <ele>823.068</ele>
        <time>2012-03-31T11:57:18Z</time>
      </trkpt>
      <trkpt lat="42.31319" lon="2.65016">
        <ele>820.152</ele>
        <time>2012-03-31T11:57:27Z</time>
      </trkpt>
      <trkpt lat="42.31316" lon="2.65026">
        <ele>820.662</ele>
        <time>2012-03-31T11:57:31Z</time>
      </trkpt>
      <trkpt lat="42.31309" lon="2.65045">
        <ele>817.317</ele>
        <time>2012-03-31T11:57:40Z</time>
      </trkpt>
      <trkpt lat="42.31299" lon="2.65067">
        <ele>815.312</ele>
        <time>2012-03-31T11:57:46Z</time>
      </trkpt>
      <trkpt lat="42.31277" lon="2.65106">
        <ele>812.915</ele>
        <time>2012-03-31T11:57:56Z</time>
      </trkpt>
      <trkpt lat="42.31269" lon="2.65114">
        <ele>810.114</ele>
        <time>2012-03-31T11:58:03Z</time>
      </trkpt>
      <trkpt lat="42.31259" lon="2.6512">
        <ele>806.237</ele>
        <time>2012-03-31T11:58:12Z</time>
      </trkpt>
      <trkpt lat="42.31251" lon="2.65131">
        <ele>804.849</ele>
        <time>2012-03-31T11:58:18Z</time>
      </trkpt>
      <trkpt lat="42.31247" lon="2.65137">
        <ele>804.813</ele>
        <time>2012-03-31T11:58:21Z</time>
      </trkpt>
      <trkpt lat="42.31242" lon="2.65145">
        <ele>804.307</ele>
        <time>2012-03-31T11:58:25Z</time>
      </trkpt>
      <trkpt lat="42.31226" lon="2.65172">
        <ele>800.915</ele>
        <time>2012-03-31T11:58:37Z</time>
      </trkpt>
      <trkpt lat="42.31209" lon="2.65191">
        <ele>799.099</ele>
        <time>2012-03-31T11:58:46Z</time>
      </trkpt>
      <trkpt lat="42.31207" lon="2.65191">
        <ele>798.099</ele>
        <time>2012-03-31T11:58:47Z</time>
      </trkpt>
      <trkpt lat="42.31204" lon="2.65189">
        <ele>796.624</ele>
        <time>2012-03-31T11:58:50Z</time>
      </trkpt>
      <trkpt lat="42.31202" lon="2.65184">
        <ele>795.629</ele>
        <time>2012-03-31T11:58:52Z</time>
      </trkpt>
      <trkpt lat="42.312" lon="2.65177">
        <ele>793.742</ele>
        <time>2012-03-31T11:58:56Z</time>
      </trkpt>
      <trkpt lat="42.31196" lon="2.65172">
        <ele>791.881</ele>
        <time>2012-03-31T11:58:59Z</time>
      </trkpt>
      <trkpt lat="42.3119" lon="2.65164">
        <ele>788.992</ele>
        <time>2012-03-31T11:59:05Z</time>
      </trkpt>
      <trkpt lat="42.31185" lon="2.65165">
        <ele>787.973</ele>
        <time>2012-03-31T11:59:14Z</time>
      </trkpt>
      <trkpt lat="42.31185" lon="2.65167">
        <ele>787.92</ele>
        <time>2012-03-31T11:59:17Z</time>
      </trkpt>
      <trkpt lat="42.31185" lon="2.6516">
        <ele>787.907</ele>
        <time>2012-03-31T11:59:22Z</time>
      </trkpt>
      <trkpt lat="42.31177" lon="2.65156">
        <ele>785.571</ele>
        <time>2012-03-31T11:59:27Z</time>
      </trkpt>
      <trkpt lat="42.31172" lon="2.65156">
        <ele>783.135</ele>
        <time>2012-03-31T11:59:30Z</time>
      </trkpt>
      <trkpt lat="42.31158" lon="2.65163">
        <ele>782.215</ele>
        <time>2012-03-31T11:59:39Z</time>
      </trkpt>
      <trkpt lat="42.31155" lon="2.65169">
        <ele>781.78</ele>
        <time>2012-03-31T11:59:44Z</time>
      </trkpt>
      <trkpt lat="42.3115" lon="2.65177">
        <ele>782.275</ele>
        <time>2012-03-31T11:59:48Z</time>
      </trkpt>
      <trkpt lat="42.31151" lon="2.65196">
        <ele>782.768</ele>
        <time>2012-03-31T11:59:55Z</time>
      </trkpt>
      <trkpt lat="42.31153" lon="2.65199">
        <ele>783.127</ele>
        <time>2012-03-31T11:59:57Z</time>
      </trkpt>
      <trkpt lat="42.31154" lon="2.65195">
        <ele>784.167</ele>
        <time>2012-03-31T12:00:05Z</time>
      </trkpt>
      <trkpt lat="42.31157" lon="2.65189">
        <ele>785.581</ele>
        <time>2012-03-31T12:00:17Z</time>
      </trkpt>
      <trkpt lat="42.31158" lon="2.65191">
        <ele>785.519</ele>
        <time>2012-03-31T12:00:24Z</time>
      </trkpt>
      <trkpt lat="42.31163" lon="2.652">
        <ele>787.007</ele>
        <time>2012-03-31T12:00:36Z</time>
      </trkpt>
      <trkpt lat="42.3117" lon="2.65216">
        <ele>788.978</ele>
        <time>2012-03-31T12:00:57Z</time>
      </trkpt>
      <trkpt lat="42.3115" lon="2.65212">
        <ele>785.182</ele>
        <time>2012-03-31T12:02:23Z</time>
      </trkpt>
      <trkpt lat="42.31148" lon="2.65203">
        <ele>785.192</ele>
        <time>2012-03-31T12:02:37Z</time>
      </trkpt>
      <trkpt lat="42.3115" lon="2.65193">
        <ele>785.177</ele>
        <time>2012-03-31T12:03:02Z</time>
      </trkpt>
      <trkpt lat="42.31154" lon="2.6519">
        <ele>784.662</ele>
        <time>2012-03-31T12:03:20Z</time>
      </trkpt>
      <trkpt lat="42.31155" lon="2.65194">
        <ele>784.685</ele>
        <time>2012-03-31T12:03:41Z</time>
      </trkpt>
      <trkpt lat="42.31157" lon="2.6519">
        <ele>785.144</ele>
        <time>2012-03-31T12:04:02Z</time>
      </trkpt>
      <trkpt lat="42.3116" lon="2.65172">
        <ele>785.113</ele>
        <time>2012-03-31T12:04:25Z</time>
      </trkpt>
      <trkpt lat="42.31141" lon="2.65197">
        <ele>785.143</ele>
        <time>2012-03-31T12:04:47Z</time>
      </trkpt>
      <trkpt lat="42.31138" lon="2.65201">
        <ele>785.107</ele>
        <time>2012-03-31T12:05:10Z</time>
      </trkpt>
      <trkpt lat="42.31137" lon="2.65198">
        <ele>785.107</ele>
        <time>2012-03-31T12:05:39Z</time>
      </trkpt>
      <trkpt lat="42.31135" lon="2.65187">
        <ele>785.593</ele>
        <time>2012-03-31T12:06:04Z</time>
      </trkpt>
      <trkpt lat="42.31151" lon="2.65164">
        <ele>785.517</ele>
        <time>2012-03-31T12:06:31Z</time>
      </trkpt>
      <trkpt lat="42.31153" lon="2.65162">
        <ele>785.197</ele>
        <time>2012-03-31T12:07:01Z</time>
      </trkpt>
      <trkpt lat="42.31141" lon="2.65195">
        <ele>784.642</ele>
        <time>2012-03-31T12:07:18Z</time>
      </trkpt>
      <trkpt lat="42.31141" lon="2.65195">
        <ele>784.617</ele>
        <time>2012-03-31T12:07:41Z</time>
      </trkpt>
      <trkpt lat="42.3114" lon="2.65196">
        <ele>785.16</ele>
        <time>2012-03-31T12:08:02Z</time>
      </trkpt>
      <trkpt lat="42.31159" lon="2.65191">
        <ele>785.179</ele>
        <time>2012-03-31T12:08:22Z</time>
      </trkpt>
      <trkpt lat="42.31161" lon="2.65195">
        <ele>784.644</ele>
        <time>2012-03-31T12:08:44Z</time>
      </trkpt>
      <trkpt lat="42.31161" lon="2.65195">
        <ele>781.205</ele>
        <time>2012-03-31T12:08:59Z</time>
      </trkpt>
      <trkpt lat="42.31161" lon="2.65195">
        <ele>787.015</ele>
        <time>2012-03-31T12:09:00Z</time>
      </trkpt>
      <trkpt lat="42.31161" lon="2.65195">
        <ele>784.107</ele>
        <time>2012-03-31T12:09:20Z</time>
      </trkpt>
      <trkpt lat="42.31159" lon="2.65197">
        <ele>784.156</ele>
        <time>2012-03-31T12:09:41Z</time>
      </trkpt>
      <trkpt lat="42.31159" lon="2.65197">
        <ele>783.69</ele>
        <time>2012-03-31T12:10:02Z</time>
      </trkpt>
      <trkpt lat="42.3116" lon="2.65197">
        <ele>783.12</ele>
        <time>2012-03-31T12:10:21Z</time>
      </trkpt>
      <trkpt lat="42.3116" lon="2.65197">
        <ele>780.785</ele>
        <time>2012-03-31T12:10:28Z</time>
      </trkpt>
      <trkpt lat="42.3116" lon="2.65197">
        <ele>787.98</ele>
        <time>2012-03-31T12:10:30Z</time>
      </trkpt>
      <trkpt lat="42.3116" lon="2.65197">
        <ele>784.183</ele>
        <time>2012-03-31T12:10:31Z</time>
      </trkpt>
      <trkpt lat="42.3116" lon="2.65197">
        <ele>783.182</ele>
        <time>2012-03-31T12:10:33Z</time>
      </trkpt>
      <trkpt lat="42.3116" lon="2.65197">
        <ele>783.188</ele>
        <time>2012-03-31T12:10:55Z</time>
      </trkpt>
      <trkpt lat="42.3116" lon="2.65196">
        <ele>783.124</ele>
        <time>2012-03-31T12:11:11Z</time>
      </trkpt>
      <trkpt lat="42.31162" lon="2.65193">
        <ele>782.726</ele>
        <time>2012-03-31T12:11:26Z</time>
      </trkpt>
      <trkpt lat="42.31161" lon="2.65194">
        <ele>782.707</ele>
        <time>2012-03-31T12:11:29Z</time>
      </trkpt>
      <trkpt lat="42.31161" lon="2.65198">
        <ele>783.16</ele>
        <time>2012-03-31T12:11:31Z</time>
      </trkpt>
      <trkpt lat="42.31162" lon="2.65199">
        <ele>783.194</ele>
        <time>2012-03-31T12:11:44Z</time>
      </trkpt>
      <trkpt lat="42.31159" lon="2.6519">
        <ele>783.614</ele>
        <time>2012-03-31T12:11:57Z</time>
      </trkpt>
      <trkpt lat="42.31155" lon="2.65196">
        <ele>781.269</ele>
        <time>2012-03-31T12:12:09Z</time>
      </trkpt>
      <trkpt lat="42.31157" lon="2.65205">
        <ele>780.354</ele>
        <time>2012-03-31T12:12:18Z</time>
      </trkpt>
      <trkpt lat="42.3116" lon="2.65209">
        <ele>780.337</ele>
        <time>2012-03-31T12:12:22Z</time>
      </trkpt>
      <trkpt lat="42.31165" lon="2.65214">
        <ele>779.316</ele>
        <time>2012-03-31T12:12:27Z</time>
      </trkpt>
      <trkpt lat="42.31167" lon="2.6522">
        <ele>778.318</ele>
        <time>2012-03-31T12:12:30Z</time>
      </trkpt>
      <trkpt lat="42.31175" lon="2.65253">
        <ele>776.998</ele>
        <time>2012-03-31T12:12:39Z</time>
      </trkpt>
      <trkpt lat="42.31176" lon="2.65258">
        <ele>776.917</ele>
        <time>2012-03-31T12:12:41Z</time>
      </trkpt>
      <trkpt lat="42.31181" lon="2.65293">
        <ele>775.907</ele>
        <time>2012-03-31T12:12:52Z</time>
      </trkpt>
      <trkpt lat="42.31178" lon="2.65314">
        <ele>775.483</ele>
        <time>2012-03-31T12:12:59Z</time>
      </trkpt>
      <trkpt lat="42.31174" lon="2.65322">
        <ele>774.557</ele>
        <time>2012-03-31T12:13:03Z</time>
      </trkpt>
      <trkpt lat="42.3115" lon="2.65328">
        <ele>773.057</ele>
        <time>2012-03-31T12:13:12Z</time>
      </trkpt>
      <trkpt lat="42.31124" lon="2.65343">
        <ele>770.252</ele>
        <time>2012-03-31T12:13:23Z</time>
      </trkpt>
      <trkpt lat="42.31118" lon="2.6535">
        <ele>769.717</ele>
        <time>2012-03-31T12:13:26Z</time>
      </trkpt>
      <trkpt lat="42.31109" lon="2.65366">
        <ele>768.71</ele>
        <time>2012-03-31T12:13:33Z</time>
      </trkpt>
      <trkpt lat="42.31085" lon="2.65401">
        <ele>765.819</ele>
        <time>2012-03-31T12:13:46Z</time>
      </trkpt>
      <trkpt lat="42.31067" lon="2.65423">
        <ele>764.925</ele>
        <time>2012-03-31T12:13:57Z</time>
      </trkpt>
      <trkpt lat="42.31059" lon="2.65448">
        <ele>763.926</ele>
        <time>2012-03-31T12:14:05Z</time>
      </trkpt>
      <trkpt lat="42.31048" lon="2.65489">
        <ele>760.508</ele>
        <time>2012-03-31T12:14:18Z</time>
      </trkpt>
      <trkpt lat="42.3104" lon="2.65526">
        <ele>757.207</ele>
        <time>2012-03-31T12:14:27Z</time>
      </trkpt>
      <trkpt lat="42.31036" lon="2.65563">
        <ele>755.314</ele>
        <time>2012-03-31T12:14:37Z</time>
      </trkpt>
      <trkpt lat="42.31034" lon="2.656">
        <ele>753.388</ele>
        <time>2012-03-31T12:14:47Z</time>
      </trkpt>
      <trkpt lat="42.31043" lon="2.65645">
        <ele>751.958</ele>
        <time>2012-03-31T12:14:59Z</time>
      </trkpt>
      <trkpt lat="42.31051" lon="2.65686">
        <ele>749.043</ele>
        <time>2012-03-31T12:15:10Z</time>
      </trkpt>
      <trkpt lat="42.31059" lon="2.65737">
        <ele>747.188</ele>
        <time>2012-03-31T12:15:23Z</time>
      </trkpt>
      <trkpt lat="42.3106" lon="2.65789">
        <ele>743.741</ele>
        <time>2012-03-31T12:15:36Z</time>
      </trkpt>
      <trkpt lat="42.31065" lon="2.65826">
        <ele>740.49</ele>
        <time>2012-03-31T12:15:46Z</time>
      </trkpt>
      <trkpt lat="42.31075" lon="2.65857">
        <ele>737.045</ele>
        <time>2012-03-31T12:15:55Z</time>
      </trkpt>
      <trkpt lat="42.31076" lon="2.6586">
        <ele>738.447</ele>
        <time>2012-03-31T12:15:56Z</time>
      </trkpt>
      <trkpt lat="42.31073" lon="2.65869">
        <ele>733.111</ele>
        <time>2012-03-31T12:16:01Z</time>
      </trkpt>
      <trkpt lat="42.31069" lon="2.65873">
        <ele>734.107</ele>
        <time>2012-03-31T12:16:04Z</time>
      </trkpt>
      <trkpt lat="42.31067" lon="2.65872">
        <ele>734.186</ele>
        <time>2012-03-31T12:16:05Z</time>
      </trkpt>
      <trkpt lat="42.31057" lon="2.65846">
        <ele>734.18</ele>
        <time>2012-03-31T12:16:16Z</time>
      </trkpt>
      <trkpt lat="42.31048" lon="2.65818">
        <ele>734.19</ele>
        <time>2012-03-31T12:16:26Z</time>
      </trkpt>
      <trkpt lat="42.31042" lon="2.65786">
        <ele>736.055</ele>
        <time>2012-03-31T12:16:39Z</time>
      </trkpt>
      <trkpt lat="42.31041" lon="2.65773">
        <ele>737.08</ele>
        <time>2012-03-31T12:16:44Z</time>
      </trkpt>
      <trkpt lat="42.3104" lon="2.65767">
        <ele>737.583</ele>
        <time>2012-03-31T12:16:47Z</time>
      </trkpt>
      <trkpt lat="42.31035" lon="2.65729">
        <ele>738.932</ele>
        <time>2012-03-31T12:17:00Z</time>
      </trkpt>
      <trkpt lat="42.31029" lon="2.65689">
        <ele>740.496</ele>
        <time>2012-03-31T12:17:13Z</time>
      </trkpt>
      <trkpt lat="42.3102" lon="2.65649">
        <ele>740.431</ele>
        <time>2012-03-31T12:17:26Z</time>
      </trkpt>
      <trkpt lat="42.31011" lon="2.65614">
        <ele>739.424</ele>
        <time>2012-03-31T12:17:37Z</time>
      </trkpt>
      <trkpt lat="42.31001" lon="2.65587">
        <ele>738.007</ele>
        <time>2012-03-31T12:17:46Z</time>
      </trkpt>
      <trkpt lat="42.30993" lon="2.65574">
        <ele>737.061</ele>
        <time>2012-03-31T12:17:50Z</time>
      </trkpt>
      <trkpt lat="42.30977" lon="2.65544">
        <ele>733.645</ele>
        <time>2012-03-31T12:17:59Z</time>
      </trkpt>
      <trkpt lat="42.30956" lon="2.65521">
        <ele>730.365</ele>
        <time>2012-03-31T12:18:08Z</time>
      </trkpt>
      <trkpt lat="42.30934" lon="2.65501">
        <ele>730.72</ele>
        <time>2012-03-31T12:18:18Z</time>
      </trkpt>
      <trkpt lat="42.30925" lon="2.6546">
        <ele>731.285</ele>
        <time>2012-03-31T12:18:31Z</time>
      </trkpt>
      <trkpt lat="42.30921" lon="2.6545">
        <ele>731.218</ele>
        <time>2012-03-31T12:18:34Z</time>
      </trkpt>
      <trkpt lat="42.30896" lon="2.65425">
        <ele>730.387</ele>
        <time>2012-03-31T12:18:45Z</time>
      </trkpt>
      <trkpt lat="42.30864" lon="2.65409">
        <ele>728.319</ele>
        <time>2012-03-31T12:18:58Z</time>
      </trkpt>
      <trkpt lat="42.30841" lon="2.65416">
        <ele>727.909</ele>
        <time>2012-03-31T12:19:07Z</time>
      </trkpt>
      <trkpt lat="42.30818" lon="2.65424">
        <ele>726.419</ele>
        <time>2012-03-31T12:19:17Z</time>
      </trkpt>
      <trkpt lat="42.30811" lon="2.65427">
        <ele>726.407</ele>
        <time>2012-03-31T12:19:20Z</time>
      </trkpt>
      <trkpt lat="42.30789" lon="2.65436">
        <ele>725.983</ele>
        <time>2012-03-31T12:19:29Z</time>
      </trkpt>
      <trkpt lat="42.30753" lon="2.65451">
        <ele>724.587</ele>
        <time>2012-03-31T12:19:42Z</time>
      </trkpt>
      <trkpt lat="42.30729" lon="2.65467">
        <ele>724.517</ele>
        <time>2012-03-31T12:19:51Z</time>
      </trkpt>
      <trkpt lat="42.30719" lon="2.65472">
        <ele>723.152</ele>
        <time>2012-03-31T12:19:55Z</time>
      </trkpt>
      <trkpt lat="42.30684" lon="2.65482">
        <ele>720.767</ele>
        <time>2012-03-31T12:20:07Z</time>
      </trkpt>
      <trkpt lat="42.30679" lon="2.65482">
        <ele>720.28</ele>
        <time>2012-03-31T12:20:09Z</time>
      </trkpt>
      <trkpt lat="42.3065" lon="2.65493">
        <ele>718.799</ele>
        <time>2012-03-31T12:20:19Z</time>
      </trkpt>
      <trkpt lat="42.30631" lon="2.655">
        <ele>718.758</ele>
        <time>2012-03-31T12:20:25Z</time>
      </trkpt>
      <trkpt lat="42.30597" lon="2.65517">
        <ele>716.352</ele>
        <time>2012-03-31T12:20:39Z</time>
      </trkpt>
      <trkpt lat="42.30572" lon="2.65534">
        <ele>714.417</ele>
        <time>2012-03-31T12:20:49Z</time>
      </trkpt>
      <trkpt lat="42.30542" lon="2.65547">
        <ele>711.507</ele>
        <time>2012-03-31T12:21:01Z</time>
      </trkpt>
      <trkpt lat="42.30539" lon="2.65548">
        <ele>711.527</ele>
        <time>2012-03-31T12:21:02Z</time>
      </trkpt>
      <trkpt lat="42.30512" lon="2.65556">
        <ele>709.121</ele>
        <time>2012-03-31T12:21:12Z</time>
      </trkpt>
      <trkpt lat="42.30497" lon="2.65563">
        <ele>707.751</ele>
        <time>2012-03-31T12:21:17Z</time>
      </trkpt>
      <trkpt lat="42.30489" lon="2.65567">
        <ele>707.726</ele>
        <time>2012-03-31T12:21:20Z</time>
      </trkpt>
      <trkpt lat="42.30482" lon="2.65573">
        <ele>705.881</ele>
        <time>2012-03-31T12:21:23Z</time>
      </trkpt>
      <trkpt lat="42.3048" lon="2.65574">
        <ele>705.834</ele>
        <time>2012-03-31T12:21:24Z</time>
      </trkpt>
      <trkpt lat="42.30452" lon="2.65598">
        <ele>702.963</ele>
        <time>2012-03-31T12:21:36Z</time>
      </trkpt>
      <trkpt lat="42.30426" lon="2.65631">
        <ele>700.972</ele>
        <time>2012-03-31T12:21:47Z</time>
      </trkpt>
      <trkpt lat="42.3042" lon="2.65646">
        <ele>702.413</ele>
        <time>2012-03-31T12:21:52Z</time>
      </trkpt>
      <trkpt lat="42.30409" lon="2.65668">
        <ele>703.814</ele>
        <time>2012-03-31T12:22:02Z</time>
      </trkpt>
      <trkpt lat="42.30409" lon="2.65676">
        <ele>704.307</ele>
        <time>2012-03-31T12:22:05Z</time>
      </trkpt>
      <trkpt lat="42.304" lon="2.65713">
        <ele>706.759</ele>
        <time>2012-03-31T12:22:20Z</time>
      </trkpt>
      <trkpt lat="42.30399" lon="2.65716">
        <ele>706.743</ele>
        <time>2012-03-31T12:22:21Z</time>
      </trkpt>
      <trkpt lat="42.30391" lon="2.65737">
        <ele>707.713</ele>
        <time>2012-03-31T12:22:30Z</time>
      </trkpt>
      <trkpt lat="42.30389" lon="2.65745">
        <ele>710.118</ele>
        <time>2012-03-31T12:22:33Z</time>
      </trkpt>
      <trkpt lat="42.30388" lon="2.65748">
        <ele>709.613</ele>
        <time>2012-03-31T12:22:34Z</time>
      </trkpt>
      <trkpt lat="42.30378" lon="2.65781">
        <ele>711.536</ele>
        <time>2012-03-31T12:22:47Z</time>
      </trkpt>
      <trkpt lat="42.30366" lon="2.65806">
        <ele>713.935</ele>
        <time>2012-03-31T12:23:00Z</time>
      </trkpt>
      <trkpt lat="42.30353" lon="2.65832">
        <ele>715.872</ele>
        <time>2012-03-31T12:23:12Z</time>
      </trkpt>
      <trkpt lat="42.30338" lon="2.65864">
        <ele>717.813</ele>
        <time>2012-03-31T12:23:25Z</time>
      </trkpt>
      <trkpt lat="42.30322" lon="2.65904">
        <ele>720.214</ele>
        <time>2012-03-31T12:23:39Z</time>
      </trkpt>
      <trkpt lat="42.30303" lon="2.65942">
        <ele>720.707</ele>
        <time>2012-03-31T12:23:55Z</time>
      </trkpt>
      <trkpt lat="42.30281" lon="2.65972">
        <ele>721.699</ele>
        <time>2012-03-31T12:24:08Z</time>
      </trkpt>
      <trkpt lat="42.30252" lon="2.6599">
        <ele>723.573</ele>
        <time>2012-03-31T12:24:25Z</time>
      </trkpt>
      <trkpt lat="42.30224" lon="2.66007">
        <ele>726.433</ele>
        <time>2012-03-31T12:24:40Z</time>
      </trkpt>
      <trkpt lat="42.30196" lon="2.66019">
        <ele>728.378</ele>
        <time>2012-03-31T12:24:55Z</time>
      </trkpt>
      <trkpt lat="42.30164" lon="2.66026">
        <ele>731.213</ele>
        <time>2012-03-31T12:25:11Z</time>
      </trkpt>
      <trkpt lat="42.30129" lon="2.66019">
        <ele>732.266</ele>
        <time>2012-03-31T12:25:26Z</time>
      </trkpt>
      <trkpt lat="42.30092" lon="2.66019">
        <ele>735.615</ele>
        <time>2012-03-31T12:25:43Z</time>
      </trkpt>
      <trkpt lat="42.3009" lon="2.6602">
        <ele>734.196</ele>
        <time>2012-03-31T12:25:44Z</time>
      </trkpt>
      <trkpt lat="42.30066" lon="2.66034">
        <ele>734.631</ele>
        <time>2012-03-31T12:25:57Z</time>
      </trkpt>
      <trkpt lat="42.3004" lon="2.6606">
        <ele>735.124</ele>
        <time>2012-03-31T12:26:09Z</time>
      </trkpt>
      <trkpt lat="42.30022" lon="2.66078">
        <ele>736.007</ele>
        <time>2012-03-31T12:26:20Z</time>
      </trkpt>
      <trkpt lat="42.29998" lon="2.6609">
        <ele>737.031</ele>
        <time>2012-03-31T12:26:32Z</time>
      </trkpt>
      <trkpt lat="42.29973" lon="2.66101">
        <ele>737.565</ele>
        <time>2012-03-31T12:26:44Z</time>
      </trkpt>
      <trkpt lat="42.2995" lon="2.66114">
        <ele>738.945</ele>
        <time>2012-03-31T12:26:55Z</time>
      </trkpt>
      <trkpt lat="42.29939" lon="2.66124">
        <ele>738.98</ele>
        <time>2012-03-31T12:27:02Z</time>
      </trkpt>
      <trkpt lat="42.2993" lon="2.66148">
        <ele>739.945</ele>
        <time>2012-03-31T12:27:11Z</time>
      </trkpt>
      <trkpt lat="42.29914" lon="2.66173">
        <ele>741.358</ele>
        <time>2012-03-31T12:27:23Z</time>
      </trkpt>
      <trkpt lat="42.29911" lon="2.66176">
        <ele>741.317</ele>
        <time>2012-03-31T12:27:25Z</time>
      </trkpt>
      <trkpt lat="42.29884" lon="2.66201">
        <ele>742.335</ele>
        <time>2012-03-31T12:27:39Z</time>
      </trkpt>
      <trkpt lat="42.29861" lon="2.6621">
        <ele>743.786</ele>
        <time>2012-03-31T12:27:50Z</time>
      </trkpt>
      <trkpt lat="42.29859" lon="2.66211">
        <ele>743.714</ele>
        <time>2012-03-31T12:27:51Z</time>
      </trkpt>
      <trkpt lat="42.29849" lon="2.66215">
        <ele>744.207</ele>
        <time>2012-03-31T12:27:56Z</time>
      </trkpt>
      <trkpt lat="42.29832" lon="2.6622">
        <ele>744.245</ele>
        <time>2012-03-31T12:28:03Z</time>
      </trkpt>
      <trkpt lat="42.29807" lon="2.66231">
        <ele>745.259</ele>
        <time>2012-03-31T12:28:14Z</time>
      </trkpt>
      <trkpt lat="42.29787" lon="2.6624">
        <ele>745.639</ele>
        <time>2012-03-31T12:28:24Z</time>
      </trkpt>
      <trkpt lat="42.29777" lon="2.66246">
        <ele>746.674</ele>
        <time>2012-03-31T12:28:29Z</time>
      </trkpt>
      <trkpt lat="42.29749" lon="2.66266">
        <ele>747.669</ele>
        <time>2012-03-31T12:28:43Z</time>
      </trkpt>
      <trkpt lat="42.29739" lon="2.66275">
        <ele>748.032</ele>
        <time>2012-03-31T12:28:49Z</time>
      </trkpt>
      <trkpt lat="42.29721" lon="2.66296">
        <ele>749.551</ele>
        <time>2012-03-31T12:29:00Z</time>
      </trkpt>
      <trkpt lat="42.29714" lon="2.66304">
        <ele>750.017</ele>
        <time>2012-03-31T12:29:04Z</time>
      </trkpt>
      <trkpt lat="42.29709" lon="2.66311">
        <ele>750.087</ele>
        <time>2012-03-31T12:29:08Z</time>
      </trkpt>
      <trkpt lat="42.29693" lon="2.66333">
        <ele>750.915</ele>
        <time>2012-03-31T12:29:18Z</time>
      </trkpt>
      <trkpt lat="42.29687" lon="2.66344">
        <ele>751.907</ele>
        <time>2012-03-31T12:29:23Z</time>
      </trkpt>
      <trkpt lat="42.2968" lon="2.66353">
        <ele>752.923</ele>
        <time>2012-03-31T12:29:27Z</time>
      </trkpt>
      <trkpt lat="42.29653" lon="2.66374">
        <ele>752.957</ele>
        <time>2012-03-31T12:29:42Z</time>
      </trkpt>
      <trkpt lat="42.29646" lon="2.66379">
        <ele>753.357</ele>
        <time>2012-03-31T12:29:46Z</time>
      </trkpt>
      <trkpt lat="42.29639" lon="2.66385">
        <ele>753.362</ele>
        <time>2012-03-31T12:29:50Z</time>
      </trkpt>
      <trkpt lat="42.29626" lon="2.66397">
        <ele>753.337</ele>
        <time>2012-03-31T12:29:57Z</time>
      </trkpt>
      <trkpt lat="42.29611" lon="2.66415">
        <ele>753.37</ele>
        <time>2012-03-31T12:30:05Z</time>
      </trkpt>
      <trkpt lat="42.29605" lon="2.66429">
        <ele>752.919</ele>
        <time>2012-03-31T12:30:10Z</time>
      </trkpt>
      <trkpt lat="42.29598" lon="2.66458">
        <ele>752.979</ele>
        <time>2012-03-31T12:30:19Z</time>
      </trkpt>
      <trkpt lat="42.29588" lon="2.66491">
        <ele>752.905</ele>
        <time>2012-03-31T12:30:30Z</time>
      </trkpt>
      <trkpt lat="42.29585" lon="2.66505">
        <ele>753.825</ele>
        <time>2012-03-31T12:30:35Z</time>
      </trkpt>
      <trkpt lat="42.29581" lon="2.66546">
        <ele>754.807</ele>
        <time>2012-03-31T12:30:49Z</time>
      </trkpt>
      <trkpt lat="42.2958" lon="2.66549">
        <ele>755.369</ele>
        <time>2012-03-31T12:30:50Z</time>
      </trkpt>
      <trkpt lat="42.29577" lon="2.66576">
        <ele>756.213</ele>
        <time>2012-03-31T12:31:00Z</time>
      </trkpt>
      <trkpt lat="42.29568" lon="2.66615">
        <ele>758.133</ele>
        <time>2012-03-31T12:31:15Z</time>
      </trkpt>
      <trkpt lat="42.29557" lon="2.66647">
        <ele>760.598</ele>
        <time>2012-03-31T12:31:29Z</time>
      </trkpt>
      <trkpt lat="42.29538" lon="2.66675">
        <ele>763.463</ele>
        <time>2012-03-31T12:31:43Z</time>
      </trkpt>
      <trkpt lat="42.29521" lon="2.66698">
        <ele>765.486</ele>
        <time>2012-03-31T12:31:55Z</time>
      </trkpt>
      <trkpt lat="42.29506" lon="2.66726">
        <ele>767.865</ele>
        <time>2012-03-31T12:32:09Z</time>
      </trkpt>
      <trkpt lat="42.2948" lon="2.66745">
        <ele>768.784</ele>
        <time>2012-03-31T12:32:23Z</time>
      </trkpt>
      <trkpt lat="42.29449" lon="2.66766">
        <ele>769.707</ele>
        <time>2012-03-31T12:32:38Z</time>
      </trkpt>
      <trkpt lat="42.29435" lon="2.66788">
        <ele>771.617</ele>
        <time>2012-03-31T12:32:48Z</time>
      </trkpt>
      <trkpt lat="42.2944" lon="2.66814">
        <ele>775.907</ele>
        <time>2012-03-31T12:32:58Z</time>
      </trkpt>
      <trkpt lat="42.29447" lon="2.66827">
        <ele>775.91</ele>
        <time>2012-03-31T12:33:04Z</time>
      </trkpt>
      <trkpt lat="42.29456" lon="2.6686">
        <ele>778.884</ele>
        <time>2012-03-31T12:33:17Z</time>
      </trkpt>
      <trkpt lat="42.29466" lon="2.66897">
        <ele>780.714</ele>
        <time>2012-03-31T12:33:31Z</time>
      </trkpt>
      <trkpt lat="42.29468" lon="2.66902">
        <ele>781.219</ele>
        <time>2012-03-31T12:33:33Z</time>
      </trkpt>
      <trkpt lat="42.29472" lon="2.66912">
        <ele>781.734</ele>
        <time>2012-03-31T12:33:37Z</time>
      </trkpt>
      <trkpt lat="42.29482" lon="2.66944">
        <ele>784.657</ele>
        <time>2012-03-31T12:33:51Z</time>
      </trkpt>
      <trkpt lat="42.29492" lon="2.66974">
        <ele>786.566</ele>
        <time>2012-03-31T12:34:02Z</time>
      </trkpt>
      <trkpt lat="42.29497" lon="2.67007">
        <ele>788.472</ele>
        <time>2012-03-31T12:34:14Z</time>
      </trkpt>
      <trkpt lat="42.29493" lon="2.67045">
        <ele>788.913</ele>
        <time>2012-03-31T12:34:26Z</time>
      </trkpt>
      <trkpt lat="42.29492" lon="2.67083">
        <ele>790.314</ele>
        <time>2012-03-31T12:34:38Z</time>
      </trkpt>
      <trkpt lat="42.29501" lon="2.67112">
        <ele>791.307</ele>
        <time>2012-03-31T12:34:48Z</time>
      </trkpt>
      <trkpt lat="42.29511" lon="2.67149">
        <ele>793.759</ele>
        <time>2012-03-31T12:35:00Z</time>
      </trkpt>
      <trkpt lat="42.29515" lon="2.67198">
        <ele>794.793</ele>
        <time>2012-03-31T12:35:14Z</time>
      </trkpt>
      <trkpt lat="42.29519" lon="2.6724">
        <ele>796.673</ele>
        <time>2012-03-31T12:35:28Z</time>
      </trkpt>
      <trkpt lat="42.29521" lon="2.67277">
        <ele>796.618</ele>
        <time>2012-03-31T12:35:39Z</time>
      </trkpt>
      <trkpt lat="42.29512" lon="2.67319">
        <ele>796.683</ele>
        <time>2012-03-31T12:35:52Z</time>
      </trkpt>
      <trkpt lat="42.29499" lon="2.67362">
        <ele>798.056</ele>
        <time>2012-03-31T12:36:05Z</time>
      </trkpt>
      <trkpt lat="42.29491" lon="2.67407">
        <ele>798.535</ele>
        <time>2012-03-31T12:36:19Z</time>
      </trkpt>
      <trkpt lat="42.29484" lon="2.67443">
        <ele>797.641</ele>
        <time>2012-03-31T12:36:31Z</time>
      </trkpt>
      <trkpt lat="42.29481" lon="2.67471">
        <ele>797.181</ele>
        <time>2012-03-31T12:36:38Z</time>
      </trkpt>
      <trkpt lat="42.29482" lon="2.67487">
        <ele>797.609</ele>
        <time>2012-03-31T12:36:42Z</time>
      </trkpt>
      <trkpt lat="42.29482" lon="2.67498">
        <ele>798.007</ele>
        <time>2012-03-31T12:36:45Z</time>
      </trkpt>
      <trkpt lat="42.29481" lon="2.67515">
        <ele>798.096</ele>
        <time>2012-03-31T12:36:50Z</time>
      </trkpt>
      <trkpt lat="42.29482" lon="2.67521">
        <ele>798.01</ele>
        <time>2012-03-31T12:36:52Z</time>
      </trkpt>
      <trkpt lat="42.29479" lon="2.67547">
        <ele>799.53</ele>
        <time>2012-03-31T12:37:00Z</time>
      </trkpt>
      <trkpt lat="42.29478" lon="2.6755">
        <ele>799.565</ele>
        <time>2012-03-31T12:37:01Z</time>
      </trkpt>
      <trkpt lat="42.29483" lon="2.67583">
        <ele>800.99</ele>
        <time>2012-03-31T12:37:13Z</time>
      </trkpt>
      <trkpt lat="42.29487" lon="2.67612">
        <ele>801.943</ele>
        <time>2012-03-31T12:37:23Z</time>
      </trkpt>
      <trkpt lat="42.29488" lon="2.67624">
        <ele>802.452</ele>
        <time>2012-03-31T12:37:27Z</time>
      </trkpt>
      <trkpt lat="42.2949" lon="2.67673">
        <ele>803.827</ele>
        <time>2012-03-31T12:37:41Z</time>
      </trkpt>
      <trkpt lat="42.29495" lon="2.67706">
        <ele>804.368</ele>
        <time>2012-03-31T12:37:51Z</time>
      </trkpt>
      <trkpt lat="42.29502" lon="2.67731">
        <ele>804.314</ele>
        <time>2012-03-31T12:37:59Z</time>
      </trkpt>
      <trkpt lat="42.29507" lon="2.67762">
        <ele>804.307</ele>
        <time>2012-03-31T12:38:07Z</time>
      </trkpt>
      <trkpt lat="42.29521" lon="2.678">
        <ele>803.854</ele>
        <time>2012-03-31T12:38:19Z</time>
      </trkpt>
      <trkpt lat="42.29538" lon="2.67831">
        <ele>803.328</ele>
        <time>2012-03-31T12:38:30Z</time>
      </trkpt>
      <trkpt lat="42.29542" lon="2.67835">
        <ele>802.438</ele>
        <time>2012-03-31T12:38:32Z</time>
      </trkpt>
      <trkpt lat="42.2955" lon="2.67844">
        <ele>801.483</ele>
        <time>2012-03-31T12:38:36Z</time>
      </trkpt>
      <trkpt lat="42.2957" lon="2.67879">
        <ele>799.078</ele>
        <time>2012-03-31T12:38:47Z</time>
      </trkpt>
      <trkpt lat="42.29584" lon="2.67908">
        <ele>798.081</ele>
        <time>2012-03-31T12:38:56Z</time>
      </trkpt>
      <trkpt lat="42.29586" lon="2.6791">
        <ele>798.58</ele>
        <time>2012-03-31T12:38:57Z</time>
      </trkpt>
      <trkpt lat="42.29606" lon="2.6792">
        <ele>798.041</ele>
        <time>2012-03-31T12:39:05Z</time>
      </trkpt>
      <trkpt lat="42.29623" lon="2.6795">
        <ele>796.181</ele>
        <time>2012-03-31T12:39:16Z</time>
      </trkpt>
      <trkpt lat="42.29629" lon="2.67961">
        <ele>794.209</ele>
        <time>2012-03-31T12:39:19Z</time>
      </trkpt>
      <trkpt lat="42.29634" lon="2.68011">
        <ele>792.707</ele>
        <time>2012-03-31T12:39:31Z</time>
      </trkpt>
      <trkpt lat="42.29636" lon="2.68032">
        <ele>793.746</ele>
        <time>2012-03-31T12:39:38Z</time>
      </trkpt>
      <trkpt lat="42.29644" lon="2.68047">
        <ele>795.28</ele>
        <time>2012-03-31T12:39:43Z</time>
      </trkpt>
      <trkpt lat="42.29675" lon="2.68073">
        <ele>796.11</ele>
        <time>2012-03-31T12:39:57Z</time>
      </trkpt>
      <trkpt lat="42.29686" lon="2.68107">
        <ele>795.685</ele>
        <time>2012-03-31T12:40:08Z</time>
      </trkpt>
      <trkpt lat="42.29697" lon="2.68149">
        <ele>796.12</ele>
        <time>2012-03-31T12:40:21Z</time>
      </trkpt>
      <trkpt lat="42.29705" lon="2.68208">
        <ele>797.143</ele>
        <time>2012-03-31T12:40:40Z</time>
      </trkpt>
      <trkpt lat="42.29715" lon="2.68251">
        <ele>797.112</ele>
        <time>2012-03-31T12:40:53Z</time>
      </trkpt>
      <trkpt lat="42.29718" lon="2.68279">
        <ele>797.184</ele>
        <time>2012-03-31T12:41:01Z</time>
      </trkpt>
      <trkpt lat="42.29709" lon="2.68334">
        <ele>797.607</ele>
        <time>2012-03-31T12:41:17Z</time>
      </trkpt>
      <trkpt lat="42.29685" lon="2.68383">
        <ele>800.017</ele>
        <time>2012-03-31T12:41:33Z</time>
      </trkpt>
      <trkpt lat="42.29668" lon="2.68431">
        <ele>802.807</ele>
        <time>2012-03-31T12:41:50Z</time>
      </trkpt>
      <trkpt lat="42.29652" lon="2.68486">
        <ele>801.43</ele>
        <time>2012-03-31T12:42:07Z</time>
      </trkpt>
      <trkpt lat="42.29633" lon="2.68544">
        <ele>802.484</ele>
        <time>2012-03-31T12:42:24Z</time>
      </trkpt>
      <trkpt lat="42.2962" lon="2.68588">
        <ele>803.874</ele>
        <time>2012-03-31T12:42:38Z</time>
      </trkpt>
      <trkpt lat="42.29613" lon="2.68629">
        <ele>804.859</ele>
        <time>2012-03-31T12:42:50Z</time>
      </trkpt>
      <trkpt lat="42.29608" lon="2.68666">
        <ele>805.714</ele>
        <time>2012-03-31T12:43:02Z</time>
      </trkpt>
      <trkpt lat="42.29595" lon="2.68719">
        <ele>807.277</ele>
        <time>2012-03-31T12:43:18Z</time>
      </trkpt>
      <trkpt lat="42.29574" lon="2.68764">
        <ele>806.736</ele>
        <time>2012-03-31T12:43:34Z</time>
      </trkpt>
      <trkpt lat="42.29552" lon="2.68811">
        <ele>803.399</ele>
        <time>2012-03-31T12:43:48Z</time>
      </trkpt>
      <trkpt lat="42.29542" lon="2.68832">
        <ele>801.907</ele>
        <time>2012-03-31T12:43:54Z</time>
      </trkpt>
      <trkpt lat="42.29518" lon="2.68879">
        <ele>801.927</ele>
        <time>2012-03-31T12:44:08Z</time>
      </trkpt>
      <trkpt lat="42.29498" lon="2.68915">
        <ele>801.907</ele>
        <time>2012-03-31T12:44:21Z</time>
      </trkpt>
      <trkpt lat="42.29468" lon="2.68953">
        <ele>804.391</ele>
        <time>2012-03-31T12:44:37Z</time>
      </trkpt>
      <trkpt lat="42.29453" lon="2.68997">
        <ele>804.825</ele>
        <time>2012-03-31T12:44:51Z</time>
      </trkpt>
      <trkpt lat="42.29439" lon="2.69048">
        <ele>805.265</ele>
        <time>2012-03-31T12:45:06Z</time>
      </trkpt>
      <trkpt lat="42.29424" lon="2.69093">
        <ele>803.86</ele>
        <time>2012-03-31T12:45:20Z</time>
      </trkpt>
      <trkpt lat="42.29402" lon="2.69119">
        <ele>803.895</ele>
        <time>2012-03-31T12:45:33Z</time>
      </trkpt>
      <trkpt lat="42.29391" lon="2.69129">
        <ele>802.488</ele>
        <time>2012-03-31T12:45:38Z</time>
      </trkpt>
      <trkpt lat="42.29384" lon="2.69137">
        <ele>801.437</ele>
        <time>2012-03-31T12:45:42Z</time>
      </trkpt>
      <trkpt lat="42.29366" lon="2.6917">
        <ele>800.047</ele>
        <time>2012-03-31T12:45:54Z</time>
      </trkpt>
      <trkpt lat="42.2935" lon="2.69189">
        <ele>796.629</ele>
        <time>2012-03-31T12:46:02Z</time>
      </trkpt>
      <trkpt lat="42.29342" lon="2.69195">
        <ele>795.621</ele>
        <time>2012-03-31T12:46:05Z</time>
      </trkpt>
      <trkpt lat="42.29335" lon="2.69206">
        <ele>794.207</ele>
        <time>2012-03-31T12:46:09Z</time>
      </trkpt>
      <trkpt lat="42.29339" lon="2.69221">
        <ele>791.846</ele>
        <time>2012-03-31T12:46:13Z</time>
      </trkpt>
      <trkpt lat="42.29346" lon="2.69249">
        <ele>788.96</ele>
        <time>2012-03-31T12:46:21Z</time>
      </trkpt>
      <trkpt lat="42.29342" lon="2.69263">
        <ele>787.03</ele>
        <time>2012-03-31T12:46:25Z</time>
      </trkpt>
      <trkpt lat="42.2931" lon="2.69279">
        <ele>784.185</ele>
        <time>2012-03-31T12:46:38Z</time>
      </trkpt>
      <trkpt lat="42.29273" lon="2.69295">
        <ele>783.15</ele>
        <time>2012-03-31T12:46:52Z</time>
      </trkpt>
      <trkpt lat="42.29241" lon="2.69321">
        <ele>782.763</ele>
        <time>2012-03-31T12:47:05Z</time>
      </trkpt>
      <trkpt lat="42.29213" lon="2.69348">
        <ele>782.232</ele>
        <time>2012-03-31T12:47:17Z</time>
      </trkpt>
      <trkpt lat="42.2919" lon="2.69374">
        <ele>781.748</ele>
        <time>2012-03-31T12:47:27Z</time>
      </trkpt>
      <trkpt lat="42.29175" lon="2.69402">
        <ele>780.361</ele>
        <time>2012-03-31T12:47:36Z</time>
      </trkpt>
      <trkpt lat="42.2915" lon="2.69426">
        <ele>778.817</ele>
        <time>2012-03-31T12:47:46Z</time>
      </trkpt>
      <trkpt lat="42.29121" lon="2.69432">
        <ele>778.807</ele>
        <time>2012-03-31T12:47:57Z</time>
      </trkpt>
      <trkpt lat="42.29089" lon="2.69433">
        <ele>778.396</ele>
        <time>2012-03-31T12:48:09Z</time>
      </trkpt>
      <trkpt lat="42.29081" lon="2.69435">
        <ele>776.92</ele>
        <time>2012-03-31T12:48:12Z</time>
      </trkpt>
      <trkpt lat="42.29048" lon="2.69422">
        <ele>774.03</ele>
        <time>2012-03-31T12:48:23Z</time>
      </trkpt>
      <trkpt lat="42.29015" lon="2.69405">
        <ele>771.145</ele>
        <time>2012-03-31T12:48:34Z</time>
      </trkpt>
      <trkpt lat="42.28995" lon="2.69385">
        <ele>769.77</ele>
        <time>2012-03-31T12:48:42Z</time>
      </trkpt>
      <trkpt lat="42.28972" lon="2.6936">
        <ele>767.833</ele>
        <time>2012-03-31T12:48:52Z</time>
      </trkpt>
      <trkpt lat="42.28952" lon="2.69344">
        <ele>764.442</ele>
        <time>2012-03-31T12:49:01Z</time>
      </trkpt>
      <trkpt lat="42.28949" lon="2.69343">
        <ele>764.499</ele>
        <time>2012-03-31T12:49:02Z</time>
      </trkpt>
      <trkpt lat="42.2894" lon="2.69339">
        <ele>762.907</ele>
        <time>2012-03-31T12:49:05Z</time>
      </trkpt>
      <trkpt lat="42.28914" lon="2.69319">
        <ele>759.127</ele>
        <time>2012-03-31T12:49:15Z</time>
      </trkpt>
      <trkpt lat="42.28912" lon="2.69316">
        <ele>759.107</ele>
        <time>2012-03-31T12:49:16Z</time>
      </trkpt>
      <trkpt lat="42.28898" lon="2.69288">
        <ele>756.261</ele>
        <time>2012-03-31T12:49:24Z</time>
      </trkpt>
      <trkpt lat="42.28894" lon="2.69282">
        <ele>755.355</ele>
        <time>2012-03-31T12:49:26Z</time>
      </trkpt>
      <trkpt lat="42.28873" lon="2.69266">
        <ele>753.355</ele>
        <time>2012-03-31T12:49:34Z</time>
      </trkpt>
      <trkpt lat="42.28872" lon="2.69264">
        <ele>753.36</ele>
        <time>2012-03-31T12:49:35Z</time>
      </trkpt>
      <trkpt lat="42.28851" lon="2.69239">
        <ele>750.045</ele>
        <time>2012-03-31T12:49:45Z</time>
      </trkpt>
      <trkpt lat="42.28837" lon="2.69231">
        <ele>750.028</ele>
        <time>2012-03-31T12:49:50Z</time>
      </trkpt>
      <trkpt lat="42.28826" lon="2.69222">
        <ele>749.047</ele>
        <time>2012-03-31T12:49:55Z</time>
      </trkpt>
      <trkpt lat="42.28817" lon="2.69211">
        <ele>748.555</ele>
        <time>2012-03-31T12:50:00Z</time>
      </trkpt>
      <trkpt lat="42.28808" lon="2.69196">
        <ele>748.007</ele>
        <time>2012-03-31T12:50:05Z</time>
      </trkpt>
      <trkpt lat="42.28797" lon="2.69176">
        <ele>748.017</ele>
        <time>2012-03-31T12:50:12Z</time>
      </trkpt>
      <trkpt lat="42.28778" lon="2.69148">
        <ele>749.507</ele>
        <time>2012-03-31T12:50:24Z</time>
      </trkpt>
      <trkpt lat="42.28759" lon="2.69135">
        <ele>751.997</ele>
        <time>2012-03-31T12:50:32Z</time>
      </trkpt>
      <trkpt lat="42.28754" lon="2.69133">
        <ele>751.951</ele>
        <time>2012-03-31T12:50:34Z</time>
      </trkpt>
      <trkpt lat="42.28732" lon="2.69131">
        <ele>752.471</ele>
        <time>2012-03-31T12:50:43Z</time>
      </trkpt>
      <trkpt lat="42.28729" lon="2.69131">
        <ele>752.486</ele>
        <time>2012-03-31T12:50:44Z</time>
      </trkpt>
      <trkpt lat="42.28722" lon="2.69132">
        <ele>752.991</ele>
        <time>2012-03-31T12:50:47Z</time>
      </trkpt>
      <trkpt lat="42.28697" lon="2.69129">
        <ele>752.454</ele>
        <time>2012-03-31T12:50:57Z</time>
      </trkpt>
      <trkpt lat="42.2868" lon="2.69134">
        <ele>753.353</ele>
        <time>2012-03-31T12:51:04Z</time>
      </trkpt>
      <trkpt lat="42.28653" lon="2.69146">
        <ele>752.955</ele>
        <time>2012-03-31T12:51:16Z</time>
      </trkpt>
      <trkpt lat="42.28628" lon="2.69157">
        <ele>751.907</ele>
        <time>2012-03-31T12:51:27Z</time>
      </trkpt>
      <trkpt lat="42.28619" lon="2.69161">
        <ele>751.917</ele>
        <time>2012-03-31T12:51:30Z</time>
      </trkpt>
      <trkpt lat="42.28587" lon="2.69171">
        <ele>750.007</ele>
        <time>2012-03-31T12:51:41Z</time>
      </trkpt>
      <trkpt lat="42.2834" lon="2.69199">
        <ele>759.197</ele>
        <time>2012-03-31T12:54:52Z</time>
      </trkpt>
      <trkpt lat="42.28339" lon="2.692">
        <ele>758.671</ele>
        <time>2012-03-31T12:54:53Z</time>
      </trkpt>
      <trkpt lat="42.28333" lon="2.69208">
        <ele>755.751</ele>
        <time>2012-03-31T12:55:22Z</time>
      </trkpt>
      <trkpt lat="42.28336" lon="2.69209">
        <ele>752.456</ele>
        <time>2012-03-31T12:55:37Z</time>
      </trkpt>
      <trkpt lat="42.28339" lon="2.69207">
        <ele>749.591</ele>
        <time>2012-03-31T12:55:54Z</time>
      </trkpt>
      <trkpt lat="42.28336" lon="2.69203">
        <ele>750.544</ele>
        <time>2012-03-31T12:56:17Z</time>
      </trkpt>
      <trkpt lat="42.28337" lon="2.69208">
        <ele>750.513</ele>
        <time>2012-03-31T12:56:34Z</time>
      </trkpt>
      <trkpt lat="42.28337" lon="2.69208">
        <ele>750.997</ele>
        <time>2012-03-31T12:56:50Z</time>
      </trkpt>
      <trkpt lat="42.28337" lon="2.69208">
        <ele>750.923</ele>
        <time>2012-03-31T12:57:04Z</time>
      </trkpt>
      <trkpt lat="42.28337" lon="2.69208">
        <ele>750.525</ele>
        <time>2012-03-31T12:57:25Z</time>
      </trkpt>
      <trkpt lat="42.28333" lon="2.69209">
        <ele>750.507</ele>
        <time>2012-03-31T12:57:37Z</time>
      </trkpt>
      <trkpt lat="42.28323" lon="2.69204">
        <ele>750.561</ele>
        <time>2012-03-31T12:57:45Z</time>
      </trkpt>
      <trkpt lat="42.28313" lon="2.69202">
        <ele>752.465</ele>
        <time>2012-03-31T12:57:54Z</time>
      </trkpt>
      <trkpt lat="42.28308" lon="2.69198">
        <ele>753.885</ele>
        <time>2012-03-31T12:58:00Z</time>
      </trkpt>
      <trkpt lat="42.28307" lon="2.69182">
        <ele>755.39</ele>
        <time>2012-03-31T12:58:09Z</time>
      </trkpt>
      <trkpt lat="42.28309" lon="2.69173">
        <ele>755.795</ele>
        <time>2012-03-31T12:58:13Z</time>
      </trkpt>
      <trkpt lat="42.2831" lon="2.69154">
        <ele>758.168</ele>
        <time>2012-03-31T12:58:26Z</time>
      </trkpt>
      <trkpt lat="42.2831" lon="2.69149">
        <ele>758.627</ele>
        <time>2012-03-31T12:58:29Z</time>
      </trkpt>
      <trkpt lat="42.28306" lon="2.69135">
        <ele>758.196</ele>
        <time>2012-03-31T12:58:37Z</time>
      </trkpt>
      <trkpt lat="42.28304" lon="2.6913">
        <ele>760.131</ele>
        <time>2012-03-31T12:58:40Z</time>
      </trkpt>
      <trkpt lat="42.28304" lon="2.69122">
        <ele>760.524</ele>
        <time>2012-03-31T12:58:44Z</time>
      </trkpt>
      <trkpt lat="42.28306" lon="2.69111">
        <ele>761.507</ele>
        <time>2012-03-31T12:58:50Z</time>
      </trkpt>
      <trkpt lat="42.28314" lon="2.69094">
        <ele>763.491</ele>
        <time>2012-03-31T12:59:01Z</time>
      </trkpt>
      <trkpt lat="42.28314" lon="2.69093">
        <ele>763.475</ele>
        <time>2012-03-31T12:59:02Z</time>
      </trkpt>
      <trkpt lat="42.28317" lon="2.69089">
        <ele>764.955</ele>
        <time>2012-03-31T12:59:18Z</time>
      </trkpt>
      <trkpt lat="42.28316" lon="2.69091">
        <ele>764.45</ele>
        <time>2012-03-31T12:59:44Z</time>
      </trkpt>
      <trkpt lat="42.28313" lon="2.69097">
        <ele>763.455</ele>
        <time>2012-03-31T12:59:48Z</time>
      </trkpt>
      <trkpt lat="42.28309" lon="2.69109">
        <ele>761.568</ele>
        <time>2012-03-31T12:59:52Z</time>
      </trkpt>
      <trkpt lat="42.28306" lon="2.69114">
        <ele>760.557</ele>
        <time>2012-03-31T12:59:54Z</time>
      </trkpt>
      <trkpt lat="42.28301" lon="2.69134">
        <ele>758.627</ele>
        <time>2012-03-31T13:00:01Z</time>
      </trkpt>
      <trkpt lat="42.28301" lon="2.69144">
        <ele>757.768</ele>
        <time>2012-03-31T13:00:04Z</time>
      </trkpt>
      <trkpt lat="42.28303" lon="2.69169">
        <ele>755.314</ele>
        <time>2012-03-31T13:00:11Z</time>
      </trkpt>
      <trkpt lat="42.28306" lon="2.69192">
        <ele>753.807</ele>
        <time>2012-03-31T13:00:19Z</time>
      </trkpt>
      <trkpt lat="42.28311" lon="2.692">
        <ele>752.434</ele>
        <time>2012-03-31T13:00:25Z</time>
      </trkpt>
      <trkpt lat="42.28329" lon="2.69205">
        <ele>750.598</ele>
        <time>2012-03-31T13:00:33Z</time>
      </trkpt>
      <trkpt lat="42.28331" lon="2.69207">
        <ele>750.078</ele>
        <time>2012-03-31T13:00:35Z</time>
      </trkpt>
      <trkpt lat="42.28321" lon="2.6922">
        <ele>748.593</ele>
        <time>2012-03-31T13:00:41Z</time>
      </trkpt>
      <trkpt lat="42.28317" lon="2.69222">
        <ele>748.068</ele>
        <time>2012-03-31T13:00:43Z</time>
      </trkpt>
      <trkpt lat="42.28294" lon="2.69222">
        <ele>746.181</ele>
        <time>2012-03-31T13:00:53Z</time>
      </trkpt>
      <trkpt lat="42.28283" lon="2.6922">
        <ele>744.27</ele>
        <time>2012-03-31T13:00:57Z</time>
      </trkpt>
      <trkpt lat="42.28273" lon="2.69219">
        <ele>743.737</ele>
        <time>2012-03-31T13:01:01Z</time>
      </trkpt>
      <trkpt lat="42.28259" lon="2.69219">
        <ele>742.349</ele>
        <time>2012-03-31T13:01:06Z</time>
      </trkpt>
      <trkpt lat="42.28249" lon="2.69227">
        <ele>741.313</ele>
        <time>2012-03-31T13:01:10Z</time>
      </trkpt>
      <trkpt lat="42.28246" lon="2.69227">
        <ele>740.807</ele>
        <time>2012-03-31T13:01:11Z</time>
      </trkpt>
      <trkpt lat="42.28233" lon="2.69231">
        <ele>740.855</ele>
        <time>2012-03-31T13:01:16Z</time>
      </trkpt>
      <trkpt lat="42.28213" lon="2.69225">
        <ele>740.459</ele>
        <time>2012-03-31T13:01:22Z</time>
      </trkpt>
      <trkpt lat="42.28202" lon="2.69222">
        <ele>740.839</ele>
        <time>2012-03-31T13:01:24Z</time>
      </trkpt>
      <trkpt lat="42.28201" lon="2.69246">
        <ele>740.854</ele>
        <time>2012-03-31T13:01:33Z</time>
      </trkpt>
      <trkpt lat="42.28202" lon="2.69255">
        <ele>741.369</ele>
        <time>2012-03-31T13:01:37Z</time>
      </trkpt>
      <trkpt lat="42.28202" lon="2.69258">
        <ele>741.832</ele>
        <time>2012-03-31T13:01:39Z</time>
      </trkpt>
      <trkpt lat="42.28206" lon="2.69279">
        <ele>743.251</ele>
        <time>2012-03-31T13:01:49Z</time>
      </trkpt>
      <trkpt lat="42.28207" lon="2.69291">
        <ele>745.274</ele>
        <time>2012-03-31T13:01:57Z</time>
      </trkpt>
      <trkpt lat="42.28208" lon="2.693">
        <ele>746.156</ele>
        <time>2012-03-31T13:02:04Z</time>
      </trkpt>
      <trkpt lat="42.28209" lon="2.69319">
        <ele>748.521</ele>
        <time>2012-03-31T13:02:17Z</time>
      </trkpt>
      <trkpt lat="42.28209" lon="2.6932">
        <ele>748.507</ele>
        <time>2012-03-31T13:02:18Z</time>
      </trkpt>
      <trkpt lat="42.28208" lon="2.69326">
        <ele>748.559</ele>
        <time>2012-03-31T13:02:23Z</time>
      </trkpt>
      <trkpt lat="42.28201" lon="2.69344">
        <ele>750.523</ele>
        <time>2012-03-31T13:02:35Z</time>
      </trkpt>
      <trkpt lat="42.28201" lon="2.69346">
        <ele>750.553</ele>
        <time>2012-03-31T13:02:37Z</time>
      </trkpt>
      <trkpt lat="42.28197" lon="2.69357">
        <ele>750.998</ele>
        <time>2012-03-31T13:02:42Z</time>
      </trkpt>
      <trkpt lat="42.2819" lon="2.69373">
        <ele>752.443</ele>
        <time>2012-03-31T13:02:49Z</time>
      </trkpt>
      <trkpt lat="42.28171" lon="2.69383">
        <ele>751.996</ele>
        <time>2012-03-31T13:03:00Z</time>
      </trkpt>
      <trkpt lat="42.28168" lon="2.69381">
        <ele>751.925</ele>
        <time>2012-03-31T13:03:06Z</time>
      </trkpt>
      <trkpt lat="42.28162" lon="2.69382">
        <ele>750.953</ele>
        <time>2012-03-31T13:03:10Z</time>
      </trkpt>
      <trkpt lat="42.28159" lon="2.69383">
        <ele>750.904</ele>
        <time>2012-03-31T13:03:12Z</time>
      </trkpt>
      <trkpt lat="42.28155" lon="2.69382">
        <ele>750.514</ele>
        <time>2012-03-31T13:03:15Z</time>
      </trkpt>
      <trkpt lat="42.28139" lon="2.69379">
        <ele>750.907</ele>
        <time>2012-03-31T13:03:21Z</time>
      </trkpt>
      <trkpt lat="42.28119" lon="2.6938">
        <ele>751.977</ele>
        <time>2012-03-31T13:03:30Z</time>
      </trkpt>
      <trkpt lat="42.28118" lon="2.6938">
        <ele>752.411</ele>
        <time>2012-03-31T13:03:31Z</time>
      </trkpt>
      <trkpt lat="42.28111" lon="2.69383">
        <ele>751.931</ele>
        <time>2012-03-31T13:03:45Z</time>
      </trkpt>
      <trkpt lat="42.28111" lon="2.69384">
        <ele>752.476</ele>
        <time>2012-03-31T13:04:00Z</time>
      </trkpt>
      <trkpt lat="42.2811" lon="2.69383">
        <ele>752.471</ele>
        <time>2012-03-31T13:04:16Z</time>
      </trkpt>
      <trkpt lat="42.2811" lon="2.69384">
        <ele>751.944</ele>
        <time>2012-03-31T13:04:31Z</time>
      </trkpt>
      <trkpt lat="42.2811" lon="2.69384">
        <ele>751.923</ele>
        <time>2012-03-31T13:04:48Z</time>
      </trkpt>
      <trkpt lat="42.28111" lon="2.69384">
        <ele>751.937</ele>
        <time>2012-03-31T13:05:05Z</time>
      </trkpt>
      <trkpt lat="42.28109" lon="2.69384">
        <ele>751.449</ele>
        <time>2012-03-31T13:05:27Z</time>
      </trkpt>
      <trkpt lat="42.28109" lon="2.69384">
        <ele>750.913</ele>
        <time>2012-03-31T13:05:49Z</time>
      </trkpt>
      <trkpt lat="42.28109" lon="2.69384">
        <ele>750.907</ele>
        <time>2012-03-31T13:06:02Z</time>
      </trkpt>
      <trkpt lat="42.28116" lon="2.69395">
        <ele>750.585</ele>
        <time>2012-03-31T13:06:12Z</time>
      </trkpt>
      <trkpt lat="42.28125" lon="2.69415">
        <ele>750.559</ele>
        <time>2012-03-31T13:06:21Z</time>
      </trkpt>
      <trkpt lat="42.28127" lon="2.6942">
        <ele>750.979</ele>
        <time>2012-03-31T13:06:24Z</time>
      </trkpt>
      <trkpt lat="42.28134" lon="2.69431">
        <ele>751.474</ele>
        <time>2012-03-31T13:06:32Z</time>
      </trkpt>
      <trkpt lat="42.28132" lon="2.6944">
        <ele>752.439</ele>
        <time>2012-03-31T13:06:37Z</time>
      </trkpt>
      <trkpt lat="42.2813" lon="2.6945">
        <ele>753.852</ele>
        <time>2012-03-31T13:06:47Z</time>
      </trkpt>
      <trkpt lat="42.2813" lon="2.69455">
        <ele>754.381</ele>
        <time>2012-03-31T13:06:58Z</time>
      </trkpt>
      <trkpt lat="42.28129" lon="2.69462">
        <ele>754.318</ele>
        <time>2012-03-31T13:07:03Z</time>
      </trkpt>
      <trkpt lat="42.28125" lon="2.69489">
        <ele>754.898</ele>
        <time>2012-03-31T13:07:16Z</time>
      </trkpt>
      <trkpt lat="42.28127" lon="2.69494">
        <ele>755.317</ele>
        <time>2012-03-31T13:07:18Z</time>
      </trkpt>
      <trkpt lat="42.28127" lon="2.69506">
        <ele>755.307</ele>
        <time>2012-03-31T13:07:22Z</time>
      </trkpt>
      <trkpt lat="42.28123" lon="2.69521">
        <ele>755.743</ele>
        <time>2012-03-31T13:07:28Z</time>
      </trkpt>
      <trkpt lat="42.28124" lon="2.69525">
        <ele>756.727</ele>
        <time>2012-03-31T13:07:30Z</time>
      </trkpt>
      <trkpt lat="42.28123" lon="2.69533">
        <ele>756.267</ele>
        <time>2012-03-31T13:07:33Z</time>
      </trkpt>
      <trkpt lat="42.28121" lon="2.69543">
        <ele>756.742</ele>
        <time>2012-03-31T13:07:37Z</time>
      </trkpt>
      <trkpt lat="42.28119" lon="2.69546">
        <ele>757.787</ele>
        <time>2012-03-31T13:07:40Z</time>
      </trkpt>
      <trkpt lat="42.28119" lon="2.69556">
        <ele>757.26</ele>
        <time>2012-03-31T13:07:43Z</time>
      </trkpt>
      <trkpt lat="42.28118" lon="2.69569">
        <ele>758.179</ele>
        <time>2012-03-31T13:07:51Z</time>
      </trkpt>
      <trkpt lat="42.28118" lon="2.69582">
        <ele>759.156</ele>
        <time>2012-03-31T13:07:56Z</time>
      </trkpt>
      <trkpt lat="42.28122" lon="2.69597">
        <ele>762.059</ele>
        <time>2012-03-31T13:08:06Z</time>
      </trkpt>
      <trkpt lat="42.28124" lon="2.69603">
        <ele>762.514</ele>
        <time>2012-03-31T13:08:11Z</time>
      </trkpt>
      <trkpt lat="42.28126" lon="2.69629">
        <ele>763.907</ele>
        <time>2012-03-31T13:08:20Z</time>
      </trkpt>
      <trkpt lat="42.28127" lon="2.69637">
        <ele>765.467</ele>
        <time>2012-03-31T13:08:27Z</time>
      </trkpt>
      <trkpt lat="42.28129" lon="2.69657">
        <ele>767.321</ele>
        <time>2012-03-31T13:08:37Z</time>
      </trkpt>
      <trkpt lat="42.28129" lon="2.69663">
        <ele>767.811</ele>
        <time>2012-03-31T13:08:42Z</time>
      </trkpt>
      <trkpt lat="42.28129" lon="2.69667">
        <ele>767.856</ele>
        <time>2012-03-31T13:08:44Z</time>
      </trkpt>
      <trkpt lat="42.2813" lon="2.69679">
        <ele>768.221</ele>
        <time>2012-03-31T13:08:49Z</time>
      </trkpt>
      <trkpt lat="42.28125" lon="2.69692">
        <ele>768.734</ele>
        <time>2012-03-31T13:08:54Z</time>
      </trkpt>
      <trkpt lat="42.28124" lon="2.69701">
        <ele>768.293</ele>
        <time>2012-03-31T13:08:59Z</time>
      </trkpt>
      <trkpt lat="42.28123" lon="2.69704">
        <ele>768.256</ele>
        <time>2012-03-31T13:09:01Z</time>
      </trkpt>
      <trkpt lat="42.28116" lon="2.69718">
        <ele>768.759</ele>
        <time>2012-03-31T13:09:13Z</time>
      </trkpt>
      <trkpt lat="42.28109" lon="2.69726">
        <ele>769.214</ele>
        <time>2012-03-31T13:09:17Z</time>
      </trkpt>
      <trkpt lat="42.28097" lon="2.69751">
        <ele>770.207</ele>
        <time>2012-03-31T13:09:28Z</time>
      </trkpt>
      <trkpt lat="42.28093" lon="2.69755">
        <ele>770.647</ele>
        <time>2012-03-31T13:09:31Z</time>
      </trkpt>
      <trkpt lat="42.28088" lon="2.69764">
        <ele>770.611</ele>
        <time>2012-03-31T13:09:37Z</time>
      </trkpt>
      <trkpt lat="42.28083" lon="2.69781">
        <ele>771.621</ele>
        <time>2012-03-31T13:09:48Z</time>
      </trkpt>
      <trkpt lat="42.28079" lon="2.69795">
        <ele>772.116</ele>
        <time>2012-03-31T13:09:55Z</time>
      </trkpt>
      <trkpt lat="42.28076" lon="2.69803">
        <ele>772.161</ele>
        <time>2012-03-31T13:09:59Z</time>
      </trkpt>
      <trkpt lat="42.28071" lon="2.69811">
        <ele>772.184</ele>
        <time>2012-03-31T13:10:04Z</time>
      </trkpt>
      <trkpt lat="42.2807" lon="2.69813">
        <ele>772.153</ele>
        <time>2012-03-31T13:10:06Z</time>
      </trkpt>
      <trkpt lat="42.28066" lon="2.69823">
        <ele>772.134</ele>
        <time>2012-03-31T13:10:12Z</time>
      </trkpt>
      <trkpt lat="42.28062" lon="2.69834">
        <ele>772.155</ele>
        <time>2012-03-31T13:10:18Z</time>
      </trkpt>
      <trkpt lat="42.28055" lon="2.6985">
        <ele>773.01</ele>
        <time>2012-03-31T13:10:27Z</time>
      </trkpt>
      <trkpt lat="42.28052" lon="2.69857">
        <ele>773.007</ele>
        <time>2012-03-31T13:10:30Z</time>
      </trkpt>
      <trkpt lat="42.28044" lon="2.69885">
        <ele>774.585</ele>
        <time>2012-03-31T13:10:42Z</time>
      </trkpt>
      <trkpt lat="42.28042" lon="2.69897">
        <ele>775.039</ele>
        <time>2012-03-31T13:10:47Z</time>
      </trkpt>
      <trkpt lat="42.28034" lon="2.69913">
        <ele>776.999</ele>
        <time>2012-03-31T13:10:58Z</time>
      </trkpt>
      <trkpt lat="42.2803" lon="2.69924">
        <ele>778.364</ele>
        <time>2012-03-31T13:11:07Z</time>
      </trkpt>
      <trkpt lat="42.28026" lon="2.69929">
        <ele>778.829</ele>
        <time>2012-03-31T13:11:10Z</time>
      </trkpt>
      <trkpt lat="42.28019" lon="2.69939">
        <ele>781.242</ele>
        <time>2012-03-31T13:11:19Z</time>
      </trkpt>
      <trkpt lat="42.28013" lon="2.69947">
        <ele>782.721</ele>
        <time>2012-03-31T13:11:25Z</time>
      </trkpt>
      <trkpt lat="42.28011" lon="2.6995">
        <ele>783.139</ele>
        <time>2012-03-31T13:11:27Z</time>
      </trkpt>
      <trkpt lat="42.28008" lon="2.69958">
        <ele>784.101</ele>
        <time>2012-03-31T13:11:34Z</time>
      </trkpt>
      <trkpt lat="42.27998" lon="2.69971">
        <ele>786.521</ele>
        <time>2012-03-31T13:11:46Z</time>
      </trkpt>
      <trkpt lat="42.27989" lon="2.69978">
        <ele>789.407</ele>
        <time>2012-03-31T13:11:56Z</time>
      </trkpt>
      <trkpt lat="42.27984" lon="2.69986">
        <ele>790.855</ele>
        <time>2012-03-31T13:12:04Z</time>
      </trkpt>
      <trkpt lat="42.27976" lon="2.70001">
        <ele>793.249</ele>
        <time>2012-03-31T13:12:17Z</time>
      </trkpt>
      <trkpt lat="42.27971" lon="2.70007">
        <ele>795.299</ele>
        <time>2012-03-31T13:12:22Z</time>
      </trkpt>
      <trkpt lat="42.27969" lon="2.70013">
        <ele>795.674</ele>
        <time>2012-03-31T13:12:26Z</time>
      </trkpt>
      <trkpt lat="42.27967" lon="2.70017">
        <ele>796.159</ele>
        <time>2012-03-31T13:12:29Z</time>
      </trkpt>
      <trkpt lat="42.27959" lon="2.70025">
        <ele>798.022</ele>
        <time>2012-03-31T13:12:37Z</time>
      </trkpt>
      <trkpt lat="42.27956" lon="2.70027">
        <ele>798.591</ele>
        <time>2012-03-31T13:12:39Z</time>
      </trkpt>
      <trkpt lat="42.27943" lon="2.70037">
        <ele>800.429</ele>
        <time>2012-03-31T13:12:52Z</time>
      </trkpt>
      <trkpt lat="42.27936" lon="2.70045">
        <ele>801.9</ele>
        <time>2012-03-31T13:13:01Z</time>
      </trkpt>
      <trkpt lat="42.27923" lon="2.70055">
        <ele>803.82</ele>
        <time>2012-03-31T13:13:12Z</time>
      </trkpt>
      <trkpt lat="42.27917" lon="2.7006">
        <ele>805.207</ele>
        <time>2012-03-31T13:13:20Z</time>
      </trkpt>
      <trkpt lat="42.27915" lon="2.70064">
        <ele>805.284</ele>
        <time>2012-03-31T13:13:22Z</time>
      </trkpt>
      <trkpt lat="42.27903" lon="2.70074">
        <ele>807.258</ele>
        <time>2012-03-31T13:13:32Z</time>
      </trkpt>
      <trkpt lat="42.27902" lon="2.70076">
        <ele>807.288</ele>
        <time>2012-03-31T13:13:33Z</time>
      </trkpt>
      <trkpt lat="42.27901" lon="2.70082">
        <ele>807.693</ele>
        <time>2012-03-31T13:13:36Z</time>
      </trkpt>
      <trkpt lat="42.27898" lon="2.70085">
        <ele>807.658</ele>
        <time>2012-03-31T13:13:38Z</time>
      </trkpt>
      <trkpt lat="42.27894" lon="2.70094">
        <ele>808.161</ele>
        <time>2012-03-31T13:13:43Z</time>
      </trkpt>
      <trkpt lat="42.27879" lon="2.70107">
        <ele>808.14</ele>
        <time>2012-03-31T13:13:51Z</time>
      </trkpt>
      <trkpt lat="42.27875" lon="2.70113">
        <ele>808.689</ele>
        <time>2012-03-31T13:13:56Z</time>
      </trkpt>
      <trkpt lat="42.27871" lon="2.70115">
        <ele>808.606</ele>
        <time>2012-03-31T13:13:59Z</time>
      </trkpt>
      <trkpt lat="42.27862" lon="2.70119">
        <ele>811.026</ele>
        <time>2012-03-31T13:14:10Z</time>
      </trkpt>
      <trkpt lat="42.27856" lon="2.7012">
        <ele>812.507</ele>
        <time>2012-03-31T13:14:17Z</time>
      </trkpt>
      <trkpt lat="42.27844" lon="2.70114">
        <ele>815.34</ele>
        <time>2012-03-31T13:14:29Z</time>
      </trkpt>
      <trkpt lat="42.27843" lon="2.70106">
        <ele>816.834</ele>
        <time>2012-03-31T13:14:41Z</time>
      </trkpt>
      <trkpt lat="42.27843" lon="2.70106">
        <ele>816.824</ele>
        <time>2012-03-31T13:14:49Z</time>
      </trkpt>
      <trkpt lat="42.27844" lon="2.70112">
        <ele>815.829</ele>
        <time>2012-03-31T13:14:52Z</time>
      </trkpt>
      <trkpt lat="42.27841" lon="2.70121">
        <ele>814.974</ele>
        <time>2012-03-31T13:14:59Z</time>
      </trkpt>
      <trkpt lat="42.27825" lon="2.70125">
        <ele>817.347</ele>
        <time>2012-03-31T13:15:12Z</time>
      </trkpt>
      <trkpt lat="42.27818" lon="2.70128">
        <ele>819.236</ele>
        <time>2012-03-31T13:15:21Z</time>
      </trkpt>
      <trkpt lat="42.27814" lon="2.70124">
        <ele>821.676</ele>
        <time>2012-03-31T13:15:28Z</time>
      </trkpt>
      <trkpt lat="42.27808" lon="2.70118">
        <ele>824.09</ele>
        <time>2012-03-31T13:15:38Z</time>
      </trkpt>
      <trkpt lat="42.27806" lon="2.70117">
        <ele>824.019</ele>
        <time>2012-03-31T13:15:39Z</time>
      </trkpt>
      <trkpt lat="42.27799" lon="2.7011">
        <ele>826.907</ele>
        <time>2012-03-31T13:15:53Z</time>
      </trkpt>
      <trkpt lat="42.27799" lon="2.70108">
        <ele>827.869</ele>
        <time>2012-03-31T13:15:56Z</time>
      </trkpt>
      <trkpt lat="42.27793" lon="2.70103">
        <ele>830.743</ele>
        <time>2012-03-31T13:16:07Z</time>
      </trkpt>
      <trkpt lat="42.27793" lon="2.70096">
        <ele>832.693</ele>
        <time>2012-03-31T13:16:16Z</time>
      </trkpt>
      <trkpt lat="42.27791" lon="2.70095">
        <ele>833.118</ele>
        <time>2012-03-31T13:16:19Z</time>
      </trkpt>
      <trkpt lat="42.27783" lon="2.70093">
        <ele>834.183</ele>
        <time>2012-03-31T13:16:25Z</time>
      </trkpt>
      <trkpt lat="42.27772" lon="2.70095">
        <ele>836.086</ele>
        <time>2012-03-31T13:16:35Z</time>
      </trkpt>
      <trkpt lat="42.27768" lon="2.70096">
        <ele>836.515</ele>
        <time>2012-03-31T13:16:38Z</time>
      </trkpt>
      <trkpt lat="42.27759" lon="2.70099">
        <ele>838.452</ele>
        <time>2012-03-31T13:16:50Z</time>
      </trkpt>
      <trkpt lat="42.27754" lon="2.70105">
        <ele>840.853</ele>
        <time>2012-03-31T13:16:55Z</time>
      </trkpt>
      <trkpt lat="42.27744" lon="2.70117">
        <ele>842.308</ele>
        <time>2012-03-31T13:17:09Z</time>
      </trkpt>
      <trkpt lat="42.27734" lon="2.70127">
        <ele>844.207</ele>
        <time>2012-03-31T13:17:20Z</time>
      </trkpt>
      <trkpt lat="42.27723" lon="2.70138">
        <ele>847.117</ele>
        <time>2012-03-31T13:17:33Z</time>
      </trkpt>
      <trkpt lat="42.27712" lon="2.70148">
        <ele>849.981</ele>
        <time>2012-03-31T13:17:45Z</time>
      </trkpt>
      <trkpt lat="42.27703" lon="2.70159">
        <ele>852.821</ele>
        <time>2012-03-31T13:17:57Z</time>
      </trkpt>
      <trkpt lat="42.27692" lon="2.70166">
        <ele>856.286</ele>
        <time>2012-03-31T13:18:10Z</time>
      </trkpt>
      <trkpt lat="42.27689" lon="2.70172">
        <ele>857.671</ele>
        <time>2012-03-31T13:18:17Z</time>
      </trkpt>
      <trkpt lat="42.27686" lon="2.70175">
        <ele>858.114</ele>
        <time>2012-03-31T13:18:20Z</time>
      </trkpt>
      <trkpt lat="42.27682" lon="2.70179">
        <ele>859.183</ele>
        <time>2012-03-31T13:18:24Z</time>
      </trkpt>
      <trkpt lat="42.27671" lon="2.70195">
        <ele>860.554</ele>
        <time>2012-03-31T13:18:36Z</time>
      </trkpt>
      <trkpt lat="42.27658" lon="2.70207">
        <ele>861.556</ele>
        <time>2012-03-31T13:18:44Z</time>
      </trkpt>
      <trkpt lat="42.2765" lon="2.70225">
        <ele>862.011</ele>
        <time>2012-03-31T13:18:57Z</time>
      </trkpt>
      <trkpt lat="42.27646" lon="2.70232">
        <ele>861.007</ele>
        <time>2012-03-31T13:19:04Z</time>
      </trkpt>
      <trkpt lat="42.2764" lon="2.70238">
        <ele>860.087</ele>
        <time>2012-03-31T13:19:08Z</time>
      </trkpt>
      <trkpt lat="42.27617" lon="2.70252">
        <ele>861.091</ele>
        <time>2012-03-31T13:19:20Z</time>
      </trkpt>
      <trkpt lat="42.276" lon="2.70257">
        <ele>860.511</ele>
        <time>2012-03-31T13:19:30Z</time>
      </trkpt>
      <trkpt lat="42.27584" lon="2.70267">
        <ele>859.146</ele>
        <time>2012-03-31T13:19:37Z</time>
      </trkpt>
      <trkpt lat="42.27575" lon="2.70277">
        <ele>858.681</ele>
        <time>2012-03-31T13:19:42Z</time>
      </trkpt>
      <trkpt lat="42.27566" lon="2.70279">
        <ele>858.624</ele>
        <time>2012-03-31T13:19:46Z</time>
      </trkpt>
      <trkpt lat="42.27555" lon="2.70283">
        <ele>860.093</ele>
        <time>2012-03-31T13:19:53Z</time>
      </trkpt>
      <trkpt lat="42.27548" lon="2.70287">
        <ele>861.063</ele>
        <time>2012-03-31T13:19:59Z</time>
      </trkpt>
      <trkpt lat="42.27534" lon="2.70297">
        <ele>861.544</ele>
        <time>2012-03-31T13:20:09Z</time>
      </trkpt>
      <trkpt lat="42.27533" lon="2.70299">
        <ele>862.018</ele>
        <time>2012-03-31T13:20:10Z</time>
      </trkpt>
      <trkpt lat="42.27518" lon="2.70315">
        <ele>863.407</ele>
        <time>2012-03-31T13:20:21Z</time>
      </trkpt>
      <trkpt lat="42.27509" lon="2.70319">
        <ele>864.438</ele>
        <time>2012-03-31T13:20:27Z</time>
      </trkpt>
      <trkpt lat="42.27502" lon="2.70326">
        <ele>865.882</ele>
        <time>2012-03-31T13:20:32Z</time>
      </trkpt>
      <trkpt lat="42.27496" lon="2.70327">
        <ele>865.862</ele>
        <time>2012-03-31T13:20:35Z</time>
      </trkpt>
      <trkpt lat="42.27485" lon="2.70332">
        <ele>866.337</ele>
        <time>2012-03-31T13:20:42Z</time>
      </trkpt>
      <trkpt lat="42.27476" lon="2.70333">
        <ele>867.722</ele>
        <time>2012-03-31T13:20:48Z</time>
      </trkpt>
      <trkpt lat="42.27461" lon="2.70329">
        <ele>869.785</ele>
        <time>2012-03-31T13:21:00Z</time>
      </trkpt>
      <trkpt lat="42.27459" lon="2.70327">
        <ele>869.764</ele>
        <time>2012-03-31T13:21:01Z</time>
      </trkpt>
      <trkpt lat="42.27454" lon="2.70323">
        <ele>870.174</ele>
        <time>2012-03-31T13:21:04Z</time>
      </trkpt>
      <trkpt lat="42.27447" lon="2.70321">
        <ele>870.656</ele>
        <time>2012-03-31T13:21:10Z</time>
      </trkpt>
      <trkpt lat="42.27441" lon="2.70329">
        <ele>873.021</ele>
        <time>2012-03-31T13:21:24Z</time>
      </trkpt>
      <trkpt lat="42.27441" lon="2.70332">
        <ele>873.507</ele>
        <time>2012-03-31T13:21:27Z</time>
      </trkpt>
      <trkpt lat="42.27434" lon="2.70336">
        <ele>875.499</ele>
        <time>2012-03-31T13:21:39Z</time>
      </trkpt>
      <trkpt lat="42.27433" lon="2.70336">
        <ele>875.443</ele>
        <time>2012-03-31T13:21:40Z</time>
      </trkpt>
      <trkpt lat="42.27428" lon="2.70327">
        <ele>878.363</ele>
        <time>2012-03-31T13:21:53Z</time>
      </trkpt>
      <trkpt lat="42.27427" lon="2.70325">
        <ele>879.358</ele>
        <time>2012-03-31T13:21:57Z</time>
      </trkpt>
      <trkpt lat="42.27422" lon="2.70316">
        <ele>880.773</ele>
        <time>2012-03-31T13:22:04Z</time>
      </trkpt>
      <trkpt lat="42.27421" lon="2.70304">
        <ele>883.646</ele>
        <time>2012-03-31T13:22:16Z</time>
      </trkpt>
      <trkpt lat="42.2742" lon="2.703">
        <ele>884.695</ele>
        <time>2012-03-31T13:22:20Z</time>
      </trkpt>
      <trkpt lat="42.27417" lon="2.70296">
        <ele>886.091</ele>
        <time>2012-03-31T13:22:27Z</time>
      </trkpt>
      <trkpt lat="42.27411" lon="2.70291">
        <ele>889.881</ele>
        <time>2012-03-31T13:22:38Z</time>
      </trkpt>
      <trkpt lat="42.27407" lon="2.70293">
        <ele>892.719</ele>
        <time>2012-03-31T13:22:49Z</time>
      </trkpt>
      <trkpt lat="42.27401" lon="2.70294">
        <ele>896.107</ele>
        <time>2012-03-31T13:22:58Z</time>
      </trkpt>
      <trkpt lat="42.27401" lon="2.70294">
        <ele>895.111</ele>
        <time>2012-03-31T13:22:59Z</time>
      </trkpt>
      <trkpt lat="42.27391" lon="2.70298">
        <ele>898.065</ele>
        <time>2012-03-31T13:23:10Z</time>
      </trkpt>
      <trkpt lat="42.27379" lon="2.70301">
        <ele>900.915</ele>
        <time>2012-03-31T13:23:19Z</time>
      </trkpt>
      <trkpt lat="42.27366" lon="2.70307">
        <ele>904.37</ele>
        <time>2012-03-31T13:23:32Z</time>
      </trkpt>
      <trkpt lat="42.27358" lon="2.70309">
        <ele>907.685</ele>
        <time>2012-03-31T13:23:43Z</time>
      </trkpt>
      <trkpt lat="42.27349" lon="2.70309">
        <ele>911.018</ele>
        <time>2012-03-31T13:23:54Z</time>
      </trkpt>
      <trkpt lat="42.2734" lon="2.70312">
        <ele>913.927</ele>
        <time>2012-03-31T13:24:04Z</time>
      </trkpt>
      <trkpt lat="42.27335" lon="2.7031">
        <ele>916.863</ele>
        <time>2012-03-31T13:24:14Z</time>
      </trkpt>
      <trkpt lat="42.27329" lon="2.7031">
        <ele>918.744</ele>
        <time>2012-03-31T13:24:23Z</time>
      </trkpt>
      <trkpt lat="42.27323" lon="2.7031">
        <ele>922.018</ele>
        <time>2012-03-31T13:24:33Z</time>
      </trkpt>
      <trkpt lat="42.27311" lon="2.70312">
        <ele>924.907</ele>
        <time>2012-03-31T13:24:43Z</time>
      </trkpt>
      <trkpt lat="42.27302" lon="2.70316">
        <ele>927.858</ele>
        <time>2012-03-31T13:24:53Z</time>
      </trkpt>
      <trkpt lat="42.27301" lon="2.70316">
        <ele>928.852</ele>
        <time>2012-03-31T13:24:57Z</time>
      </trkpt>
      <trkpt lat="42.27297" lon="2.70316">
        <ele>930.272</ele>
        <time>2012-03-31T13:25:00Z</time>
      </trkpt>
      <trkpt lat="42.27287" lon="2.70319">
        <ele>932.667</ele>
        <time>2012-03-31T13:25:10Z</time>
      </trkpt>
      <trkpt lat="42.27283" lon="2.70321">
        <ele>933.612</ele>
        <time>2012-03-31T13:25:13Z</time>
      </trkpt>
      <trkpt lat="42.27272" lon="2.70325">
        <ele>935.565</ele>
        <time>2012-03-31T13:25:22Z</time>
      </trkpt>
      <trkpt lat="42.27271" lon="2.70326">
        <ele>936.024</ele>
        <time>2012-03-31T13:25:26Z</time>
      </trkpt>
      <trkpt lat="42.27264" lon="2.70334">
        <ele>938.468</ele>
        <time>2012-03-31T13:25:34Z</time>
      </trkpt>
      <trkpt lat="42.2725" lon="2.70353">
        <ele>940.842</ele>
        <time>2012-03-31T13:25:49Z</time>
      </trkpt>
      <trkpt lat="42.27235" lon="2.70369">
        <ele>942.726</ele>
        <time>2012-03-31T13:26:02Z</time>
      </trkpt>
      <trkpt lat="42.27229" lon="2.70372">
        <ele>943.207</ele>
        <time>2012-03-31T13:26:07Z</time>
      </trkpt>
      <trkpt lat="42.27222" lon="2.70379">
        <ele>945.618</ele>
        <time>2012-03-31T13:26:16Z</time>
      </trkpt>
      <trkpt lat="42.27213" lon="2.70386">
        <ele>949.092</ele>
        <time>2012-03-31T13:26:27Z</time>
      </trkpt>
      <trkpt lat="42.27205" lon="2.70391">
        <ele>952.312</ele>
        <time>2012-03-31T13:26:38Z</time>
      </trkpt>
      <trkpt lat="42.27193" lon="2.704">
        <ele>955.737</ele>
        <time>2012-03-31T13:26:50Z</time>
      </trkpt>
      <trkpt lat="42.27191" lon="2.70403">
        <ele>956.782</ele>
        <time>2012-03-31T13:26:53Z</time>
      </trkpt>
      <trkpt lat="42.27178" lon="2.70418">
        <ele>955.755</ele>
        <time>2012-03-31T13:27:06Z</time>
      </trkpt>
      <trkpt lat="42.27171" lon="2.70426">
        <ele>956.214</ele>
        <time>2012-03-31T13:27:13Z</time>
      </trkpt>
      <trkpt lat="42.27166" lon="2.7043">
        <ele>958.664</ele>
        <time>2012-03-31T13:27:17Z</time>
      </trkpt>
      <trkpt lat="42.27165" lon="2.70431">
        <ele>958.106</ele>
        <time>2012-03-31T13:27:18Z</time>
      </trkpt>
      <trkpt lat="42.27156" lon="2.7045">
        <ele>961.516</ele>
        <time>2012-03-31T13:27:34Z</time>
      </trkpt>
      <trkpt lat="42.27149" lon="2.70461">
        <ele>964.307</ele>
        <time>2012-03-31T13:27:49Z</time>
      </trkpt>
      <trkpt lat="42.27144" lon="2.70467">
        <ele>967.298</ele>
        <time>2012-03-31T13:28:00Z</time>
      </trkpt>
      <trkpt lat="42.27134" lon="2.70485">
        <ele>970.622</ele>
        <time>2012-03-31T13:28:12Z</time>
      </trkpt>
      <trkpt lat="42.27134" lon="2.70485">
        <ele>971.172</ele>
        <time>2012-03-31T13:28:13Z</time>
      </trkpt>
      <trkpt lat="42.27132" lon="2.70493">
        <ele>972.047</ele>
        <time>2012-03-31T13:28:18Z</time>
      </trkpt>
      <trkpt lat="42.27123" lon="2.70505">
        <ele>975.922</ele>
        <time>2012-03-31T13:28:29Z</time>
      </trkpt>
      <trkpt lat="42.27114" lon="2.70513">
        <ele>978.335</ele>
        <time>2012-03-31T13:28:40Z</time>
      </trkpt>
      <trkpt lat="42.27109" lon="2.70518">
        <ele>981.694</ele>
        <time>2012-03-31T13:28:51Z</time>
      </trkpt>
      <trkpt lat="42.27104" lon="2.70522">
        <ele>986.031</ele>
        <time>2012-03-31T13:29:01Z</time>
      </trkpt>
      <trkpt lat="42.27104" lon="2.70528">
        <ele>988.961</ele>
        <time>2012-03-31T13:29:15Z</time>
      </trkpt>
      <trkpt lat="42.27101" lon="2.7053">
        <ele>991.707</ele>
        <time>2012-03-31T13:29:25Z</time>
      </trkpt>
      <trkpt lat="42.27083" lon="2.7055">
        <ele>995.107</ele>
        <time>2012-03-31T13:29:44Z</time>
      </trkpt>
      <trkpt lat="42.27079" lon="2.70567">
        <ele>998.515</ele>
        <time>2012-03-31T13:29:55Z</time>
      </trkpt>
      <trkpt lat="42.27074" lon="2.70583">
        <ele>1001.459</ele>
        <time>2012-03-31T13:30:06Z</time>
      </trkpt>
      <trkpt lat="42.27072" lon="2.70587">
        <ele>1004.229</ele>
        <time>2012-03-31T13:30:17Z</time>
      </trkpt>
      <trkpt lat="42.27064" lon="2.70598">
        <ele>1007.674</ele>
        <time>2012-03-31T13:30:29Z</time>
      </trkpt>
      <trkpt lat="42.27059" lon="2.70602">
        <ele>1010.099</ele>
        <time>2012-03-31T13:30:38Z</time>
      </trkpt>
      <trkpt lat="42.27057" lon="2.70603">
        <ele>1010.032</ele>
        <time>2012-03-31T13:30:39Z</time>
      </trkpt>
      <trkpt lat="42.2703" lon="2.70623">
        <ele>1011.481</ele>
        <time>2012-03-31T13:30:55Z</time>
      </trkpt>
      <trkpt lat="42.27027" lon="2.70628">
        <ele>1013.989</ele>
        <time>2012-03-31T13:31:04Z</time>
      </trkpt>
      <trkpt lat="42.27023" lon="2.70645">
        <ele>1017.206</ele>
        <time>2012-03-31T13:31:15Z</time>
      </trkpt>
      <trkpt lat="42.27017" lon="2.70656">
        <ele>1020.126</ele>
        <time>2012-03-31T13:31:29Z</time>
      </trkpt>
      <trkpt lat="42.2701" lon="2.70666">
        <ele>1023.507</ele>
        <time>2012-03-31T13:31:49Z</time>
      </trkpt>
      <trkpt lat="42.26977" lon="2.70685">
        <ele>1023.93</ele>
        <time>2012-03-31T13:32:04Z</time>
      </trkpt>
      <trkpt lat="42.26947" lon="2.7071">
        <ele>1022.074</ele>
        <time>2012-03-31T13:32:17Z</time>
      </trkpt>
      <trkpt lat="42.26922" lon="2.70724">
        <ele>1022.084</ele>
        <time>2012-03-31T13:32:27Z</time>
      </trkpt>
      <trkpt lat="42.26912" lon="2.70723">
        <ele>1022.089</ele>
        <time>2012-03-31T13:32:34Z</time>
      </trkpt>
      <trkpt lat="42.26888" lon="2.70719">
        <ele>1023.984</ele>
        <time>2012-03-31T13:32:42Z</time>
      </trkpt>
      <trkpt lat="42.2688" lon="2.7071">
        <ele>1024.987</ele>
        <time>2012-03-31T13:32:54Z</time>
      </trkpt>
      <trkpt lat="42.26872" lon="2.70705">
        <ele>1026.336</ele>
        <time>2012-03-31T13:33:02Z</time>
      </trkpt>
      <trkpt lat="42.26866" lon="2.70703">
        <ele>1027.886</ele>
        <time>2012-03-31T13:33:09Z</time>
      </trkpt>
      <trkpt lat="42.26857" lon="2.70705">
        <ele>1027.86</ele>
        <time>2012-03-31T13:33:13Z</time>
      </trkpt>
      <trkpt lat="42.2685" lon="2.70706">
        <ele>1027.326</ele>
        <time>2012-03-31T13:33:16Z</time>
      </trkpt>
      <trkpt lat="42.2682" lon="2.70691">
        <ele>1026.307</ele>
        <time>2012-03-31T13:33:32Z</time>
      </trkpt>
      <trkpt lat="42.2682" lon="2.70689">
        <ele>1026.37</ele>
        <time>2012-03-31T13:33:33Z</time>
      </trkpt>
      <trkpt lat="42.26813" lon="2.70683">
        <ele>1025.414</ele>
        <time>2012-03-31T13:33:39Z</time>
      </trkpt>
      <trkpt lat="42.26804" lon="2.70686">
        <ele>1021.514</ele>
        <time>2012-03-31T13:33:45Z</time>
      </trkpt>
      <trkpt lat="42.26796" lon="2.70677">
        <ele>1017.739</ele>
        <time>2012-03-31T13:33:52Z</time>
      </trkpt>
      <trkpt lat="42.26789" lon="2.7067">
        <ele>1013.984</ele>
        <time>2012-03-31T13:33:57Z</time>
      </trkpt>
      <trkpt lat="42.26779" lon="2.7067">
        <ele>1010.597</ele>
        <time>2012-03-31T13:34:02Z</time>
      </trkpt>
      <trkpt lat="42.26774" lon="2.70681">
        <ele>1007.116</ele>
        <time>2012-03-31T13:34:09Z</time>
      </trkpt>
      <trkpt lat="42.26773" lon="2.70683">
        <ele>1006.689</ele>
        <time>2012-03-31T13:34:10Z</time>
      </trkpt>
      <trkpt lat="42.26768" lon="2.70687">
        <ele>1002.306</ele>
        <time>2012-03-31T13:34:14Z</time>
      </trkpt>
      <trkpt lat="42.26767" lon="2.70689">
        <ele>1002.826</ele>
        <time>2012-03-31T13:34:15Z</time>
      </trkpt>
      <trkpt lat="42.26766" lon="2.7069">
        <ele>1002.307</ele>
        <time>2012-03-31T13:34:16Z</time>
      </trkpt>
      <trkpt lat="42.26756" lon="2.70692">
        <ele>999.08</ele>
        <time>2012-03-31T13:34:20Z</time>
      </trkpt>
      <trkpt lat="42.26741" lon="2.70702">
        <ele>997.054</ele>
        <time>2012-03-31T13:34:28Z</time>
      </trkpt>
      <trkpt lat="42.26731" lon="2.70707">
        <ele>993.754</ele>
        <time>2012-03-31T13:34:35Z</time>
      </trkpt>
      <trkpt lat="42.26726" lon="2.70705">
        <ele>991.399</ele>
        <time>2012-03-31T13:34:40Z</time>
      </trkpt>
      <trkpt lat="42.26721" lon="2.70706">
        <ele>989.344</ele>
        <time>2012-03-31T13:34:43Z</time>
      </trkpt>
      <trkpt lat="42.26712" lon="2.70712">
        <ele>988.917</ele>
        <time>2012-03-31T13:34:55Z</time>
      </trkpt>
      <trkpt lat="42.26709" lon="2.70719">
        <ele>987.416</ele>
        <time>2012-03-31T13:35:12Z</time>
      </trkpt>
      <trkpt lat="42.26709" lon="2.70719">
        <ele>988.488</ele>
        <time>2012-03-31T13:35:36Z</time>
      </trkpt>
      <trkpt lat="42.26709" lon="2.70719">
        <ele>988.924</ele>
        <time>2012-03-31T13:36:06Z</time>
      </trkpt>
      <trkpt lat="42.26705" lon="2.70724">
        <ele>986.526</ele>
        <time>2012-03-31T13:36:30Z</time>
      </trkpt>
      <trkpt lat="42.26703" lon="2.70724">
        <ele>985.507</ele>
        <time>2012-03-31T13:36:31Z</time>
      </trkpt>
      <trkpt lat="42.26701" lon="2.70727">
        <ele>986.07</ele>
        <time>2012-03-31T13:36:33Z</time>
      </trkpt>
      <trkpt lat="42.26693" lon="2.70729">
        <ele>983.114</ele>
        <time>2012-03-31T13:36:37Z</time>
      </trkpt>
      <trkpt lat="42.26688" lon="2.70731">
        <ele>981.624</ele>
        <time>2012-03-31T13:36:39Z</time>
      </trkpt>
      <trkpt lat="42.2667" lon="2.70738">
        <ele>978.369</ele>
        <time>2012-03-31T13:36:47Z</time>
      </trkpt>
      <trkpt lat="42.26661" lon="2.7075">
        <ele>976.824</ele>
        <time>2012-03-31T13:36:53Z</time>
      </trkpt>
      <trkpt lat="42.26658" lon="2.70752">
        <ele>974.957</ele>
        <time>2012-03-31T13:36:57Z</time>
      </trkpt>
      <trkpt lat="42.26654" lon="2.7075">
        <ele>973.036</ele>
        <time>2012-03-31T13:37:04Z</time>
      </trkpt>
      <trkpt lat="42.26647" lon="2.70756">
        <ele>969.276</ele>
        <time>2012-03-31T13:37:09Z</time>
      </trkpt>
      <trkpt lat="42.26643" lon="2.70759">
        <ele>968.79</ele>
        <time>2012-03-31T13:37:11Z</time>
      </trkpt>
      <trkpt lat="42.26634" lon="2.70761">
        <ele>966.319</ele>
        <time>2012-03-31T13:37:15Z</time>
      </trkpt>
      <trkpt lat="42.26624" lon="2.70764">
        <ele>962.907</ele>
        <time>2012-03-31T13:37:20Z</time>
      </trkpt>
      <trkpt lat="42.2661" lon="2.7077">
        <ele>959.529</ele>
        <time>2012-03-31T13:37:27Z</time>
      </trkpt>
      <trkpt lat="42.26605" lon="2.70772">
        <ele>957.673</ele>
        <time>2012-03-31T13:37:30Z</time>
      </trkpt>
      <trkpt lat="42.26592" lon="2.7078">
        <ele>954.723</ele>
        <time>2012-03-31T13:37:39Z</time>
      </trkpt>
      <trkpt lat="42.26586" lon="2.70784">
        <ele>952.888</ele>
        <time>2012-03-31T13:37:44Z</time>
      </trkpt>
      <trkpt lat="42.26586" lon="2.70784">
        <ele>950.963</ele>
        <time>2012-03-31T13:37:47Z</time>
      </trkpt>
      <trkpt lat="42.2658" lon="2.70785">
        <ele>949.026</ele>
        <time>2012-03-31T13:37:50Z</time>
      </trkpt>
      <trkpt lat="42.26578" lon="2.70785">
        <ele>948.595</ele>
        <time>2012-03-31T13:37:51Z</time>
      </trkpt>
      <trkpt lat="42.2656" lon="2.70785">
        <ele>945.128</ele>
        <time>2012-03-31T13:38:00Z</time>
      </trkpt>
      <trkpt lat="42.26546" lon="2.70787">
        <ele>942.789</ele>
        <time>2012-03-31T13:38:07Z</time>
      </trkpt>
      <trkpt lat="42.26542" lon="2.70786">
        <ele>941.817</ele>
        <time>2012-03-31T13:38:09Z</time>
      </trkpt>
      <trkpt lat="42.26536" lon="2.70785">
        <ele>940.307</ele>
        <time>2012-03-31T13:38:12Z</time>
      </trkpt>
      <trkpt lat="42.2653" lon="2.70778">
        <ele>938.414</ele>
        <time>2012-03-31T13:38:17Z</time>
      </trkpt>
      <trkpt lat="42.26522" lon="2.70775">
        <ele>937.478</ele>
        <time>2012-03-31T13:38:22Z</time>
      </trkpt>
      <trkpt lat="42.26507" lon="2.70783">
        <ele>936.558</ele>
        <time>2012-03-31T13:38:29Z</time>
      </trkpt>
      <trkpt lat="42.26502" lon="2.70786">
        <ele>934.593</ele>
        <time>2012-03-31T13:38:32Z</time>
      </trkpt>
      <trkpt lat="42.26496" lon="2.70787">
        <ele>932.118</ele>
        <time>2012-03-31T13:38:37Z</time>
      </trkpt>
      <trkpt lat="42.26488" lon="2.70782">
        <ele>928.371</ele>
        <time>2012-03-31T13:38:43Z</time>
      </trkpt>
      <trkpt lat="42.26476" lon="2.70779">
        <ele>925.93</ele>
        <time>2012-03-31T13:38:50Z</time>
      </trkpt>
      <trkpt lat="42.26466" lon="2.70781">
        <ele>923.099</ele>
        <time>2012-03-31T13:38:56Z</time>
      </trkpt>
      <trkpt lat="42.26464" lon="2.70781">
        <ele>922.007</ele>
        <time>2012-03-31T13:38:57Z</time>
      </trkpt>
      <trkpt lat="42.26457" lon="2.70781">
        <ele>920.127</ele>
        <time>2012-03-31T13:39:00Z</time>
      </trkpt>
      <trkpt lat="42.26449" lon="2.70784">
        <ele>918.207</ele>
        <time>2012-03-31T13:39:03Z</time>
      </trkpt>
      <trkpt lat="42.26433" lon="2.7079">
        <ele>915.861</ele>
        <time>2012-03-31T13:39:09Z</time>
      </trkpt>
      <trkpt lat="42.26414" lon="2.70797">
        <ele>913.915</ele>
        <time>2012-03-31T13:39:16Z</time>
      </trkpt>
      <trkpt lat="42.26408" lon="2.70797">
        <ele>913.435</ele>
        <time>2012-03-31T13:39:18Z</time>
      </trkpt>
      <trkpt lat="42.26389" lon="2.70796">
        <ele>913.92</ele>
        <time>2012-03-31T13:39:26Z</time>
      </trkpt>
      <trkpt lat="42.26364" lon="2.70783">
        <ele>912.415</ele>
        <time>2012-03-31T13:39:39Z</time>
      </trkpt>
      <trkpt lat="42.26355" lon="2.7077">
        <ele>913.448</ele>
        <time>2012-03-31T13:39:47Z</time>
      </trkpt>
      <trkpt lat="42.26349" lon="2.70754">
        <ele>915.357</ele>
        <time>2012-03-31T13:40:02Z</time>
      </trkpt>
      <trkpt lat="42.26338" lon="2.70732">
        <ele>918.229</ele>
        <time>2012-03-31T13:40:20Z</time>
      </trkpt>
      <trkpt lat="42.26329" lon="2.70726">
        <ele>920.6</ele>
        <time>2012-03-31T13:40:32Z</time>
      </trkpt>
      <trkpt lat="42.2632" lon="2.70718">
        <ele>924.02</ele>
        <time>2012-03-31T13:40:47Z</time>
      </trkpt>
      <trkpt lat="42.26315" lon="2.70717">
        <ele>926.907</ele>
        <time>2012-03-31T13:40:59Z</time>
      </trkpt>
      <trkpt lat="42.26311" lon="2.70715">
        <ele>930.734</ele>
        <time>2012-03-31T13:41:08Z</time>
      </trkpt>
      <trkpt lat="42.26298" lon="2.70718">
        <ele>932.128</ele>
        <time>2012-03-31T13:41:28Z</time>
      </trkpt>
      <trkpt lat="42.26282" lon="2.70726">
        <ele>935.548</ele>
        <time>2012-03-31T13:41:44Z</time>
      </trkpt>
      <trkpt lat="42.26271" lon="2.7073">
        <ele>938.483</ele>
        <time>2012-03-31T13:41:58Z</time>
      </trkpt>
      <trkpt lat="42.2626" lon="2.7073">
        <ele>941.838</ele>
        <time>2012-03-31T13:42:12Z</time>
      </trkpt>
      <trkpt lat="42.26253" lon="2.70732">
        <ele>944.611</ele>
        <time>2012-03-31T13:42:23Z</time>
      </trkpt>
      <trkpt lat="42.26245" lon="2.70733">
        <ele>948.08</ele>
        <time>2012-03-31T13:42:35Z</time>
      </trkpt>
      <trkpt lat="42.26239" lon="2.70725">
        <ele>951.411</ele>
        <time>2012-03-31T13:42:50Z</time>
      </trkpt>
      <trkpt lat="42.26232" lon="2.70712">
        <ele>954.321</ele>
        <time>2012-03-31T13:43:04Z</time>
      </trkpt>
      <trkpt lat="42.26228" lon="2.70705">
        <ele>956.203</ele>
        <time>2012-03-31T13:43:10Z</time>
      </trkpt>
      <trkpt lat="42.26224" lon="2.707">
        <ele>959.507</ele>
        <time>2012-03-31T13:43:24Z</time>
      </trkpt>
      <trkpt lat="42.26213" lon="2.70699">
        <ele>962.493</ele>
        <time>2012-03-31T13:43:36Z</time>
      </trkpt>
      <trkpt lat="42.26211" lon="2.70709">
        <ele>965.817</ele>
        <time>2012-03-31T13:43:48Z</time>
      </trkpt>
      <trkpt lat="42.2621" lon="2.70712">
        <ele>968.787</ele>
        <time>2012-03-31T13:44:00Z</time>
      </trkpt>
      <trkpt lat="42.26202" lon="2.70716">
        <ele>972.022</ele>
        <time>2012-03-31T13:44:11Z</time>
      </trkpt>
      <trkpt lat="42.262" lon="2.70716">
        <ele>974.937</ele>
        <time>2012-03-31T13:44:23Z</time>
      </trkpt>
      <trkpt lat="42.26199" lon="2.70718">
        <ele>977.87</ele>
        <time>2012-03-31T13:44:38Z</time>
      </trkpt>
      <trkpt lat="42.26179" lon="2.70721">
        <ele>981.219</ele>
        <time>2012-03-31T13:44:50Z</time>
      </trkpt>
      <trkpt lat="42.26173" lon="2.70727">
        <ele>984.564</ele>
        <time>2012-03-31T13:45:06Z</time>
      </trkpt>
      <trkpt lat="42.26148" lon="2.70733">
        <ele>987.406</ele>
        <time>2012-03-31T13:45:22Z</time>
      </trkpt>
      <trkpt lat="42.26145" lon="2.70729">
        <ele>990.816</ele>
        <time>2012-03-31T13:45:38Z</time>
      </trkpt>
      <trkpt lat="42.26142" lon="2.70719">
        <ele>994.107</ele>
        <time>2012-03-31T13:45:51Z</time>
      </trkpt>
      <trkpt lat="42.26136" lon="2.7071">
        <ele>996.588</ele>
        <time>2012-03-31T13:46:06Z</time>
      </trkpt>
      <trkpt lat="42.26133" lon="2.70722">
        <ele>998.082</ele>
        <time>2012-03-31T13:46:21Z</time>
      </trkpt>
      <trkpt lat="42.26125" lon="2.70732">
        <ele>1001.472</ele>
        <time>2012-03-31T13:46:39Z</time>
      </trkpt>
      <trkpt lat="42.26115" lon="2.70745">
        <ele>1003.857</ele>
        <time>2012-03-31T13:46:57Z</time>
      </trkpt>
      <trkpt lat="42.2611" lon="2.70748">
        <ele>1008.672</ele>
        <time>2012-03-31T13:47:12Z</time>
      </trkpt>
      <trkpt lat="42.2611" lon="2.70748">
        <ele>1007.625</ele>
        <time>2012-03-31T13:47:13Z</time>
      </trkpt>
      <trkpt lat="42.26108" lon="2.70748">
        <ele>1010.584</ele>
        <time>2012-03-31T13:47:27Z</time>
      </trkpt>
      <trkpt lat="42.26092" lon="2.7074">
        <ele>1013.981</ele>
        <time>2012-03-31T13:47:43Z</time>
      </trkpt>
      <trkpt lat="42.26092" lon="2.70735">
        <ele>1017.261</ele>
        <time>2012-03-31T13:47:58Z</time>
      </trkpt>
      <trkpt lat="42.26096" lon="2.70705">
        <ele>1020.117</ele>
        <time>2012-03-31T13:48:12Z</time>
      </trkpt>
      <trkpt lat="42.26084" lon="2.7071">
        <ele>1023.907</ele>
        <time>2012-03-31T13:48:32Z</time>
      </trkpt>
      <trkpt lat="42.26072" lon="2.70723">
        <ele>1026.38</ele>
        <time>2012-03-31T13:48:51Z</time>
      </trkpt>
      <trkpt lat="42.26066" lon="2.70729">
        <ele>1029.774</ele>
        <time>2012-03-31T13:49:06Z</time>
      </trkpt>
      <trkpt lat="42.26026" lon="2.70745">
        <ele>1032.684</ele>
        <time>2012-03-31T13:49:21Z</time>
      </trkpt>
      <trkpt lat="42.26025" lon="2.70738">
        <ele>1036.489</ele>
        <time>2012-03-31T13:49:32Z</time>
      </trkpt>
      <trkpt lat="42.26025" lon="2.7073">
        <ele>1039.324</ele>
        <time>2012-03-31T13:49:43Z</time>
      </trkpt>
      <trkpt lat="42.26025" lon="2.7072">
        <ele>1042.717</ele>
        <time>2012-03-31T13:49:56Z</time>
      </trkpt>
      <trkpt lat="42.26024" lon="2.70703">
        <ele>1046.156</ele>
        <time>2012-03-31T13:50:10Z</time>
      </trkpt>
      <trkpt lat="42.26022" lon="2.70693">
        <ele>1049.457</ele>
        <time>2012-03-31T13:50:25Z</time>
      </trkpt>
      <trkpt lat="42.2601" lon="2.70692">
        <ele>1052.3</ele>
        <time>2012-03-31T13:50:39Z</time>
      </trkpt>
      <trkpt lat="42.25993" lon="2.70703">
        <ele>1055.72</ele>
        <time>2012-03-31T13:50:56Z</time>
      </trkpt>
      <trkpt lat="42.25982" lon="2.70716">
        <ele>1060.007</ele>
        <time>2012-03-31T13:51:14Z</time>
      </trkpt>
      <trkpt lat="42.25974" lon="2.70727">
        <ele>1062.917</ele>
        <time>2012-03-31T13:51:33Z</time>
      </trkpt>
      <trkpt lat="42.25966" lon="2.70732">
        <ele>1066.241</ele>
        <time>2012-03-31T13:51:48Z</time>
      </trkpt>
      <trkpt lat="42.25957" lon="2.7074">
        <ele>1069.141</ele>
        <time>2012-03-31T13:52:00Z</time>
      </trkpt>
      <trkpt lat="42.25945" lon="2.70745">
        <ele>1072.516</ele>
        <time>2012-03-31T13:52:15Z</time>
      </trkpt>
      <trkpt lat="42.25936" lon="2.70754">
        <ele>1075.491</ele>
        <time>2012-03-31T13:52:25Z</time>
      </trkpt>
      <trkpt lat="42.25934" lon="2.70761">
        <ele>1078.734</ele>
        <time>2012-03-31T13:52:39Z</time>
      </trkpt>
      <trkpt lat="42.25928" lon="2.70764">
        <ele>1082.173</ele>
        <time>2012-03-31T13:52:55Z</time>
      </trkpt>
      <trkpt lat="42.25925" lon="2.7077">
        <ele>1085.531</ele>
        <time>2012-03-31T13:53:07Z</time>
      </trkpt>
      <trkpt lat="42.25925" lon="2.7077">
        <ele>1088.861</ele>
        <time>2012-03-31T13:53:15Z</time>
      </trkpt>
      <trkpt lat="42.25925" lon="2.7077">
        <ele>1087.907</ele>
        <time>2012-03-31T13:53:16Z</time>
      </trkpt>
      <trkpt lat="42.25898" lon="2.70778">
        <ele>1090.807</ele>
        <time>2012-03-31T13:53:29Z</time>
      </trkpt>
      <trkpt lat="42.25892" lon="2.70765">
        <ele>1093.275</ele>
        <time>2012-03-31T13:53:40Z</time>
      </trkpt>
      <trkpt lat="42.25881" lon="2.70776">
        <ele>1097.099</ele>
        <time>2012-03-31T13:53:56Z</time>
      </trkpt>
      <trkpt lat="42.25873" lon="2.70802">
        <ele>1099.959</ele>
        <time>2012-03-31T13:54:13Z</time>
      </trkpt>
      <trkpt lat="42.25859" lon="2.70795">
        <ele>1102.814</ele>
        <time>2012-03-31T13:54:29Z</time>
      </trkpt>
      <trkpt lat="42.25865" lon="2.70771">
        <ele>1105.289</ele>
        <time>2012-03-31T13:54:49Z</time>
      </trkpt>
      <trkpt lat="42.25865" lon="2.7077">
        <ele>1105.282</ele>
        <time>2012-03-31T13:54:50Z</time>
      </trkpt>
      <trkpt lat="42.25867" lon="2.70747">
        <ele>1108.111</ele>
        <time>2012-03-31T13:55:03Z</time>
      </trkpt>
      <trkpt lat="42.25866" lon="2.70748">
        <ele>1108.152</ele>
        <time>2012-03-31T13:55:05Z</time>
      </trkpt>
      <trkpt lat="42.25862" lon="2.70753">
        <ele>1109.053</ele>
        <time>2012-03-31T13:55:10Z</time>
      </trkpt>
      <trkpt lat="42.25846" lon="2.70775">
        <ele>1111.408</ele>
        <time>2012-03-31T13:55:26Z</time>
      </trkpt>
      <trkpt lat="42.25846" lon="2.70776">
        <ele>1111.907</ele>
        <time>2012-03-31T13:55:27Z</time>
      </trkpt>
      <trkpt lat="42.25841" lon="2.70784">
        <ele>1112.957</ele>
        <time>2012-03-31T13:55:42Z</time>
      </trkpt>
      <trkpt lat="42.2584" lon="2.70784">
        <ele>1112.421</ele>
        <time>2012-03-31T13:55:58Z</time>
      </trkpt>
      <trkpt lat="42.25837" lon="2.7079">
        <ele>1112.961</ele>
        <time>2012-03-31T13:56:22Z</time>
      </trkpt>
      <trkpt lat="42.25833" lon="2.70795">
        <ele>1112.976</ele>
        <time>2012-03-31T13:56:26Z</time>
      </trkpt>
      <trkpt lat="42.25828" lon="2.70798">
        <ele>1113.341</ele>
        <time>2012-03-31T13:56:31Z</time>
      </trkpt>
      <trkpt lat="42.25826" lon="2.70799">
        <ele>1113.334</ele>
        <time>2012-03-31T13:56:33Z</time>
      </trkpt>
      <trkpt lat="42.25825" lon="2.70815">
        <ele>1113.323</ele>
        <time>2012-03-31T13:56:48Z</time>
      </trkpt>
      <trkpt lat="42.25825" lon="2.7081">
        <ele>1113.313</ele>
        <time>2012-03-31T13:56:53Z</time>
      </trkpt>
      <trkpt lat="42.25827" lon="2.70803">
        <ele>1113.343</ele>
        <time>2012-03-31T13:56:58Z</time>
      </trkpt>
      <trkpt lat="42.25827" lon="2.70795">
        <ele>1113.307</ele>
        <time>2012-03-31T13:57:03Z</time>
      </trkpt>
      <trkpt lat="42.25827" lon="2.70789">
        <ele>1112.907</ele>
        <time>2012-03-31T13:57:19Z</time>
      </trkpt>
      <trkpt lat="42.25827" lon="2.70789">
        <ele>1113.383</ele>
        <time>2012-03-31T13:57:38Z</time>
      </trkpt>
      <trkpt lat="42.25826" lon="2.70787">
        <ele>1112.977</ele>
        <time>2012-03-31T13:58:00Z</time>
      </trkpt>
      <trkpt lat="42.25825" lon="2.70784">
        <ele>1111.487</ele>
        <time>2012-03-31T13:58:02Z</time>
      </trkpt>
      <trkpt lat="42.25824" lon="2.70778">
        <ele>1109.572</ele>
        <time>2012-03-31T13:58:07Z</time>
      </trkpt>
      <trkpt lat="42.25822" lon="2.70778">
        <ele>1109.027</ele>
        <time>2012-03-31T13:58:20Z</time>
      </trkpt>
      <trkpt lat="42.2582" lon="2.70776">
        <ele>1108.19</ele>
        <time>2012-03-31T13:58:31Z</time>
      </trkpt>
      <trkpt lat="42.2582" lon="2.70775">
        <ele>1106.619</ele>
        <time>2012-03-31T13:58:32Z</time>
      </trkpt>
      <trkpt lat="42.25818" lon="2.70774">
        <ele>1105.771</ele>
        <time>2012-03-31T13:58:34Z</time>
      </trkpt>
      <trkpt lat="42.25813" lon="2.70772">
        <ele>1103.341</ele>
        <time>2012-03-31T13:58:44Z</time>
      </trkpt>
      <trkpt lat="42.25813" lon="2.7077">
        <ele>1102.815</ele>
        <time>2012-03-31T13:58:48Z</time>
      </trkpt>
      <trkpt lat="42.25813" lon="2.70768">
        <ele>1102.307</ele>
        <time>2012-03-31T13:59:01Z</time>
      </trkpt>
      <trkpt lat="42.25812" lon="2.70769">
        <ele>1101.839</ele>
        <time>2012-03-31T13:59:10Z</time>
      </trkpt>
      <trkpt lat="42.2581" lon="2.70766">
        <ele>1100.413</ele>
        <time>2012-03-31T13:59:13Z</time>
      </trkpt>
      <trkpt lat="42.25808" lon="2.70765">
        <ele>1099.923</ele>
        <time>2012-03-31T13:59:19Z</time>
      </trkpt>
      <trkpt lat="42.25809" lon="2.70762">
        <ele>1098.098</ele>
        <time>2012-03-31T13:59:22Z</time>
      </trkpt>
      <trkpt lat="42.2581" lon="2.70761">
        <ele>1097.573</ele>
        <time>2012-03-31T13:59:41Z</time>
      </trkpt>
      <trkpt lat="42.25807" lon="2.70757">
        <ele>1094.636</ele>
        <time>2012-03-31T13:59:53Z</time>
      </trkpt>
      <trkpt lat="42.25805" lon="2.70758">
        <ele>1093.665</ele>
        <time>2012-03-31T13:59:55Z</time>
      </trkpt>
      <trkpt lat="42.258" lon="2.70761">
        <ele>1091.772</ele>
        <time>2012-03-31T14:00:00Z</time>
      </trkpt>
      <trkpt lat="42.25793" lon="2.70768">
        <ele>1088.813</ele>
        <time>2012-03-31T14:00:10Z</time>
      </trkpt>
      <trkpt lat="42.2579" lon="2.70772">
        <ele>1086.914</ele>
        <time>2012-03-31T14:00:15Z</time>
      </trkpt>
      <trkpt lat="42.25789" lon="2.70789">
        <ele>1083.507</ele>
        <time>2012-03-31T14:00:28Z</time>
      </trkpt>
      <trkpt lat="42.25788" lon="2.70795">
        <ele>1083.139</ele>
        <time>2012-03-31T14:00:34Z</time>
      </trkpt>
      <trkpt lat="42.25787" lon="2.70802">
        <ele>1082.623</ele>
        <time>2012-03-31T14:00:38Z</time>
      </trkpt>
      <trkpt lat="42.25787" lon="2.70808">
        <ele>1082.153</ele>
        <time>2012-03-31T14:00:41Z</time>
      </trkpt>
      <trkpt lat="42.25784" lon="2.70822">
        <ele>1080.248</ele>
        <time>2012-03-31T14:00:49Z</time>
      </trkpt>
      <trkpt lat="42.25783" lon="2.70835">
        <ele>1076.843</ele>
        <time>2012-03-31T14:00:59Z</time>
      </trkpt>
      <trkpt lat="42.25783" lon="2.70837">
        <ele>1076.896</ele>
        <time>2012-03-31T14:01:00Z</time>
      </trkpt>
      <trkpt lat="42.25775" lon="2.70851">
        <ele>1073.575</ele>
        <time>2012-03-31T14:01:08Z</time>
      </trkpt>
      <trkpt lat="42.25768" lon="2.70873">
        <ele>1071.172</ele>
        <time>2012-03-31T14:01:20Z</time>
      </trkpt>
      <trkpt lat="42.25765" lon="2.70881">
        <ele>1067.713</ele>
        <time>2012-03-31T14:01:25Z</time>
      </trkpt>
      <trkpt lat="42.25761" lon="2.70882">
        <ele>1064.814</ele>
        <time>2012-03-31T14:01:35Z</time>
      </trkpt>
      <trkpt lat="42.25758" lon="2.70889">
        <ele>1062.907</ele>
        <time>2012-03-31T14:01:42Z</time>
      </trkpt>
      <trkpt lat="42.25758" lon="2.70893">
        <ele>1061.999</ele>
        <time>2012-03-31T14:01:45Z</time>
      </trkpt>
      <trkpt lat="42.25753" lon="2.70912">
        <ele>1058.613</ele>
        <time>2012-03-31T14:01:57Z</time>
      </trkpt>
      <trkpt lat="42.25753" lon="2.70916">
        <ele>1057.643</ele>
        <time>2012-03-31T14:02:00Z</time>
      </trkpt>
      <trkpt lat="42.2575" lon="2.70923">
        <ele>1056.248</ele>
        <time>2012-03-31T14:02:04Z</time>
      </trkpt>
      <trkpt lat="42.25748" lon="2.70939">
        <ele>1052.843</ele>
        <time>2012-03-31T14:02:12Z</time>
      </trkpt>
      <trkpt lat="42.25743" lon="2.7095">
        <ele>1049.936</ele>
        <time>2012-03-31T14:02:19Z</time>
      </trkpt>
      <trkpt lat="42.25742" lon="2.70951">
        <ele>1049.955</ele>
        <time>2012-03-31T14:02:20Z</time>
      </trkpt>
      <trkpt lat="42.2574" lon="2.70964">
        <ele>1047.564</ele>
        <time>2012-03-31T14:02:27Z</time>
      </trkpt>
      <trkpt lat="42.25739" lon="2.70976">
        <ele>1044.106</ele>
        <time>2012-03-31T14:02:36Z</time>
      </trkpt>
      <trkpt lat="42.25737" lon="2.70979">
        <ele>1043.716</ele>
        <time>2012-03-31T14:02:38Z</time>
      </trkpt>
      <trkpt lat="42.25735" lon="2.70987">
        <ele>1040.807</ele>
        <time>2012-03-31T14:02:44Z</time>
      </trkpt>
      <trkpt lat="42.25734" lon="2.7099">
        <ele>1039.868</ele>
        <time>2012-03-31T14:02:46Z</time>
      </trkpt>
      <trkpt lat="42.25734" lon="2.70991">
        <ele>1039.862</ele>
        <time>2012-03-31T14:02:50Z</time>
      </trkpt>
      <trkpt lat="42.25737" lon="2.71013">
        <ele>1037.982</ele>
        <time>2012-03-31T14:02:59Z</time>
      </trkpt>
      <trkpt lat="42.25739" lon="2.7102">
        <ele>1037.437</ele>
        <time>2012-03-31T14:03:02Z</time>
      </trkpt>
      <trkpt lat="42.25744" lon="2.71047">
        <ele>1035.562</ele>
        <time>2012-03-31T14:03:12Z</time>
      </trkpt>
      <trkpt lat="42.25737" lon="2.71049">
        <ele>1035.025</ele>
        <time>2012-03-31T14:03:16Z</time>
      </trkpt>
      <trkpt lat="42.25726" lon="2.71029">
        <ele>1032.684</ele>
        <time>2012-03-31T14:03:25Z</time>
      </trkpt>
      <trkpt lat="42.25723" lon="2.71017">
        <ele>1032.195</ele>
        <time>2012-03-31T14:03:29Z</time>
      </trkpt>
      <trkpt lat="42.25713" lon="2.70996">
        <ele>1030.249</ele>
        <time>2012-03-31T14:03:37Z</time>
      </trkpt>
      <trkpt lat="42.25708" lon="2.70983">
        <ele>1029.223</ele>
        <time>2012-03-31T14:03:50Z</time>
      </trkpt>
      <trkpt lat="42.25708" lon="2.70983">
        <ele>1027.307</ele>
        <time>2012-03-31T14:04:01Z</time>
      </trkpt>
      <trkpt lat="42.25708" lon="2.70983">
        <ele>1024.991</ele>
        <time>2012-03-31T14:04:14Z</time>
      </trkpt>
      <trkpt lat="42.25709" lon="2.70985">
        <ele>1024.455</ele>
        <time>2012-03-31T14:04:17Z</time>
      </trkpt>
      <trkpt lat="42.25713" lon="2.71002">
        <ele>1025.975</ele>
        <time>2012-03-31T14:04:29Z</time>
      </trkpt>
      <trkpt lat="42.25713" lon="2.71002">
        <ele>1025.45</ele>
        <time>2012-03-31T14:04:47Z</time>
      </trkpt>
      <trkpt lat="42.25713" lon="2.71002">
        <ele>1024.945</ele>
        <time>2012-03-31T14:05:19Z</time>
      </trkpt>
      <trkpt lat="42.25712" lon="2.71002">
        <ele>1025.448</ele>
        <time>2012-03-31T14:05:51Z</time>
      </trkpt>
      <trkpt lat="42.25713" lon="2.71003">
        <ele>1025.977</ele>
        <time>2012-03-31T14:06:10Z</time>
      </trkpt>
      <trkpt lat="42.25713" lon="2.71003">
        <ele>1025.448</ele>
        <time>2012-03-31T14:06:32Z</time>
      </trkpt>
      <trkpt lat="42.25713" lon="2.71003">
        <ele>1025.461</ele>
        <time>2012-03-31T14:06:50Z</time>
      </trkpt>
      <trkpt lat="42.25713" lon="2.71003">
        <ele>1020.117</ele>
        <time>2012-03-31T14:07:11Z</time>
      </trkpt>
      <trkpt lat="42.25713" lon="2.71003">
        <ele>1030.207</ele>
        <time>2012-03-31T14:07:12Z</time>
      </trkpt>
      <trkpt lat="42.25713" lon="2.71003">
        <ele>1017.766</ele>
        <time>2012-03-31T14:07:13Z</time>
      </trkpt>
      <trkpt lat="42.25713" lon="2.71003">
        <ele>1035.54</ele>
        <time>2012-03-31T14:07:14Z</time>
      </trkpt>
      <trkpt lat="42.25713" lon="2.71003">
        <ele>1025.97</ele>
        <time>2012-03-31T14:07:15Z</time>
      </trkpt>
      <trkpt lat="42.25713" lon="2.71004">
        <ele>1025.465</ele>
        <time>2012-03-31T14:07:33Z</time>
      </trkpt>
      <trkpt lat="42.25713" lon="2.71004">
        <ele>1025.41</ele>
        <time>2012-03-31T14:08:07Z</time>
      </trkpt>
      <trkpt lat="42.25712" lon="2.71006">
        <ele>1025.483</ele>
        <time>2012-03-31T14:08:19Z</time>
      </trkpt>
      <trkpt lat="42.25712" lon="2.71006">
        <ele>1025.492</ele>
        <time>2012-03-31T14:08:47Z</time>
      </trkpt>
      <trkpt lat="42.25712" lon="2.71006">
        <ele>1025.457</ele>
        <time>2012-03-31T14:09:07Z</time>
      </trkpt>
      <trkpt lat="42.25712" lon="2.71007">
        <ele>1025.4</ele>
        <time>2012-03-31T14:09:39Z</time>
      </trkpt>
      <trkpt lat="42.25712" lon="2.71007">
        <ele>1025.42</ele>
        <time>2012-03-31T14:10:04Z</time>
      </trkpt>
      <trkpt lat="42.25712" lon="2.71007">
        <ele>1025.407</ele>
        <time>2012-03-31T14:10:30Z</time>
      </trkpt>
      <trkpt lat="42.25712" lon="2.71007">
        <ele>1020.667</ele>
        <time>2012-03-31T14:10:35Z</time>
      </trkpt>
      <trkpt lat="42.25712" lon="2.71007">
        <ele>1027.881</ele>
        <time>2012-03-31T14:10:36Z</time>
      </trkpt>
      <trkpt lat="42.25712" lon="2.71007">
        <ele>1025.491</ele>
        <time>2012-03-31T14:10:40Z</time>
      </trkpt>
      <trkpt lat="42.25712" lon="2.71007">
        <ele>1024.936</ele>
        <time>2012-03-31T14:11:09Z</time>
      </trkpt>
      <trkpt lat="42.25712" lon="2.71007">
        <ele>1025.441</ele>
        <time>2012-03-31T14:11:27Z</time>
      </trkpt>
      <trkpt lat="42.25712" lon="2.71007">
        <ele>1025.934</ele>
        <time>2012-03-31T14:11:46Z</time>
      </trkpt>
      <trkpt lat="42.25712" lon="2.71008">
        <ele>1025.423</ele>
        <time>2012-03-31T14:12:15Z</time>
      </trkpt>
      <trkpt lat="42.25713" lon="2.71013">
        <ele>1023.966</ele>
        <time>2012-03-31T14:12:33Z</time>
      </trkpt>
      <trkpt lat="42.25713" lon="2.71015">
        <ele>1023.929</ele>
        <time>2012-03-31T14:12:35Z</time>
      </trkpt>
      <trkpt lat="42.2571" lon="2.71019">
        <ele>1022.021</ele>
        <time>2012-03-31T14:12:39Z</time>
      </trkpt>
      <trkpt lat="42.25708" lon="2.71027">
        <ele>1020.607</ele>
        <time>2012-03-31T14:12:44Z</time>
      </trkpt>
      <trkpt lat="42.25708" lon="2.71031">
        <ele>1019.628</ele>
        <time>2012-03-31T14:12:46Z</time>
      </trkpt>
      <trkpt lat="42.25705" lon="2.71038">
        <ele>1018.282</ele>
        <time>2012-03-31T14:12:50Z</time>
      </trkpt>
      <trkpt lat="42.257" lon="2.71032">
        <ele>1016.772</ele>
        <time>2012-03-31T14:12:55Z</time>
      </trkpt>
      <trkpt lat="42.257" lon="2.71029">
        <ele>1015.817</ele>
        <time>2012-03-31T14:12:57Z</time>
      </trkpt>
      <trkpt lat="42.25698" lon="2.71023">
        <ele>1013.492</ele>
        <time>2012-03-31T14:13:03Z</time>
      </trkpt>
      <trkpt lat="42.25696" lon="2.7102">
        <ele>1010.555</ele>
        <time>2012-03-31T14:13:09Z</time>
      </trkpt>
      <trkpt lat="42.25691" lon="2.71016">
        <ele>1008.614</ele>
        <time>2012-03-31T14:13:13Z</time>
      </trkpt>
      <trkpt lat="42.25687" lon="2.71016">
        <ele>1004.742</ele>
        <time>2012-03-31T14:13:22Z</time>
      </trkpt>
      <trkpt lat="42.25681" lon="2.71014">
        <ele>1001.822</ele>
        <time>2012-03-31T14:13:29Z</time>
      </trkpt>
      <trkpt lat="42.25675" lon="2.71019">
        <ele>999.414</ele>
        <time>2012-03-31T14:13:35Z</time>
      </trkpt>
      <trkpt lat="42.2567" lon="2.7102">
        <ele>997.507</ele>
        <time>2012-03-31T14:13:39Z</time>
      </trkpt>
      <trkpt lat="42.25666" lon="2.71016">
        <ele>994.636</ele>
        <time>2012-03-31T14:13:46Z</time>
      </trkpt>
      <trkpt lat="42.25665" lon="2.71018">
        <ele>993.72</ele>
        <time>2012-03-31T14:13:48Z</time>
      </trkpt>
      <trkpt lat="42.25664" lon="2.71026">
        <ele>992.22</ele>
        <time>2012-03-31T14:13:55Z</time>
      </trkpt>
      <trkpt lat="42.25662" lon="2.71024">
        <ele>991.395</ele>
        <time>2012-03-31T14:13:57Z</time>
      </trkpt>
      <trkpt lat="42.25658" lon="2.71013">
        <ele>987.44</ele>
        <time>2012-03-31T14:14:05Z</time>
      </trkpt>
      <trkpt lat="42.25648" lon="2.71035">
        <ele>984.193</ele>
        <time>2012-03-31T14:14:15Z</time>
      </trkpt>
      <trkpt lat="42.25645" lon="2.7106">
        <ele>982.172</ele>
        <time>2012-03-31T14:14:23Z</time>
      </trkpt>
      <trkpt lat="42.25645" lon="2.71063">
        <ele>981.645</ele>
        <time>2012-03-31T14:14:24Z</time>
      </trkpt>
      <trkpt lat="42.25641" lon="2.71068">
        <ele>980.747</ele>
        <time>2012-03-31T14:14:27Z</time>
      </trkpt>
      <trkpt lat="42.25634" lon="2.7107">
        <ele>978.811</ele>
        <time>2012-03-31T14:14:31Z</time>
      </trkpt>
      <trkpt lat="42.25632" lon="2.71073">
        <ele>978.307</ele>
        <time>2012-03-31T14:14:33Z</time>
      </trkpt>
      <trkpt lat="42.2563" lon="2.71089">
        <ele>974.926</ele>
        <time>2012-03-31T14:14:40Z</time>
      </trkpt>
      <trkpt lat="42.25628" lon="2.71104">
        <ele>971.13</ele>
        <time>2012-03-31T14:14:47Z</time>
      </trkpt>
      <trkpt lat="42.25629" lon="2.71105">
        <ele>971.15</ele>
        <time>2012-03-31T14:14:48Z</time>
      </trkpt>
      <trkpt lat="42.25636" lon="2.71112">
        <ele>969.625</ele>
        <time>2012-03-31T14:14:53Z</time>
      </trkpt>
      <trkpt lat="42.25642" lon="2.71119">
        <ele>966.75</ele>
        <time>2012-03-31T14:15:02Z</time>
      </trkpt>
      <trkpt lat="42.25639" lon="2.71128">
        <ele>963.473</ele>
        <time>2012-03-31T14:15:09Z</time>
      </trkpt>
      <trkpt lat="42.25636" lon="2.71133">
        <ele>962.432</ele>
        <time>2012-03-31T14:15:12Z</time>
      </trkpt>
      <trkpt lat="42.2564" lon="2.7114">
        <ele>961.535</ele>
        <time>2012-03-31T14:15:16Z</time>
      </trkpt>
      <trkpt lat="42.25634" lon="2.71144">
        <ele>959.586</ele>
        <time>2012-03-31T14:15:21Z</time>
      </trkpt>
      <trkpt lat="42.25633" lon="2.71147">
        <ele>958.114</ele>
        <time>2012-03-31T14:15:23Z</time>
      </trkpt>
      <trkpt lat="42.25634" lon="2.71153">
        <ele>957.607</ele>
        <time>2012-03-31T14:15:26Z</time>
      </trkpt>
      <trkpt lat="42.25639" lon="2.71177">
        <ele>954.795</ele>
        <time>2012-03-31T14:15:35Z</time>
      </trkpt>
      <trkpt lat="42.25638" lon="2.71185">
        <ele>952.859</ele>
        <time>2012-03-31T14:15:39Z</time>
      </trkpt>
      <trkpt lat="42.25637" lon="2.71191">
        <ele>951.819</ele>
        <time>2012-03-31T14:15:49Z</time>
      </trkpt>
      <trkpt lat="42.25633" lon="2.71213">
        <ele>949.014</ele>
        <time>2012-03-31T14:15:56Z</time>
      </trkpt>
      <trkpt lat="42.25632" lon="2.71218">
        <ele>948.099</ele>
        <time>2012-03-31T14:15:58Z</time>
      </trkpt>
      <trkpt lat="42.25627" lon="2.71244">
        <ele>945.142</ele>
        <time>2012-03-31T14:16:06Z</time>
      </trkpt>
      <trkpt lat="42.25621" lon="2.71269">
        <ele>941.361</ele>
        <time>2012-03-31T14:16:15Z</time>
      </trkpt>
      <trkpt lat="42.2562" lon="2.71276">
        <ele>940.381</ele>
        <time>2012-03-31T14:16:17Z</time>
      </trkpt>
      <trkpt lat="42.25622" lon="2.71285">
        <ele>939.861</ele>
        <time>2012-03-31T14:16:20Z</time>
      </trkpt>
      <trkpt lat="42.25623" lon="2.71296">
        <ele>938.417</ele>
        <time>2012-03-31T14:16:34Z</time>
      </trkpt>
      <trkpt lat="42.25623" lon="2.71298">
        <ele>937.407</ele>
        <time>2012-03-31T14:16:39Z</time>
      </trkpt>
      <trkpt lat="42.25623" lon="2.71314">
        <ele>936.01</ele>
        <time>2012-03-31T14:16:47Z</time>
      </trkpt>
      <trkpt lat="42.25624" lon="2.71325">
        <ele>934.554</ele>
        <time>2012-03-31T14:16:51Z</time>
      </trkpt>
      <trkpt lat="42.25624" lon="2.71333">
        <ele>932.184</ele>
        <time>2012-03-31T14:16:54Z</time>
      </trkpt>
      <trkpt lat="42.25622" lon="2.71339">
        <ele>931.299</ele>
        <time>2012-03-31T14:16:57Z</time>
      </trkpt>
      <trkpt lat="42.2562" lon="2.71344">
        <ele>929.734</ele>
        <time>2012-03-31T14:16:59Z</time>
      </trkpt>
      <trkpt lat="42.25619" lon="2.7136">
        <ele>926.417</ele>
        <time>2012-03-31T14:17:05Z</time>
      </trkpt>
      <trkpt lat="42.25619" lon="2.71363">
        <ele>925.916</ele>
        <time>2012-03-31T14:17:06Z</time>
      </trkpt>
      <trkpt lat="42.25617" lon="2.7138">
        <ele>922.522</ele>
        <time>2012-03-31T14:17:12Z</time>
      </trkpt>
      <trkpt lat="42.25615" lon="2.71392">
        <ele>919.662</ele>
        <time>2012-03-31T14:17:18Z</time>
      </trkpt>
      <trkpt lat="42.25613" lon="2.71389">
        <ele>919.208</ele>
        <time>2012-03-31T14:17:20Z</time>
      </trkpt>
      <trkpt lat="42.25607" lon="2.71387">
        <ele>916.307</ele>
        <time>2012-03-31T14:17:27Z</time>
      </trkpt>
      <trkpt lat="42.25601" lon="2.7138">
        <ele>914.474</ele>
        <time>2012-03-31T14:17:32Z</time>
      </trkpt>
      <trkpt lat="42.25599" lon="2.71376">
        <ele>913.498</ele>
        <time>2012-03-31T14:17:34Z</time>
      </trkpt>
      <trkpt lat="42.25589" lon="2.71363">
        <ele>909.558</ele>
        <time>2012-03-31T14:17:41Z</time>
      </trkpt>
      <trkpt lat="42.25577" lon="2.71337">
        <ele>906.713</ele>
        <time>2012-03-31T14:17:52Z</time>
      </trkpt>
      <trkpt lat="42.25575" lon="2.71338">
        <ele>906.768</ele>
        <time>2012-03-31T14:17:53Z</time>
      </trkpt>
      <trkpt lat="42.25573" lon="2.71339">
        <ele>905.271</ele>
        <time>2012-03-31T14:17:55Z</time>
      </trkpt>
      <trkpt lat="42.25572" lon="2.7134">
        <ele>906.76</ele>
        <time>2012-03-31T14:17:56Z</time>
      </trkpt>
      <trkpt lat="42.25551" lon="2.71354">
        <ele>904.376</ele>
        <time>2012-03-31T14:18:07Z</time>
      </trkpt>
      <trkpt lat="42.25547" lon="2.71363">
        <ele>902.39</ele>
        <time>2012-03-31T14:18:11Z</time>
      </trkpt>
      <trkpt lat="42.25542" lon="2.71369">
        <ele>900.419</ele>
        <time>2012-03-31T14:18:14Z</time>
      </trkpt>
      <trkpt lat="42.25534" lon="2.71379">
        <ele>897.107</ele>
        <time>2012-03-31T14:18:20Z</time>
      </trkpt>
      <trkpt lat="42.25533" lon="2.7138">
        <ele>896.669</ele>
        <time>2012-03-31T14:18:21Z</time>
      </trkpt>
      <trkpt lat="42.25523" lon="2.71388">
        <ele>894.243</ele>
        <time>2012-03-31T14:18:26Z</time>
      </trkpt>
      <trkpt lat="42.25514" lon="2.71402">
        <ele>891.323</ele>
        <time>2012-03-31T14:18:33Z</time>
      </trkpt>
      <trkpt lat="42.25509" lon="2.71411">
        <ele>888.998</ele>
        <time>2012-03-31T14:18:38Z</time>
      </trkpt>
      <trkpt lat="42.25502" lon="2.71416">
        <ele>887.043</ele>
        <time>2012-03-31T14:18:42Z</time>
      </trkpt>
      <trkpt lat="42.25501" lon="2.71417">
        <ele>885.026</ele>
        <time>2012-03-31T14:18:45Z</time>
      </trkpt>
      <trkpt lat="42.25501" lon="2.7142">
        <ele>883.175</ele>
        <time>2012-03-31T14:18:48Z</time>
      </trkpt>
      <trkpt lat="42.25509" lon="2.71439">
        <ele>880.756</ele>
        <time>2012-03-31T14:18:55Z</time>
      </trkpt>
      <trkpt lat="42.25516" lon="2.71448">
        <ele>878.859</ele>
        <time>2012-03-31T14:18:59Z</time>
      </trkpt>
      <trkpt lat="42.2552" lon="2.71459">
        <ele>878.314</ele>
        <time>2012-03-31T14:19:02Z</time>
      </trkpt>
      <trkpt lat="42.25516" lon="2.71512">
        <ele>874.907</ele>
        <time>2012-03-31T14:19:16Z</time>
      </trkpt>
      <trkpt lat="42.25515" lon="2.71515">
        <ele>874.537</ele>
        <time>2012-03-31T14:19:17Z</time>
      </trkpt>
      <trkpt lat="42.25509" lon="2.71523">
        <ele>872.551</ele>
        <time>2012-03-31T14:19:21Z</time>
      </trkpt>
      <trkpt lat="42.25507" lon="2.71524">
        <ele>872.111</ele>
        <time>2012-03-31T14:19:24Z</time>
      </trkpt>
      <trkpt lat="42.25505" lon="2.71497">
        <ele>871.616</ele>
        <time>2012-03-31T14:19:37Z</time>
      </trkpt>
      <trkpt lat="42.25506" lon="2.7149">
        <ele>871.661</ele>
        <time>2012-03-31T14:19:39Z</time>
      </trkpt>
      <trkpt lat="42.25505" lon="2.71486">
        <ele>871.634</ele>
        <time>2012-03-31T14:19:42Z</time>
      </trkpt>
      <trkpt lat="42.25499" lon="2.71477">
        <ele>872.143</ele>
        <time>2012-03-31T14:19:49Z</time>
      </trkpt>
      <trkpt lat="42.25497" lon="2.71476">
        <ele>871.623</ele>
        <time>2012-03-31T14:19:51Z</time>
      </trkpt>
      <trkpt lat="42.25487" lon="2.71467">
        <ele>872.583</ele>
        <time>2012-03-31T14:19:57Z</time>
      </trkpt>
      <trkpt lat="42.25459" lon="2.71452">
        <ele>869.711</ele>
        <time>2012-03-31T14:20:11Z</time>
      </trkpt>
      <trkpt lat="42.25448" lon="2.71457">
        <ele>869.207</ele>
        <time>2012-03-31T14:20:17Z</time>
      </trkpt>
      <trkpt lat="42.25445" lon="2.7146">
        <ele>868.734</ele>
        <time>2012-03-31T14:20:19Z</time>
      </trkpt>
      <trkpt lat="42.25442" lon="2.71464">
        <ele>868.298</ele>
        <time>2012-03-31T14:20:21Z</time>
      </trkpt>
      <trkpt lat="42.25436" lon="2.7147">
        <ele>867.788</ele>
        <time>2012-03-31T14:20:25Z</time>
      </trkpt>
      <trkpt lat="42.25428" lon="2.71487">
        <ele>864.843</ele>
        <time>2012-03-31T14:20:36Z</time>
      </trkpt>
      <trkpt lat="42.25425" lon="2.71482">
        <ele>863.988</ele>
        <time>2012-03-31T14:20:49Z</time>
      </trkpt>
      <trkpt lat="42.25425" lon="2.71482">
        <ele>863.961</ele>
        <time>2012-03-31T14:21:10Z</time>
      </trkpt>
      <trkpt lat="42.25423" lon="2.71481">
        <ele>863.94</ele>
        <time>2012-03-31T14:21:15Z</time>
      </trkpt>
      <trkpt lat="42.25418" lon="2.7148">
        <ele>863.494</ele>
        <time>2012-03-31T14:21:30Z</time>
      </trkpt>
      <trkpt lat="42.2542" lon="2.7148">
        <ele>863.457</ele>
        <time>2012-03-31T14:21:31Z</time>
      </trkpt>
      <trkpt lat="42.25422" lon="2.71481">
        <ele>863.922</ele>
        <time>2012-03-31T14:21:33Z</time>
      </trkpt>
      <trkpt lat="42.25425" lon="2.71483">
        <ele>863.907</ele>
        <time>2012-03-31T14:21:36Z</time>
      </trkpt>
      <trkpt lat="42.25431" lon="2.71487">
        <ele>865.351</ele>
        <time>2012-03-31T14:21:43Z</time>
      </trkpt>
      <trkpt lat="42.25438" lon="2.71496">
        <ele>865.875</ele>
        <time>2012-03-31T14:21:51Z</time>
      </trkpt>
      <trkpt lat="42.2544" lon="2.71502">
        <ele>864.825</ele>
        <time>2012-03-31T14:21:59Z</time>
      </trkpt>
      <trkpt lat="42.25438" lon="2.71494">
        <ele>865.88</ele>
        <time>2012-03-31T14:22:09Z</time>
      </trkpt>
      <trkpt lat="42.25436" lon="2.71488">
        <ele>866.315</ele>
        <time>2012-03-31T14:22:15Z</time>
      </trkpt>
      <trkpt lat="42.25445" lon="2.7147">
        <ele>868.258</ele>
        <time>2012-03-31T14:22:24Z</time>
      </trkpt>
      <trkpt lat="42.25446" lon="2.71466">
        <ele>869.777</ele>
        <time>2012-03-31T14:22:32Z</time>
      </trkpt>
      <trkpt lat="42.25447" lon="2.7146">
        <ele>871.151</ele>
        <time>2012-03-31T14:22:35Z</time>
      </trkpt>
      <trkpt lat="42.2544" lon="2.71448">
        <ele>872.501</ele>
        <time>2012-03-31T14:22:44Z</time>
      </trkpt>
      <trkpt lat="42.25433" lon="2.71443">
        <ele>871.611</ele>
        <time>2012-03-31T14:22:49Z</time>
      </trkpt>
      <trkpt lat="42.25417" lon="2.7144">
        <ele>870.607</ele>
        <time>2012-03-31T14:22:56Z</time>
      </trkpt>
      <trkpt lat="42.25394" lon="2.71434">
        <ele>868.237</ele>
        <time>2012-03-31T14:23:07Z</time>
      </trkpt>
      <trkpt lat="42.25384" lon="2.71436">
        <ele>866.381</ele>
        <time>2012-03-31T14:23:11Z</time>
      </trkpt>
      <trkpt lat="42.25382" lon="2.71442">
        <ele>864.411</ele>
        <time>2012-03-31T14:23:16Z</time>
      </trkpt>
      <trkpt lat="42.25385" lon="2.71447">
        <ele>862.996</ele>
        <time>2012-03-31T14:23:20Z</time>
      </trkpt>
      <trkpt lat="42.25385" lon="2.71449">
        <ele>862.471</ele>
        <time>2012-03-31T14:23:28Z</time>
      </trkpt>
      <trkpt lat="42.25383" lon="2.71445">
        <ele>864.474</ele>
        <time>2012-03-31T14:23:34Z</time>
      </trkpt>
      <trkpt lat="42.25381" lon="2.71444">
        <ele>865.313</ele>
        <time>2012-03-31T14:23:39Z</time>
      </trkpt>
      <trkpt lat="42.25379" lon="2.71447">
        <ele>864.824</ele>
        <time>2012-03-31T14:23:42Z</time>
      </trkpt>
      <trkpt lat="42.25375" lon="2.71451">
        <ele>862.004</ele>
        <time>2012-03-31T14:23:47Z</time>
      </trkpt>
      <trkpt lat="42.25371" lon="2.71458">
        <ele>858.614</ele>
        <time>2012-03-31T14:23:54Z</time>
      </trkpt>
      <trkpt lat="42.25369" lon="2.7146">
        <ele>857.607</ele>
        <time>2012-03-31T14:23:56Z</time>
      </trkpt>
      <trkpt lat="42.25357" lon="2.71466">
        <ele>854.334</ele>
        <time>2012-03-31T14:24:05Z</time>
      </trkpt>
      <trkpt lat="42.2535" lon="2.71472">
        <ele>852.488</ele>
        <time>2012-03-31T14:24:09Z</time>
      </trkpt>
      <trkpt lat="42.25342" lon="2.71478">
        <ele>849.958</ele>
        <time>2012-03-31T14:24:14Z</time>
      </trkpt>
      <trkpt lat="42.25338" lon="2.7148">
        <ele>848.553</ele>
        <time>2012-03-31T14:24:17Z</time>
      </trkpt>
      <trkpt lat="42.2533" lon="2.71486">
        <ele>845.698</ele>
        <time>2012-03-31T14:24:23Z</time>
      </trkpt>
      <trkpt lat="42.25328" lon="2.71487">
        <ele>845.171</ele>
        <time>2012-03-31T14:24:24Z</time>
      </trkpt>
      <trkpt lat="42.25325" lon="2.71489">
        <ele>843.76</ele>
        <time>2012-03-31T14:24:28Z</time>
      </trkpt>
      <trkpt lat="42.25312" lon="2.71493">
        <ele>840.828</ele>
        <time>2012-03-31T14:24:36Z</time>
      </trkpt>
      <trkpt lat="42.25309" lon="2.71491">
        <ele>838.989</ele>
        <time>2012-03-31T14:24:39Z</time>
      </trkpt>
      <trkpt lat="42.25305" lon="2.7149">
        <ele>837.517</ele>
        <time>2012-03-31T14:24:43Z</time>
      </trkpt>
      <trkpt lat="42.25304" lon="2.71493">
        <ele>836.507</ele>
        <time>2012-03-31T14:24:44Z</time>
      </trkpt>
      <trkpt lat="42.25292" lon="2.71505">
        <ele>832.614</ele>
        <time>2012-03-31T14:24:54Z</time>
      </trkpt>
      <trkpt lat="42.25289" lon="2.71506">
        <ele>831.738</ele>
        <time>2012-03-31T14:24:56Z</time>
      </trkpt>
      <trkpt lat="42.25289" lon="2.71499">
        <ele>828.898</ele>
        <time>2012-03-31T14:25:02Z</time>
      </trkpt>
      <trkpt lat="42.25288" lon="2.71499">
        <ele>827.833</ele>
        <time>2012-03-31T14:25:04Z</time>
      </trkpt>
      <trkpt lat="42.25285" lon="2.71498">
        <ele>824.558</ele>
        <time>2012-03-31T14:25:11Z</time>
      </trkpt>
      <trkpt lat="42.25278" lon="2.71495">
        <ele>821.111</ele>
        <time>2012-03-31T14:25:18Z</time>
      </trkpt>
      <trkpt lat="42.25277" lon="2.71495">
        <ele>821.17</ele>
        <time>2012-03-31T14:25:19Z</time>
      </trkpt>
      <trkpt lat="42.25275" lon="2.71495">
        <ele>819.719</ele>
        <time>2012-03-31T14:25:21Z</time>
      </trkpt>
      <trkpt lat="42.25273" lon="2.71493">
        <ele>819.209</ele>
        <time>2012-03-31T14:25:23Z</time>
      </trkpt>
      <trkpt lat="42.2527" lon="2.71488">
        <ele>816.819</ele>
        <time>2012-03-31T14:25:28Z</time>
      </trkpt>
      <trkpt lat="42.25267" lon="2.71485">
        <ele>814.907</ele>
        <time>2012-03-31T14:25:33Z</time>
      </trkpt>
      <trkpt lat="42.25265" lon="2.71486">
        <ele>812.983</ele>
        <time>2012-03-31T14:25:36Z</time>
      </trkpt>
      <trkpt lat="42.2526" lon="2.71489">
        <ele>810.177</ele>
        <time>2012-03-31T14:25:43Z</time>
      </trkpt>
      <trkpt lat="42.25259" lon="2.71489">
        <ele>809.197</ele>
        <time>2012-03-31T14:25:44Z</time>
      </trkpt>
      <trkpt lat="42.25257" lon="2.71491">
        <ele>808.692</ele>
        <time>2012-03-31T14:25:46Z</time>
      </trkpt>
      <trkpt lat="42.25254" lon="2.71492">
        <ele>806.787</ele>
        <time>2012-03-31T14:25:49Z</time>
      </trkpt>
      <trkpt lat="42.25252" lon="2.71494">
        <ele>805.23</ele>
        <time>2012-03-31T14:25:52Z</time>
      </trkpt>
      <trkpt lat="42.25245" lon="2.715">
        <ele>800.979</ele>
        <time>2012-03-31T14:26:00Z</time>
      </trkpt>
      <trkpt lat="42.25244" lon="2.715">
        <ele>800.435</ele>
        <time>2012-03-31T14:26:02Z</time>
      </trkpt>
      <trkpt lat="42.25244" lon="2.71501">
        <ele>799.086</ele>
        <time>2012-03-31T14:26:03Z</time>
      </trkpt>
      <trkpt lat="42.25242" lon="2.71504">
        <ele>797.114</ele>
        <time>2012-03-31T14:26:08Z</time>
      </trkpt>
      <trkpt lat="42.25236" lon="2.71501">
        <ele>793.707</ele>
        <time>2012-03-31T14:26:15Z</time>
      </trkpt>
      <trkpt lat="42.2523" lon="2.715">
        <ele>790.865</ele>
        <time>2012-03-31T14:26:21Z</time>
      </trkpt>
      <trkpt lat="42.25224" lon="2.715">
        <ele>788.439</ele>
        <time>2012-03-31T14:26:33Z</time>
      </trkpt>
      <trkpt lat="42.25217" lon="2.71495">
        <ele>785.179</ele>
        <time>2012-03-31T14:26:41Z</time>
      </trkpt>
      <trkpt lat="42.25211" lon="2.71498">
        <ele>781.274</ele>
        <time>2012-03-31T14:26:49Z</time>
      </trkpt>
      <trkpt lat="42.25205" lon="2.71501">
        <ele>777.449</ele>
        <time>2012-03-31T14:26:56Z</time>
      </trkpt>
      <trkpt lat="42.25204" lon="2.71501">
        <ele>777.482</ele>
        <time>2012-03-31T14:26:57Z</time>
      </trkpt>
      <trkpt lat="42.25202" lon="2.71503">
        <ele>775.961</ele>
        <time>2012-03-31T14:26:59Z</time>
      </trkpt>
      <trkpt lat="42.25196" lon="2.71506">
        <ele>773.076</ele>
        <time>2012-03-31T14:27:05Z</time>
      </trkpt>
      <trkpt lat="42.25193" lon="2.71506">
        <ele>772.19</ele>
        <time>2012-03-31T14:27:08Z</time>
      </trkpt>
      <trkpt lat="42.25191" lon="2.71507">
        <ele>771.619</ele>
        <time>2012-03-31T14:27:09Z</time>
      </trkpt>
      <trkpt lat="42.25182" lon="2.71507">
        <ele>768.207</ele>
        <time>2012-03-31T14:27:17Z</time>
      </trkpt>
      <trkpt lat="42.2518" lon="2.71509">
        <ele>767.899</ele>
        <time>2012-03-31T14:27:19Z</time>
      </trkpt>
      <trkpt lat="42.25165" lon="2.71514">
        <ele>764.453</ele>
        <time>2012-03-31T14:27:29Z</time>
      </trkpt>
      <trkpt lat="42.25161" lon="2.71514">
        <ele>762.923</ele>
        <time>2012-03-31T14:27:32Z</time>
      </trkpt>
      <trkpt lat="42.25151" lon="2.71518">
        <ele>759.638</ele>
        <time>2012-03-31T14:27:38Z</time>
      </trkpt>
      <trkpt lat="42.25149" lon="2.71519">
        <ele>759.613</ele>
        <time>2012-03-31T14:27:39Z</time>
      </trkpt>
      <trkpt lat="42.25133" lon="2.71514">
        <ele>755.796</ele>
        <time>2012-03-31T14:27:50Z</time>
      </trkpt>
      <trkpt lat="42.25127" lon="2.71509">
        <ele>755.735</ele>
        <time>2012-03-31T14:27:53Z</time>
      </trkpt>
      <trkpt lat="42.25109" lon="2.71501">
        <ele>752.999</ele>
        <time>2012-03-31T14:28:00Z</time>
      </trkpt>
      <trkpt lat="42.25103" lon="2.71489">
        <ele>752.907</ele>
        <time>2012-03-31T14:28:05Z</time>
      </trkpt>
      <trkpt lat="42.25099" lon="2.71476">
        <ele>752.427</ele>
        <time>2012-03-31T14:28:10Z</time>
      </trkpt>
      <trkpt lat="42.25095" lon="2.71466">
        <ele>751.407</ele>
        <time>2012-03-31T14:28:13Z</time>
      </trkpt>
      <trkpt lat="42.25094" lon="2.71458">
        <ele>750.981</ele>
        <time>2012-03-31T14:28:17Z</time>
      </trkpt>
      <trkpt lat="42.25087" lon="2.7144">
        <ele>747.625</ele>
        <time>2012-03-31T14:28:27Z</time>
      </trkpt>
      <trkpt lat="42.25082" lon="2.7143">
        <ele>745.645</ele>
        <time>2012-03-31T14:28:32Z</time>
      </trkpt>
      <trkpt lat="42.25078" lon="2.71428">
        <ele>744.71</ele>
        <time>2012-03-31T14:28:34Z</time>
      </trkpt>
      <trkpt lat="42.25072" lon="2.71429">
        <ele>742.355</ele>
        <time>2012-03-31T14:28:40Z</time>
      </trkpt>
      <trkpt lat="42.25067" lon="2.71438">
        <ele>738.948</ele>
        <time>2012-03-31T14:28:45Z</time>
      </trkpt>
      <trkpt lat="42.25066" lon="2.71442">
        <ele>738.447</ele>
        <time>2012-03-31T14:28:47Z</time>
      </trkpt>
      <trkpt lat="42.25063" lon="2.71456">
        <ele>735.169</ele>
        <time>2012-03-31T14:28:56Z</time>
      </trkpt>
      <trkpt lat="42.25064" lon="2.71461">
        <ele>733.604</ele>
        <time>2012-03-31T14:28:59Z</time>
      </trkpt>
      <trkpt lat="42.25066" lon="2.71471">
        <ele>731.724</ele>
        <time>2012-03-31T14:29:03Z</time>
      </trkpt>
      <trkpt lat="42.25065" lon="2.71479">
        <ele>730.707</ele>
        <time>2012-03-31T14:29:06Z</time>
      </trkpt>
      <trkpt lat="42.25064" lon="2.71481">
        <ele>730.388</ele>
        <time>2012-03-31T14:29:08Z</time>
      </trkpt>
      <trkpt lat="42.2506" lon="2.71484">
        <ele>728.322</ele>
        <time>2012-03-31T14:29:11Z</time>
      </trkpt>
      <trkpt lat="42.25056" lon="2.71487">
        <ele>726.922</ele>
        <time>2012-03-31T14:29:14Z</time>
      </trkpt>
      <trkpt lat="42.25049" lon="2.7149">
        <ele>725.077</ele>
        <time>2012-03-31T14:29:19Z</time>
      </trkpt>
      <trkpt lat="42.25044" lon="2.71493">
        <ele>722.192</ele>
        <time>2012-03-31T14:29:25Z</time>
      </trkpt>
      <trkpt lat="42.2504" lon="2.715">
        <ele>719.255</ele>
        <time>2012-03-31T14:29:31Z</time>
      </trkpt>
      <trkpt lat="42.25038" lon="2.71501">
        <ele>718.264</ele>
        <time>2012-03-31T14:29:33Z</time>
      </trkpt>
      <trkpt lat="42.25032" lon="2.71506">
        <ele>714.957</ele>
        <time>2012-03-31T14:29:38Z</time>
      </trkpt>
      <trkpt lat="42.2503" lon="2.71507">
        <ele>714.4</ele>
        <time>2012-03-31T14:29:39Z</time>
      </trkpt>
      <trkpt lat="42.25028" lon="2.71511">
        <ele>713.42</ele>
        <time>2012-03-31T14:29:41Z</time>
      </trkpt>
      <trkpt lat="42.25027" lon="2.71516">
        <ele>713.007</ele>
        <time>2012-03-31T14:29:43Z</time>
      </trkpt>
      <trkpt lat="42.25023" lon="2.71534">
        <ele>710.667</ele>
        <time>2012-03-31T14:29:50Z</time>
      </trkpt>
      <trkpt lat="42.25009" lon="2.71533">
        <ele>707.231</ele>
        <time>2012-03-31T14:30:02Z</time>
      </trkpt>
      <trkpt lat="42.25008" lon="2.71532">
        <ele>705.861</ele>
        <time>2012-03-31T14:30:04Z</time>
      </trkpt>
      <trkpt lat="42.25003" lon="2.71528">
        <ele>704.846</ele>
        <time>2012-03-31T14:30:07Z</time>
      </trkpt>
      <trkpt lat="42.24998" lon="2.71517">
        <ele>702.991</ele>
        <time>2012-03-31T14:30:13Z</time>
      </trkpt>
      <trkpt lat="42.24994" lon="2.71507">
        <ele>701.474</ele>
        <time>2012-03-31T14:30:17Z</time>
      </trkpt>
      <trkpt lat="42.24993" lon="2.71505">
        <ele>700.973</ele>
        <time>2012-03-31T14:30:18Z</time>
      </trkpt>
      <trkpt lat="42.24989" lon="2.71487">
        <ele>699.075</ele>
        <time>2012-03-31T14:30:24Z</time>
      </trkpt>
      <trkpt lat="42.24982" lon="2.7147">
        <ele>698.128</ele>
        <time>2012-03-31T14:30:31Z</time>
      </trkpt>
      <trkpt lat="42.24979" lon="2.71452">
        <ele>694.22</ele>
        <time>2012-03-31T14:30:40Z</time>
      </trkpt>
      <trkpt lat="42.24978" lon="2.71447">
        <ele>693.707</ele>
        <time>2012-03-31T14:30:42Z</time>
      </trkpt>
      <trkpt lat="42.24976" lon="2.71437">
        <ele>691.899</ele>
        <time>2012-03-31T14:30:46Z</time>
      </trkpt>
      <trkpt lat="42.24966" lon="2.71414">
        <ele>688.923</ele>
        <time>2012-03-31T14:30:56Z</time>
      </trkpt>
      <trkpt lat="42.24961" lon="2.71413">
        <ele>686.013</ele>
        <time>2012-03-31T14:31:01Z</time>
      </trkpt>
      <trkpt lat="42.24959" lon="2.71417">
        <ele>684.158</ele>
        <time>2012-03-31T14:31:05Z</time>
      </trkpt>
      <trkpt lat="42.24958" lon="2.71422">
        <ele>680.353</ele>
        <time>2012-03-31T14:31:13Z</time>
      </trkpt>
      <trkpt lat="42.24949" lon="2.71418">
        <ele>676.986</ele>
        <time>2012-03-31T14:31:21Z</time>
      </trkpt>
      <trkpt lat="42.24939" lon="2.71413">
        <ele>674.085</ele>
        <time>2012-03-31T14:31:27Z</time>
      </trkpt>
      <trkpt lat="42.24929" lon="2.71412">
        <ele>670.212</ele>
        <time>2012-03-31T14:31:35Z</time>
      </trkpt>
      <trkpt lat="42.24921" lon="2.7141">
        <ele>667.832</ele>
        <time>2012-03-31T14:31:40Z</time>
      </trkpt>
      <trkpt lat="42.24915" lon="2.71406">
        <ele>665.405</ele>
        <time>2012-03-31T14:31:44Z</time>
      </trkpt>
      <trkpt lat="42.24904" lon="2.71401">
        <ele>662.507</ele>
        <time>2012-03-31T14:31:52Z</time>
      </trkpt>
      <trkpt lat="42.24897" lon="2.71398">
        <ele>661.583</ele>
        <time>2012-03-31T14:31:56Z</time>
      </trkpt>
      <trkpt lat="42.24885" lon="2.71395">
        <ele>659.147</ele>
        <time>2012-03-31T14:32:05Z</time>
      </trkpt>
      <trkpt lat="42.24879" lon="2.71393">
        <ele>657.727</ele>
        <time>2012-03-31T14:32:09Z</time>
      </trkpt>
      <trkpt lat="42.24879" lon="2.71395">
        <ele>656.792</ele>
        <time>2012-03-31T14:32:11Z</time>
      </trkpt>
      <trkpt lat="42.2488" lon="2.71403">
        <ele>654.317</ele>
        <time>2012-03-31T14:32:16Z</time>
      </trkpt>
      <trkpt lat="42.2488" lon="2.71405">
        <ele>653.44</ele>
        <time>2012-03-31T14:32:18Z</time>
      </trkpt>
      <trkpt lat="42.2487" lon="2.71408">
        <ele>650.029</ele>
        <time>2012-03-31T14:32:27Z</time>
      </trkpt>
      <trkpt lat="42.24868" lon="2.71408">
        <ele>649.098</ele>
        <time>2012-03-31T14:32:28Z</time>
      </trkpt>
      <trkpt lat="42.24864" lon="2.71408">
        <ele>648.115</ele>
        <time>2012-03-31T14:32:31Z</time>
      </trkpt>
      <trkpt lat="42.24854" lon="2.7141">
        <ele>644.726</ele>
        <time>2012-03-31T14:32:38Z</time>
      </trkpt>
      <trkpt lat="42.24853" lon="2.71412">
        <ele>643.707</ele>
        <time>2012-03-31T14:32:40Z</time>
      </trkpt>
      <trkpt lat="42.24843" lon="2.71416">
        <ele>641.381</ele>
        <time>2012-03-31T14:32:47Z</time>
      </trkpt>
      <trkpt lat="42.24837" lon="2.71418">
        <ele>640.475</ele>
        <time>2012-03-31T14:32:51Z</time>
      </trkpt>
      <trkpt lat="42.24828" lon="2.71419">
        <ele>637.515</ele>
        <time>2012-03-31T14:32:57Z</time>
      </trkpt>
      <trkpt lat="42.24816" lon="2.71424">
        <ele>634.69</ele>
        <time>2012-03-31T14:33:03Z</time>
      </trkpt>
      <trkpt lat="42.24808" lon="2.71424">
        <ele>632.215</ele>
        <time>2012-03-31T14:33:08Z</time>
      </trkpt>
      <trkpt lat="42.24806" lon="2.71424">
        <ele>632.288</ele>
        <time>2012-03-31T14:33:09Z</time>
      </trkpt>
      <trkpt lat="42.24795" lon="2.71423">
        <ele>628.457</ele>
        <time>2012-03-31T14:33:17Z</time>
      </trkpt>
      <trkpt lat="42.24794" lon="2.71424">
        <ele>627.456</ele>
        <time>2012-03-31T14:33:18Z</time>
      </trkpt>
      <trkpt lat="42.24792" lon="2.7143">
        <ele>625.559</ele>
        <time>2012-03-31T14:33:22Z</time>
      </trkpt>
      <trkpt lat="42.24789" lon="2.7144">
        <ele>621.614</ele>
        <time>2012-03-31T14:33:30Z</time>
      </trkpt>
      <trkpt lat="42.24779" lon="2.71443">
        <ele>618.307</ele>
        <time>2012-03-31T14:33:40Z</time>
      </trkpt>
      <trkpt lat="42.24775" lon="2.71442">
        <ele>617.817</ele>
        <time>2012-03-31T14:33:42Z</time>
      </trkpt>
      <trkpt lat="42.24762" lon="2.71439">
        <ele>613.971</ele>
        <time>2012-03-31T14:33:50Z</time>
      </trkpt>
      <trkpt lat="42.24761" lon="2.71437">
        <ele>613.581</ele>
        <time>2012-03-31T14:33:52Z</time>
      </trkpt>
      <trkpt lat="42.24754" lon="2.71433">
        <ele>611.176</ele>
        <time>2012-03-31T14:33:58Z</time>
      </trkpt>
      <trkpt lat="42.24754" lon="2.71438">
        <ele>610.111</ele>
        <time>2012-03-31T14:34:01Z</time>
      </trkpt>
      <trkpt lat="42.24759" lon="2.71452">
        <ele>609.674</ele>
        <time>2012-03-31T14:34:10Z</time>
      </trkpt>
      <trkpt lat="42.24759" lon="2.71461">
        <ele>607.253</ele>
        <time>2012-03-31T14:34:14Z</time>
      </trkpt>
      <trkpt lat="42.24761" lon="2.7148">
        <ele>603.956</ele>
        <time>2012-03-31T14:34:22Z</time>
      </trkpt>
      <trkpt lat="42.24755" lon="2.71485">
        <ele>601.459</ele>
        <time>2012-03-31T14:34:28Z</time>
      </trkpt>
      <trkpt lat="42.2475" lon="2.71486">
        <ele>600.014</ele>
        <time>2012-03-31T14:34:32Z</time>
      </trkpt>
      <trkpt lat="42.24748" lon="2.71492">
        <ele>598.607</ele>
        <time>2012-03-31T14:34:36Z</time>
      </trkpt>
      <trkpt lat="42.24746" lon="2.71513">
        <ele>594.777</ele>
        <time>2012-03-31T14:34:50Z</time>
      </trkpt>
      <trkpt lat="42.24738" lon="2.7151">
        <ele>592.371</ele>
        <time>2012-03-31T14:34:57Z</time>
      </trkpt>
      <trkpt lat="42.24732" lon="2.71502">
        <ele>589.991</ele>
        <time>2012-03-31T14:35:02Z</time>
      </trkpt>
      <trkpt lat="42.24731" lon="2.71501">
        <ele>589.496</ele>
        <time>2012-03-31T14:35:03Z</time>
      </trkpt>
      <trkpt lat="42.24716" lon="2.71505">
        <ele>586.151</ele>
        <time>2012-03-31T14:35:12Z</time>
      </trkpt>
      <trkpt lat="42.24709" lon="2.71507">
        <ele>584.114</ele>
        <time>2012-03-31T14:35:17Z</time>
      </trkpt>
      <trkpt lat="42.24701" lon="2.71508">
        <ele>582.773</ele>
        <time>2012-03-31T14:35:21Z</time>
      </trkpt>
      <trkpt lat="42.247" lon="2.71524">
        <ele>580.842</ele>
        <time>2012-03-31T14:35:27Z</time>
      </trkpt>
      <trkpt lat="42.24701" lon="2.71527">
        <ele>580.322</ele>
        <time>2012-03-31T14:35:29Z</time>
      </trkpt>
      <trkpt lat="42.24701" lon="2.7153">
        <ele>578.914</ele>
        <time>2012-03-31T14:35:33Z</time>
      </trkpt>
      <trkpt lat="42.24701" lon="2.71531">
        <ele>578.407</ele>
        <time>2012-03-31T14:35:34Z</time>
      </trkpt>
      <trkpt lat="42.24703" lon="2.71541">
        <ele>577.486</ele>
        <time>2012-03-31T14:35:39Z</time>
      </trkpt>
      <trkpt lat="42.24709" lon="2.71557">
        <ele>576.59</ele>
        <time>2012-03-31T14:35:48Z</time>
      </trkpt>
      <trkpt lat="42.24713" lon="2.71566">
        <ele>575.54</ele>
        <time>2012-03-31T14:35:52Z</time>
      </trkpt>
      <trkpt lat="42.24716" lon="2.7157">
        <ele>575.025</ele>
        <time>2012-03-31T14:35:54Z</time>
      </trkpt>
      <trkpt lat="42.24707" lon="2.71575">
        <ele>572.61</ele>
        <time>2012-03-31T14:36:04Z</time>
      </trkpt>
      <trkpt lat="42.24701" lon="2.71577">
        <ele>570.733</ele>
        <time>2012-03-31T14:36:08Z</time>
      </trkpt>
      <trkpt lat="42.24699" lon="2.71578">
        <ele>569.782</ele>
        <time>2012-03-31T14:36:09Z</time>
      </trkpt>
      <trkpt lat="42.24696" lon="2.7158">
        <ele>568.824</ele>
        <time>2012-03-31T14:36:11Z</time>
      </trkpt>
      <trkpt lat="42.24685" lon="2.7158">
        <ele>565.404</ele>
        <time>2012-03-31T14:36:19Z</time>
      </trkpt>
      <trkpt lat="42.24679" lon="2.71572">
        <ele>562.514</ele>
        <time>2012-03-31T14:36:25Z</time>
      </trkpt>
      <trkpt lat="42.24677" lon="2.71569">
        <ele>561.607</ele>
        <time>2012-03-31T14:36:27Z</time>
      </trkpt>
      <trkpt lat="42.24675" lon="2.71567">
        <ele>561.144</ele>
        <time>2012-03-31T14:36:28Z</time>
      </trkpt>
      <trkpt lat="42.24668" lon="2.71557">
        <ele>558.218</ele>
        <time>2012-03-31T14:36:34Z</time>
      </trkpt>
      <trkpt lat="42.24661" lon="2.7155">
        <ele>555.358</ele>
        <time>2012-03-31T14:36:40Z</time>
      </trkpt>
      <trkpt lat="42.24657" lon="2.71549">
        <ele>551.973</ele>
        <time>2012-03-31T14:36:47Z</time>
      </trkpt>
      <trkpt lat="42.24655" lon="2.71547">
        <ele>551.078</ele>
        <time>2012-03-31T14:36:49Z</time>
      </trkpt>
      <trkpt lat="42.24643" lon="2.71542">
        <ele>548.181</ele>
        <time>2012-03-31T14:36:57Z</time>
      </trkpt>
      <trkpt lat="42.24641" lon="2.71542">
        <ele>547.13</ele>
        <time>2012-03-31T14:36:59Z</time>
      </trkpt>
      <trkpt lat="42.24631" lon="2.71543">
        <ele>543.847</ele>
        <time>2012-03-31T14:37:06Z</time>
      </trkpt>
      <trkpt lat="42.24629" lon="2.71544">
        <ele>542.329</ele>
        <time>2012-03-31T14:37:09Z</time>
      </trkpt>
      <trkpt lat="42.24634" lon="2.7155">
        <ele>539.021</ele>
        <time>2012-03-31T14:37:17Z</time>
      </trkpt>
      <trkpt lat="42.24636" lon="2.71555">
        <ele>535.607</ele>
        <time>2012-03-31T14:37:25Z</time>
      </trkpt>
      <trkpt lat="42.24633" lon="2.71561">
        <ele>531.896</ele>
        <time>2012-03-31T14:37:33Z</time>
      </trkpt>
      <trkpt lat="42.24628" lon="2.71564">
        <ele>531.38</ele>
        <time>2012-03-31T14:37:35Z</time>
      </trkpt>
      <trkpt lat="42.24623" lon="2.71575">
        <ele>528.44</ele>
        <time>2012-03-31T14:37:42Z</time>
      </trkpt>
      <trkpt lat="42.24618" lon="2.71575">
        <ele>525.595</ele>
        <time>2012-03-31T14:37:49Z</time>
      </trkpt>
      <trkpt lat="42.24616" lon="2.71578">
        <ele>523.11</ele>
        <time>2012-03-31T14:37:53Z</time>
      </trkpt>
      <trkpt lat="42.24604" lon="2.71576">
        <ele>519.793</ele>
        <time>2012-03-31T14:38:03Z</time>
      </trkpt>
      <trkpt lat="42.24597" lon="2.71576">
        <ele>516.932</ele>
        <time>2012-03-31T14:38:08Z</time>
      </trkpt>
      <trkpt lat="42.24587" lon="2.71571">
        <ele>514.025</ele>
        <time>2012-03-31T14:38:13Z</time>
      </trkpt>
      <trkpt lat="42.24573" lon="2.7155">
        <ele>510.126</ele>
        <time>2012-03-31T14:38:24Z</time>
      </trkpt>
      <trkpt lat="42.24566" lon="2.71537">
        <ele>507.208</ele>
        <time>2012-03-31T14:38:33Z</time>
      </trkpt>
      <trkpt lat="42.24565" lon="2.7154">
        <ele>506.307</ele>
        <time>2012-03-31T14:38:36Z</time>
      </trkpt>
      <trkpt lat="42.24564" lon="2.71547">
        <ele>504.894</ele>
        <time>2012-03-31T14:38:41Z</time>
      </trkpt>
      <trkpt lat="42.24557" lon="2.71541">
        <ele>502.098</ele>
        <time>2012-03-31T14:38:48Z</time>
      </trkpt>
      <trkpt lat="42.24557" lon="2.71542">
        <ele>501.548</ele>
        <time>2012-03-31T14:38:49Z</time>
      </trkpt>
      <trkpt lat="42.24555" lon="2.71553">
        <ele>498.123</ele>
        <time>2012-03-31T14:38:58Z</time>
      </trkpt>
      <trkpt lat="42.24552" lon="2.71558">
        <ele>496.268</ele>
        <time>2012-03-31T14:39:02Z</time>
      </trkpt>
      <trkpt lat="42.24551" lon="2.71555">
        <ele>495.211</ele>
        <time>2012-03-31T14:39:06Z</time>
      </trkpt>
      <trkpt lat="42.2455" lon="2.71552">
        <ele>494.79</ele>
        <time>2012-03-31T14:39:08Z</time>
      </trkpt>
      <trkpt lat="42.24548" lon="2.71541">
        <ele>493.382</ele>
        <time>2012-03-31T14:39:14Z</time>
      </trkpt>
      <trkpt lat="42.24548" lon="2.71533">
        <ele>490.443</ele>
        <time>2012-03-31T14:39:21Z</time>
      </trkpt>
      <trkpt lat="42.24544" lon="2.71535">
        <ele>488.517</ele>
        <time>2012-03-31T14:39:25Z</time>
      </trkpt>
      <trkpt lat="42.24541" lon="2.71538">
        <ele>487.507</ele>
        <time>2012-03-31T14:39:27Z</time>
      </trkpt>
      <trkpt lat="42.24537" lon="2.71548">
        <ele>485.65</ele>
        <time>2012-03-31T14:39:33Z</time>
      </trkpt>
      <trkpt lat="42.24537" lon="2.71556">
        <ele>484.254</ele>
        <time>2012-03-31T14:39:37Z</time>
      </trkpt>
      <trkpt lat="42.24533" lon="2.71568">
        <ele>481.374</ele>
        <time>2012-03-31T14:39:45Z</time>
      </trkpt>
      <trkpt lat="42.24532" lon="2.71568">
        <ele>480.389</ele>
        <time>2012-03-31T14:39:46Z</time>
      </trkpt>
      <trkpt lat="42.24529" lon="2.71568">
        <ele>479.454</ele>
        <time>2012-03-31T14:39:48Z</time>
      </trkpt>
      <trkpt lat="42.24526" lon="2.71567">
        <ele>478.417</ele>
        <time>2012-03-31T14:39:50Z</time>
      </trkpt>
      <trkpt lat="42.24517" lon="2.71558">
        <ele>475.036</ele>
        <time>2012-03-31T14:39:56Z</time>
      </trkpt>
      <trkpt lat="42.24517" lon="2.71556">
        <ele>474.653</ele>
        <time>2012-03-31T14:39:57Z</time>
      </trkpt>
      <trkpt lat="42.24516" lon="2.71554">
        <ele>474.104</ele>
        <time>2012-03-31T14:39:58Z</time>
      </trkpt>
      <trkpt lat="42.24511" lon="2.71545">
        <ele>472.614</ele>
        <time>2012-03-31T14:40:02Z</time>
      </trkpt>
      <trkpt lat="42.24504" lon="2.71534">
        <ele>470.207</ele>
        <time>2012-03-31T14:40:12Z</time>
      </trkpt>
      <trkpt lat="42.24503" lon="2.71534">
        <ele>469.767</ele>
        <time>2012-03-31T14:40:14Z</time>
      </trkpt>
      <trkpt lat="42.24502" lon="2.71544">
        <ele>468.811</ele>
        <time>2012-03-31T14:40:21Z</time>
      </trkpt>
      <trkpt lat="42.24504" lon="2.71551">
        <ele>467.391</ele>
        <time>2012-03-31T14:40:26Z</time>
      </trkpt>
      <trkpt lat="42.24504" lon="2.71553">
        <ele>465.956</ele>
        <time>2012-03-31T14:40:29Z</time>
      </trkpt>
      <trkpt lat="42.24505" lon="2.71556">
        <ele>465.421</ele>
        <time>2012-03-31T14:40:31Z</time>
      </trkpt>
      <trkpt lat="42.24506" lon="2.71571">
        <ele>462.184</ele>
        <time>2012-03-31T14:40:43Z</time>
      </trkpt>
      <trkpt lat="42.24509" lon="2.71588">
        <ele>460.643</ele>
        <time>2012-03-31T14:40:52Z</time>
      </trkpt>
      <trkpt lat="42.24514" lon="2.71597">
        <ele>459.236</ele>
        <time>2012-03-31T14:41:00Z</time>
      </trkpt>
      <trkpt lat="42.24516" lon="2.716">
        <ele>458.217</ele>
        <time>2012-03-31T14:41:02Z</time>
      </trkpt>
      <trkpt lat="42.24514" lon="2.716">
        <ele>456.818</ele>
        <time>2012-03-31T14:41:05Z</time>
      </trkpt>
      <trkpt lat="42.24511" lon="2.71602">
        <ele>455.807</ele>
        <time>2012-03-31T14:41:07Z</time>
      </trkpt>
      <trkpt lat="42.24507" lon="2.71603">
        <ele>454.835</ele>
        <time>2012-03-31T14:41:10Z</time>
      </trkpt>
      <trkpt lat="42.24501" lon="2.716">
        <ele>455.879</ele>
        <time>2012-03-31T14:41:15Z</time>
      </trkpt>
      <trkpt lat="42.24499" lon="2.71592">
        <ele>453.419</ele>
        <time>2012-03-31T14:41:20Z</time>
      </trkpt>
      <trkpt lat="42.24497" lon="2.71588">
        <ele>452.434</ele>
        <time>2012-03-31T14:41:23Z</time>
      </trkpt>
      <trkpt lat="42.24494" lon="2.71584">
        <ele>451.059</ele>
        <time>2012-03-31T14:41:26Z</time>
      </trkpt>
      <trkpt lat="42.24491" lon="2.71576">
        <ele>449.142</ele>
        <time>2012-03-31T14:41:32Z</time>
      </trkpt>
      <trkpt lat="42.24483" lon="2.71565">
        <ele>450.541</ele>
        <time>2012-03-31T14:41:44Z</time>
      </trkpt>
      <trkpt lat="42.24463" lon="2.71534">
        <ele>446.755</ele>
        <time>2012-03-31T14:41:59Z</time>
      </trkpt>
      <trkpt lat="42.24442" lon="2.71514">
        <ele>446.207</ele>
        <time>2012-03-31T14:42:13Z</time>
      </trkpt>
      <trkpt lat="42.24416" lon="2.71509">
        <ele>443.317</ele>
        <time>2012-03-31T14:42:26Z</time>
      </trkpt>
      <trkpt lat="42.24387" lon="2.71514">
        <ele>441.907</ele>
        <time>2012-03-31T14:42:37Z</time>
      </trkpt>
      <trkpt lat="42.24357" lon="2.71527">
        <ele>441.957</ele>
        <time>2012-03-31T14:42:51Z</time>
      </trkpt>
      <trkpt lat="42.24341" lon="2.71526">
        <ele>438.021</ele>
        <time>2012-03-31T14:43:00Z</time>
      </trkpt>
      <trkpt lat="42.24333" lon="2.7152">
        <ele>435.661</ele>
        <time>2012-03-31T14:43:04Z</time>
      </trkpt>
      <trkpt lat="42.24328" lon="2.7152">
        <ele>434.786</ele>
        <time>2012-03-31T14:43:07Z</time>
      </trkpt>
      <trkpt lat="42.24317" lon="2.7152">
        <ele>431.811</ele>
        <time>2012-03-31T14:43:14Z</time>
      </trkpt>
      <trkpt lat="42.2431" lon="2.71522">
        <ele>430.374</ele>
        <time>2012-03-31T14:43:17Z</time>
      </trkpt>
      <trkpt lat="42.243" lon="2.71529">
        <ele>428.493</ele>
        <time>2012-03-31T14:43:24Z</time>
      </trkpt>
      <trkpt lat="42.24293" lon="2.71531">
        <ele>426.591</ele>
        <time>2012-03-31T14:43:28Z</time>
      </trkpt>
      <trkpt lat="42.24278" lon="2.71534">
        <ele>423.681</ele>
        <time>2012-03-31T14:43:35Z</time>
      </trkpt>
      <trkpt lat="42.24265" lon="2.71529">
        <ele>421.719</ele>
        <time>2012-03-31T14:43:41Z</time>
      </trkpt>
      <trkpt lat="42.24248" lon="2.71533">
        <ele>418.807</ele>
        <time>2012-03-31T14:43:49Z</time>
      </trkpt>
      <trkpt lat="42.2423" lon="2.71541">
        <ele>415.961</ele>
        <time>2012-03-31T14:44:02Z</time>
      </trkpt>
      <trkpt lat="42.24225" lon="2.71541">
        <ele>415.965</ele>
        <time>2012-03-31T14:44:05Z</time>
      </trkpt>
      <trkpt lat="42.24213" lon="2.71525">
        <ele>412.515</ele>
        <time>2012-03-31T14:44:14Z</time>
      </trkpt>
      <trkpt lat="42.24204" lon="2.71522">
        <ele>411.14</ele>
        <time>2012-03-31T14:44:19Z</time>
      </trkpt>
      <trkpt lat="42.24186" lon="2.7152">
        <ele>408.715</ele>
        <time>2012-03-31T14:44:27Z</time>
      </trkpt>
      <trkpt lat="42.24174" lon="2.71517">
        <ele>406.868</ele>
        <time>2012-03-31T14:44:31Z</time>
      </trkpt>
      <trkpt lat="42.24152" lon="2.71473">
        <ele>403.997</ele>
        <time>2012-03-31T14:44:45Z</time>
      </trkpt>
      <trkpt lat="42.2414" lon="2.71449">
        <ele>401.596</ele>
        <time>2012-03-31T14:44:53Z</time>
      </trkpt>
      <trkpt lat="42.24136" lon="2.71446">
        <ele>401.031</ele>
        <time>2012-03-31T14:44:55Z</time>
      </trkpt>
      <trkpt lat="42.24114" lon="2.71458">
        <ele>398.124</ele>
        <time>2012-03-31T14:45:05Z</time>
      </trkpt>
      <trkpt lat="42.2409" lon="2.71489">
        <ele>395.707</ele>
        <time>2012-03-31T14:45:17Z</time>
      </trkpt>
      <trkpt lat="42.24067" lon="2.71494">
        <ele>392.831</ele>
        <time>2012-03-31T14:45:25Z</time>
      </trkpt>
      <trkpt lat="42.24043" lon="2.71487">
        <ele>389.575</ele>
        <time>2012-03-31T14:45:34Z</time>
      </trkpt>
      <trkpt lat="42.24038" lon="2.71488">
        <ele>389.025</ele>
        <time>2012-03-31T14:45:36Z</time>
      </trkpt>
      <trkpt lat="42.24028" lon="2.71492">
        <ele>387.11</ele>
        <time>2012-03-31T14:45:40Z</time>
      </trkpt>
      <trkpt lat="42.24004" lon="2.71503">
        <ele>383.775</ele>
        <time>2012-03-31T14:45:50Z</time>
      </trkpt>
      <trkpt lat="42.23993" lon="2.71497">
        <ele>381.898</ele>
        <time>2012-03-31T14:45:55Z</time>
      </trkpt>
      <trkpt lat="42.23983" lon="2.71464">
        <ele>379.927</ele>
        <time>2012-03-31T14:46:06Z</time>
      </trkpt>
      <trkpt lat="42.2399" lon="2.71451">
        <ele>379.436</ele>
        <time>2012-03-31T14:46:11Z</time>
      </trkpt>
      <trkpt lat="42.24008" lon="2.71429">
        <ele>376.517</ele>
        <time>2012-03-31T14:46:20Z</time>
      </trkpt>
      <trkpt lat="42.24019" lon="2.71414">
        <ele>376.518</ele>
        <time>2012-03-31T14:46:26Z</time>
      </trkpt>
      <trkpt lat="42.24007" lon="2.7137">
        <ele>377.007</ele>
        <time>2012-03-31T14:46:40Z</time>
      </trkpt>
      <trkpt lat="42.23993" lon="2.71331">
        <ele>378.965</ele>
        <time>2012-03-31T14:46:54Z</time>
      </trkpt>
      <trkpt lat="42.23981" lon="2.71316">
        <ele>380.319</ele>
        <time>2012-03-31T14:47:01Z</time>
      </trkpt>
      <trkpt lat="42.23949" lon="2.71301">
        <ele>377.999</ele>
        <time>2012-03-31T14:47:13Z</time>
      </trkpt>
      <trkpt lat="42.23924" lon="2.71284">
        <ele>375.154</ele>
        <time>2012-03-31T14:47:23Z</time>
      </trkpt>
      <trkpt lat="42.23901" lon="2.71275">
        <ele>372.259</ele>
        <time>2012-03-31T14:47:32Z</time>
      </trkpt>
      <trkpt lat="42.23883" lon="2.71268">
        <ele>369.322</ele>
        <time>2012-03-31T14:47:39Z</time>
      </trkpt>
      <trkpt lat="42.2389" lon="2.71249">
        <ele>368.331</ele>
        <time>2012-03-31T14:47:48Z</time>
      </trkpt>
      <trkpt lat="42.23893" lon="2.71249">
        <ele>368.348</ele>
        <time>2012-03-31T14:47:49Z</time>
      </trkpt>
      <trkpt lat="42.23931" lon="2.71246">
        <ele>366.961</ele>
        <time>2012-03-31T14:48:03Z</time>
      </trkpt>
      <trkpt lat="42.2395" lon="2.71244">
        <ele>365.917</ele>
        <time>2012-03-31T14:48:11Z</time>
      </trkpt>
      <trkpt lat="42.23952" lon="2.71244">
        <ele>365.907</ele>
        <time>2012-03-31T14:48:12Z</time>
      </trkpt>
      <trkpt lat="42.23965" lon="2.71239">
        <ele>365.056</ele>
        <time>2012-03-31T14:48:17Z</time>
      </trkpt>
      <trkpt lat="42.23959" lon="2.71214">
        <ele>364.58</ele>
        <time>2012-03-31T14:48:27Z</time>
      </trkpt>
      <trkpt lat="42.23929" lon="2.71201">
        <ele>366.48</ele>
        <time>2012-03-31T14:48:41Z</time>
      </trkpt>
      <trkpt lat="42.23911" lon="2.71175">
        <ele>366.955</ele>
        <time>2012-03-31T14:48:52Z</time>
      </trkpt>
      <trkpt lat="42.23888" lon="2.71147">
        <ele>363.51</ele>
        <time>2012-03-31T14:49:04Z</time>
      </trkpt>
      <trkpt lat="42.23883" lon="2.71142">
        <ele>363.063</ele>
        <time>2012-03-31T14:49:06Z</time>
      </trkpt>
      <trkpt lat="42.23873" lon="2.71133">
        <ele>361.122</ele>
        <time>2012-03-31T14:49:10Z</time>
      </trkpt>
      <trkpt lat="42.23853" lon="2.71122">
        <ele>358.213</ele>
        <time>2012-03-31T14:49:17Z</time>
      </trkpt>
      <trkpt lat="42.23842" lon="2.71116">
        <ele>357.343</ele>
        <time>2012-03-31T14:49:21Z</time>
      </trkpt>
      <trkpt lat="42.23815" lon="2.71093">
        <ele>355.307</ele>
        <time>2012-03-31T14:49:33Z</time>
      </trkpt>
      <trkpt lat="42.23789" lon="2.71062">
        <ele>353.407</ele>
        <time>2012-03-31T14:49:45Z</time>
      </trkpt>
      <trkpt lat="42.23768" lon="2.71038">
        <ele>352.593</ele>
        <time>2012-03-31T14:49:55Z</time>
      </trkpt>
      <trkpt lat="42.23746" lon="2.71014">
        <ele>352.937</ele>
        <time>2012-03-31T14:50:06Z</time>
      </trkpt>
      <trkpt lat="42.23738" lon="2.71007">
        <ele>352.577</ele>
        <time>2012-03-31T14:50:10Z</time>
      </trkpt>
      <trkpt lat="42.23717" lon="2.70981">
        <ele>352.922</ele>
        <time>2012-03-31T14:50:22Z</time>
      </trkpt>
      <trkpt lat="42.23715" lon="2.70961">
        <ele>353.967</ele>
        <time>2012-03-31T14:50:28Z</time>
      </trkpt>
      <trkpt lat="42.23707" lon="2.70948">
        <ele>354.43</ele>
        <time>2012-03-31T14:50:34Z</time>
      </trkpt>
      <trkpt lat="42.23699" lon="2.70922">
        <ele>354.459</ele>
        <time>2012-03-31T14:50:47Z</time>
      </trkpt>
      <trkpt lat="42.23699" lon="2.70923">
        <ele>353.919</ele>
        <time>2012-03-31T14:50:48Z</time>
      </trkpt>
      <trkpt lat="42.23696" lon="2.70936">
        <ele>353.909</ele>
        <time>2012-03-31T14:51:14Z</time>
      </trkpt>
      <trkpt lat="42.23702" lon="2.7092">
        <ele>353.919</ele>
        <time>2012-03-31T14:59:11Z</time>
      </trkpt>
      <trkpt lat="42.23703" lon="2.70917">
        <ele>353.907</ele>
        <time>2012-03-31T14:59:12Z</time>
      </trkpt>
      <trkpt lat="42.23699" lon="2.70896">
        <ele>352.533</ele>
        <time>2012-03-31T14:59:21Z</time>
      </trkpt>
      <trkpt lat="42.23693" lon="2.70883">
        <ele>349.667</ele>
        <time>2012-03-31T14:59:26Z</time>
      </trkpt>
      <trkpt lat="42.23685" lon="2.70864">
        <ele>346.757</ele>
        <time>2012-03-31T14:59:37Z</time>
      </trkpt>
      <trkpt lat="42.23685" lon="2.70859">
        <ele>345.772</ele>
        <time>2012-03-31T14:59:39Z</time>
      </trkpt>
      <trkpt lat="42.23683" lon="2.70847">
        <ele>344.867</ele>
        <time>2012-03-31T14:59:43Z</time>
      </trkpt>
      <trkpt lat="42.23682" lon="2.7082">
        <ele>340.92</ele>
        <time>2012-03-31T14:59:52Z</time>
      </trkpt>
      <trkpt lat="42.23675" lon="2.7081">
        <ele>338.079</ele>
        <time>2012-03-31T14:59:57Z</time>
      </trkpt>
      <trkpt lat="42.23669" lon="2.70803">
        <ele>334.799</ele>
        <time>2012-03-31T15:00:01Z</time>
      </trkpt>
      <trkpt lat="42.23661" lon="2.70796">
        <ele>331.807</ele>
        <time>2012-03-31T15:00:06Z</time>
      </trkpt>
      <trkpt lat="42.23655" lon="2.70788">
        <ele>328.427</ele>
        <time>2012-03-31T15:00:10Z</time>
      </trkpt>
      <trkpt lat="42.23652" lon="2.70785">
        <ele>328.007</ele>
        <time>2012-03-31T15:00:11Z</time>
      </trkpt>
      <trkpt lat="42.23649" lon="2.70778">
        <ele>327.091</ele>
        <time>2012-03-31T15:00:13Z</time>
      </trkpt>
      <trkpt lat="42.23646" lon="2.70773">
        <ele>326.525</ele>
        <time>2012-03-31T15:00:15Z</time>
      </trkpt>
      <trkpt lat="42.23631" lon="2.70765">
        <ele>324.685</ele>
        <time>2012-03-31T15:00:21Z</time>
      </trkpt>
      <trkpt lat="42.23601" lon="2.70753">
        <ele>322.28</ele>
        <time>2012-03-31T15:00:32Z</time>
      </trkpt>
      <trkpt lat="42.23578" lon="2.70742">
        <ele>319.885</ele>
        <time>2012-03-31T15:00:41Z</time>
      </trkpt>
      <trkpt lat="42.23555" lon="2.70718">
        <ele>317.418</ele>
        <time>2012-03-31T15:00:51Z</time>
      </trkpt>
      <trkpt lat="42.23536" lon="2.7068">
        <ele>314.567</ele>
        <time>2012-03-31T15:01:03Z</time>
      </trkpt>
      <trkpt lat="42.23515" lon="2.70648">
        <ele>311.671</ele>
        <time>2012-03-31T15:01:14Z</time>
      </trkpt>
      <trkpt lat="42.23493" lon="2.70621">
        <ele>309.741</ele>
        <time>2012-03-31T15:01:24Z</time>
      </trkpt>
      <trkpt lat="42.23469" lon="2.70597">
        <ele>309.215</ele>
        <time>2012-03-31T15:01:35Z</time>
      </trkpt>
      <trkpt lat="42.23447" lon="2.70573">
        <ele>308.207</ele>
        <time>2012-03-31T15:01:46Z</time>
      </trkpt>
      <trkpt lat="42.23421" lon="2.70573">
        <ele>306.859</ele>
        <time>2012-03-31T15:01:56Z</time>
      </trkpt>
      <trkpt lat="42.23394" lon="2.70583">
        <ele>303.473</ele>
        <time>2012-03-31T15:02:06Z</time>
      </trkpt>
      <trkpt lat="42.23391" lon="2.70584">
        <ele>303.993</ele>
        <time>2012-03-31T15:02:07Z</time>
      </trkpt>
      <trkpt lat="42.23354" lon="2.70587">
        <ele>303.438</ele>
        <time>2012-03-31T15:02:19Z</time>
      </trkpt>
      <trkpt lat="42.23325" lon="2.70589">
        <ele>302.573</ele>
        <time>2012-03-31T15:02:29Z</time>
      </trkpt>
      <trkpt lat="42.2329" lon="2.70589">
        <ele>301.056</ele>
        <time>2012-03-31T15:02:41Z</time>
      </trkpt>
      <trkpt lat="42.23257" lon="2.70579">
        <ele>298.655</ele>
        <time>2012-03-31T15:02:52Z</time>
      </trkpt>
      <trkpt lat="42.23226" lon="2.70581">
        <ele>296.221</ele>
        <time>2012-03-31T15:03:02Z</time>
      </trkpt>
      <trkpt lat="42.23189" lon="2.70595">
        <ele>293.841</ele>
        <time>2012-03-31T15:03:14Z</time>
      </trkpt>
      <trkpt lat="42.23147" lon="2.70604">
        <ele>291.905</ele>
        <time>2012-03-31T15:03:28Z</time>
      </trkpt>
      <trkpt lat="42.2312" lon="2.70604">
        <ele>290.507</ele>
        <time>2012-03-31T15:03:38Z</time>
      </trkpt>
      <trkpt lat="42.23091" lon="2.70599">
        <ele>289.514</ele>
        <time>2012-03-31T15:03:48Z</time>
      </trkpt>
      <trkpt lat="42.23059" lon="2.70592">
        <ele>290.058</ele>
        <time>2012-03-31T15:04:01Z</time>
      </trkpt>
      <trkpt lat="42.23052" lon="2.70584">
        <ele>290.098</ele>
        <time>2012-03-31T15:04:11Z</time>
      </trkpt>
      <trkpt lat="42.23046" lon="2.70582">
        <ele>290.933</ele>
        <time>2012-03-31T15:04:21Z</time>
      </trkpt>
      <trkpt lat="42.23034" lon="2.70575">
        <ele>291.938</ele>
        <time>2012-03-31T15:04:32Z</time>
      </trkpt>
      <trkpt lat="42.23033" lon="2.70572">
        <ele>292.491</ele>
        <time>2012-03-31T15:04:36Z</time>
      </trkpt>
      <trkpt lat="42.23017" lon="2.70569">
        <ele>292.91</ele>
        <time>2012-03-31T15:04:44Z</time>
      </trkpt>
      <trkpt lat="42.23005" lon="2.70563">
        <ele>291.918</ele>
        <time>2012-03-31T15:04:51Z</time>
      </trkpt>
      <trkpt lat="42.22989" lon="2.70556">
        <ele>293.398</ele>
        <time>2012-03-31T15:05:01Z</time>
      </trkpt>
      <trkpt lat="42.22962" lon="2.70565">
        <ele>294.817</ele>
        <time>2012-03-31T15:05:14Z</time>
      </trkpt>
      <trkpt lat="42.2296" lon="2.70564">
        <ele>295.307</ele>
        <time>2012-03-31T15:05:15Z</time>
      </trkpt>
      <trkpt lat="42.22933" lon="2.70553">
        <ele>297.753</ele>
        <time>2012-03-31T15:05:32Z</time>
      </trkpt>
      <trkpt lat="42.22932" lon="2.70552">
        <ele>298.217</ele>
        <time>2012-03-31T15:05:34Z</time>
      </trkpt>
      <trkpt lat="42.22909" lon="2.70541">
        <ele>300.157</ele>
        <time>2012-03-31T15:05:45Z</time>
      </trkpt>
      <trkpt lat="42.22895" lon="2.70525">
        <ele>300.192</ele>
        <time>2012-03-31T15:05:57Z</time>
      </trkpt>
      <trkpt lat="42.22875" lon="2.70512">
        <ele>299.637</ele>
        <time>2012-03-31T15:06:12Z</time>
      </trkpt>
      <trkpt lat="42.22872" lon="2.70509">
        <ele>299.18</ele>
        <time>2012-03-31T15:06:15Z</time>
      </trkpt>
      <trkpt lat="42.22865" lon="2.70495">
        <ele>299.629</ele>
        <time>2012-03-31T15:06:23Z</time>
      </trkpt>
      <trkpt lat="42.2286" lon="2.70489">
        <ele>300.649</ele>
        <time>2012-03-31T15:06:27Z</time>
      </trkpt>
      <trkpt lat="42.22841" lon="2.70458">
        <ele>303.002</ele>
        <time>2012-03-31T15:06:44Z</time>
      </trkpt>
      <trkpt lat="42.22826" lon="2.70431">
        <ele>306.322</ele>
        <time>2012-03-31T15:07:00Z</time>
      </trkpt>
      <trkpt lat="42.22809" lon="2.70391">
        <ele>306.807</ele>
        <time>2012-03-31T15:07:15Z</time>
      </trkpt>
      <trkpt lat="42.2279" lon="2.70336">
        <ele>306.346</ele>
        <time>2012-03-31T15:07:31Z</time>
      </trkpt>
      <trkpt lat="42.22788" lon="2.70315">
        <ele>305.48</ele>
        <time>2012-03-31T15:07:39Z</time>
      </trkpt>
      <trkpt lat="42.22763" lon="2.703">
        <ele>308.24</ele>
        <time>2012-03-31T15:07:55Z</time>
      </trkpt>
      <trkpt lat="42.22732" lon="2.70292">
        <ele>311.615</ele>
        <time>2012-03-31T15:08:13Z</time>
      </trkpt>
      <trkpt lat="42.22711" lon="2.70277">
        <ele>312.63</ele>
        <time>2012-03-31T15:08:28Z</time>
      </trkpt>
      <trkpt lat="42.22706" lon="2.70276">
        <ele>312.653</ele>
        <time>2012-03-31T15:08:32Z</time>
      </trkpt>
      <trkpt lat="42.22684" lon="2.70273">
        <ele>315.552</ele>
        <time>2012-03-31T15:08:48Z</time>
      </trkpt>
      <trkpt lat="42.22676" lon="2.70271">
        <ele>316.984</ele>
        <time>2012-03-31T15:08:54Z</time>
      </trkpt>
      <trkpt lat="42.22666" lon="2.7027">
        <ele>319.307</ele>
        <time>2012-03-31T15:09:04Z</time>
      </trkpt>
      <trkpt lat="42.22655" lon="2.70265">
        <ele>323.117</ele>
        <time>2012-03-31T15:09:18Z</time>
      </trkpt>
      <trkpt lat="42.2265" lon="2.70254">
        <ele>326.007</ele>
        <time>2012-03-31T15:09:31Z</time>
      </trkpt>
      <trkpt lat="42.22643" lon="2.70247">
        <ele>329.47</ele>
        <time>2012-03-31T15:09:44Z</time>
      </trkpt>
      <trkpt lat="42.22631" lon="2.70236">
        <ele>333.754</ele>
        <time>2012-03-31T15:09:59Z</time>
      </trkpt>
      <trkpt lat="42.22617" lon="2.70206">
        <ele>331.394</ele>
        <time>2012-03-31T15:10:17Z</time>
      </trkpt>
      <trkpt lat="42.22616" lon="2.70204">
        <ele>330.479</ele>
        <time>2012-03-31T15:10:18Z</time>
      </trkpt>
      <trkpt lat="42.22605" lon="2.70181">
        <ele>328.014</ele>
        <time>2012-03-31T15:10:27Z</time>
      </trkpt>
      <trkpt lat="42.22599" lon="2.70161">
        <ele>325.117</ele>
        <time>2012-03-31T15:10:37Z</time>
      </trkpt>
      <trkpt lat="42.22594" lon="2.70141">
        <ele>323.646</ele>
        <time>2012-03-31T15:10:45Z</time>
      </trkpt>
      <trkpt lat="42.22588" lon="2.70126">
        <ele>322.214</ele>
        <time>2012-03-31T15:10:53Z</time>
      </trkpt>
      <trkpt lat="42.22569" lon="2.70082">
        <ele>319.854</ele>
        <time>2012-03-31T15:11:07Z</time>
      </trkpt>
      <trkpt lat="42.2256" lon="2.70029">
        <ele>318.309</ele>
        <time>2012-03-31T15:11:20Z</time>
      </trkpt>
      <trkpt lat="42.22552" lon="2.7002">
        <ele>318.307</ele>
        <time>2012-03-31T15:11:24Z</time>
      </trkpt>
      <trkpt lat="42.22529" lon="2.69984">
        <ele>315.513</ele>
        <time>2012-03-31T15:11:39Z</time>
      </trkpt>
      <trkpt lat="42.22525" lon="2.69969">
        <ele>315.017</ele>
        <time>2012-03-31T15:11:44Z</time>
      </trkpt>
      <trkpt lat="42.22516" lon="2.69953">
        <ele>314.527</ele>
        <time>2012-03-31T15:11:49Z</time>
      </trkpt>
      <trkpt lat="42.22509" lon="2.69943">
        <ele>314.072</ele>
        <time>2012-03-31T15:11:53Z</time>
      </trkpt>
      <trkpt lat="42.22469" lon="2.69896">
        <ele>313.167</ele>
        <time>2012-03-31T15:12:10Z</time>
      </trkpt>
      <trkpt lat="42.22468" lon="2.69894">
        <ele>312.68</ele>
        <time>2012-03-31T15:12:11Z</time>
      </trkpt>
      <trkpt lat="42.22449" lon="2.69856">
        <ele>311.699</ele>
        <time>2012-03-31T15:12:25Z</time>
      </trkpt>
      <trkpt lat="42.22445" lon="2.69846">
        <ele>311.626</ele>
        <time>2012-03-31T15:12:30Z</time>
      </trkpt>
      <trkpt lat="42.22407" lon="2.69839">
        <ele>311.147</ele>
        <time>2012-03-31T15:12:42Z</time>
      </trkpt>
      <trkpt lat="42.22374" lon="2.69837">
        <ele>309.211</ele>
        <time>2012-03-31T15:12:54Z</time>
      </trkpt>
      <trkpt lat="42.22367" lon="2.69826">
        <ele>305.807</ele>
        <time>2012-03-31T15:13:02Z</time>
      </trkpt>
      <trkpt lat="42.22363" lon="2.69813">
        <ele>303.034</ele>
        <time>2012-03-31T15:13:11Z</time>
      </trkpt>
      <trkpt lat="42.22359" lon="2.69794">
        <ele>299.688</ele>
        <time>2012-03-31T15:13:18Z</time>
      </trkpt>
      <trkpt lat="42.22358" lon="2.69776">
        <ele>296.788</ele>
        <time>2012-03-31T15:13:26Z</time>
      </trkpt>
      <trkpt lat="42.22359" lon="2.6975">
        <ele>293.353</ele>
        <time>2012-03-31T15:13:36Z</time>
      </trkpt>
      <trkpt lat="42.22355" lon="2.69747">
        <ele>292.428</ele>
        <time>2012-03-31T15:13:40Z</time>
      </trkpt>
      <trkpt lat="42.22334" lon="2.69742">
        <ele>290.051</ele>
        <time>2012-03-31T15:13:50Z</time>
      </trkpt>
      <trkpt lat="42.223" lon="2.69736">
        <ele>289.09</ele>
        <time>2012-03-31T15:14:02Z</time>
      </trkpt>
      <trkpt lat="42.22262" lon="2.69762">
        <ele>287.635</ele>
        <time>2012-03-31T15:14:15Z</time>
      </trkpt>
      <trkpt lat="42.22234" lon="2.69791">
        <ele>286.686</ele>
        <time>2012-03-31T15:14:28Z</time>
      </trkpt>
      <trkpt lat="42.2221" lon="2.69798">
        <ele>284.214</ele>
        <time>2012-03-31T15:14:39Z</time>
      </trkpt>
      <trkpt lat="42.222" lon="2.69797">
        <ele>283.307</ele>
        <time>2012-03-31T15:14:45Z</time>
      </trkpt>
      <trkpt lat="42.2219" lon="2.6977">
        <ele>280.825</ele>
        <time>2012-03-31T15:14:56Z</time>
      </trkpt>
      <trkpt lat="42.22178" lon="2.6977">
        <ele>279.949</ele>
        <time>2012-03-31T15:15:01Z</time>
      </trkpt>
      <trkpt lat="42.22171" lon="2.69767">
        <ele>278.959</ele>
        <time>2012-03-31T15:15:04Z</time>
      </trkpt>
      <trkpt lat="42.22153" lon="2.69757">
        <ele>275.664</ele>
        <time>2012-03-31T15:15:11Z</time>
      </trkpt>
      <trkpt lat="42.22143" lon="2.69748">
        <ele>273.279</ele>
        <time>2012-03-31T15:15:16Z</time>
      </trkpt>
      <trkpt lat="42.22139" lon="2.69742">
        <ele>272.282</ele>
        <time>2012-03-31T15:15:18Z</time>
      </trkpt>
      <trkpt lat="42.22132" lon="2.69732">
        <ele>271.751</ele>
        <time>2012-03-31T15:15:22Z</time>
      </trkpt>
      <trkpt lat="42.22128" lon="2.69724">
        <ele>270.351</ele>
        <time>2012-03-31T15:15:26Z</time>
      </trkpt>
      <trkpt lat="42.22119" lon="2.69717">
        <ele>266.901</ele>
        <time>2012-03-31T15:15:31Z</time>
      </trkpt>
      <trkpt lat="42.22114" lon="2.6971">
        <ele>265.511</ele>
        <time>2012-03-31T15:15:35Z</time>
      </trkpt>
      <trkpt lat="42.22102" lon="2.69702">
        <ele>261.107</ele>
        <time>2012-03-31T15:15:42Z</time>
      </trkpt>
      <trkpt lat="42.22099" lon="2.69701">
        <ele>260.737</ele>
        <time>2012-03-31T15:15:43Z</time>
      </trkpt>
      <trkpt lat="42.22088" lon="2.69705">
        <ele>257.881</ele>
        <time>2012-03-31T15:15:48Z</time>
      </trkpt>
      <trkpt lat="42.22078" lon="2.69715">
        <ele>256.841</ele>
        <time>2012-03-31T15:15:52Z</time>
      </trkpt>
      <trkpt lat="42.22068" lon="2.69723">
        <ele>255.916</ele>
        <time>2012-03-31T15:15:56Z</time>
      </trkpt>
      <trkpt lat="42.22059" lon="2.69726">
        <ele>254.981</ele>
        <time>2012-03-31T15:16:02Z</time>
      </trkpt>
      <trkpt lat="42.22054" lon="2.69721">
        <ele>253.494</ele>
        <time>2012-03-31T15:16:06Z</time>
      </trkpt>
      <trkpt lat="42.2205" lon="2.69716">
        <ele>251.563</ele>
        <time>2012-03-31T15:16:09Z</time>
      </trkpt>
      <trkpt lat="42.2203" lon="2.69692">
        <ele>248.229</ele>
        <time>2012-03-31T15:16:23Z</time>
      </trkpt>
      <trkpt lat="42.21997" lon="2.69667">
        <ele>245.3</ele>
        <time>2012-03-31T15:16:36Z</time>
      </trkpt>
      <trkpt lat="42.21974" lon="2.69629">
        <ele>243.42</ele>
        <time>2012-03-31T15:16:51Z</time>
      </trkpt>
      <trkpt lat="42.21968" lon="2.6961">
        <ele>242.907</ele>
        <time>2012-03-31T15:16:57Z</time>
      </trkpt>
      <trkpt lat="42.21965" lon="2.69582">
        <ele>241.054</ele>
        <time>2012-03-31T15:17:08Z</time>
      </trkpt>
      <trkpt lat="42.21952" lon="2.69556">
        <ele>243.498</ele>
        <time>2012-03-31T15:17:23Z</time>
      </trkpt>
      <trkpt lat="42.21948" lon="2.69551">
        <ele>243.898</ele>
        <time>2012-03-31T15:17:27Z</time>
      </trkpt>
      <trkpt lat="42.21915" lon="2.69535">
        <ele>245.363</ele>
        <time>2012-03-31T15:17:41Z</time>
      </trkpt>
      <trkpt lat="42.21933" lon="2.69532">
        <ele>247.718</ele>
        <time>2012-03-31T15:17:56Z</time>
      </trkpt>
      <trkpt lat="42.21922" lon="2.69516">
        <ele>250.681</ele>
        <time>2012-03-31T15:18:12Z</time>
      </trkpt>
      <trkpt lat="42.21911" lon="2.69508">
        <ele>251.56</ele>
        <time>2012-03-31T15:18:20Z</time>
      </trkpt>
      <trkpt lat="42.21884" lon="2.6949">
        <ele>253.928</ele>
        <time>2012-03-31T15:18:36Z</time>
      </trkpt>
      <trkpt lat="42.21861" lon="2.69477">
        <ele>254.489</ele>
        <time>2012-03-31T15:18:48Z</time>
      </trkpt>
      <trkpt lat="42.2186" lon="2.69465">
        <ele>253.917</ele>
        <time>2012-03-31T15:18:56Z</time>
      </trkpt>
      <trkpt lat="42.2185" lon="2.69452">
        <ele>253.007</ele>
        <time>2012-03-31T15:19:00Z</time>
      </trkpt>
      <trkpt lat="42.2185" lon="2.69448">
        <ele>252.024</ele>
        <time>2012-03-31T15:19:02Z</time>
      </trkpt>
      <trkpt lat="42.21849" lon="2.69444">
        <ele>251.538</ele>
        <time>2012-03-31T15:19:04Z</time>
      </trkpt>
      <trkpt lat="42.21847" lon="2.69441">
        <ele>250.628</ele>
        <time>2012-03-31T15:19:06Z</time>
      </trkpt>
      <trkpt lat="42.21833" lon="2.69412">
        <ele>247.773</ele>
        <time>2012-03-31T15:19:17Z</time>
      </trkpt>
      <trkpt lat="42.21831" lon="2.69409">
        <ele>247.768</ele>
        <time>2012-03-31T15:19:18Z</time>
      </trkpt>
      <trkpt lat="42.2183" lon="2.69407">
        <ele>247.741</ele>
        <time>2012-03-31T15:19:19Z</time>
      </trkpt>
      <trkpt lat="42.21818" lon="2.69379">
        <ele>243.84</ele>
        <time>2012-03-31T15:19:28Z</time>
      </trkpt>
      <trkpt lat="42.21817" lon="2.69377">
        <ele>243.895</ele>
        <time>2012-03-31T15:19:29Z</time>
      </trkpt>
      <trkpt lat="42.21812" lon="2.69362">
        <ele>241.049</ele>
        <time>2012-03-31T15:19:34Z</time>
      </trkpt>
      <trkpt lat="42.21777" lon="2.69334">
        <ele>241.023</ele>
        <time>2012-03-31T15:19:48Z</time>
      </trkpt>
      <trkpt lat="42.21772" lon="2.69327">
        <ele>241.407</ele>
        <time>2012-03-31T15:19:51Z</time>
      </trkpt>
      <trkpt lat="42.21751" lon="2.69306">
        <ele>241.431</ele>
        <time>2012-03-31T15:20:04Z</time>
      </trkpt>
      <trkpt lat="42.21731" lon="2.69282">
        <ele>242.435</ele>
        <time>2012-03-31T15:20:16Z</time>
      </trkpt>
      <trkpt lat="42.21701" lon="2.69267">
        <ele>241.995</ele>
        <time>2012-03-31T15:20:30Z</time>
      </trkpt>
      <trkpt lat="42.21661" lon="2.69255">
        <ele>241.06</ele>
        <time>2012-03-31T15:20:45Z</time>
      </trkpt>
      <trkpt lat="42.21634" lon="2.69237">
        <ele>241.075</ele>
        <time>2012-03-31T15:21:00Z</time>
      </trkpt>
      <trkpt lat="42.21603" lon="2.6921">
        <ele>242.458</ele>
        <time>2012-03-31T15:21:15Z</time>
      </trkpt>
      <trkpt lat="42.21575" lon="2.69178">
        <ele>245.367</ele>
        <time>2012-03-31T15:21:33Z</time>
      </trkpt>
      <trkpt lat="42.21554" lon="2.69158">
        <ele>247.276</ele>
        <time>2012-03-31T15:21:46Z</time>
      </trkpt>
      <trkpt lat="42.21515" lon="2.69142">
        <ele>247.29</ele>
        <time>2012-03-31T15:22:02Z</time>
      </trkpt>
      <trkpt lat="42.21501" lon="2.69133">
        <ele>245.319</ele>
        <time>2012-03-31T15:22:09Z</time>
      </trkpt>
      <trkpt lat="42.21499" lon="2.69131">
        <ele>245.307</ele>
        <time>2012-03-31T15:22:10Z</time>
      </trkpt>
      <trkpt lat="42.21492" lon="2.69117">
        <ele>243.469</ele>
        <time>2012-03-31T15:22:17Z</time>
      </trkpt>
      <trkpt lat="42.21492" lon="2.69115">
        <ele>243.443</ele>
        <time>2012-03-31T15:22:18Z</time>
      </trkpt>
      <trkpt lat="42.2148" lon="2.69101">
        <ele>239.513</ele>
        <time>2012-03-31T15:22:27Z</time>
      </trkpt>
      <trkpt lat="42.2145" lon="2.69091">
        <ele>236.188</ele>
        <time>2012-03-31T15:22:39Z</time>
      </trkpt>
      <trkpt lat="42.2142" lon="2.69073">
        <ele>234.233</ele>
        <time>2012-03-31T15:22:52Z</time>
      </trkpt>
      <trkpt lat="42.21418" lon="2.69071">
        <ele>233.736</ele>
        <time>2012-03-31T15:22:53Z</time>
      </trkpt>
      <trkpt lat="42.21401" lon="2.69044">
        <ele>233.355</ele>
        <time>2012-03-31T15:23:03Z</time>
      </trkpt>
      <trkpt lat="42.21389" lon="2.6902">
        <ele>229.995</ele>
        <time>2012-03-31T15:23:11Z</time>
      </trkpt>
      <trkpt lat="42.21375" lon="2.68999">
        <ele>226.549</ele>
        <time>2012-03-31T15:23:18Z</time>
      </trkpt>
      <trkpt lat="42.21363" lon="2.6898">
        <ele>224.123</ele>
        <time>2012-03-31T15:23:24Z</time>
      </trkpt>
      <trkpt lat="42.21337" lon="2.6895">
        <ele>223.207</ele>
        <time>2012-03-31T15:23:37Z</time>
      </trkpt>
      <trkpt lat="42.21305" lon="2.68929">
        <ele>223.211</ele>
        <time>2012-03-31T15:23:49Z</time>
      </trkpt>
      <trkpt lat="42.2128" lon="2.68925">
        <ele>226.125</ele>
        <time>2012-03-31T15:23:56Z</time>
      </trkpt>
      <trkpt lat="42.21254" lon="2.68911">
        <ele>229.935</ele>
        <time>2012-03-31T15:24:07Z</time>
      </trkpt>
      <trkpt lat="42.21251" lon="2.68909">
        <ele>228.94</ele>
        <time>2012-03-31T15:24:08Z</time>
      </trkpt>
      <trkpt lat="42.21231" lon="2.68888">
        <ele>229.485</ele>
        <time>2012-03-31T15:24:19Z</time>
      </trkpt>
      <trkpt lat="42.21206" lon="2.68867">
        <ele>230.978</ele>
        <time>2012-03-31T15:24:30Z</time>
      </trkpt>
      <trkpt lat="42.21175" lon="2.68849">
        <ele>231.817</ele>
        <time>2012-03-31T15:24:43Z</time>
      </trkpt>
      <trkpt lat="42.21142" lon="2.68837">
        <ele>233.365</ele>
        <time>2012-03-31T15:24:55Z</time>
      </trkpt>
      <trkpt lat="42.21106" lon="2.68824">
        <ele>233.768</ele>
        <time>2012-03-31T15:25:09Z</time>
      </trkpt>
      <trkpt lat="42.21077" lon="2.68838">
        <ele>230.414</ele>
        <time>2012-03-31T15:25:20Z</time>
      </trkpt>
      <trkpt lat="42.21054" lon="2.68848">
        <ele>227.507</ele>
        <time>2012-03-31T15:25:32Z</time>
      </trkpt>
      <trkpt lat="42.21028" lon="2.68841">
        <ele>225.698</ele>
        <time>2012-03-31T15:25:42Z</time>
      </trkpt>
      <trkpt lat="42.21023" lon="2.68847">
        <ele>225.132</ele>
        <time>2012-03-31T15:25:45Z</time>
      </trkpt>
      <trkpt lat="42.21019" lon="2.68853">
        <ele>223.662</ele>
        <time>2012-03-31T15:25:47Z</time>
      </trkpt>
      <trkpt lat="42.21019" lon="2.68864">
        <ele>221.787</ele>
        <time>2012-03-31T15:25:50Z</time>
      </trkpt>
      <trkpt lat="42.21018" lon="2.68871">
        <ele>220.882</ele>
        <time>2012-03-31T15:25:52Z</time>
      </trkpt>
      <trkpt lat="42.21005" lon="2.68901">
        <ele>219.355</ele>
        <time>2012-03-31T15:26:00Z</time>
      </trkpt>
      <trkpt lat="42.20976" lon="2.68942">
        <ele>217.944</ele>
        <time>2012-03-31T15:26:12Z</time>
      </trkpt>
      <trkpt lat="42.2094" lon="2.68969">
        <ele>216.094</ele>
        <time>2012-03-31T15:26:26Z</time>
      </trkpt>
      <trkpt lat="42.20901" lon="2.68981">
        <ele>215.057</ele>
        <time>2012-03-31T15:26:41Z</time>
      </trkpt>
      <trkpt lat="42.20868" lon="2.68976">
        <ele>214.522</ele>
        <time>2012-03-31T15:26:53Z</time>
      </trkpt>
      <trkpt lat="42.20817" lon="2.68986">
        <ele>214.007</ele>
        <time>2012-03-31T15:27:10Z</time>
      </trkpt>
      <trkpt lat="42.20784" lon="2.69002">
        <ele>215.061</ele>
        <time>2012-03-31T15:27:21Z</time>
      </trkpt>
      <trkpt lat="42.20742" lon="2.69026">
        <ele>215.595</ele>
        <time>2012-03-31T15:27:37Z</time>
      </trkpt>
      <trkpt lat="42.20701" lon="2.69055">
        <ele>215.015</ele>
        <time>2012-03-31T15:27:54Z</time>
      </trkpt>
      <trkpt lat="42.20686" lon="2.69071">
        <ele>213.66</ele>
        <time>2012-03-31T15:28:00Z</time>
      </trkpt>
      <trkpt lat="42.20682" lon="2.69089">
        <ele>212.615</ele>
        <time>2012-03-31T15:28:05Z</time>
      </trkpt>
      <trkpt lat="42.20684" lon="2.69147">
        <ele>210.728</ele>
        <time>2012-03-31T15:28:20Z</time>
      </trkpt>
      <trkpt lat="42.20687" lon="2.69192">
        <ele>207.827</ele>
        <time>2012-03-31T15:28:31Z</time>
      </trkpt>
      <trkpt lat="42.2069" lon="2.69223">
        <ele>205.435</ele>
        <time>2012-03-31T15:28:38Z</time>
      </trkpt>
      <trkpt lat="42.20691" lon="2.69261">
        <ele>202.586</ele>
        <time>2012-03-31T15:28:46Z</time>
      </trkpt>
      <trkpt lat="42.20698" lon="2.693">
        <ele>199.114</ele>
        <time>2012-03-31T15:28:55Z</time>
      </trkpt>
      <trkpt lat="42.20703" lon="2.69344">
        <ele>195.807</ele>
        <time>2012-03-31T15:29:05Z</time>
      </trkpt>
      <trkpt lat="42.20708" lon="2.69391">
        <ele>192.945</ele>
        <time>2012-03-31T15:29:16Z</time>
      </trkpt>
      <trkpt lat="42.20713" lon="2.69438">
        <ele>190.529</ele>
        <time>2012-03-31T15:29:27Z</time>
      </trkpt>
      <trkpt lat="42.20715" lon="2.6948">
        <ele>189.529</ele>
        <time>2012-03-31T15:29:37Z</time>
      </trkpt>
      <trkpt lat="42.20712" lon="2.69504">
        <ele>188.624</ele>
        <time>2012-03-31T15:29:44Z</time>
      </trkpt>
      <trkpt lat="42.20707" lon="2.69524">
        <ele>187.639</ele>
        <time>2012-03-31T15:29:50Z</time>
      </trkpt>
      <trkpt lat="42.20699" lon="2.69535">
        <ele>183.882</ele>
        <time>2012-03-31T15:29:54Z</time>
      </trkpt>
      <trkpt lat="42.20688" lon="2.69549">
        <ele>182.811</ele>
        <time>2012-03-31T15:30:00Z</time>
      </trkpt>
      <trkpt lat="42.20683" lon="2.69562">
        <ele>180.474</ele>
        <time>2012-03-31T15:30:04Z</time>
      </trkpt>
      <trkpt lat="42.20686" lon="2.6958">
        <ele>183.356</ele>
        <time>2012-03-31T15:30:11Z</time>
      </trkpt>
      <trkpt lat="42.20695" lon="2.69642">
        <ele>182.821</ele>
        <time>2012-03-31T15:30:30Z</time>
      </trkpt>
      <trkpt lat="42.20701" lon="2.69731">
        <ele>181.407</ele>
        <time>2012-03-31T15:30:53Z</time>
      </trkpt>
      <trkpt lat="42.20696" lon="2.69749">
        <ele>180.479</ele>
        <time>2012-03-31T15:31:00Z</time>
      </trkpt>
      <trkpt lat="42.20667" lon="2.69755">
        <ele>179.493</ele>
        <time>2012-03-31T15:31:12Z</time>
      </trkpt>
      <trkpt lat="42.20633" lon="2.69752">
        <ele>178.523</ele>
        <time>2012-03-31T15:31:27Z</time>
      </trkpt>
      <trkpt lat="42.20598" lon="2.6973">
        <ele>177.068</ele>
        <time>2012-03-31T15:31:40Z</time>
      </trkpt>
      <trkpt lat="42.20572" lon="2.69718">
        <ele>176.543</ele>
        <time>2012-03-31T15:31:53Z</time>
      </trkpt>
      <trkpt lat="42.20561" lon="2.69716">
        <ele>176.196</ele>
        <time>2012-03-31T15:31:57Z</time>
      </trkpt>
      <trkpt lat="42.20525" lon="2.69738">
        <ele>173.725</ele>
        <time>2012-03-31T15:32:10Z</time>
      </trkpt>
      <trkpt lat="42.20487" lon="2.69749">
        <ele>172.246</ele>
        <time>2012-03-31T15:32:24Z</time>
      </trkpt>
      <trkpt lat="42.20465" lon="2.69744">
        <ele>172.788</ele>
        <time>2012-03-31T15:32:35Z</time>
      </trkpt>
      <trkpt lat="42.20455" lon="2.69711">
        <ele>172.216</ele>
        <time>2012-03-31T15:32:48Z</time>
      </trkpt>
      <trkpt lat="42.20421" lon="2.697">
        <ele>172.707</ele>
        <time>2012-03-31T15:33:01Z</time>
      </trkpt>
      <trkpt lat="42.20389" lon="2.69696">
        <ele>171.396</ele>
        <time>2012-03-31T15:33:14Z</time>
      </trkpt>
      <trkpt lat="42.20371" lon="2.69683">
        <ele>172.26</ele>
        <time>2012-03-31T15:33:25Z</time>
      </trkpt>
      <trkpt lat="42.20367" lon="2.69679">
        <ele>172.73</ele>
        <time>2012-03-31T15:33:27Z</time>
      </trkpt>
      <trkpt lat="42.20353" lon="2.6962">
        <ele>173.745</ele>
        <time>2012-03-31T15:33:41Z</time>
      </trkpt>
      <trkpt lat="42.20355" lon="2.69603">
        <ele>174.14</ele>
        <time>2012-03-31T15:33:48Z</time>
      </trkpt>
      <trkpt lat="42.20331" lon="2.696">
        <ele>176.593</ele>
        <time>2012-03-31T15:34:04Z</time>
      </trkpt>
      <trkpt lat="42.2032" lon="2.69587">
        <ele>179.932</ele>
        <time>2012-03-31T15:34:13Z</time>
      </trkpt>
      <trkpt lat="42.20295" lon="2.69568">
        <ele>182.341</ele>
        <time>2012-03-31T15:34:32Z</time>
      </trkpt>
      <trkpt lat="42.20284" lon="2.6956">
        <ele>185.781</ele>
        <time>2012-03-31T15:34:45Z</time>
      </trkpt>
      <trkpt lat="42.20272" lon="2.6955">
        <ele>188.609</ele>
        <time>2012-03-31T15:34:56Z</time>
      </trkpt>
      <trkpt lat="42.2026" lon="2.69548">
        <ele>191.907</ele>
        <time>2012-03-31T15:35:09Z</time>
      </trkpt>
      <trkpt lat="42.20232" lon="2.69547">
        <ele>192.996</ele>
        <time>2012-03-31T15:35:25Z</time>
      </trkpt>
      <trkpt lat="42.20188" lon="2.69559">
        <ele>193.81</ele>
        <time>2012-03-31T15:35:40Z</time>
      </trkpt>
      <trkpt lat="42.20151" lon="2.69588">
        <ele>194.34</ele>
        <time>2012-03-31T15:35:55Z</time>
      </trkpt>
      <trkpt lat="42.20117" lon="2.69614">
        <ele>194.825</ele>
        <time>2012-03-31T15:36:09Z</time>
      </trkpt>
      <trkpt lat="42.20087" lon="2.69643">
        <ele>194.85</ele>
        <time>2012-03-31T15:36:22Z</time>
      </trkpt>
      <trkpt lat="42.20058" lon="2.69679">
        <ele>194.323</ele>
        <time>2012-03-31T15:36:37Z</time>
      </trkpt>
      <trkpt lat="42.20052" lon="2.69722">
        <ele>191.412</ele>
        <time>2012-03-31T15:36:48Z</time>
      </trkpt>
      <trkpt lat="42.20054" lon="2.69751">
        <ele>188.672</ele>
        <time>2012-03-31T15:36:56Z</time>
      </trkpt>
      <trkpt lat="42.20054" lon="2.69755">
        <ele>188.113</ele>
        <time>2012-03-31T15:36:57Z</time>
      </trkpt>
      <trkpt lat="42.20058" lon="2.69767">
        <ele>186.214</ele>
        <time>2012-03-31T15:37:01Z</time>
      </trkpt>
      <trkpt lat="42.20061" lon="2.69775">
        <ele>183.807</ele>
        <time>2012-03-31T15:37:05Z</time>
      </trkpt>
      <trkpt lat="42.20063" lon="2.69778">
        <ele>180.429</ele>
        <time>2012-03-31T15:37:13Z</time>
      </trkpt>
      <trkpt lat="42.20063" lon="2.69777">
        <ele>177.593</ele>
        <time>2012-03-31T15:37:20Z</time>
      </trkpt>
      <trkpt lat="42.20059" lon="2.69784">
        <ele>177.553</ele>
        <time>2012-03-31T15:37:24Z</time>
      </trkpt>
      <trkpt lat="42.20058" lon="2.6979">
        <ele>177.528</ele>
        <time>2012-03-31T15:37:26Z</time>
      </trkpt>
      <trkpt lat="42.20057" lon="2.69803">
        <ele>177.053</ele>
        <time>2012-03-31T15:37:38Z</time>
      </trkpt>
      <trkpt lat="42.20048" lon="2.69797">
        <ele>177.546</ele>
        <time>2012-03-31T15:37:44Z</time>
      </trkpt>
      <trkpt lat="42.20034" lon="2.69758">
        <ele>178.595</ele>
        <time>2012-03-31T15:38:00Z</time>
      </trkpt>
      <trkpt lat="42.20035" lon="2.69725">
        <ele>176.571</ele>
        <time>2012-03-31T15:38:12Z</time>
      </trkpt>
      <trkpt lat="42.20034" lon="2.69722">
        <ele>175.141</ele>
        <time>2012-03-31T15:38:19Z</time>
      </trkpt>
      <trkpt lat="42.20015" lon="2.69704">
        <ele>174.115</ele>
        <time>2012-03-31T15:38:26Z</time>
      </trkpt>
      <trkpt lat="42.19958" lon="2.69692">
        <ele>174.107</ele>
        <time>2012-03-31T15:38:41Z</time>
      </trkpt>
      <trkpt lat="42.1993" lon="2.69706">
        <ele>174.189</ele>
        <time>2012-03-31T15:38:53Z</time>
      </trkpt>
      <trkpt lat="42.19903" lon="2.6973">
        <ele>174.123</ele>
        <time>2012-03-31T15:39:06Z</time>
      </trkpt>
      <trkpt lat="42.19856" lon="2.69757">
        <ele>174.113</ele>
        <time>2012-03-31T15:39:20Z</time>
      </trkpt>
      <trkpt lat="42.19821" lon="2.69766">
        <ele>172.798</ele>
        <time>2012-03-31T15:39:34Z</time>
      </trkpt>
      <trkpt lat="42.19798" lon="2.69766">
        <ele>170.863</ele>
        <time>2012-03-31T15:39:43Z</time>
      </trkpt>
      <trkpt lat="42.19794" lon="2.6982">
        <ele>172.216</ele>
        <time>2012-03-31T15:40:00Z</time>
      </trkpt>
      <trkpt lat="42.19797" lon="2.69823">
        <ele>172.765</ele>
        <time>2012-03-31T15:40:01Z</time>
      </trkpt>
      <trkpt lat="42.19812" lon="2.69842">
        <ele>173.214</ele>
        <time>2012-03-31T15:40:10Z</time>
      </trkpt>
      <trkpt lat="42.19814" lon="2.69882">
        <ele>172.254</ele>
        <time>2012-03-31T15:40:21Z</time>
      </trkpt>
      <trkpt lat="42.19808" lon="2.69909">
        <ele>170.809</ele>
        <time>2012-03-31T15:40:26Z</time>
      </trkpt>
      <trkpt lat="42.19816" lon="2.69925">
        <ele>169.807</ele>
        <time>2012-03-31T15:40:34Z</time>
      </trkpt>
      <trkpt lat="42.1982" lon="2.6993">
        <ele>168.983</ele>
        <time>2012-03-31T15:40:39Z</time>
      </trkpt>
      <trkpt lat="42.19821" lon="2.69946">
        <ele>167.937</ele>
        <time>2012-03-31T15:40:44Z</time>
      </trkpt>
      <trkpt lat="42.19833" lon="2.70003">
        <ele>165.587</ele>
        <time>2012-03-31T15:40:58Z</time>
      </trkpt>
      <trkpt lat="42.19842" lon="2.7">
        <ele>167.492</ele>
        <time>2012-03-31T15:41:03Z</time>
      </trkpt>
      <trkpt lat="42.19858" lon="2.69988">
        <ele>170.847</ele>
        <time>2012-03-31T15:41:14Z</time>
      </trkpt>
      <trkpt lat="42.19857" lon="2.69968">
        <ele>173.75</ele>
        <time>2012-03-31T15:41:30Z</time>
      </trkpt>
      <trkpt lat="42.19874" lon="2.69959">
        <ele>173.759</ele>
        <time>2012-03-31T15:41:36Z</time>
      </trkpt>
      <trkpt lat="42.19883" lon="2.69963">
        <ele>173.221</ele>
        <time>2012-03-31T15:41:40Z</time>
      </trkpt>
      <trkpt lat="42.19903" lon="2.69991">
        <ele>171.341</ele>
        <time>2012-03-31T15:41:58Z</time>
      </trkpt>
      <trkpt lat="42.19911" lon="2.69999">
        <ele>170.805</ele>
        <time>2012-03-31T15:42:01Z</time>
      </trkpt>
      <trkpt lat="42.19923" lon="2.70047">
        <ele>171.307</ele>
        <time>2012-03-31T15:42:13Z</time>
      </trkpt>
      <trkpt lat="42.19923" lon="2.70051">
        <ele>171.754</ele>
        <time>2012-03-31T15:42:14Z</time>
      </trkpt>
      <trkpt lat="42.1993" lon="2.70112">
        <ele>171.728</ele>
        <time>2012-03-31T15:42:28Z</time>
      </trkpt>
      <trkpt lat="42.19931" lon="2.70152">
        <ele>172.228</ele>
        <time>2012-03-31T15:42:39Z</time>
      </trkpt>
      <trkpt lat="42.19919" lon="2.70181">
        <ele>171.723</ele>
        <time>2012-03-31T15:42:48Z</time>
      </trkpt>
      <trkpt lat="42.19909" lon="2.702">
        <ele>169.898</ele>
        <time>2012-03-31T15:42:54Z</time>
      </trkpt>
      <trkpt lat="42.19881" lon="2.70236">
        <ele>170.871</ele>
        <time>2012-03-31T15:43:08Z</time>
      </trkpt>
      <trkpt lat="42.19877" lon="2.70248">
        <ele>170.87</ele>
        <time>2012-03-31T15:43:13Z</time>
      </trkpt>
      <trkpt lat="42.1987" lon="2.70272">
        <ele>170.865</ele>
        <time>2012-03-31T15:43:22Z</time>
      </trkpt>
      <trkpt lat="42.19869" lon="2.70274">
        <ele>170.868</ele>
        <time>2012-03-31T15:43:23Z</time>
      </trkpt>
      <trkpt lat="42.19863" lon="2.70279">
        <ele>170.314</ele>
        <time>2012-03-31T15:43:40Z</time>
      </trkpt>
      <trkpt lat="42.19859" lon="2.70274">
        <ele>170.807</ele>
        <time>2012-03-31T15:43:54Z</time>
      </trkpt>
      <trkpt lat="42.19858" lon="2.70273">
        <ele>170.388</ele>
        <time>2012-03-31T15:44:09Z</time>
      </trkpt>
    </trkseg>
  </trk>
</gpx>